<?xml version="1.0" encoding="UTF-8" standalone="no" ?>
<gpx xmlns="http://www.topografix.com/GPX/1/1" xmlns:xsi="http://www.w3.org/2001/XMLSchema-instance" xsi:schemaLocation="http://www.topografix.com/GPX/1/1 http://www.topografix.com/GPX/1/1/gpx.xsd" version="1.1" creator="VisuGPX - https://www.visugpx.com">
  <metadata>
    <name>Tour du Pelvas SE-N</name>
    <desc><![CDATA[grp_trc:]]></desc>
  </metadata>
  <trk>
    <name><![CDATA[4 janv. 2022]]></name>
    <cmt><![CDATA[09:41:44]]></cmt>
    <desc><![CDATA[comment ...]]></desc>
    <trkseg>
      <trkpt lat="44.76579" lon="6.98414">
        <ele>1616</ele>
        <time>2022-01-04T08:41:45Z</time>
      </trkpt>
      <trkpt lat="44.76583" lon="6.98414">
        <ele>1616</ele>
        <time>2022-01-04T08:41:46Z</time>
      </trkpt>
      <trkpt lat="44.76584" lon="6.98414">
        <ele>1616</ele>
        <time>2022-01-04T08:41:49Z</time>
      </trkpt>
      <trkpt lat="44.76586" lon="6.98404">
        <ele>1616</ele>
        <time>2022-01-04T08:41:51Z</time>
      </trkpt>
      <trkpt lat="44.76588" lon="6.98404">
        <ele>1616</ele>
        <time>2022-01-04T08:41:54Z</time>
      </trkpt>
      <trkpt lat="44.7659" lon="6.98404">
        <ele>1617</ele>
        <time>2022-01-04T08:42:03Z</time>
      </trkpt>
      <trkpt lat="44.76592" lon="6.98405">
        <ele>1617</ele>
        <time>2022-01-04T08:42:08Z</time>
      </trkpt>
      <trkpt lat="44.76594" lon="6.98403">
        <ele>1617</ele>
        <time>2022-01-04T08:42:10Z</time>
      </trkpt>
      <trkpt lat="44.76594" lon="6.984">
        <ele>1618</ele>
        <time>2022-01-04T08:42:12Z</time>
      </trkpt>
      <trkpt lat="44.76594" lon="6.98398">
        <ele>1618</ele>
        <time>2022-01-04T08:42:14Z</time>
      </trkpt>
      <trkpt lat="44.76595" lon="6.98395">
        <ele>1618</ele>
        <time>2022-01-04T08:42:16Z</time>
      </trkpt>
      <trkpt lat="44.76597" lon="6.98394">
        <ele>1618</ele>
        <time>2022-01-04T08:42:18Z</time>
      </trkpt>
      <trkpt lat="44.76599" lon="6.98395">
        <ele>1620</ele>
        <time>2022-01-04T08:42:20Z</time>
      </trkpt>
      <trkpt lat="44.76599" lon="6.98397">
        <ele>1620</ele>
        <time>2022-01-04T08:42:22Z</time>
      </trkpt>
      <trkpt lat="44.76598" lon="6.98399">
        <ele>1621</ele>
        <time>2022-01-04T08:42:24Z</time>
      </trkpt>
      <trkpt lat="44.76597" lon="6.98401">
        <ele>1621</ele>
        <time>2022-01-04T08:42:27Z</time>
      </trkpt>
      <trkpt lat="44.76596" lon="6.98402">
        <ele>1622</ele>
        <time>2022-01-04T08:42:59Z</time>
      </trkpt>
      <trkpt lat="44.76598" lon="6.984">
        <ele>1622</ele>
        <time>2022-01-04T08:43:04Z</time>
      </trkpt>
      <trkpt lat="44.76604" lon="6.98395">
        <ele>1623</ele>
        <time>2022-01-04T08:43:11Z</time>
      </trkpt>
      <trkpt lat="44.76608" lon="6.9839">
        <ele>1623</ele>
        <time>2022-01-04T08:43:15Z</time>
      </trkpt>
      <trkpt lat="44.7661" lon="6.98387">
        <ele>1624</ele>
        <time>2022-01-04T08:43:17Z</time>
      </trkpt>
      <trkpt lat="44.76612" lon="6.98387">
        <ele>1624</ele>
        <time>2022-01-04T08:43:19Z</time>
      </trkpt>
      <trkpt lat="44.76615" lon="6.98387">
        <ele>1625</ele>
        <time>2022-01-04T08:43:21Z</time>
      </trkpt>
      <trkpt lat="44.76617" lon="6.98385">
        <ele>1625</ele>
        <time>2022-01-04T08:43:23Z</time>
      </trkpt>
      <trkpt lat="44.7662" lon="6.98384">
        <ele>1626</ele>
        <time>2022-01-04T08:43:25Z</time>
      </trkpt>
      <trkpt lat="44.76622" lon="6.98387">
        <ele>1627</ele>
        <time>2022-01-04T08:43:27Z</time>
      </trkpt>
      <trkpt lat="44.76624" lon="6.9839">
        <ele>1627</ele>
        <time>2022-01-04T08:43:29Z</time>
      </trkpt>
      <trkpt lat="44.76629" lon="6.98391">
        <ele>1628</ele>
        <time>2022-01-04T08:43:35Z</time>
      </trkpt>
      <trkpt lat="44.76633" lon="6.98391">
        <ele>1629</ele>
        <time>2022-01-04T08:43:40Z</time>
      </trkpt>
      <trkpt lat="44.76634" lon="6.98394">
        <ele>1629</ele>
        <time>2022-01-04T08:43:44Z</time>
      </trkpt>
      <trkpt lat="44.76635" lon="6.98397">
        <ele>1630</ele>
        <time>2022-01-04T08:43:46Z</time>
      </trkpt>
      <trkpt lat="44.76636" lon="6.98401">
        <ele>1630</ele>
        <time>2022-01-04T08:43:52Z</time>
      </trkpt>
      <trkpt lat="44.76639" lon="6.98404">
        <ele>1632</ele>
        <time>2022-01-04T08:44:22Z</time>
      </trkpt>
      <trkpt lat="44.76645" lon="6.98405">
        <ele>1633</ele>
        <time>2022-01-04T08:44:29Z</time>
      </trkpt>
      <trkpt lat="44.76646" lon="6.98407">
        <ele>1635</ele>
        <time>2022-01-04T08:44:33Z</time>
      </trkpt>
      <trkpt lat="44.76645" lon="6.98408">
        <ele>1636</ele>
        <time>2022-01-04T08:44:41Z</time>
      </trkpt>
      <trkpt lat="44.76649" lon="6.98408">
        <ele>1636</ele>
        <time>2022-01-04T08:45:00Z</time>
      </trkpt>
      <trkpt lat="44.76652" lon="6.98409">
        <ele>1636</ele>
        <time>2022-01-04T08:45:04Z</time>
      </trkpt>
      <trkpt lat="44.76654" lon="6.98409">
        <ele>1636</ele>
        <time>2022-01-04T08:45:06Z</time>
      </trkpt>
      <trkpt lat="44.76656" lon="6.98408">
        <ele>1636</ele>
        <time>2022-01-04T08:45:10Z</time>
      </trkpt>
      <trkpt lat="44.76659" lon="6.98409">
        <ele>1636</ele>
        <time>2022-01-04T08:45:13Z</time>
      </trkpt>
      <trkpt lat="44.76661" lon="6.9841">
        <ele>1634</ele>
        <time>2022-01-04T08:45:19Z</time>
      </trkpt>
      <trkpt lat="44.76663" lon="6.98411">
        <ele>1633</ele>
        <time>2022-01-04T08:45:22Z</time>
      </trkpt>
      <trkpt lat="44.76664" lon="6.98413">
        <ele>1633</ele>
        <time>2022-01-04T08:45:24Z</time>
      </trkpt>
      <trkpt lat="44.76669" lon="6.98417">
        <ele>1635</ele>
        <time>2022-01-04T08:45:33Z</time>
      </trkpt>
      <trkpt lat="44.76673" lon="6.9842">
        <ele>1637</ele>
        <time>2022-01-04T08:45:39Z</time>
      </trkpt>
      <trkpt lat="44.76674" lon="6.98422">
        <ele>1637</ele>
        <time>2022-01-04T08:45:41Z</time>
      </trkpt>
      <trkpt lat="44.76676" lon="6.98423">
        <ele>1638</ele>
        <time>2022-01-04T08:45:44Z</time>
      </trkpt>
      <trkpt lat="44.76678" lon="6.98424">
        <ele>1639</ele>
        <time>2022-01-04T08:45:51Z</time>
      </trkpt>
      <trkpt lat="44.7668" lon="6.98425">
        <ele>1639</ele>
        <time>2022-01-04T08:45:53Z</time>
      </trkpt>
      <trkpt lat="44.76687" lon="6.98431">
        <ele>1640</ele>
        <time>2022-01-04T08:46:02Z</time>
      </trkpt>
      <trkpt lat="44.76688" lon="6.98432">
        <ele>1640</ele>
        <time>2022-01-04T08:46:04Z</time>
      </trkpt>
      <trkpt lat="44.76691" lon="6.98435">
        <ele>1641</ele>
        <time>2022-01-04T08:46:08Z</time>
      </trkpt>
      <trkpt lat="44.767" lon="6.9844">
        <ele>1644</ele>
        <time>2022-01-04T08:46:20Z</time>
      </trkpt>
      <trkpt lat="44.76702" lon="6.98441">
        <ele>1645</ele>
        <time>2022-01-04T08:46:22Z</time>
      </trkpt>
      <trkpt lat="44.76705" lon="6.98446">
        <ele>1646</ele>
        <time>2022-01-04T08:46:26Z</time>
      </trkpt>
      <trkpt lat="44.76707" lon="6.98447">
        <ele>1648</ele>
        <time>2022-01-04T08:46:28Z</time>
      </trkpt>
      <trkpt lat="44.76711" lon="6.98449">
        <ele>1649</ele>
        <time>2022-01-04T08:46:32Z</time>
      </trkpt>
      <trkpt lat="44.76712" lon="6.98451">
        <ele>1650</ele>
        <time>2022-01-04T08:46:35Z</time>
      </trkpt>
      <trkpt lat="44.76722" lon="6.98456">
        <ele>1650</ele>
        <time>2022-01-04T08:46:45Z</time>
      </trkpt>
      <trkpt lat="44.76728" lon="6.9846">
        <ele>1651</ele>
        <time>2022-01-04T08:46:56Z</time>
      </trkpt>
      <trkpt lat="44.7673" lon="6.98461">
        <ele>1651</ele>
        <time>2022-01-04T08:47:00Z</time>
      </trkpt>
      <trkpt lat="44.76733" lon="6.98465">
        <ele>1653</ele>
        <time>2022-01-04T08:47:19Z</time>
      </trkpt>
      <trkpt lat="44.76737" lon="6.98469">
        <ele>1654</ele>
        <time>2022-01-04T08:47:25Z</time>
      </trkpt>
      <trkpt lat="44.76738" lon="6.9847">
        <ele>1654</ele>
        <time>2022-01-04T08:47:28Z</time>
      </trkpt>
      <trkpt lat="44.7674" lon="6.98471">
        <ele>1654</ele>
        <time>2022-01-04T08:47:30Z</time>
      </trkpt>
      <trkpt lat="44.76742" lon="6.98473">
        <ele>1654</ele>
        <time>2022-01-04T08:47:33Z</time>
      </trkpt>
      <trkpt lat="44.76743" lon="6.98473">
        <ele>1653</ele>
        <time>2022-01-04T08:47:36Z</time>
      </trkpt>
      <trkpt lat="44.76746" lon="6.98472">
        <ele>1652</ele>
        <time>2022-01-04T08:47:44Z</time>
      </trkpt>
      <trkpt lat="44.76751" lon="6.98475">
        <ele>1653</ele>
        <time>2022-01-04T08:47:52Z</time>
      </trkpt>
      <trkpt lat="44.76753" lon="6.98477">
        <ele>1653</ele>
        <time>2022-01-04T08:47:55Z</time>
      </trkpt>
      <trkpt lat="44.76758" lon="6.98483">
        <ele>1654</ele>
        <time>2022-01-04T08:48:03Z</time>
      </trkpt>
      <trkpt lat="44.76759" lon="6.98485">
        <ele>1654</ele>
        <time>2022-01-04T08:48:05Z</time>
      </trkpt>
      <trkpt lat="44.76765" lon="6.98494">
        <ele>1656</ele>
        <time>2022-01-04T08:48:13Z</time>
      </trkpt>
      <trkpt lat="44.76767" lon="6.98495">
        <ele>1656</ele>
        <time>2022-01-04T08:48:15Z</time>
      </trkpt>
      <trkpt lat="44.7677" lon="6.98499">
        <ele>1657</ele>
        <time>2022-01-04T08:48:19Z</time>
      </trkpt>
      <trkpt lat="44.76776" lon="6.98509">
        <ele>1659</ele>
        <time>2022-01-04T08:48:31Z</time>
      </trkpt>
      <trkpt lat="44.76777" lon="6.98512">
        <ele>1660</ele>
        <time>2022-01-04T08:48:34Z</time>
      </trkpt>
      <trkpt lat="44.76779" lon="6.98515">
        <ele>1660</ele>
        <time>2022-01-04T08:48:37Z</time>
      </trkpt>
      <trkpt lat="44.7678" lon="6.98515">
        <ele>1661</ele>
        <time>2022-01-04T08:48:39Z</time>
      </trkpt>
      <trkpt lat="44.76782" lon="6.98517">
        <ele>1661</ele>
        <time>2022-01-04T08:48:41Z</time>
      </trkpt>
      <trkpt lat="44.76784" lon="6.98519">
        <ele>1662</ele>
        <time>2022-01-04T08:48:44Z</time>
      </trkpt>
      <trkpt lat="44.7679" lon="6.98538">
        <ele>1664</ele>
        <time>2022-01-04T08:49:01Z</time>
      </trkpt>
      <trkpt lat="44.76791" lon="6.9854">
        <ele>1665</ele>
        <time>2022-01-04T08:49:03Z</time>
      </trkpt>
      <trkpt lat="44.76793" lon="6.98548">
        <ele>1665</ele>
        <time>2022-01-04T08:49:10Z</time>
      </trkpt>
      <trkpt lat="44.76794" lon="6.98551">
        <ele>1665</ele>
        <time>2022-01-04T08:49:13Z</time>
      </trkpt>
      <trkpt lat="44.76797" lon="6.98557">
        <ele>1666</ele>
        <time>2022-01-04T08:49:21Z</time>
      </trkpt>
      <trkpt lat="44.76799" lon="6.98559">
        <ele>1666</ele>
        <time>2022-01-04T08:49:26Z</time>
      </trkpt>
      <trkpt lat="44.768" lon="6.98561">
        <ele>1666</ele>
        <time>2022-01-04T08:49:28Z</time>
      </trkpt>
      <trkpt lat="44.76802" lon="6.98564">
        <ele>1666</ele>
        <time>2022-01-04T08:49:30Z</time>
      </trkpt>
      <trkpt lat="44.76804" lon="6.98565">
        <ele>1667</ele>
        <time>2022-01-04T08:49:32Z</time>
      </trkpt>
      <trkpt lat="44.76805" lon="6.98567">
        <ele>1667</ele>
        <time>2022-01-04T08:49:34Z</time>
      </trkpt>
      <trkpt lat="44.76808" lon="6.98569">
        <ele>1667</ele>
        <time>2022-01-04T08:49:36Z</time>
      </trkpt>
      <trkpt lat="44.76811" lon="6.98572">
        <ele>1668</ele>
        <time>2022-01-04T08:49:40Z</time>
      </trkpt>
      <trkpt lat="44.76813" lon="6.98574">
        <ele>1668</ele>
        <time>2022-01-04T08:49:42Z</time>
      </trkpt>
      <trkpt lat="44.76815" lon="6.98574">
        <ele>1668</ele>
        <time>2022-01-04T08:49:45Z</time>
      </trkpt>
      <trkpt lat="44.76816" lon="6.98575">
        <ele>1668</ele>
        <time>2022-01-04T08:49:47Z</time>
      </trkpt>
      <trkpt lat="44.76818" lon="6.98577">
        <ele>1669</ele>
        <time>2022-01-04T08:49:49Z</time>
      </trkpt>
      <trkpt lat="44.7682" lon="6.98578">
        <ele>1669</ele>
        <time>2022-01-04T08:49:52Z</time>
      </trkpt>
      <trkpt lat="44.76821" lon="6.9858">
        <ele>1670</ele>
        <time>2022-01-04T08:49:54Z</time>
      </trkpt>
      <trkpt lat="44.76823" lon="6.9858">
        <ele>1670</ele>
        <time>2022-01-04T08:49:57Z</time>
      </trkpt>
      <trkpt lat="44.76826" lon="6.98581">
        <ele>1670</ele>
        <time>2022-01-04T08:49:59Z</time>
      </trkpt>
      <trkpt lat="44.76827" lon="6.98583">
        <ele>1670</ele>
        <time>2022-01-04T08:50:01Z</time>
      </trkpt>
      <trkpt lat="44.7683" lon="6.98583">
        <ele>1670</ele>
        <time>2022-01-04T08:50:03Z</time>
      </trkpt>
      <trkpt lat="44.76832" lon="6.98584">
        <ele>1671</ele>
        <time>2022-01-04T08:50:07Z</time>
      </trkpt>
      <trkpt lat="44.76834" lon="6.98585">
        <ele>1671</ele>
        <time>2022-01-04T08:50:09Z</time>
      </trkpt>
      <trkpt lat="44.76838" lon="6.98584">
        <ele>1670</ele>
        <time>2022-01-04T08:50:15Z</time>
      </trkpt>
      <trkpt lat="44.7684" lon="6.98582">
        <ele>1670</ele>
        <time>2022-01-04T08:50:18Z</time>
      </trkpt>
      <trkpt lat="44.76842" lon="6.98579">
        <ele>1671</ele>
        <time>2022-01-04T08:50:20Z</time>
      </trkpt>
      <trkpt lat="44.76846" lon="6.98578">
        <ele>1673</ele>
        <time>2022-01-04T08:50:24Z</time>
      </trkpt>
      <trkpt lat="44.76848" lon="6.98579">
        <ele>1674</ele>
        <time>2022-01-04T08:50:27Z</time>
      </trkpt>
      <trkpt lat="44.76852" lon="6.98582">
        <ele>1675</ele>
        <time>2022-01-04T08:50:31Z</time>
      </trkpt>
      <trkpt lat="44.76855" lon="6.98583">
        <ele>1676</ele>
        <time>2022-01-04T08:50:33Z</time>
      </trkpt>
      <trkpt lat="44.76864" lon="6.98594">
        <ele>1680</ele>
        <time>2022-01-04T08:50:44Z</time>
      </trkpt>
      <trkpt lat="44.76866" lon="6.98596">
        <ele>1680</ele>
        <time>2022-01-04T08:50:46Z</time>
      </trkpt>
      <trkpt lat="44.76868" lon="6.98596">
        <ele>1681</ele>
        <time>2022-01-04T08:50:48Z</time>
      </trkpt>
      <trkpt lat="44.76869" lon="6.98598">
        <ele>1681</ele>
        <time>2022-01-04T08:50:51Z</time>
      </trkpt>
      <trkpt lat="44.7687" lon="6.98601">
        <ele>1681</ele>
        <time>2022-01-04T08:50:55Z</time>
      </trkpt>
      <trkpt lat="44.76872" lon="6.98603">
        <ele>1682</ele>
        <time>2022-01-04T08:50:58Z</time>
      </trkpt>
      <trkpt lat="44.76875" lon="6.98606">
        <ele>1682</ele>
        <time>2022-01-04T08:51:03Z</time>
      </trkpt>
      <trkpt lat="44.76881" lon="6.9861">
        <ele>1684</ele>
        <time>2022-01-04T08:51:12Z</time>
      </trkpt>
      <trkpt lat="44.76884" lon="6.98617">
        <ele>1686</ele>
        <time>2022-01-04T08:51:20Z</time>
      </trkpt>
      <trkpt lat="44.76887" lon="6.98621">
        <ele>1686</ele>
        <time>2022-01-04T08:51:26Z</time>
      </trkpt>
      <trkpt lat="44.76888" lon="6.98623">
        <ele>1686</ele>
        <time>2022-01-04T08:51:28Z</time>
      </trkpt>
      <trkpt lat="44.76891" lon="6.98634">
        <ele>1688</ele>
        <time>2022-01-04T08:51:34Z</time>
      </trkpt>
      <trkpt lat="44.76891" lon="6.98637">
        <ele>1690</ele>
        <time>2022-01-04T08:51:38Z</time>
      </trkpt>
      <trkpt lat="44.76891" lon="6.98641">
        <ele>1691</ele>
        <time>2022-01-04T08:51:43Z</time>
      </trkpt>
      <trkpt lat="44.76893" lon="6.98643">
        <ele>1691</ele>
        <time>2022-01-04T08:51:46Z</time>
      </trkpt>
      <trkpt lat="44.76895" lon="6.98644">
        <ele>1692</ele>
        <time>2022-01-04T08:51:48Z</time>
      </trkpt>
      <trkpt lat="44.769" lon="6.98641">
        <ele>1692</ele>
        <time>2022-01-04T08:51:52Z</time>
      </trkpt>
      <trkpt lat="44.76902" lon="6.98639">
        <ele>1692</ele>
        <time>2022-01-04T08:51:54Z</time>
      </trkpt>
      <trkpt lat="44.76913" lon="6.98623">
        <ele>1692</ele>
        <time>2022-01-04T08:52:09Z</time>
      </trkpt>
      <trkpt lat="44.76914" lon="6.98621">
        <ele>1692</ele>
        <time>2022-01-04T08:52:11Z</time>
      </trkpt>
      <trkpt lat="44.76916" lon="6.98616">
        <ele>1692</ele>
        <time>2022-01-04T08:52:16Z</time>
      </trkpt>
      <trkpt lat="44.76918" lon="6.98615">
        <ele>1692</ele>
        <time>2022-01-04T08:52:19Z</time>
      </trkpt>
      <trkpt lat="44.7692" lon="6.98614">
        <ele>1692</ele>
        <time>2022-01-04T08:52:21Z</time>
      </trkpt>
      <trkpt lat="44.76922" lon="6.98613">
        <ele>1692</ele>
        <time>2022-01-04T08:52:24Z</time>
      </trkpt>
      <trkpt lat="44.76924" lon="6.98612">
        <ele>1692</ele>
        <time>2022-01-04T08:52:26Z</time>
      </trkpt>
      <trkpt lat="44.76925" lon="6.98609">
        <ele>1692</ele>
        <time>2022-01-04T08:52:28Z</time>
      </trkpt>
      <trkpt lat="44.76937" lon="6.98597">
        <ele>1691</ele>
        <time>2022-01-04T08:52:44Z</time>
      </trkpt>
      <trkpt lat="44.76941" lon="6.9859">
        <ele>1692</ele>
        <time>2022-01-04T08:52:53Z</time>
      </trkpt>
      <trkpt lat="44.76945" lon="6.98589">
        <ele>1693</ele>
        <time>2022-01-04T08:52:58Z</time>
      </trkpt>
      <trkpt lat="44.76947" lon="6.98589">
        <ele>1694</ele>
        <time>2022-01-04T08:53:01Z</time>
      </trkpt>
      <trkpt lat="44.76949" lon="6.98589">
        <ele>1695</ele>
        <time>2022-01-04T08:53:04Z</time>
      </trkpt>
      <trkpt lat="44.76951" lon="6.98591">
        <ele>1695</ele>
        <time>2022-01-04T08:53:07Z</time>
      </trkpt>
      <trkpt lat="44.76952" lon="6.98592">
        <ele>1696</ele>
        <time>2022-01-04T08:53:11Z</time>
      </trkpt>
      <trkpt lat="44.76954" lon="6.98591">
        <ele>1696</ele>
        <time>2022-01-04T08:53:14Z</time>
      </trkpt>
      <trkpt lat="44.76956" lon="6.98589">
        <ele>1697</ele>
        <time>2022-01-04T08:53:16Z</time>
      </trkpt>
      <trkpt lat="44.76957" lon="6.98588">
        <ele>1697</ele>
        <time>2022-01-04T08:53:18Z</time>
      </trkpt>
      <trkpt lat="44.76962" lon="6.98582">
        <ele>1698</ele>
        <time>2022-01-04T08:53:26Z</time>
      </trkpt>
      <trkpt lat="44.76963" lon="6.98581">
        <ele>1699</ele>
        <time>2022-01-04T08:53:28Z</time>
      </trkpt>
      <trkpt lat="44.76964" lon="6.98578">
        <ele>1699</ele>
        <time>2022-01-04T08:53:30Z</time>
      </trkpt>
      <trkpt lat="44.76965" lon="6.98576">
        <ele>1699</ele>
        <time>2022-01-04T08:53:33Z</time>
      </trkpt>
      <trkpt lat="44.76966" lon="6.98575">
        <ele>1699</ele>
        <time>2022-01-04T08:53:35Z</time>
      </trkpt>
      <trkpt lat="44.76968" lon="6.98573">
        <ele>1700</ele>
        <time>2022-01-04T08:53:38Z</time>
      </trkpt>
      <trkpt lat="44.76968" lon="6.9857">
        <ele>1700</ele>
        <time>2022-01-04T08:53:41Z</time>
      </trkpt>
      <trkpt lat="44.76976" lon="6.98566">
        <ele>1700</ele>
        <time>2022-01-04T08:53:49Z</time>
      </trkpt>
      <trkpt lat="44.76978" lon="6.98566">
        <ele>1700</ele>
        <time>2022-01-04T08:53:51Z</time>
      </trkpt>
      <trkpt lat="44.76983" lon="6.98563">
        <ele>1700</ele>
        <time>2022-01-04T08:53:57Z</time>
      </trkpt>
      <trkpt lat="44.76986" lon="6.98558">
        <ele>1702</ele>
        <time>2022-01-04T08:54:03Z</time>
      </trkpt>
      <trkpt lat="44.76988" lon="6.98558">
        <ele>1703</ele>
        <time>2022-01-04T08:54:06Z</time>
      </trkpt>
      <trkpt lat="44.76989" lon="6.98561">
        <ele>1705</ele>
        <time>2022-01-04T08:54:13Z</time>
      </trkpt>
      <trkpt lat="44.76991" lon="6.98563">
        <ele>1706</ele>
        <time>2022-01-04T08:54:16Z</time>
      </trkpt>
      <trkpt lat="44.76993" lon="6.98562">
        <ele>1706</ele>
        <time>2022-01-04T08:54:20Z</time>
      </trkpt>
      <trkpt lat="44.76993" lon="6.98559">
        <ele>1706</ele>
        <time>2022-01-04T08:54:23Z</time>
      </trkpt>
      <trkpt lat="44.76994" lon="6.98557">
        <ele>1707</ele>
        <time>2022-01-04T08:54:26Z</time>
      </trkpt>
      <trkpt lat="44.76995" lon="6.98554">
        <ele>1707</ele>
        <time>2022-01-04T08:54:29Z</time>
      </trkpt>
      <trkpt lat="44.76996" lon="6.98552">
        <ele>1707</ele>
        <time>2022-01-04T08:54:31Z</time>
      </trkpt>
      <trkpt lat="44.77" lon="6.98549">
        <ele>1708</ele>
        <time>2022-01-04T08:54:36Z</time>
      </trkpt>
      <trkpt lat="44.77002" lon="6.98548">
        <ele>1708</ele>
        <time>2022-01-04T08:54:38Z</time>
      </trkpt>
      <trkpt lat="44.77004" lon="6.98548">
        <ele>1708</ele>
        <time>2022-01-04T08:54:40Z</time>
      </trkpt>
      <trkpt lat="44.77006" lon="6.98547">
        <ele>1708</ele>
        <time>2022-01-04T08:54:42Z</time>
      </trkpt>
      <trkpt lat="44.7701" lon="6.98545">
        <ele>1710</ele>
        <time>2022-01-04T08:54:49Z</time>
      </trkpt>
      <trkpt lat="44.77011" lon="6.98543">
        <ele>1710</ele>
        <time>2022-01-04T08:54:54Z</time>
      </trkpt>
      <trkpt lat="44.77014" lon="6.98539">
        <ele>1711</ele>
        <time>2022-01-04T08:55:00Z</time>
      </trkpt>
      <trkpt lat="44.77016" lon="6.98538">
        <ele>1712</ele>
        <time>2022-01-04T08:55:03Z</time>
      </trkpt>
      <trkpt lat="44.77018" lon="6.98537">
        <ele>1712</ele>
        <time>2022-01-04T08:55:05Z</time>
      </trkpt>
      <trkpt lat="44.77024" lon="6.98536">
        <ele>1713</ele>
        <time>2022-01-04T08:55:10Z</time>
      </trkpt>
      <trkpt lat="44.77027" lon="6.98536">
        <ele>1714</ele>
        <time>2022-01-04T08:55:13Z</time>
      </trkpt>
      <trkpt lat="44.77029" lon="6.98534">
        <ele>1714</ele>
        <time>2022-01-04T08:55:16Z</time>
      </trkpt>
      <trkpt lat="44.7703" lon="6.98533">
        <ele>1714</ele>
        <time>2022-01-04T08:55:18Z</time>
      </trkpt>
      <trkpt lat="44.77036" lon="6.98535">
        <ele>1716</ele>
        <time>2022-01-04T08:55:27Z</time>
      </trkpt>
      <trkpt lat="44.77037" lon="6.98538">
        <ele>1717</ele>
        <time>2022-01-04T08:55:30Z</time>
      </trkpt>
      <trkpt lat="44.77039" lon="6.9854">
        <ele>1718</ele>
        <time>2022-01-04T08:55:35Z</time>
      </trkpt>
      <trkpt lat="44.77038" lon="6.98542">
        <ele>1717</ele>
        <time>2022-01-04T08:55:40Z</time>
      </trkpt>
      <trkpt lat="44.77036" lon="6.98542">
        <ele>1716</ele>
        <time>2022-01-04T08:55:43Z</time>
      </trkpt>
      <trkpt lat="44.77035" lon="6.98543">
        <ele>1715</ele>
        <time>2022-01-04T08:55:46Z</time>
      </trkpt>
      <trkpt lat="44.77033" lon="6.98544">
        <ele>1715</ele>
        <time>2022-01-04T08:55:49Z</time>
      </trkpt>
      <trkpt lat="44.77033" lon="6.98546">
        <ele>1714</ele>
        <time>2022-01-04T08:55:53Z</time>
      </trkpt>
      <trkpt lat="44.77034" lon="6.98548">
        <ele>1714</ele>
        <time>2022-01-04T08:55:56Z</time>
      </trkpt>
      <trkpt lat="44.77034" lon="6.98554">
        <ele>1714</ele>
        <time>2022-01-04T08:56:01Z</time>
      </trkpt>
      <trkpt lat="44.77035" lon="6.98556">
        <ele>1714</ele>
        <time>2022-01-04T08:56:06Z</time>
      </trkpt>
      <trkpt lat="44.77036" lon="6.98558">
        <ele>1715</ele>
        <time>2022-01-04T08:56:11Z</time>
      </trkpt>
      <trkpt lat="44.77038" lon="6.98559">
        <ele>1716</ele>
        <time>2022-01-04T08:56:14Z</time>
      </trkpt>
      <trkpt lat="44.7704" lon="6.98559">
        <ele>1717</ele>
        <time>2022-01-04T08:56:18Z</time>
      </trkpt>
      <trkpt lat="44.77042" lon="6.98559">
        <ele>1719</ele>
        <time>2022-01-04T08:56:21Z</time>
      </trkpt>
      <trkpt lat="44.77044" lon="6.9856">
        <ele>1720</ele>
        <time>2022-01-04T08:56:23Z</time>
      </trkpt>
      <trkpt lat="44.77046" lon="6.98559">
        <ele>1721</ele>
        <time>2022-01-04T08:56:26Z</time>
      </trkpt>
      <trkpt lat="44.77048" lon="6.98559">
        <ele>1722</ele>
        <time>2022-01-04T08:56:28Z</time>
      </trkpt>
      <trkpt lat="44.7705" lon="6.98559">
        <ele>1723</ele>
        <time>2022-01-04T08:56:31Z</time>
      </trkpt>
      <trkpt lat="44.77052" lon="6.98559">
        <ele>1724</ele>
        <time>2022-01-04T08:56:34Z</time>
      </trkpt>
      <trkpt lat="44.77056" lon="6.98557">
        <ele>1725</ele>
        <time>2022-01-04T08:56:39Z</time>
      </trkpt>
      <trkpt lat="44.77058" lon="6.98556">
        <ele>1725</ele>
        <time>2022-01-04T08:56:41Z</time>
      </trkpt>
      <trkpt lat="44.77059" lon="6.98554">
        <ele>1726</ele>
        <time>2022-01-04T08:56:44Z</time>
      </trkpt>
      <trkpt lat="44.77062" lon="6.98547">
        <ele>1727</ele>
        <time>2022-01-04T08:56:53Z</time>
      </trkpt>
      <trkpt lat="44.77066" lon="6.98545">
        <ele>1729</ele>
        <time>2022-01-04T08:56:59Z</time>
      </trkpt>
      <trkpt lat="44.77068" lon="6.98548">
        <ele>1732</ele>
        <time>2022-01-04T08:57:10Z</time>
      </trkpt>
      <trkpt lat="44.77069" lon="6.98551">
        <ele>1732</ele>
        <time>2022-01-04T08:57:12Z</time>
      </trkpt>
      <trkpt lat="44.77071" lon="6.98558">
        <ele>1734</ele>
        <time>2022-01-04T08:57:20Z</time>
      </trkpt>
      <trkpt lat="44.77073" lon="6.98559">
        <ele>1735</ele>
        <time>2022-01-04T08:57:23Z</time>
      </trkpt>
      <trkpt lat="44.77073" lon="6.98562">
        <ele>1736</ele>
        <time>2022-01-04T08:57:26Z</time>
      </trkpt>
      <trkpt lat="44.77072" lon="6.98567">
        <ele>1737</ele>
        <time>2022-01-04T08:57:30Z</time>
      </trkpt>
      <trkpt lat="44.77071" lon="6.98569">
        <ele>1737</ele>
        <time>2022-01-04T08:57:33Z</time>
      </trkpt>
      <trkpt lat="44.77071" lon="6.98572">
        <ele>1737</ele>
        <time>2022-01-04T08:57:36Z</time>
      </trkpt>
      <trkpt lat="44.77071" lon="6.98575">
        <ele>1737</ele>
        <time>2022-01-04T08:57:40Z</time>
      </trkpt>
      <trkpt lat="44.77075" lon="6.98577">
        <ele>1738</ele>
        <time>2022-01-04T08:57:46Z</time>
      </trkpt>
      <trkpt lat="44.77078" lon="6.98577">
        <ele>1739</ele>
        <time>2022-01-04T08:57:49Z</time>
      </trkpt>
      <trkpt lat="44.77083" lon="6.98575">
        <ele>1740</ele>
        <time>2022-01-04T08:57:54Z</time>
      </trkpt>
      <trkpt lat="44.77087" lon="6.98571">
        <ele>1741</ele>
        <time>2022-01-04T08:57:59Z</time>
      </trkpt>
      <trkpt lat="44.77089" lon="6.98569">
        <ele>1742</ele>
        <time>2022-01-04T08:58:01Z</time>
      </trkpt>
      <trkpt lat="44.7709" lon="6.98567">
        <ele>1741</ele>
        <time>2022-01-04T08:58:03Z</time>
      </trkpt>
      <trkpt lat="44.77092" lon="6.98561">
        <ele>1741</ele>
        <time>2022-01-04T08:58:07Z</time>
      </trkpt>
      <trkpt lat="44.77094" lon="6.9856">
        <ele>1740</ele>
        <time>2022-01-04T08:58:09Z</time>
      </trkpt>
      <trkpt lat="44.77103" lon="6.98546">
        <ele>1740</ele>
        <time>2022-01-04T08:58:22Z</time>
      </trkpt>
      <trkpt lat="44.77108" lon="6.98539">
        <ele>1739</ele>
        <time>2022-01-04T08:58:28Z</time>
      </trkpt>
      <trkpt lat="44.77108" lon="6.98536">
        <ele>1739</ele>
        <time>2022-01-04T08:58:31Z</time>
      </trkpt>
      <trkpt lat="44.77108" lon="6.98532">
        <ele>1740</ele>
        <time>2022-01-04T08:58:33Z</time>
      </trkpt>
      <trkpt lat="44.77109" lon="6.98527">
        <ele>1741</ele>
        <time>2022-01-04T08:58:37Z</time>
      </trkpt>
      <trkpt lat="44.7711" lon="6.98525">
        <ele>1741</ele>
        <time>2022-01-04T08:58:39Z</time>
      </trkpt>
      <trkpt lat="44.77111" lon="6.9852">
        <ele>1742</ele>
        <time>2022-01-04T08:58:43Z</time>
      </trkpt>
      <trkpt lat="44.77113" lon="6.98518">
        <ele>1743</ele>
        <time>2022-01-04T08:58:46Z</time>
      </trkpt>
      <trkpt lat="44.77115" lon="6.98512">
        <ele>1744</ele>
        <time>2022-01-04T08:58:50Z</time>
      </trkpt>
      <trkpt lat="44.77117" lon="6.9851">
        <ele>1744</ele>
        <time>2022-01-04T08:58:52Z</time>
      </trkpt>
      <trkpt lat="44.77119" lon="6.98509">
        <ele>1745</ele>
        <time>2022-01-04T08:58:54Z</time>
      </trkpt>
      <trkpt lat="44.77124" lon="6.98503">
        <ele>1745</ele>
        <time>2022-01-04T08:59:00Z</time>
      </trkpt>
      <trkpt lat="44.77125" lon="6.985">
        <ele>1745</ele>
        <time>2022-01-04T08:59:03Z</time>
      </trkpt>
      <trkpt lat="44.77126" lon="6.98498">
        <ele>1746</ele>
        <time>2022-01-04T08:59:05Z</time>
      </trkpt>
      <trkpt lat="44.77127" lon="6.98494">
        <ele>1746</ele>
        <time>2022-01-04T08:59:09Z</time>
      </trkpt>
      <trkpt lat="44.77128" lon="6.98491">
        <ele>1747</ele>
        <time>2022-01-04T08:59:11Z</time>
      </trkpt>
      <trkpt lat="44.7713" lon="6.9849">
        <ele>1747</ele>
        <time>2022-01-04T08:59:13Z</time>
      </trkpt>
      <trkpt lat="44.77131" lon="6.9849">
        <ele>1747</ele>
        <time>2022-01-04T08:59:16Z</time>
      </trkpt>
      <trkpt lat="44.77133" lon="6.98492">
        <ele>1747</ele>
        <time>2022-01-04T08:59:20Z</time>
      </trkpt>
      <trkpt lat="44.77141" lon="6.98491">
        <ele>1747</ele>
        <time>2022-01-04T08:59:30Z</time>
      </trkpt>
      <trkpt lat="44.77143" lon="6.98489">
        <ele>1746</ele>
        <time>2022-01-04T08:59:32Z</time>
      </trkpt>
      <trkpt lat="44.77144" lon="6.98487">
        <ele>1746</ele>
        <time>2022-01-04T08:59:34Z</time>
      </trkpt>
      <trkpt lat="44.77146" lon="6.98485">
        <ele>1746</ele>
        <time>2022-01-04T08:59:37Z</time>
      </trkpt>
      <trkpt lat="44.77147" lon="6.98485">
        <ele>1747</ele>
        <time>2022-01-04T08:59:41Z</time>
      </trkpt>
      <trkpt lat="44.77149" lon="6.98485">
        <ele>1747</ele>
        <time>2022-01-04T08:59:44Z</time>
      </trkpt>
      <trkpt lat="44.7715" lon="6.98487">
        <ele>1748</ele>
        <time>2022-01-04T08:59:47Z</time>
      </trkpt>
      <trkpt lat="44.77156" lon="6.98494">
        <ele>1750</ele>
        <time>2022-01-04T08:59:53Z</time>
      </trkpt>
      <trkpt lat="44.77157" lon="6.98496">
        <ele>1751</ele>
        <time>2022-01-04T08:59:56Z</time>
      </trkpt>
      <trkpt lat="44.77161" lon="6.98498">
        <ele>1754</ele>
        <time>2022-01-04T09:00:07Z</time>
      </trkpt>
      <trkpt lat="44.77162" lon="6.98497">
        <ele>1755</ele>
        <time>2022-01-04T09:00:11Z</time>
      </trkpt>
      <trkpt lat="44.77165" lon="6.98496">
        <ele>1756</ele>
        <time>2022-01-04T09:00:14Z</time>
      </trkpt>
      <trkpt lat="44.77167" lon="6.98496">
        <ele>1756</ele>
        <time>2022-01-04T09:00:16Z</time>
      </trkpt>
      <trkpt lat="44.77171" lon="6.98497">
        <ele>1757</ele>
        <time>2022-01-04T09:00:22Z</time>
      </trkpt>
      <trkpt lat="44.77173" lon="6.985">
        <ele>1756</ele>
        <time>2022-01-04T09:00:25Z</time>
      </trkpt>
      <trkpt lat="44.77174" lon="6.98503">
        <ele>1755</ele>
        <time>2022-01-04T09:00:28Z</time>
      </trkpt>
      <trkpt lat="44.77175" lon="6.98506">
        <ele>1755</ele>
        <time>2022-01-04T09:00:31Z</time>
      </trkpt>
      <trkpt lat="44.77176" lon="6.98508">
        <ele>1754</ele>
        <time>2022-01-04T09:00:34Z</time>
      </trkpt>
      <trkpt lat="44.77177" lon="6.98506">
        <ele>1754</ele>
        <time>2022-01-04T09:00:41Z</time>
      </trkpt>
      <trkpt lat="44.77178" lon="6.98504">
        <ele>1755</ele>
        <time>2022-01-04T09:00:45Z</time>
      </trkpt>
      <trkpt lat="44.7718" lon="6.98502">
        <ele>1755</ele>
        <time>2022-01-04T09:00:48Z</time>
      </trkpt>
      <trkpt lat="44.77179" lon="6.985">
        <ele>1755</ele>
        <time>2022-01-04T09:00:50Z</time>
      </trkpt>
      <trkpt lat="44.77179" lon="6.98497">
        <ele>1755</ele>
        <time>2022-01-04T09:00:52Z</time>
      </trkpt>
      <trkpt lat="44.77179" lon="6.98495">
        <ele>1756</ele>
        <time>2022-01-04T09:00:54Z</time>
      </trkpt>
      <trkpt lat="44.7718" lon="6.98492">
        <ele>1756</ele>
        <time>2022-01-04T09:00:56Z</time>
      </trkpt>
      <trkpt lat="44.7718" lon="6.98489">
        <ele>1756</ele>
        <time>2022-01-04T09:00:58Z</time>
      </trkpt>
      <trkpt lat="44.77181" lon="6.98486">
        <ele>1756</ele>
        <time>2022-01-04T09:01:01Z</time>
      </trkpt>
      <trkpt lat="44.7718" lon="6.98484">
        <ele>1756</ele>
        <time>2022-01-04T09:01:03Z</time>
      </trkpt>
      <trkpt lat="44.77181" lon="6.98477">
        <ele>1757</ele>
        <time>2022-01-04T09:01:08Z</time>
      </trkpt>
      <trkpt lat="44.77181" lon="6.98475">
        <ele>1758</ele>
        <time>2022-01-04T09:01:11Z</time>
      </trkpt>
      <trkpt lat="44.77182" lon="6.98472">
        <ele>1758</ele>
        <time>2022-01-04T09:01:16Z</time>
      </trkpt>
      <trkpt lat="44.77183" lon="6.98469">
        <ele>1759</ele>
        <time>2022-01-04T09:01:19Z</time>
      </trkpt>
      <trkpt lat="44.77193" lon="6.98468">
        <ele>1766</ele>
        <time>2022-01-04T09:01:31Z</time>
      </trkpt>
      <trkpt lat="44.77194" lon="6.98465">
        <ele>1769</ele>
        <time>2022-01-04T09:01:58Z</time>
      </trkpt>
      <trkpt lat="44.77195" lon="6.98468">
        <ele>1769</ele>
        <time>2022-01-04T09:02:02Z</time>
      </trkpt>
      <trkpt lat="44.77197" lon="6.98469">
        <ele>1769</ele>
        <time>2022-01-04T09:02:08Z</time>
      </trkpt>
      <trkpt lat="44.77197" lon="6.98473">
        <ele>1769</ele>
        <time>2022-01-04T09:02:17Z</time>
      </trkpt>
      <trkpt lat="44.772" lon="6.98474">
        <ele>1769</ele>
        <time>2022-01-04T09:02:24Z</time>
      </trkpt>
      <trkpt lat="44.77202" lon="6.98475">
        <ele>1769</ele>
        <time>2022-01-04T09:02:31Z</time>
      </trkpt>
      <trkpt lat="44.77204" lon="6.98473">
        <ele>1770</ele>
        <time>2022-01-04T09:02:35Z</time>
      </trkpt>
      <trkpt lat="44.77206" lon="6.98472">
        <ele>1771</ele>
        <time>2022-01-04T09:02:38Z</time>
      </trkpt>
      <trkpt lat="44.77209" lon="6.98471">
        <ele>1772</ele>
        <time>2022-01-04T09:02:40Z</time>
      </trkpt>
      <trkpt lat="44.7721" lon="6.98469">
        <ele>1774</ele>
        <time>2022-01-04T09:02:43Z</time>
      </trkpt>
      <trkpt lat="44.77214" lon="6.98466">
        <ele>1777</ele>
        <time>2022-01-04T09:02:54Z</time>
      </trkpt>
      <trkpt lat="44.77218" lon="6.98468">
        <ele>1777</ele>
        <time>2022-01-04T09:02:59Z</time>
      </trkpt>
      <trkpt lat="44.77223" lon="6.98468">
        <ele>1777</ele>
        <time>2022-01-04T09:03:06Z</time>
      </trkpt>
      <trkpt lat="44.77228" lon="6.9847">
        <ele>1778</ele>
        <time>2022-01-04T09:03:14Z</time>
      </trkpt>
      <trkpt lat="44.77231" lon="6.9847">
        <ele>1778</ele>
        <time>2022-01-04T09:03:18Z</time>
      </trkpt>
      <trkpt lat="44.77241" lon="6.98469">
        <ele>1779</ele>
        <time>2022-01-04T09:03:31Z</time>
      </trkpt>
      <trkpt lat="44.77243" lon="6.9847">
        <ele>1779</ele>
        <time>2022-01-04T09:03:34Z</time>
      </trkpt>
      <trkpt lat="44.77245" lon="6.98471">
        <ele>1780</ele>
        <time>2022-01-04T09:03:36Z</time>
      </trkpt>
      <trkpt lat="44.77243" lon="6.98483">
        <ele>1779</ele>
        <time>2022-01-04T09:03:48Z</time>
      </trkpt>
      <trkpt lat="44.77243" lon="6.98486">
        <ele>1779</ele>
        <time>2022-01-04T09:03:51Z</time>
      </trkpt>
      <trkpt lat="44.77245" lon="6.98488">
        <ele>1779</ele>
        <time>2022-01-04T09:03:54Z</time>
      </trkpt>
      <trkpt lat="44.7725" lon="6.98491">
        <ele>1780</ele>
        <time>2022-01-04T09:04:01Z</time>
      </trkpt>
      <trkpt lat="44.7725" lon="6.98495">
        <ele>1780</ele>
        <time>2022-01-04T09:04:04Z</time>
      </trkpt>
      <trkpt lat="44.77252" lon="6.98497">
        <ele>1781</ele>
        <time>2022-01-04T09:04:11Z</time>
      </trkpt>
      <trkpt lat="44.77254" lon="6.98499">
        <ele>1781</ele>
        <time>2022-01-04T09:04:15Z</time>
      </trkpt>
      <trkpt lat="44.77255" lon="6.98505">
        <ele>1781</ele>
        <time>2022-01-04T09:04:20Z</time>
      </trkpt>
      <trkpt lat="44.77255" lon="6.98508">
        <ele>1781</ele>
        <time>2022-01-04T09:04:22Z</time>
      </trkpt>
      <trkpt lat="44.77255" lon="6.98511">
        <ele>1781</ele>
        <time>2022-01-04T09:04:24Z</time>
      </trkpt>
      <trkpt lat="44.77254" lon="6.98515">
        <ele>1780</ele>
        <time>2022-01-04T09:04:27Z</time>
      </trkpt>
      <trkpt lat="44.7725" lon="6.98519">
        <ele>1780</ele>
        <time>2022-01-04T09:04:32Z</time>
      </trkpt>
      <trkpt lat="44.77245" lon="6.98525">
        <ele>1780</ele>
        <time>2022-01-04T09:04:40Z</time>
      </trkpt>
      <trkpt lat="44.77243" lon="6.98526">
        <ele>1780</ele>
        <time>2022-01-04T09:04:43Z</time>
      </trkpt>
      <trkpt lat="44.77242" lon="6.98529">
        <ele>1781</ele>
        <time>2022-01-04T09:04:46Z</time>
      </trkpt>
      <trkpt lat="44.77241" lon="6.98532">
        <ele>1780</ele>
        <time>2022-01-04T09:04:50Z</time>
      </trkpt>
      <trkpt lat="44.7724" lon="6.98535">
        <ele>1781</ele>
        <time>2022-01-04T09:04:53Z</time>
      </trkpt>
      <trkpt lat="44.7724" lon="6.98537">
        <ele>1781</ele>
        <time>2022-01-04T09:04:58Z</time>
      </trkpt>
      <trkpt lat="44.77243" lon="6.98542">
        <ele>1785</ele>
        <time>2022-01-04T09:05:05Z</time>
      </trkpt>
      <trkpt lat="44.77251" lon="6.98548">
        <ele>1797</ele>
        <time>2022-01-04T09:05:23Z</time>
      </trkpt>
      <trkpt lat="44.77252" lon="6.9855">
        <ele>1799</ele>
        <time>2022-01-04T09:05:25Z</time>
      </trkpt>
      <trkpt lat="44.77253" lon="6.98552">
        <ele>1800</ele>
        <time>2022-01-04T09:05:28Z</time>
      </trkpt>
      <trkpt lat="44.77254" lon="6.98556">
        <ele>1800</ele>
        <time>2022-01-04T09:05:32Z</time>
      </trkpt>
      <trkpt lat="44.77255" lon="6.98562">
        <ele>1801</ele>
        <time>2022-01-04T09:05:40Z</time>
      </trkpt>
      <trkpt lat="44.77258" lon="6.98566">
        <ele>1802</ele>
        <time>2022-01-04T09:05:44Z</time>
      </trkpt>
      <trkpt lat="44.77259" lon="6.98569">
        <ele>1803</ele>
        <time>2022-01-04T09:05:47Z</time>
      </trkpt>
      <trkpt lat="44.7726" lon="6.98571">
        <ele>1803</ele>
        <time>2022-01-04T09:05:50Z</time>
      </trkpt>
      <trkpt lat="44.77261" lon="6.98574">
        <ele>1804</ele>
        <time>2022-01-04T09:05:56Z</time>
      </trkpt>
      <trkpt lat="44.77261" lon="6.9858">
        <ele>1804</ele>
        <time>2022-01-04T09:06:04Z</time>
      </trkpt>
      <trkpt lat="44.7726" lon="6.98583">
        <ele>1805</ele>
        <time>2022-01-04T09:06:07Z</time>
      </trkpt>
      <trkpt lat="44.7726" lon="6.98587">
        <ele>1806</ele>
        <time>2022-01-04T09:06:12Z</time>
      </trkpt>
      <trkpt lat="44.7726" lon="6.98592">
        <ele>1806</ele>
        <time>2022-01-04T09:06:18Z</time>
      </trkpt>
      <trkpt lat="44.77259" lon="6.98595">
        <ele>1806</ele>
        <time>2022-01-04T09:06:22Z</time>
      </trkpt>
      <trkpt lat="44.77259" lon="6.98598">
        <ele>1807</ele>
        <time>2022-01-04T09:06:27Z</time>
      </trkpt>
      <trkpt lat="44.77261" lon="6.98601">
        <ele>1807</ele>
        <time>2022-01-04T09:06:34Z</time>
      </trkpt>
      <trkpt lat="44.77264" lon="6.986">
        <ele>1807</ele>
        <time>2022-01-04T09:06:42Z</time>
      </trkpt>
      <trkpt lat="44.77266" lon="6.98598">
        <ele>1809</ele>
        <time>2022-01-04T09:06:45Z</time>
      </trkpt>
      <trkpt lat="44.77269" lon="6.98598">
        <ele>1809</ele>
        <time>2022-01-04T09:06:47Z</time>
      </trkpt>
      <trkpt lat="44.7727" lon="6.98597">
        <ele>1811</ele>
        <time>2022-01-04T09:06:50Z</time>
      </trkpt>
      <trkpt lat="44.77272" lon="6.986">
        <ele>1811</ele>
        <time>2022-01-04T09:06:53Z</time>
      </trkpt>
      <trkpt lat="44.77272" lon="6.98603">
        <ele>1812</ele>
        <time>2022-01-04T09:06:56Z</time>
      </trkpt>
      <trkpt lat="44.77271" lon="6.9861">
        <ele>1812</ele>
        <time>2022-01-04T09:07:01Z</time>
      </trkpt>
      <trkpt lat="44.7727" lon="6.98613">
        <ele>1813</ele>
        <time>2022-01-04T09:07:03Z</time>
      </trkpt>
      <trkpt lat="44.7727" lon="6.98616">
        <ele>1813</ele>
        <time>2022-01-04T09:07:08Z</time>
      </trkpt>
      <trkpt lat="44.77269" lon="6.98619">
        <ele>1813</ele>
        <time>2022-01-04T09:07:12Z</time>
      </trkpt>
      <trkpt lat="44.77271" lon="6.98619">
        <ele>1814</ele>
        <time>2022-01-04T09:07:18Z</time>
      </trkpt>
      <trkpt lat="44.77273" lon="6.98622">
        <ele>1814</ele>
        <time>2022-01-04T09:07:21Z</time>
      </trkpt>
      <trkpt lat="44.77273" lon="6.98625">
        <ele>1814</ele>
        <time>2022-01-04T09:07:25Z</time>
      </trkpt>
      <trkpt lat="44.77272" lon="6.98628">
        <ele>1814</ele>
        <time>2022-01-04T09:07:27Z</time>
      </trkpt>
      <trkpt lat="44.77271" lon="6.9863">
        <ele>1814</ele>
        <time>2022-01-04T09:07:29Z</time>
      </trkpt>
      <trkpt lat="44.7727" lon="6.98632">
        <ele>1814</ele>
        <time>2022-01-04T09:07:31Z</time>
      </trkpt>
      <trkpt lat="44.77269" lon="6.98636">
        <ele>1814</ele>
        <time>2022-01-04T09:07:34Z</time>
      </trkpt>
      <trkpt lat="44.77268" lon="6.98639">
        <ele>1815</ele>
        <time>2022-01-04T09:07:37Z</time>
      </trkpt>
      <trkpt lat="44.77268" lon="6.98642">
        <ele>1815</ele>
        <time>2022-01-04T09:07:40Z</time>
      </trkpt>
      <trkpt lat="44.77266" lon="6.98644">
        <ele>1816</ele>
        <time>2022-01-04T09:07:43Z</time>
      </trkpt>
      <trkpt lat="44.77265" lon="6.98647">
        <ele>1817</ele>
        <time>2022-01-04T09:07:46Z</time>
      </trkpt>
      <trkpt lat="44.77264" lon="6.9865">
        <ele>1817</ele>
        <time>2022-01-04T09:07:49Z</time>
      </trkpt>
      <trkpt lat="44.77264" lon="6.98654">
        <ele>1818</ele>
        <time>2022-01-04T09:07:51Z</time>
      </trkpt>
      <trkpt lat="44.77264" lon="6.98661">
        <ele>1818</ele>
        <time>2022-01-04T09:07:57Z</time>
      </trkpt>
      <trkpt lat="44.77263" lon="6.98668">
        <ele>1818</ele>
        <time>2022-01-04T09:08:03Z</time>
      </trkpt>
      <trkpt lat="44.77261" lon="6.9867">
        <ele>1818</ele>
        <time>2022-01-04T09:08:06Z</time>
      </trkpt>
      <trkpt lat="44.77261" lon="6.98673">
        <ele>1818</ele>
        <time>2022-01-04T09:08:10Z</time>
      </trkpt>
      <trkpt lat="44.77263" lon="6.98676">
        <ele>1819</ele>
        <time>2022-01-04T09:08:14Z</time>
      </trkpt>
      <trkpt lat="44.77264" lon="6.98678">
        <ele>1820</ele>
        <time>2022-01-04T09:08:18Z</time>
      </trkpt>
      <trkpt lat="44.77266" lon="6.98678">
        <ele>1821</ele>
        <time>2022-01-04T09:08:20Z</time>
      </trkpt>
      <trkpt lat="44.77269" lon="6.98681">
        <ele>1822</ele>
        <time>2022-01-04T09:08:24Z</time>
      </trkpt>
      <trkpt lat="44.77269" lon="6.98684">
        <ele>1823</ele>
        <time>2022-01-04T09:08:27Z</time>
      </trkpt>
      <trkpt lat="44.77271" lon="6.98683">
        <ele>1825</ele>
        <time>2022-01-04T09:08:31Z</time>
      </trkpt>
      <trkpt lat="44.77274" lon="6.98682">
        <ele>1826</ele>
        <time>2022-01-04T09:08:34Z</time>
      </trkpt>
      <trkpt lat="44.77276" lon="6.98682">
        <ele>1826</ele>
        <time>2022-01-04T09:08:40Z</time>
      </trkpt>
      <trkpt lat="44.77279" lon="6.98682">
        <ele>1827</ele>
        <time>2022-01-04T09:08:42Z</time>
      </trkpt>
      <trkpt lat="44.77281" lon="6.98683">
        <ele>1827</ele>
        <time>2022-01-04T09:08:45Z</time>
      </trkpt>
      <trkpt lat="44.7728" lon="6.98693">
        <ele>1825</ele>
        <time>2022-01-04T09:08:59Z</time>
      </trkpt>
      <trkpt lat="44.77278" lon="6.98695">
        <ele>1825</ele>
        <time>2022-01-04T09:09:04Z</time>
      </trkpt>
      <trkpt lat="44.7728" lon="6.98699">
        <ele>1827</ele>
        <time>2022-01-04T09:09:09Z</time>
      </trkpt>
      <trkpt lat="44.77278" lon="6.987">
        <ele>1828</ele>
        <time>2022-01-04T09:09:12Z</time>
      </trkpt>
      <trkpt lat="44.77276" lon="6.98703">
        <ele>1830</ele>
        <time>2022-01-04T09:09:17Z</time>
      </trkpt>
      <trkpt lat="44.77276" lon="6.98706">
        <ele>1831</ele>
        <time>2022-01-04T09:09:20Z</time>
      </trkpt>
      <trkpt lat="44.77276" lon="6.98708">
        <ele>1832</ele>
        <time>2022-01-04T09:09:28Z</time>
      </trkpt>
      <trkpt lat="44.77275" lon="6.98712">
        <ele>1832</ele>
        <time>2022-01-04T09:09:35Z</time>
      </trkpt>
      <trkpt lat="44.77273" lon="6.98714">
        <ele>1833</ele>
        <time>2022-01-04T09:09:40Z</time>
      </trkpt>
      <trkpt lat="44.77274" lon="6.98717">
        <ele>1833</ele>
        <time>2022-01-04T09:09:49Z</time>
      </trkpt>
      <trkpt lat="44.77275" lon="6.98722">
        <ele>1834</ele>
        <time>2022-01-04T09:09:55Z</time>
      </trkpt>
      <trkpt lat="44.77276" lon="6.98725">
        <ele>1835</ele>
        <time>2022-01-04T09:09:59Z</time>
      </trkpt>
      <trkpt lat="44.77276" lon="6.98733">
        <ele>1835</ele>
        <time>2022-01-04T09:10:13Z</time>
      </trkpt>
      <trkpt lat="44.77277" lon="6.98733">
        <ele>1837</ele>
        <time>2022-01-04T09:10:33Z</time>
      </trkpt>
      <trkpt lat="44.7728" lon="6.98735">
        <ele>1838</ele>
        <time>2022-01-04T09:10:37Z</time>
      </trkpt>
      <trkpt lat="44.77283" lon="6.98735">
        <ele>1838</ele>
        <time>2022-01-04T09:10:45Z</time>
      </trkpt>
      <trkpt lat="44.77283" lon="6.98739">
        <ele>1839</ele>
        <time>2022-01-04T09:11:00Z</time>
      </trkpt>
      <trkpt lat="44.77284" lon="6.98743">
        <ele>1841</ele>
        <time>2022-01-04T09:11:09Z</time>
      </trkpt>
      <trkpt lat="44.77282" lon="6.98751">
        <ele>1844</ele>
        <time>2022-01-04T09:11:19Z</time>
      </trkpt>
      <trkpt lat="44.7728" lon="6.98756">
        <ele>1847</ele>
        <time>2022-01-04T09:11:23Z</time>
      </trkpt>
      <trkpt lat="44.77279" lon="6.98759">
        <ele>1848</ele>
        <time>2022-01-04T09:11:28Z</time>
      </trkpt>
      <trkpt lat="44.77279" lon="6.98764">
        <ele>1850</ele>
        <time>2022-01-04T09:11:37Z</time>
      </trkpt>
      <trkpt lat="44.77281" lon="6.98765">
        <ele>1850</ele>
        <time>2022-01-04T09:11:41Z</time>
      </trkpt>
      <trkpt lat="44.77279" lon="6.9877">
        <ele>1851</ele>
        <time>2022-01-04T09:11:45Z</time>
      </trkpt>
      <trkpt lat="44.77278" lon="6.98772">
        <ele>1852</ele>
        <time>2022-01-04T09:11:48Z</time>
      </trkpt>
      <trkpt lat="44.77277" lon="6.98778">
        <ele>1854</ele>
        <time>2022-01-04T09:11:56Z</time>
      </trkpt>
      <trkpt lat="44.77276" lon="6.98785">
        <ele>1855</ele>
        <time>2022-01-04T09:12:01Z</time>
      </trkpt>
      <trkpt lat="44.77276" lon="6.98792">
        <ele>1857</ele>
        <time>2022-01-04T09:12:07Z</time>
      </trkpt>
      <trkpt lat="44.77276" lon="6.98795">
        <ele>1857</ele>
        <time>2022-01-04T09:12:09Z</time>
      </trkpt>
      <trkpt lat="44.77275" lon="6.98798">
        <ele>1858</ele>
        <time>2022-01-04T09:12:11Z</time>
      </trkpt>
      <trkpt lat="44.77275" lon="6.988">
        <ele>1858</ele>
        <time>2022-01-04T09:12:12Z</time>
      </trkpt>
      <trkpt lat="44.77274" lon="6.98804">
        <ele>1859</ele>
        <time>2022-01-04T09:12:14Z</time>
      </trkpt>
      <trkpt lat="44.77274" lon="6.98807">
        <ele>1860</ele>
        <time>2022-01-04T09:12:16Z</time>
      </trkpt>
      <trkpt lat="44.77267" lon="6.98822">
        <ele>1862</ele>
        <time>2022-01-04T09:12:28Z</time>
      </trkpt>
      <trkpt lat="44.77267" lon="6.98825">
        <ele>1862</ele>
        <time>2022-01-04T09:12:31Z</time>
      </trkpt>
      <trkpt lat="44.77271" lon="6.9883">
        <ele>1863</ele>
        <time>2022-01-04T09:12:37Z</time>
      </trkpt>
      <trkpt lat="44.77272" lon="6.98833">
        <ele>1863</ele>
        <time>2022-01-04T09:12:40Z</time>
      </trkpt>
      <trkpt lat="44.77272" lon="6.98839">
        <ele>1864</ele>
        <time>2022-01-04T09:12:45Z</time>
      </trkpt>
      <trkpt lat="44.77272" lon="6.98843">
        <ele>1865</ele>
        <time>2022-01-04T09:12:48Z</time>
      </trkpt>
      <trkpt lat="44.77273" lon="6.98849">
        <ele>1865</ele>
        <time>2022-01-04T09:12:55Z</time>
      </trkpt>
      <trkpt lat="44.77274" lon="6.98855">
        <ele>1865</ele>
        <time>2022-01-04T09:13:00Z</time>
      </trkpt>
      <trkpt lat="44.77274" lon="6.98857">
        <ele>1865</ele>
        <time>2022-01-04T09:13:02Z</time>
      </trkpt>
      <trkpt lat="44.77273" lon="6.98861">
        <ele>1866</ele>
        <time>2022-01-04T09:13:05Z</time>
      </trkpt>
      <trkpt lat="44.77272" lon="6.98867">
        <ele>1866</ele>
        <time>2022-01-04T09:13:12Z</time>
      </trkpt>
      <trkpt lat="44.7727" lon="6.98872">
        <ele>1867</ele>
        <time>2022-01-04T09:13:17Z</time>
      </trkpt>
      <trkpt lat="44.77269" lon="6.98878">
        <ele>1868</ele>
        <time>2022-01-04T09:13:21Z</time>
      </trkpt>
      <trkpt lat="44.77268" lon="6.9888">
        <ele>1868</ele>
        <time>2022-01-04T09:13:23Z</time>
      </trkpt>
      <trkpt lat="44.77268" lon="6.98883">
        <ele>1868</ele>
        <time>2022-01-04T09:13:25Z</time>
      </trkpt>
      <trkpt lat="44.77266" lon="6.98885">
        <ele>1868</ele>
        <time>2022-01-04T09:13:28Z</time>
      </trkpt>
      <trkpt lat="44.77265" lon="6.98888">
        <ele>1869</ele>
        <time>2022-01-04T09:13:32Z</time>
      </trkpt>
      <trkpt lat="44.77266" lon="6.9889">
        <ele>1869</ele>
        <time>2022-01-04T09:13:35Z</time>
      </trkpt>
      <trkpt lat="44.77266" lon="6.98893">
        <ele>1870</ele>
        <time>2022-01-04T09:13:37Z</time>
      </trkpt>
      <trkpt lat="44.77268" lon="6.98895">
        <ele>1870</ele>
        <time>2022-01-04T09:13:40Z</time>
      </trkpt>
      <trkpt lat="44.77269" lon="6.98902">
        <ele>1871</ele>
        <time>2022-01-04T09:13:45Z</time>
      </trkpt>
      <trkpt lat="44.77269" lon="6.98904">
        <ele>1872</ele>
        <time>2022-01-04T09:13:47Z</time>
      </trkpt>
      <trkpt lat="44.77272" lon="6.98915">
        <ele>1873</ele>
        <time>2022-01-04T09:13:56Z</time>
      </trkpt>
      <trkpt lat="44.77272" lon="6.98917">
        <ele>1875</ele>
        <time>2022-01-04T09:13:59Z</time>
      </trkpt>
      <trkpt lat="44.77273" lon="6.9892">
        <ele>1875</ele>
        <time>2022-01-04T09:14:04Z</time>
      </trkpt>
      <trkpt lat="44.77275" lon="6.98924">
        <ele>1876</ele>
        <time>2022-01-04T09:14:11Z</time>
      </trkpt>
      <trkpt lat="44.77275" lon="6.98929">
        <ele>1877</ele>
        <time>2022-01-04T09:14:17Z</time>
      </trkpt>
      <trkpt lat="44.77276" lon="6.98932">
        <ele>1877</ele>
        <time>2022-01-04T09:14:20Z</time>
      </trkpt>
      <trkpt lat="44.77276" lon="6.98934">
        <ele>1878</ele>
        <time>2022-01-04T09:14:22Z</time>
      </trkpt>
      <trkpt lat="44.77276" lon="6.98936">
        <ele>1878</ele>
        <time>2022-01-04T09:14:24Z</time>
      </trkpt>
      <trkpt lat="44.77276" lon="6.9894">
        <ele>1880</ele>
        <time>2022-01-04T09:14:27Z</time>
      </trkpt>
      <trkpt lat="44.77278" lon="6.98941">
        <ele>1881</ele>
        <time>2022-01-04T09:14:30Z</time>
      </trkpt>
      <trkpt lat="44.7728" lon="6.98937">
        <ele>1884</ele>
        <time>2022-01-04T09:14:39Z</time>
      </trkpt>
      <trkpt lat="44.77283" lon="6.98933">
        <ele>1887</ele>
        <time>2022-01-04T09:14:50Z</time>
      </trkpt>
      <trkpt lat="44.77286" lon="6.9893">
        <ele>1888</ele>
        <time>2022-01-04T09:14:54Z</time>
      </trkpt>
      <trkpt lat="44.77287" lon="6.98928">
        <ele>1888</ele>
        <time>2022-01-04T09:14:56Z</time>
      </trkpt>
      <trkpt lat="44.77289" lon="6.98926">
        <ele>1888</ele>
        <time>2022-01-04T09:14:58Z</time>
      </trkpt>
      <trkpt lat="44.77291" lon="6.98924">
        <ele>1888</ele>
        <time>2022-01-04T09:15:00Z</time>
      </trkpt>
      <trkpt lat="44.77297" lon="6.98919">
        <ele>1889</ele>
        <time>2022-01-04T09:15:07Z</time>
      </trkpt>
      <trkpt lat="44.77298" lon="6.98918">
        <ele>1890</ele>
        <time>2022-01-04T09:15:09Z</time>
      </trkpt>
      <trkpt lat="44.773" lon="6.98917">
        <ele>1891</ele>
        <time>2022-01-04T09:15:13Z</time>
      </trkpt>
      <trkpt lat="44.77301" lon="6.98915">
        <ele>1892</ele>
        <time>2022-01-04T09:15:16Z</time>
      </trkpt>
      <trkpt lat="44.77303" lon="6.98913">
        <ele>1892</ele>
        <time>2022-01-04T09:15:19Z</time>
      </trkpt>
      <trkpt lat="44.77304" lon="6.98912">
        <ele>1893</ele>
        <time>2022-01-04T09:15:21Z</time>
      </trkpt>
      <trkpt lat="44.77306" lon="6.98911">
        <ele>1894</ele>
        <time>2022-01-04T09:15:24Z</time>
      </trkpt>
      <trkpt lat="44.77306" lon="6.98908">
        <ele>1895</ele>
        <time>2022-01-04T09:15:27Z</time>
      </trkpt>
      <trkpt lat="44.77307" lon="6.98905">
        <ele>1895</ele>
        <time>2022-01-04T09:15:29Z</time>
      </trkpt>
      <trkpt lat="44.77308" lon="6.98903">
        <ele>1895</ele>
        <time>2022-01-04T09:15:33Z</time>
      </trkpt>
      <trkpt lat="44.7731" lon="6.98902">
        <ele>1896</ele>
        <time>2022-01-04T09:15:37Z</time>
      </trkpt>
      <trkpt lat="44.77311" lon="6.98901">
        <ele>1896</ele>
        <time>2022-01-04T09:15:40Z</time>
      </trkpt>
      <trkpt lat="44.77313" lon="6.98899">
        <ele>1897</ele>
        <time>2022-01-04T09:15:44Z</time>
      </trkpt>
      <trkpt lat="44.77313" lon="6.98897">
        <ele>1897</ele>
        <time>2022-01-04T09:15:49Z</time>
      </trkpt>
      <trkpt lat="44.77315" lon="6.98893">
        <ele>1898</ele>
        <time>2022-01-04T09:15:55Z</time>
      </trkpt>
      <trkpt lat="44.77323" lon="6.98889">
        <ele>1898</ele>
        <time>2022-01-04T09:16:02Z</time>
      </trkpt>
      <trkpt lat="44.77326" lon="6.98887">
        <ele>1897</ele>
        <time>2022-01-04T09:16:07Z</time>
      </trkpt>
      <trkpt lat="44.77328" lon="6.98885">
        <ele>1897</ele>
        <time>2022-01-04T09:16:10Z</time>
      </trkpt>
      <trkpt lat="44.77328" lon="6.98883">
        <ele>1896</ele>
        <time>2022-01-04T09:16:13Z</time>
      </trkpt>
      <trkpt lat="44.7733" lon="6.9888">
        <ele>1896</ele>
        <time>2022-01-04T09:16:16Z</time>
      </trkpt>
      <trkpt lat="44.77333" lon="6.98877">
        <ele>1897</ele>
        <time>2022-01-04T09:16:20Z</time>
      </trkpt>
      <trkpt lat="44.77335" lon="6.98875">
        <ele>1897</ele>
        <time>2022-01-04T09:16:22Z</time>
      </trkpt>
      <trkpt lat="44.77336" lon="6.98873">
        <ele>1897</ele>
        <time>2022-01-04T09:16:24Z</time>
      </trkpt>
      <trkpt lat="44.77339" lon="6.98868">
        <ele>1899</ele>
        <time>2022-01-04T09:16:29Z</time>
      </trkpt>
      <trkpt lat="44.77341" lon="6.98863">
        <ele>1899</ele>
        <time>2022-01-04T09:16:34Z</time>
      </trkpt>
      <trkpt lat="44.77342" lon="6.98862">
        <ele>1898</ele>
        <time>2022-01-04T09:16:36Z</time>
      </trkpt>
      <trkpt lat="44.77344" lon="6.9886">
        <ele>1898</ele>
        <time>2022-01-04T09:16:38Z</time>
      </trkpt>
      <trkpt lat="44.77346" lon="6.98858">
        <ele>1897</ele>
        <time>2022-01-04T09:16:40Z</time>
      </trkpt>
      <trkpt lat="44.7735" lon="6.98856">
        <ele>1895</ele>
        <time>2022-01-04T09:16:44Z</time>
      </trkpt>
      <trkpt lat="44.77351" lon="6.98855">
        <ele>1895</ele>
        <time>2022-01-04T09:16:47Z</time>
      </trkpt>
      <trkpt lat="44.77353" lon="6.98852">
        <ele>1894</ele>
        <time>2022-01-04T09:16:51Z</time>
      </trkpt>
      <trkpt lat="44.77355" lon="6.98851">
        <ele>1893</ele>
        <time>2022-01-04T09:16:54Z</time>
      </trkpt>
      <trkpt lat="44.77357" lon="6.98851">
        <ele>1893</ele>
        <time>2022-01-04T09:16:57Z</time>
      </trkpt>
      <trkpt lat="44.77358" lon="6.98848">
        <ele>1893</ele>
        <time>2022-01-04T09:17:01Z</time>
      </trkpt>
      <trkpt lat="44.7736" lon="6.98847">
        <ele>1894</ele>
        <time>2022-01-04T09:17:06Z</time>
      </trkpt>
      <trkpt lat="44.77362" lon="6.98845">
        <ele>1894</ele>
        <time>2022-01-04T09:17:08Z</time>
      </trkpt>
      <trkpt lat="44.77364" lon="6.9884">
        <ele>1896</ele>
        <time>2022-01-04T09:17:16Z</time>
      </trkpt>
      <trkpt lat="44.77366" lon="6.98839">
        <ele>1896</ele>
        <time>2022-01-04T09:17:18Z</time>
      </trkpt>
      <trkpt lat="44.77368" lon="6.9884">
        <ele>1898</ele>
        <time>2022-01-04T09:17:21Z</time>
      </trkpt>
      <trkpt lat="44.77369" lon="6.98842">
        <ele>1898</ele>
        <time>2022-01-04T09:17:25Z</time>
      </trkpt>
      <trkpt lat="44.77369" lon="6.98845">
        <ele>1899</ele>
        <time>2022-01-04T09:17:29Z</time>
      </trkpt>
      <trkpt lat="44.77371" lon="6.98845">
        <ele>1900</ele>
        <time>2022-01-04T09:17:36Z</time>
      </trkpt>
      <trkpt lat="44.77373" lon="6.98847">
        <ele>1901</ele>
        <time>2022-01-04T09:17:40Z</time>
      </trkpt>
      <trkpt lat="44.77374" lon="6.98853">
        <ele>1903</ele>
        <time>2022-01-04T09:17:47Z</time>
      </trkpt>
      <trkpt lat="44.77378" lon="6.98854">
        <ele>1905</ele>
        <time>2022-01-04T09:17:56Z</time>
      </trkpt>
      <trkpt lat="44.77383" lon="6.98856">
        <ele>1906</ele>
        <time>2022-01-04T09:18:01Z</time>
      </trkpt>
      <trkpt lat="44.77387" lon="6.98856">
        <ele>1909</ele>
        <time>2022-01-04T09:18:07Z</time>
      </trkpt>
      <trkpt lat="44.77388" lon="6.98858">
        <ele>1910</ele>
        <time>2022-01-04T09:18:11Z</time>
      </trkpt>
      <trkpt lat="44.77387" lon="6.98863">
        <ele>1912</ele>
        <time>2022-01-04T09:18:17Z</time>
      </trkpt>
      <trkpt lat="44.77386" lon="6.98866">
        <ele>1915</ele>
        <time>2022-01-04T09:18:24Z</time>
      </trkpt>
      <trkpt lat="44.77387" lon="6.98871">
        <ele>1918</ele>
        <time>2022-01-04T09:18:30Z</time>
      </trkpt>
      <trkpt lat="44.77386" lon="6.98874">
        <ele>1919</ele>
        <time>2022-01-04T09:18:36Z</time>
      </trkpt>
      <trkpt lat="44.77388" lon="6.98876">
        <ele>1921</ele>
        <time>2022-01-04T09:18:40Z</time>
      </trkpt>
      <trkpt lat="44.77393" lon="6.98886">
        <ele>1923</ele>
        <time>2022-01-04T09:18:50Z</time>
      </trkpt>
      <trkpt lat="44.77392" lon="6.98888">
        <ele>1923</ele>
        <time>2022-01-04T09:18:54Z</time>
      </trkpt>
      <trkpt lat="44.77392" lon="6.98892">
        <ele>1924</ele>
        <time>2022-01-04T09:18:57Z</time>
      </trkpt>
      <trkpt lat="44.77392" lon="6.98895">
        <ele>1924</ele>
        <time>2022-01-04T09:19:01Z</time>
      </trkpt>
      <trkpt lat="44.77392" lon="6.98901">
        <ele>1924</ele>
        <time>2022-01-04T09:19:07Z</time>
      </trkpt>
      <trkpt lat="44.77393" lon="6.98904">
        <ele>1924</ele>
        <time>2022-01-04T09:19:09Z</time>
      </trkpt>
      <trkpt lat="44.77394" lon="6.98907">
        <ele>1925</ele>
        <time>2022-01-04T09:19:13Z</time>
      </trkpt>
      <trkpt lat="44.77398" lon="6.98913">
        <ele>1925</ele>
        <time>2022-01-04T09:19:20Z</time>
      </trkpt>
      <trkpt lat="44.77398" lon="6.98916">
        <ele>1926</ele>
        <time>2022-01-04T09:19:25Z</time>
      </trkpt>
      <trkpt lat="44.77397" lon="6.98919">
        <ele>1927</ele>
        <time>2022-01-04T09:19:30Z</time>
      </trkpt>
      <trkpt lat="44.77398" lon="6.98922">
        <ele>1928</ele>
        <time>2022-01-04T09:19:33Z</time>
      </trkpt>
      <trkpt lat="44.774" lon="6.98924">
        <ele>1928</ele>
        <time>2022-01-04T09:19:37Z</time>
      </trkpt>
      <trkpt lat="44.77398" lon="6.98926">
        <ele>1929</ele>
        <time>2022-01-04T09:19:45Z</time>
      </trkpt>
      <trkpt lat="44.77397" lon="6.98928">
        <ele>1931</ele>
        <time>2022-01-04T09:19:48Z</time>
      </trkpt>
      <trkpt lat="44.77398" lon="6.98931">
        <ele>1930</ele>
        <time>2022-01-04T09:19:52Z</time>
      </trkpt>
      <trkpt lat="44.77398" lon="6.98934">
        <ele>1930</ele>
        <time>2022-01-04T09:19:55Z</time>
      </trkpt>
      <trkpt lat="44.774" lon="6.98942">
        <ele>1932</ele>
        <time>2022-01-04T09:20:04Z</time>
      </trkpt>
      <trkpt lat="44.77401" lon="6.98945">
        <ele>1934</ele>
        <time>2022-01-04T09:20:07Z</time>
      </trkpt>
      <trkpt lat="44.77402" lon="6.98946">
        <ele>1935</ele>
        <time>2022-01-04T09:20:10Z</time>
      </trkpt>
      <trkpt lat="44.77403" lon="6.98947">
        <ele>1936</ele>
        <time>2022-01-04T09:20:13Z</time>
      </trkpt>
      <trkpt lat="44.77406" lon="6.98948">
        <ele>1937</ele>
        <time>2022-01-04T09:20:16Z</time>
      </trkpt>
      <trkpt lat="44.77407" lon="6.98951">
        <ele>1938</ele>
        <time>2022-01-04T09:20:19Z</time>
      </trkpt>
      <trkpt lat="44.77408" lon="6.98954">
        <ele>1938</ele>
        <time>2022-01-04T09:20:21Z</time>
      </trkpt>
      <trkpt lat="44.77411" lon="6.98957">
        <ele>1939</ele>
        <time>2022-01-04T09:20:26Z</time>
      </trkpt>
      <trkpt lat="44.77412" lon="6.98959">
        <ele>1940</ele>
        <time>2022-01-04T09:20:30Z</time>
      </trkpt>
      <trkpt lat="44.77412" lon="6.98962">
        <ele>1940</ele>
        <time>2022-01-04T09:20:32Z</time>
      </trkpt>
      <trkpt lat="44.77403" lon="6.98971">
        <ele>1944</ele>
        <time>2022-01-04T09:20:35Z</time>
      </trkpt>
      <trkpt lat="44.77402" lon="6.98974">
        <ele>1945</ele>
        <time>2022-01-04T09:20:38Z</time>
      </trkpt>
      <trkpt lat="44.77402" lon="6.98977">
        <ele>1946</ele>
        <time>2022-01-04T09:20:41Z</time>
      </trkpt>
      <trkpt lat="44.77404" lon="6.98981">
        <ele>1947</ele>
        <time>2022-01-04T09:20:44Z</time>
      </trkpt>
      <trkpt lat="44.77407" lon="6.98985">
        <ele>1948</ele>
        <time>2022-01-04T09:20:48Z</time>
      </trkpt>
      <trkpt lat="44.77418" lon="6.98994">
        <ele>1951</ele>
        <time>2022-01-04T09:21:01Z</time>
      </trkpt>
      <trkpt lat="44.77422" lon="6.99003">
        <ele>1953</ele>
        <time>2022-01-04T09:21:11Z</time>
      </trkpt>
      <trkpt lat="44.77426" lon="6.99006">
        <ele>1954</ele>
        <time>2022-01-04T09:21:17Z</time>
      </trkpt>
      <trkpt lat="44.77427" lon="6.99009">
        <ele>1954</ele>
        <time>2022-01-04T09:21:20Z</time>
      </trkpt>
      <trkpt lat="44.77428" lon="6.9901">
        <ele>1955</ele>
        <time>2022-01-04T09:21:22Z</time>
      </trkpt>
      <trkpt lat="44.7743" lon="6.99013">
        <ele>1955</ele>
        <time>2022-01-04T09:21:25Z</time>
      </trkpt>
      <trkpt lat="44.77441" lon="6.9903">
        <ele>1960</ele>
        <time>2022-01-04T09:21:43Z</time>
      </trkpt>
      <trkpt lat="44.77447" lon="6.99039">
        <ele>1962</ele>
        <time>2022-01-04T09:21:54Z</time>
      </trkpt>
      <trkpt lat="44.77447" lon="6.99042">
        <ele>1962</ele>
        <time>2022-01-04T09:21:58Z</time>
      </trkpt>
      <trkpt lat="44.77449" lon="6.99045">
        <ele>1963</ele>
        <time>2022-01-04T09:22:05Z</time>
      </trkpt>
      <trkpt lat="44.77451" lon="6.99047">
        <ele>1962</ele>
        <time>2022-01-04T09:22:07Z</time>
      </trkpt>
      <trkpt lat="44.77453" lon="6.99049">
        <ele>1963</ele>
        <time>2022-01-04T09:22:09Z</time>
      </trkpt>
      <trkpt lat="44.77455" lon="6.99049">
        <ele>1963</ele>
        <time>2022-01-04T09:22:11Z</time>
      </trkpt>
      <trkpt lat="44.77459" lon="6.99048">
        <ele>1962</ele>
        <time>2022-01-04T09:22:16Z</time>
      </trkpt>
      <trkpt lat="44.77462" lon="6.99049">
        <ele>1961</ele>
        <time>2022-01-04T09:22:19Z</time>
      </trkpt>
      <trkpt lat="44.7746" lon="6.99057">
        <ele>1959</ele>
        <time>2022-01-04T09:22:28Z</time>
      </trkpt>
      <trkpt lat="44.77462" lon="6.99059">
        <ele>1958</ele>
        <time>2022-01-04T09:22:33Z</time>
      </trkpt>
      <trkpt lat="44.77471" lon="6.99057">
        <ele>1956</ele>
        <time>2022-01-04T09:22:45Z</time>
      </trkpt>
      <trkpt lat="44.77473" lon="6.99057">
        <ele>1957</ele>
        <time>2022-01-04T09:22:48Z</time>
      </trkpt>
      <trkpt lat="44.77475" lon="6.99058">
        <ele>1957</ele>
        <time>2022-01-04T09:22:53Z</time>
      </trkpt>
      <trkpt lat="44.77476" lon="6.9906">
        <ele>1959</ele>
        <time>2022-01-04T09:22:57Z</time>
      </trkpt>
      <trkpt lat="44.77481" lon="6.99059">
        <ele>1962</ele>
        <time>2022-01-04T09:23:03Z</time>
      </trkpt>
      <trkpt lat="44.77483" lon="6.99058">
        <ele>1963</ele>
        <time>2022-01-04T09:23:06Z</time>
      </trkpt>
      <trkpt lat="44.77485" lon="6.99057">
        <ele>1964</ele>
        <time>2022-01-04T09:23:09Z</time>
      </trkpt>
      <trkpt lat="44.77487" lon="6.99057">
        <ele>1966</ele>
        <time>2022-01-04T09:23:12Z</time>
      </trkpt>
      <trkpt lat="44.77489" lon="6.99059">
        <ele>1966</ele>
        <time>2022-01-04T09:23:16Z</time>
      </trkpt>
      <trkpt lat="44.7749" lon="6.99066">
        <ele>1968</ele>
        <time>2022-01-04T09:23:25Z</time>
      </trkpt>
      <trkpt lat="44.77492" lon="6.99068">
        <ele>1969</ele>
        <time>2022-01-04T09:23:30Z</time>
      </trkpt>
      <trkpt lat="44.77497" lon="6.99066">
        <ele>1971</ele>
        <time>2022-01-04T09:23:40Z</time>
      </trkpt>
      <trkpt lat="44.77498" lon="6.99069">
        <ele>1972</ele>
        <time>2022-01-04T09:23:43Z</time>
      </trkpt>
      <trkpt lat="44.77499" lon="6.99074">
        <ele>1973</ele>
        <time>2022-01-04T09:23:48Z</time>
      </trkpt>
      <trkpt lat="44.775" lon="6.99077">
        <ele>1974</ele>
        <time>2022-01-04T09:23:52Z</time>
      </trkpt>
      <trkpt lat="44.77503" lon="6.99088">
        <ele>1976</ele>
        <time>2022-01-04T09:24:05Z</time>
      </trkpt>
      <trkpt lat="44.77506" lon="6.99092">
        <ele>1977</ele>
        <time>2022-01-04T09:24:12Z</time>
      </trkpt>
      <trkpt lat="44.77507" lon="6.99094">
        <ele>1978</ele>
        <time>2022-01-04T09:24:15Z</time>
      </trkpt>
      <trkpt lat="44.77508" lon="6.99097">
        <ele>1978</ele>
        <time>2022-01-04T09:24:18Z</time>
      </trkpt>
      <trkpt lat="44.77508" lon="6.991">
        <ele>1978</ele>
        <time>2022-01-04T09:24:21Z</time>
      </trkpt>
      <trkpt lat="44.77511" lon="6.99108">
        <ele>1979</ele>
        <time>2022-01-04T09:24:30Z</time>
      </trkpt>
      <trkpt lat="44.77511" lon="6.99111">
        <ele>1979</ele>
        <time>2022-01-04T09:24:33Z</time>
      </trkpt>
      <trkpt lat="44.77513" lon="6.99113">
        <ele>1979</ele>
        <time>2022-01-04T09:24:36Z</time>
      </trkpt>
      <trkpt lat="44.77514" lon="6.99116">
        <ele>1979</ele>
        <time>2022-01-04T09:24:43Z</time>
      </trkpt>
      <trkpt lat="44.77516" lon="6.99119">
        <ele>1980</ele>
        <time>2022-01-04T09:24:48Z</time>
      </trkpt>
      <trkpt lat="44.77518" lon="6.99121">
        <ele>1980</ele>
        <time>2022-01-04T09:24:51Z</time>
      </trkpt>
      <trkpt lat="44.7752" lon="6.99122">
        <ele>1981</ele>
        <time>2022-01-04T09:24:55Z</time>
      </trkpt>
      <trkpt lat="44.77521" lon="6.99125">
        <ele>1981</ele>
        <time>2022-01-04T09:24:58Z</time>
      </trkpt>
      <trkpt lat="44.77523" lon="6.99128">
        <ele>1982</ele>
        <time>2022-01-04T09:25:01Z</time>
      </trkpt>
      <trkpt lat="44.77525" lon="6.99129">
        <ele>1983</ele>
        <time>2022-01-04T09:25:04Z</time>
      </trkpt>
      <trkpt lat="44.77521" lon="6.99142">
        <ele>1989</ele>
        <time>2022-01-04T09:25:06Z</time>
      </trkpt>
      <trkpt lat="44.77523" lon="6.99143">
        <ele>1992</ele>
        <time>2022-01-04T09:25:09Z</time>
      </trkpt>
      <trkpt lat="44.77532" lon="6.9915">
        <ele>1997</ele>
        <time>2022-01-04T09:25:24Z</time>
      </trkpt>
      <trkpt lat="44.77534" lon="6.99151">
        <ele>1997</ele>
        <time>2022-01-04T09:25:27Z</time>
      </trkpt>
      <trkpt lat="44.7754" lon="6.99154">
        <ele>1998</ele>
        <time>2022-01-04T09:25:37Z</time>
      </trkpt>
      <trkpt lat="44.77542" lon="6.99158">
        <ele>1999</ele>
        <time>2022-01-04T09:25:43Z</time>
      </trkpt>
      <trkpt lat="44.77544" lon="6.99158">
        <ele>2000</ele>
        <time>2022-01-04T09:25:45Z</time>
      </trkpt>
      <trkpt lat="44.77545" lon="6.9916">
        <ele>2001</ele>
        <time>2022-01-04T09:25:50Z</time>
      </trkpt>
      <trkpt lat="44.77548" lon="6.99165">
        <ele>2002</ele>
        <time>2022-01-04T09:25:55Z</time>
      </trkpt>
      <trkpt lat="44.77549" lon="6.99166">
        <ele>2002</ele>
        <time>2022-01-04T09:25:57Z</time>
      </trkpt>
      <trkpt lat="44.7755" lon="6.99169">
        <ele>2002</ele>
        <time>2022-01-04T09:26:00Z</time>
      </trkpt>
      <trkpt lat="44.77552" lon="6.99171">
        <ele>2003</ele>
        <time>2022-01-04T09:26:02Z</time>
      </trkpt>
      <trkpt lat="44.77553" lon="6.99173">
        <ele>2003</ele>
        <time>2022-01-04T09:26:05Z</time>
      </trkpt>
      <trkpt lat="44.77555" lon="6.99174">
        <ele>2003</ele>
        <time>2022-01-04T09:26:08Z</time>
      </trkpt>
      <trkpt lat="44.7756" lon="6.99183">
        <ele>2004</ele>
        <time>2022-01-04T09:26:18Z</time>
      </trkpt>
      <trkpt lat="44.77563" lon="6.99188">
        <ele>2004</ele>
        <time>2022-01-04T09:26:24Z</time>
      </trkpt>
      <trkpt lat="44.77564" lon="6.9919">
        <ele>2004</ele>
        <time>2022-01-04T09:26:27Z</time>
      </trkpt>
      <trkpt lat="44.77568" lon="6.99196">
        <ele>2004</ele>
        <time>2022-01-04T09:26:40Z</time>
      </trkpt>
      <trkpt lat="44.77568" lon="6.99201">
        <ele>2005</ele>
        <time>2022-01-04T09:26:46Z</time>
      </trkpt>
      <trkpt lat="44.7757" lon="6.99203">
        <ele>2005</ele>
        <time>2022-01-04T09:26:51Z</time>
      </trkpt>
      <trkpt lat="44.77574" lon="6.99205">
        <ele>2006</ele>
        <time>2022-01-04T09:26:57Z</time>
      </trkpt>
      <trkpt lat="44.77576" lon="6.99205">
        <ele>2006</ele>
        <time>2022-01-04T09:26:59Z</time>
      </trkpt>
      <trkpt lat="44.77578" lon="6.99206">
        <ele>2007</ele>
        <time>2022-01-04T09:27:03Z</time>
      </trkpt>
      <trkpt lat="44.77579" lon="6.99207">
        <ele>2007</ele>
        <time>2022-01-04T09:27:09Z</time>
      </trkpt>
      <trkpt lat="44.77582" lon="6.99204">
        <ele>2009</ele>
        <time>2022-01-04T09:27:16Z</time>
      </trkpt>
      <trkpt lat="44.77585" lon="6.99209">
        <ele>2010</ele>
        <time>2022-01-04T09:27:32Z</time>
      </trkpt>
      <trkpt lat="44.77586" lon="6.99212">
        <ele>2010</ele>
        <time>2022-01-04T09:27:36Z</time>
      </trkpt>
      <trkpt lat="44.77588" lon="6.99213">
        <ele>2010</ele>
        <time>2022-01-04T09:27:40Z</time>
      </trkpt>
      <trkpt lat="44.77595" lon="6.99214">
        <ele>2011</ele>
        <time>2022-01-04T09:27:48Z</time>
      </trkpt>
      <trkpt lat="44.77598" lon="6.99218">
        <ele>2013</ele>
        <time>2022-01-04T09:28:02Z</time>
      </trkpt>
      <trkpt lat="44.77602" lon="6.99221">
        <ele>2015</ele>
        <time>2022-01-04T09:28:12Z</time>
      </trkpt>
      <trkpt lat="44.77603" lon="6.99223">
        <ele>2016</ele>
        <time>2022-01-04T09:28:14Z</time>
      </trkpt>
      <trkpt lat="44.77604" lon="6.99226">
        <ele>2016</ele>
        <time>2022-01-04T09:28:18Z</time>
      </trkpt>
      <trkpt lat="44.77605" lon="6.99228">
        <ele>2016</ele>
        <time>2022-01-04T09:28:24Z</time>
      </trkpt>
      <trkpt lat="44.77607" lon="6.99226">
        <ele>2016</ele>
        <time>2022-01-04T09:28:32Z</time>
      </trkpt>
      <trkpt lat="44.77607" lon="6.99223">
        <ele>2017</ele>
        <time>2022-01-04T09:28:37Z</time>
      </trkpt>
      <trkpt lat="44.77606" lon="6.9922">
        <ele>2018</ele>
        <time>2022-01-04T09:28:41Z</time>
      </trkpt>
      <trkpt lat="44.77608" lon="6.99219">
        <ele>2018</ele>
        <time>2022-01-04T09:28:44Z</time>
      </trkpt>
      <trkpt lat="44.77607" lon="6.99216">
        <ele>2020</ele>
        <time>2022-01-04T09:28:50Z</time>
      </trkpt>
      <trkpt lat="44.77607" lon="6.99213">
        <ele>2023</ele>
        <time>2022-01-04T09:28:55Z</time>
      </trkpt>
      <trkpt lat="44.77608" lon="6.99211">
        <ele>2023</ele>
        <time>2022-01-04T09:28:57Z</time>
      </trkpt>
      <trkpt lat="44.7761" lon="6.9921">
        <ele>2024</ele>
        <time>2022-01-04T09:29:00Z</time>
      </trkpt>
      <trkpt lat="44.77612" lon="6.99211">
        <ele>2025</ele>
        <time>2022-01-04T09:29:05Z</time>
      </trkpt>
      <trkpt lat="44.77614" lon="6.99213">
        <ele>2026</ele>
        <time>2022-01-04T09:29:08Z</time>
      </trkpt>
      <trkpt lat="44.77615" lon="6.99215">
        <ele>2026</ele>
        <time>2022-01-04T09:29:11Z</time>
      </trkpt>
      <trkpt lat="44.77616" lon="6.99218">
        <ele>2026</ele>
        <time>2022-01-04T09:29:14Z</time>
      </trkpt>
      <trkpt lat="44.77617" lon="6.99216">
        <ele>2025</ele>
        <time>2022-01-04T09:29:22Z</time>
      </trkpt>
      <trkpt lat="44.77618" lon="6.99213">
        <ele>2025</ele>
        <time>2022-01-04T09:29:24Z</time>
      </trkpt>
      <trkpt lat="44.77619" lon="6.99211">
        <ele>2025</ele>
        <time>2022-01-04T09:29:26Z</time>
      </trkpt>
      <trkpt lat="44.7762" lon="6.99208">
        <ele>2025</ele>
        <time>2022-01-04T09:29:28Z</time>
      </trkpt>
      <trkpt lat="44.77621" lon="6.99205">
        <ele>2025</ele>
        <time>2022-01-04T09:29:32Z</time>
      </trkpt>
      <trkpt lat="44.77623" lon="6.99201">
        <ele>2024</ele>
        <time>2022-01-04T09:29:37Z</time>
      </trkpt>
      <trkpt lat="44.77624" lon="6.99198">
        <ele>2024</ele>
        <time>2022-01-04T09:29:42Z</time>
      </trkpt>
      <trkpt lat="44.77625" lon="6.99196">
        <ele>2025</ele>
        <time>2022-01-04T09:29:46Z</time>
      </trkpt>
      <trkpt lat="44.77625" lon="6.99193">
        <ele>2025</ele>
        <time>2022-01-04T09:29:49Z</time>
      </trkpt>
      <trkpt lat="44.77626" lon="6.99191">
        <ele>2026</ele>
        <time>2022-01-04T09:29:53Z</time>
      </trkpt>
      <trkpt lat="44.77628" lon="6.99193">
        <ele>2026</ele>
        <time>2022-01-04T09:30:01Z</time>
      </trkpt>
      <trkpt lat="44.77631" lon="6.99195">
        <ele>2026</ele>
        <time>2022-01-04T09:30:07Z</time>
      </trkpt>
      <trkpt lat="44.77632" lon="6.99197">
        <ele>2026</ele>
        <time>2022-01-04T09:30:10Z</time>
      </trkpt>
      <trkpt lat="44.77634" lon="6.99198">
        <ele>2026</ele>
        <time>2022-01-04T09:30:16Z</time>
      </trkpt>
      <trkpt lat="44.77636" lon="6.99199">
        <ele>2027</ele>
        <time>2022-01-04T09:30:19Z</time>
      </trkpt>
      <trkpt lat="44.77637" lon="6.99201">
        <ele>2027</ele>
        <time>2022-01-04T09:30:22Z</time>
      </trkpt>
      <trkpt lat="44.77639" lon="6.99204">
        <ele>2028</ele>
        <time>2022-01-04T09:30:26Z</time>
      </trkpt>
      <trkpt lat="44.77644" lon="6.99205">
        <ele>2031</ele>
        <time>2022-01-04T09:30:54Z</time>
      </trkpt>
      <trkpt lat="44.77646" lon="6.99207">
        <ele>2032</ele>
        <time>2022-01-04T09:30:57Z</time>
      </trkpt>
      <trkpt lat="44.77647" lon="6.99208">
        <ele>2033</ele>
        <time>2022-01-04T09:31:01Z</time>
      </trkpt>
      <trkpt lat="44.77648" lon="6.99211">
        <ele>2033</ele>
        <time>2022-01-04T09:31:05Z</time>
      </trkpt>
      <trkpt lat="44.77649" lon="6.99214">
        <ele>2034</ele>
        <time>2022-01-04T09:31:10Z</time>
      </trkpt>
      <trkpt lat="44.7765" lon="6.99217">
        <ele>2035</ele>
        <time>2022-01-04T09:31:13Z</time>
      </trkpt>
      <trkpt lat="44.77652" lon="6.99216">
        <ele>2036</ele>
        <time>2022-01-04T09:31:17Z</time>
      </trkpt>
      <trkpt lat="44.77654" lon="6.99216">
        <ele>2036</ele>
        <time>2022-01-04T09:31:20Z</time>
      </trkpt>
      <trkpt lat="44.77656" lon="6.9922">
        <ele>2037</ele>
        <time>2022-01-04T09:31:23Z</time>
      </trkpt>
      <trkpt lat="44.77657" lon="6.9922">
        <ele>2038</ele>
        <time>2022-01-04T09:31:28Z</time>
      </trkpt>
      <trkpt lat="44.77658" lon="6.99222">
        <ele>2040</ele>
        <time>2022-01-04T09:31:36Z</time>
      </trkpt>
      <trkpt lat="44.7766" lon="6.99226">
        <ele>2042</ele>
        <time>2022-01-04T09:31:50Z</time>
      </trkpt>
      <trkpt lat="44.7766" lon="6.99228">
        <ele>2046</ele>
        <time>2022-01-04T09:31:58Z</time>
      </trkpt>
      <trkpt lat="44.77661" lon="6.99231">
        <ele>2047</ele>
        <time>2022-01-04T09:32:03Z</time>
      </trkpt>
      <trkpt lat="44.77661" lon="6.99233">
        <ele>2048</ele>
        <time>2022-01-04T09:32:08Z</time>
      </trkpt>
      <trkpt lat="44.77663" lon="6.99233">
        <ele>2049</ele>
        <time>2022-01-04T09:32:14Z</time>
      </trkpt>
      <trkpt lat="44.77665" lon="6.99232">
        <ele>2049</ele>
        <time>2022-01-04T09:32:17Z</time>
      </trkpt>
      <trkpt lat="44.77667" lon="6.99232">
        <ele>2049</ele>
        <time>2022-01-04T09:32:23Z</time>
      </trkpt>
      <trkpt lat="44.77668" lon="6.99235">
        <ele>2049</ele>
        <time>2022-01-04T09:32:32Z</time>
      </trkpt>
      <trkpt lat="44.7767" lon="6.99237">
        <ele>2050</ele>
        <time>2022-01-04T09:32:35Z</time>
      </trkpt>
      <trkpt lat="44.77671" lon="6.99243">
        <ele>2050</ele>
        <time>2022-01-04T09:32:41Z</time>
      </trkpt>
      <trkpt lat="44.7767" lon="6.99247">
        <ele>2051</ele>
        <time>2022-01-04T09:32:44Z</time>
      </trkpt>
      <trkpt lat="44.77671" lon="6.99249">
        <ele>2051</ele>
        <time>2022-01-04T09:32:48Z</time>
      </trkpt>
      <trkpt lat="44.77673" lon="6.9925">
        <ele>2052</ele>
        <time>2022-01-04T09:32:52Z</time>
      </trkpt>
      <trkpt lat="44.77678" lon="6.99252">
        <ele>2054</ele>
        <time>2022-01-04T09:33:00Z</time>
      </trkpt>
      <trkpt lat="44.7768" lon="6.99254">
        <ele>2054</ele>
        <time>2022-01-04T09:33:03Z</time>
      </trkpt>
      <trkpt lat="44.77678" lon="6.99258">
        <ele>2056</ele>
        <time>2022-01-04T09:33:13Z</time>
      </trkpt>
      <trkpt lat="44.77678" lon="6.99261">
        <ele>2057</ele>
        <time>2022-01-04T09:33:29Z</time>
      </trkpt>
      <trkpt lat="44.77678" lon="6.99263">
        <ele>2060</ele>
        <time>2022-01-04T09:33:35Z</time>
      </trkpt>
      <trkpt lat="44.77685" lon="6.99263">
        <ele>2062</ele>
        <time>2022-01-04T09:33:57Z</time>
      </trkpt>
      <trkpt lat="44.77687" lon="6.99265">
        <ele>2063</ele>
        <time>2022-01-04T09:34:02Z</time>
      </trkpt>
      <trkpt lat="44.77686" lon="6.99267">
        <ele>2063</ele>
        <time>2022-01-04T09:34:06Z</time>
      </trkpt>
      <trkpt lat="44.77686" lon="6.99269">
        <ele>2064</ele>
        <time>2022-01-04T09:34:10Z</time>
      </trkpt>
      <trkpt lat="44.77688" lon="6.99268">
        <ele>2064</ele>
        <time>2022-01-04T09:34:17Z</time>
      </trkpt>
      <trkpt lat="44.77689" lon="6.99266">
        <ele>2065</ele>
        <time>2022-01-04T09:34:21Z</time>
      </trkpt>
      <trkpt lat="44.77691" lon="6.99265">
        <ele>2065</ele>
        <time>2022-01-04T09:34:26Z</time>
      </trkpt>
      <trkpt lat="44.77693" lon="6.99263">
        <ele>2064</ele>
        <time>2022-01-04T09:34:30Z</time>
      </trkpt>
      <trkpt lat="44.77696" lon="6.99262">
        <ele>2064</ele>
        <time>2022-01-04T09:34:44Z</time>
      </trkpt>
      <trkpt lat="44.77697" lon="6.9926">
        <ele>2064</ele>
        <time>2022-01-04T09:34:50Z</time>
      </trkpt>
      <trkpt lat="44.77699" lon="6.9926">
        <ele>2064</ele>
        <time>2022-01-04T09:34:53Z</time>
      </trkpt>
      <trkpt lat="44.777" lon="6.99259">
        <ele>2064</ele>
        <time>2022-01-04T09:34:56Z</time>
      </trkpt>
      <trkpt lat="44.77702" lon="6.99258">
        <ele>2064</ele>
        <time>2022-01-04T09:34:59Z</time>
      </trkpt>
      <trkpt lat="44.77704" lon="6.99259">
        <ele>2065</ele>
        <time>2022-01-04T09:35:04Z</time>
      </trkpt>
      <trkpt lat="44.77707" lon="6.9926">
        <ele>2068</ele>
        <time>2022-01-04T09:35:20Z</time>
      </trkpt>
      <trkpt lat="44.77707" lon="6.99261">
        <ele>2071</ele>
        <time>2022-01-04T09:35:31Z</time>
      </trkpt>
      <trkpt lat="44.77709" lon="6.99265">
        <ele>2072</ele>
        <time>2022-01-04T09:35:39Z</time>
      </trkpt>
      <trkpt lat="44.77713" lon="6.99265">
        <ele>2074</ele>
        <time>2022-01-04T09:35:44Z</time>
      </trkpt>
      <trkpt lat="44.77713" lon="6.99257">
        <ele>2077</ele>
        <time>2022-01-04T09:36:06Z</time>
      </trkpt>
      <trkpt lat="44.77713" lon="6.99254">
        <ele>2078</ele>
        <time>2022-01-04T09:36:10Z</time>
      </trkpt>
      <trkpt lat="44.77715" lon="6.99251">
        <ele>2080</ele>
        <time>2022-01-04T09:36:23Z</time>
      </trkpt>
      <trkpt lat="44.77715" lon="6.99248">
        <ele>2081</ele>
        <time>2022-01-04T09:36:32Z</time>
      </trkpt>
      <trkpt lat="44.77718" lon="6.99241">
        <ele>2084</ele>
        <time>2022-01-04T09:36:46Z</time>
      </trkpt>
      <trkpt lat="44.77719" lon="6.99239">
        <ele>2085</ele>
        <time>2022-01-04T09:36:49Z</time>
      </trkpt>
      <trkpt lat="44.7772" lon="6.99239">
        <ele>2085</ele>
        <time>2022-01-04T09:36:54Z</time>
      </trkpt>
      <trkpt lat="44.77722" lon="6.99236">
        <ele>2086</ele>
        <time>2022-01-04T09:37:18Z</time>
      </trkpt>
      <trkpt lat="44.77725" lon="6.99236">
        <ele>2087</ele>
        <time>2022-01-04T09:37:21Z</time>
      </trkpt>
      <trkpt lat="44.77726" lon="6.99234">
        <ele>2088</ele>
        <time>2022-01-04T09:37:23Z</time>
      </trkpt>
      <trkpt lat="44.77728" lon="6.99233">
        <ele>2087</ele>
        <time>2022-01-04T09:37:25Z</time>
      </trkpt>
      <trkpt lat="44.77731" lon="6.99231">
        <ele>2086</ele>
        <time>2022-01-04T09:37:30Z</time>
      </trkpt>
      <trkpt lat="44.77738" lon="6.99234">
        <ele>2085</ele>
        <time>2022-01-04T09:37:41Z</time>
      </trkpt>
      <trkpt lat="44.7774" lon="6.99234">
        <ele>2085</ele>
        <time>2022-01-04T09:37:44Z</time>
      </trkpt>
      <trkpt lat="44.77742" lon="6.99233">
        <ele>2084</ele>
        <time>2022-01-04T09:37:47Z</time>
      </trkpt>
      <trkpt lat="44.77743" lon="6.99232">
        <ele>2084</ele>
        <time>2022-01-04T09:37:49Z</time>
      </trkpt>
      <trkpt lat="44.77744" lon="6.9923">
        <ele>2085</ele>
        <time>2022-01-04T09:37:51Z</time>
      </trkpt>
      <trkpt lat="44.77748" lon="6.99226">
        <ele>2085</ele>
        <time>2022-01-04T09:37:55Z</time>
      </trkpt>
      <trkpt lat="44.77749" lon="6.9922">
        <ele>2085</ele>
        <time>2022-01-04T09:37:59Z</time>
      </trkpt>
      <trkpt lat="44.77755" lon="6.99216">
        <ele>2086</ele>
        <time>2022-01-04T09:38:06Z</time>
      </trkpt>
      <trkpt lat="44.77756" lon="6.99215">
        <ele>2086</ele>
        <time>2022-01-04T09:38:09Z</time>
      </trkpt>
      <trkpt lat="44.77757" lon="6.99213">
        <ele>2087</ele>
        <time>2022-01-04T09:38:12Z</time>
      </trkpt>
      <trkpt lat="44.77763" lon="6.9921">
        <ele>2088</ele>
        <time>2022-01-04T09:38:20Z</time>
      </trkpt>
      <trkpt lat="44.77765" lon="6.99209">
        <ele>2087</ele>
        <time>2022-01-04T09:38:23Z</time>
      </trkpt>
      <trkpt lat="44.77766" lon="6.99208">
        <ele>2087</ele>
        <time>2022-01-04T09:38:26Z</time>
      </trkpt>
      <trkpt lat="44.77769" lon="6.99206">
        <ele>2088</ele>
        <time>2022-01-04T09:38:33Z</time>
      </trkpt>
      <trkpt lat="44.77771" lon="6.99205">
        <ele>2088</ele>
        <time>2022-01-04T09:38:35Z</time>
      </trkpt>
      <trkpt lat="44.77772" lon="6.99204">
        <ele>2089</ele>
        <time>2022-01-04T09:38:37Z</time>
      </trkpt>
      <trkpt lat="44.77774" lon="6.99204">
        <ele>2090</ele>
        <time>2022-01-04T09:38:42Z</time>
      </trkpt>
      <trkpt lat="44.77775" lon="6.99203">
        <ele>2091</ele>
        <time>2022-01-04T09:38:45Z</time>
      </trkpt>
      <trkpt lat="44.77777" lon="6.99202">
        <ele>2093</ele>
        <time>2022-01-04T09:38:49Z</time>
      </trkpt>
      <trkpt lat="44.77779" lon="6.99203">
        <ele>2096</ele>
        <time>2022-01-04T09:38:54Z</time>
      </trkpt>
      <trkpt lat="44.7778" lon="6.99204">
        <ele>2097</ele>
        <time>2022-01-04T09:39:07Z</time>
      </trkpt>
      <trkpt lat="44.77784" lon="6.99204">
        <ele>2097</ele>
        <time>2022-01-04T09:39:25Z</time>
      </trkpt>
      <trkpt lat="44.77782" lon="6.9921">
        <ele>2101</ele>
        <time>2022-01-04T09:39:43Z</time>
      </trkpt>
      <trkpt lat="44.77781" lon="6.99216">
        <ele>2104</ele>
        <time>2022-01-04T09:39:51Z</time>
      </trkpt>
      <trkpt lat="44.7778" lon="6.99218">
        <ele>2104</ele>
        <time>2022-01-04T09:39:53Z</time>
      </trkpt>
      <trkpt lat="44.77778" lon="6.99219">
        <ele>2105</ele>
        <time>2022-01-04T09:39:55Z</time>
      </trkpt>
      <trkpt lat="44.77777" lon="6.99221">
        <ele>2106</ele>
        <time>2022-01-04T09:40:00Z</time>
      </trkpt>
      <trkpt lat="44.77779" lon="6.99225">
        <ele>2108</ele>
        <time>2022-01-04T09:40:23Z</time>
      </trkpt>
      <trkpt lat="44.77775" lon="6.9923">
        <ele>2113</ele>
        <time>2022-01-04T09:40:36Z</time>
      </trkpt>
      <trkpt lat="44.77774" lon="6.99231">
        <ele>2114</ele>
        <time>2022-01-04T09:40:56Z</time>
      </trkpt>
      <trkpt lat="44.77777" lon="6.99236">
        <ele>2116</ele>
        <time>2022-01-04T09:41:43Z</time>
      </trkpt>
      <trkpt lat="44.77778" lon="6.99236">
        <ele>2117</ele>
        <time>2022-01-04T09:41:45Z</time>
      </trkpt>
      <trkpt lat="44.7778" lon="6.99237">
        <ele>2117</ele>
        <time>2022-01-04T09:41:49Z</time>
      </trkpt>
      <trkpt lat="44.77784" lon="6.99235">
        <ele>2118</ele>
        <time>2022-01-04T09:42:07Z</time>
      </trkpt>
      <trkpt lat="44.77786" lon="6.99234">
        <ele>2119</ele>
        <time>2022-01-04T09:42:14Z</time>
      </trkpt>
      <trkpt lat="44.77789" lon="6.99234">
        <ele>2119</ele>
        <time>2022-01-04T09:42:21Z</time>
      </trkpt>
      <trkpt lat="44.77792" lon="6.99234">
        <ele>2119</ele>
        <time>2022-01-04T09:42:25Z</time>
      </trkpt>
      <trkpt lat="44.7779" lon="6.99237">
        <ele>2120</ele>
        <time>2022-01-04T09:42:36Z</time>
      </trkpt>
      <trkpt lat="44.7779" lon="6.99242">
        <ele>2123</ele>
        <time>2022-01-04T09:42:42Z</time>
      </trkpt>
      <trkpt lat="44.77788" lon="6.99248">
        <ele>2126</ele>
        <time>2022-01-04T09:42:49Z</time>
      </trkpt>
      <trkpt lat="44.77789" lon="6.9925">
        <ele>2128</ele>
        <time>2022-01-04T09:43:01Z</time>
      </trkpt>
      <trkpt lat="44.77791" lon="6.99249">
        <ele>2128</ele>
        <time>2022-01-04T09:43:03Z</time>
      </trkpt>
      <trkpt lat="44.77793" lon="6.99248">
        <ele>2131</ele>
        <time>2022-01-04T09:43:05Z</time>
      </trkpt>
      <trkpt lat="44.77795" lon="6.9925">
        <ele>2132</ele>
        <time>2022-01-04T09:43:09Z</time>
      </trkpt>
      <trkpt lat="44.77793" lon="6.99251">
        <ele>2132</ele>
        <time>2022-01-04T09:43:15Z</time>
      </trkpt>
      <trkpt lat="44.77791" lon="6.99252">
        <ele>2133</ele>
        <time>2022-01-04T09:43:18Z</time>
      </trkpt>
      <trkpt lat="44.7779" lon="6.99253">
        <ele>2135</ele>
        <time>2022-01-04T09:43:22Z</time>
      </trkpt>
      <trkpt lat="44.77788" lon="6.99259">
        <ele>2137</ele>
        <time>2022-01-04T09:43:34Z</time>
      </trkpt>
      <trkpt lat="44.77787" lon="6.99262">
        <ele>2137</ele>
        <time>2022-01-04T09:43:37Z</time>
      </trkpt>
      <trkpt lat="44.77787" lon="6.99264">
        <ele>2137</ele>
        <time>2022-01-04T09:43:41Z</time>
      </trkpt>
      <trkpt lat="44.77787" lon="6.99266">
        <ele>2136</ele>
        <time>2022-01-04T09:43:44Z</time>
      </trkpt>
      <trkpt lat="44.77787" lon="6.99269">
        <ele>2136</ele>
        <time>2022-01-04T09:43:46Z</time>
      </trkpt>
      <trkpt lat="44.77786" lon="6.99271">
        <ele>2136</ele>
        <time>2022-01-04T09:43:49Z</time>
      </trkpt>
      <trkpt lat="44.77787" lon="6.99274">
        <ele>2136</ele>
        <time>2022-01-04T09:43:52Z</time>
      </trkpt>
      <trkpt lat="44.77789" lon="6.99272">
        <ele>2137</ele>
        <time>2022-01-04T09:44:04Z</time>
      </trkpt>
      <trkpt lat="44.77791" lon="6.99271">
        <ele>2138</ele>
        <time>2022-01-04T09:44:07Z</time>
      </trkpt>
      <trkpt lat="44.77793" lon="6.99271">
        <ele>2140</ele>
        <time>2022-01-04T09:44:10Z</time>
      </trkpt>
      <trkpt lat="44.77795" lon="6.99272">
        <ele>2140</ele>
        <time>2022-01-04T09:44:15Z</time>
      </trkpt>
      <trkpt lat="44.77804" lon="6.9927">
        <ele>2144</ele>
        <time>2022-01-04T09:44:28Z</time>
      </trkpt>
      <trkpt lat="44.77813" lon="6.99272">
        <ele>2146</ele>
        <time>2022-01-04T09:44:42Z</time>
      </trkpt>
      <trkpt lat="44.77814" lon="6.99273">
        <ele>2147</ele>
        <time>2022-01-04T09:44:44Z</time>
      </trkpt>
      <trkpt lat="44.77816" lon="6.99275">
        <ele>2147</ele>
        <time>2022-01-04T09:44:47Z</time>
      </trkpt>
      <trkpt lat="44.77818" lon="6.99276">
        <ele>2147</ele>
        <time>2022-01-04T09:44:49Z</time>
      </trkpt>
      <trkpt lat="44.7782" lon="6.99276">
        <ele>2148</ele>
        <time>2022-01-04T09:44:52Z</time>
      </trkpt>
      <trkpt lat="44.77822" lon="6.99278">
        <ele>2148</ele>
        <time>2022-01-04T09:44:55Z</time>
      </trkpt>
      <trkpt lat="44.77823" lon="6.9928">
        <ele>2148</ele>
        <time>2022-01-04T09:44:57Z</time>
      </trkpt>
      <trkpt lat="44.77825" lon="6.99283">
        <ele>2149</ele>
        <time>2022-01-04T09:44:59Z</time>
      </trkpt>
      <trkpt lat="44.77829" lon="6.99291">
        <ele>2150</ele>
        <time>2022-01-04T09:45:10Z</time>
      </trkpt>
      <trkpt lat="44.77831" lon="6.99292">
        <ele>2150</ele>
        <time>2022-01-04T09:45:13Z</time>
      </trkpt>
      <trkpt lat="44.77832" lon="6.99294">
        <ele>2150</ele>
        <time>2022-01-04T09:45:16Z</time>
      </trkpt>
      <trkpt lat="44.77833" lon="6.99294">
        <ele>2151</ele>
        <time>2022-01-04T09:45:21Z</time>
      </trkpt>
      <trkpt lat="44.77843" lon="6.99314">
        <ele>2152</ele>
        <time>2022-01-04T09:45:42Z</time>
      </trkpt>
      <trkpt lat="44.7784" lon="6.99326">
        <ele>2153</ele>
        <time>2022-01-04T09:45:43Z</time>
      </trkpt>
      <trkpt lat="44.77843" lon="6.99349">
        <ele>2153</ele>
        <time>2022-01-04T09:45:45Z</time>
      </trkpt>
      <trkpt lat="44.77844" lon="6.99365">
        <ele>2154</ele>
        <time>2022-01-04T09:45:47Z</time>
      </trkpt>
      <trkpt lat="44.77841" lon="6.99373">
        <ele>2154</ele>
        <time>2022-01-04T09:45:48Z</time>
      </trkpt>
      <trkpt lat="44.7784" lon="6.99378">
        <ele>2154</ele>
        <time>2022-01-04T09:45:49Z</time>
      </trkpt>
      <trkpt lat="44.77846" lon="6.99376">
        <ele>2154</ele>
        <time>2022-01-04T09:45:51Z</time>
      </trkpt>
      <trkpt lat="44.77851" lon="6.99371">
        <ele>2155</ele>
        <time>2022-01-04T09:45:53Z</time>
      </trkpt>
      <trkpt lat="44.7785" lon="6.99366">
        <ele>2155</ele>
        <time>2022-01-04T09:45:54Z</time>
      </trkpt>
      <trkpt lat="44.77854" lon="6.99363">
        <ele>2156</ele>
        <time>2022-01-04T09:45:55Z</time>
      </trkpt>
      <trkpt lat="44.77861" lon="6.99375">
        <ele>2158</ele>
        <time>2022-01-04T09:45:57Z</time>
      </trkpt>
      <trkpt lat="44.77848" lon="6.99394">
        <ele>2161</ele>
        <time>2022-01-04T09:46:01Z</time>
      </trkpt>
      <trkpt lat="44.77845" lon="6.99399">
        <ele>2162</ele>
        <time>2022-01-04T09:46:03Z</time>
      </trkpt>
      <trkpt lat="44.77841" lon="6.99401">
        <ele>2162</ele>
        <time>2022-01-04T09:46:04Z</time>
      </trkpt>
      <trkpt lat="44.77838" lon="6.99398">
        <ele>2163</ele>
        <time>2022-01-04T09:46:05Z</time>
      </trkpt>
      <trkpt lat="44.77834" lon="6.99395">
        <ele>2164</ele>
        <time>2022-01-04T09:46:07Z</time>
      </trkpt>
      <trkpt lat="44.77831" lon="6.99395">
        <ele>2165</ele>
        <time>2022-01-04T09:46:10Z</time>
      </trkpt>
      <trkpt lat="44.77826" lon="6.99382">
        <ele>2170</ele>
        <time>2022-01-04T09:46:16Z</time>
      </trkpt>
      <trkpt lat="44.77827" lon="6.99374">
        <ele>2169</ele>
        <time>2022-01-04T09:46:18Z</time>
      </trkpt>
      <trkpt lat="44.77829" lon="6.99371">
        <ele>2170</ele>
        <time>2022-01-04T09:46:24Z</time>
      </trkpt>
      <trkpt lat="44.77829" lon="6.99367">
        <ele>2171</ele>
        <time>2022-01-04T09:46:31Z</time>
      </trkpt>
      <trkpt lat="44.77836" lon="6.99349">
        <ele>2163</ele>
        <time>2022-01-04T09:46:34Z</time>
      </trkpt>
      <trkpt lat="44.77838" lon="6.9935">
        <ele>2159</ele>
        <time>2022-01-04T09:46:38Z</time>
      </trkpt>
      <trkpt lat="44.77838" lon="6.99352">
        <ele>2159</ele>
        <time>2022-01-04T09:46:40Z</time>
      </trkpt>
      <trkpt lat="44.7784" lon="6.99358">
        <ele>2157</ele>
        <time>2022-01-04T09:46:44Z</time>
      </trkpt>
      <trkpt lat="44.77843" lon="6.99373">
        <ele>2156</ele>
        <time>2022-01-04T09:46:55Z</time>
      </trkpt>
      <trkpt lat="44.77841" lon="6.99375">
        <ele>2156</ele>
        <time>2022-01-04T09:46:58Z</time>
      </trkpt>
      <trkpt lat="44.7784" lon="6.99378">
        <ele>2156</ele>
        <time>2022-01-04T09:47:01Z</time>
      </trkpt>
      <trkpt lat="44.7784" lon="6.99381">
        <ele>2156</ele>
        <time>2022-01-04T09:47:04Z</time>
      </trkpt>
      <trkpt lat="44.7784" lon="6.99387">
        <ele>2157</ele>
        <time>2022-01-04T09:47:11Z</time>
      </trkpt>
      <trkpt lat="44.77839" lon="6.99388">
        <ele>2159</ele>
        <time>2022-01-04T09:47:16Z</time>
      </trkpt>
      <trkpt lat="44.77838" lon="6.99391">
        <ele>2159</ele>
        <time>2022-01-04T09:47:20Z</time>
      </trkpt>
      <trkpt lat="44.77839" lon="6.99393">
        <ele>2159</ele>
        <time>2022-01-04T09:47:24Z</time>
      </trkpt>
      <trkpt lat="44.77841" lon="6.99392">
        <ele>2159</ele>
        <time>2022-01-04T09:47:28Z</time>
      </trkpt>
      <trkpt lat="44.77844" lon="6.99393">
        <ele>2159</ele>
        <time>2022-01-04T09:47:32Z</time>
      </trkpt>
      <trkpt lat="44.77844" lon="6.99396">
        <ele>2159</ele>
        <time>2022-01-04T09:47:34Z</time>
      </trkpt>
      <trkpt lat="44.77845" lon="6.99399">
        <ele>2160</ele>
        <time>2022-01-04T09:47:38Z</time>
      </trkpt>
      <trkpt lat="44.77846" lon="6.99402">
        <ele>2160</ele>
        <time>2022-01-04T09:47:41Z</time>
      </trkpt>
      <trkpt lat="44.77848" lon="6.99402">
        <ele>2160</ele>
        <time>2022-01-04T09:47:45Z</time>
      </trkpt>
      <trkpt lat="44.77851" lon="6.99402">
        <ele>2161</ele>
        <time>2022-01-04T09:47:47Z</time>
      </trkpt>
      <trkpt lat="44.77853" lon="6.99404">
        <ele>2161</ele>
        <time>2022-01-04T09:47:49Z</time>
      </trkpt>
      <trkpt lat="44.77853" lon="6.99409">
        <ele>2162</ele>
        <time>2022-01-04T09:47:55Z</time>
      </trkpt>
      <trkpt lat="44.77853" lon="6.99411">
        <ele>2163</ele>
        <time>2022-01-04T09:47:59Z</time>
      </trkpt>
      <trkpt lat="44.77854" lon="6.99414">
        <ele>2163</ele>
        <time>2022-01-04T09:48:03Z</time>
      </trkpt>
      <trkpt lat="44.77855" lon="6.99417">
        <ele>2162</ele>
        <time>2022-01-04T09:48:08Z</time>
      </trkpt>
      <trkpt lat="44.77855" lon="6.99419">
        <ele>2161</ele>
        <time>2022-01-04T09:48:12Z</time>
      </trkpt>
      <trkpt lat="44.77855" lon="6.99423">
        <ele>2161</ele>
        <time>2022-01-04T09:48:15Z</time>
      </trkpt>
      <trkpt lat="44.77854" lon="6.99426">
        <ele>2161</ele>
        <time>2022-01-04T09:48:17Z</time>
      </trkpt>
      <trkpt lat="44.77853" lon="6.99432">
        <ele>2162</ele>
        <time>2022-01-04T09:48:22Z</time>
      </trkpt>
      <trkpt lat="44.77853" lon="6.99441">
        <ele>2164</ele>
        <time>2022-01-04T09:48:33Z</time>
      </trkpt>
      <trkpt lat="44.77852" lon="6.99444">
        <ele>2165</ele>
        <time>2022-01-04T09:48:36Z</time>
      </trkpt>
      <trkpt lat="44.77853" lon="6.99444">
        <ele>2165</ele>
        <time>2022-01-04T09:48:47Z</time>
      </trkpt>
      <trkpt lat="44.77864" lon="6.99436">
        <ele>2169</ele>
        <time>2022-01-04T09:49:01Z</time>
      </trkpt>
      <trkpt lat="44.77866" lon="6.99434">
        <ele>2170</ele>
        <time>2022-01-04T09:49:04Z</time>
      </trkpt>
      <trkpt lat="44.77868" lon="6.99432">
        <ele>2171</ele>
        <time>2022-01-04T09:49:07Z</time>
      </trkpt>
      <trkpt lat="44.7787" lon="6.99431">
        <ele>2172</ele>
        <time>2022-01-04T09:49:09Z</time>
      </trkpt>
      <trkpt lat="44.77872" lon="6.99429">
        <ele>2173</ele>
        <time>2022-01-04T09:49:12Z</time>
      </trkpt>
      <trkpt lat="44.77874" lon="6.99428">
        <ele>2173</ele>
        <time>2022-01-04T09:49:15Z</time>
      </trkpt>
      <trkpt lat="44.77879" lon="6.99429">
        <ele>2175</ele>
        <time>2022-01-04T09:49:21Z</time>
      </trkpt>
      <trkpt lat="44.77881" lon="6.99427">
        <ele>2175</ele>
        <time>2022-01-04T09:49:25Z</time>
      </trkpt>
      <trkpt lat="44.77882" lon="6.99429">
        <ele>2176</ele>
        <time>2022-01-04T09:49:28Z</time>
      </trkpt>
      <trkpt lat="44.77884" lon="6.99429">
        <ele>2178</ele>
        <time>2022-01-04T09:49:32Z</time>
      </trkpt>
      <trkpt lat="44.77886" lon="6.99429">
        <ele>2178</ele>
        <time>2022-01-04T09:49:35Z</time>
      </trkpt>
      <trkpt lat="44.77889" lon="6.99431">
        <ele>2179</ele>
        <time>2022-01-04T09:49:39Z</time>
      </trkpt>
      <trkpt lat="44.7789" lon="6.99433">
        <ele>2180</ele>
        <time>2022-01-04T09:49:41Z</time>
      </trkpt>
      <trkpt lat="44.7789" lon="6.99436">
        <ele>2181</ele>
        <time>2022-01-04T09:49:45Z</time>
      </trkpt>
      <trkpt lat="44.77889" lon="6.99441">
        <ele>2182</ele>
        <time>2022-01-04T09:49:50Z</time>
      </trkpt>
      <trkpt lat="44.77889" lon="6.99443">
        <ele>2183</ele>
        <time>2022-01-04T09:49:54Z</time>
      </trkpt>
      <trkpt lat="44.77892" lon="6.99445">
        <ele>2184</ele>
        <time>2022-01-04T09:49:58Z</time>
      </trkpt>
      <trkpt lat="44.77893" lon="6.99444">
        <ele>2184</ele>
        <time>2022-01-04T09:49:59Z</time>
      </trkpt>
      <trkpt lat="44.77895" lon="6.99443">
        <ele>2184</ele>
        <time>2022-01-04T09:50:01Z</time>
      </trkpt>
      <trkpt lat="44.77901" lon="6.99438">
        <ele>2186</ele>
        <time>2022-01-04T09:50:08Z</time>
      </trkpt>
      <trkpt lat="44.77906" lon="6.99436">
        <ele>2188</ele>
        <time>2022-01-04T09:50:12Z</time>
      </trkpt>
      <trkpt lat="44.77926" lon="6.99426">
        <ele>2193</ele>
        <time>2022-01-04T09:50:28Z</time>
      </trkpt>
      <trkpt lat="44.77937" lon="6.99418">
        <ele>2190</ele>
        <time>2022-01-04T09:50:38Z</time>
      </trkpt>
      <trkpt lat="44.77947" lon="6.99412">
        <ele>2186</ele>
        <time>2022-01-04T09:50:48Z</time>
      </trkpt>
      <trkpt lat="44.7795" lon="6.99408">
        <ele>2185</ele>
        <time>2022-01-04T09:50:52Z</time>
      </trkpt>
      <trkpt lat="44.77957" lon="6.99406">
        <ele>2183</ele>
        <time>2022-01-04T09:50:59Z</time>
      </trkpt>
      <trkpt lat="44.77961" lon="6.99404">
        <ele>2183</ele>
        <time>2022-01-04T09:51:03Z</time>
      </trkpt>
      <trkpt lat="44.77963" lon="6.99402">
        <ele>2182</ele>
        <time>2022-01-04T09:51:05Z</time>
      </trkpt>
      <trkpt lat="44.77965" lon="6.99402">
        <ele>2181</ele>
        <time>2022-01-04T09:51:07Z</time>
      </trkpt>
      <trkpt lat="44.77971" lon="6.99399">
        <ele>2180</ele>
        <time>2022-01-04T09:51:13Z</time>
      </trkpt>
      <trkpt lat="44.77973" lon="6.99398">
        <ele>2180</ele>
        <time>2022-01-04T09:51:15Z</time>
      </trkpt>
      <trkpt lat="44.77978" lon="6.99395">
        <ele>2182</ele>
        <time>2022-01-04T09:51:21Z</time>
      </trkpt>
      <trkpt lat="44.7798" lon="6.99393">
        <ele>2181</ele>
        <time>2022-01-04T09:51:23Z</time>
      </trkpt>
      <trkpt lat="44.77982" lon="6.99393">
        <ele>2181</ele>
        <time>2022-01-04T09:51:26Z</time>
      </trkpt>
      <trkpt lat="44.77984" lon="6.99393">
        <ele>2181</ele>
        <time>2022-01-04T09:51:28Z</time>
      </trkpt>
      <trkpt lat="44.77987" lon="6.99392">
        <ele>2181</ele>
        <time>2022-01-04T09:51:30Z</time>
      </trkpt>
      <trkpt lat="44.78005" lon="6.99386">
        <ele>2185</ele>
        <time>2022-01-04T09:51:51Z</time>
      </trkpt>
      <trkpt lat="44.78007" lon="6.99385">
        <ele>2186</ele>
        <time>2022-01-04T09:51:53Z</time>
      </trkpt>
      <trkpt lat="44.78011" lon="6.99385">
        <ele>2188</ele>
        <time>2022-01-04T09:52:01Z</time>
      </trkpt>
      <trkpt lat="44.78015" lon="6.99386">
        <ele>2190</ele>
        <time>2022-01-04T09:52:05Z</time>
      </trkpt>
      <trkpt lat="44.78017" lon="6.99387">
        <ele>2192</ele>
        <time>2022-01-04T09:52:08Z</time>
      </trkpt>
      <trkpt lat="44.78019" lon="6.99384">
        <ele>2194</ele>
        <time>2022-01-04T09:52:13Z</time>
      </trkpt>
      <trkpt lat="44.78021" lon="6.99384">
        <ele>2195</ele>
        <time>2022-01-04T09:52:16Z</time>
      </trkpt>
      <trkpt lat="44.78026" lon="6.99385">
        <ele>2199</ele>
        <time>2022-01-04T09:52:23Z</time>
      </trkpt>
      <trkpt lat="44.78032" lon="6.9938">
        <ele>2202</ele>
        <time>2022-01-04T09:52:32Z</time>
      </trkpt>
      <trkpt lat="44.78034" lon="6.99379">
        <ele>2203</ele>
        <time>2022-01-04T09:52:35Z</time>
      </trkpt>
      <trkpt lat="44.78042" lon="6.99377">
        <ele>2206</ele>
        <time>2022-01-04T09:52:44Z</time>
      </trkpt>
      <trkpt lat="44.78043" lon="6.99374">
        <ele>2206</ele>
        <time>2022-01-04T09:52:47Z</time>
      </trkpt>
      <trkpt lat="44.78046" lon="6.9937">
        <ele>2208</ele>
        <time>2022-01-04T09:52:53Z</time>
      </trkpt>
      <trkpt lat="44.78051" lon="6.99363">
        <ele>2211</ele>
        <time>2022-01-04T09:53:03Z</time>
      </trkpt>
      <trkpt lat="44.78052" lon="6.9936">
        <ele>2212</ele>
        <time>2022-01-04T09:53:06Z</time>
      </trkpt>
      <trkpt lat="44.78055" lon="6.99356">
        <ele>2213</ele>
        <time>2022-01-04T09:53:13Z</time>
      </trkpt>
      <trkpt lat="44.78057" lon="6.99356">
        <ele>2213</ele>
        <time>2022-01-04T09:53:20Z</time>
      </trkpt>
      <trkpt lat="44.78059" lon="6.99358">
        <ele>2213</ele>
        <time>2022-01-04T09:53:26Z</time>
      </trkpt>
      <trkpt lat="44.78061" lon="6.99359">
        <ele>2212</ele>
        <time>2022-01-04T09:53:31Z</time>
      </trkpt>
      <trkpt lat="44.78062" lon="6.99361">
        <ele>2212</ele>
        <time>2022-01-04T09:53:34Z</time>
      </trkpt>
      <trkpt lat="44.78065" lon="6.99359">
        <ele>2210</ele>
        <time>2022-01-04T09:53:39Z</time>
      </trkpt>
      <trkpt lat="44.78067" lon="6.99357">
        <ele>2210</ele>
        <time>2022-01-04T09:53:41Z</time>
      </trkpt>
      <trkpt lat="44.78068" lon="6.99355">
        <ele>2208</ele>
        <time>2022-01-04T09:53:43Z</time>
      </trkpt>
      <trkpt lat="44.78071" lon="6.99354">
        <ele>2207</ele>
        <time>2022-01-04T09:53:46Z</time>
      </trkpt>
      <trkpt lat="44.78073" lon="6.99354">
        <ele>2206</ele>
        <time>2022-01-04T09:53:49Z</time>
      </trkpt>
      <trkpt lat="44.78076" lon="6.99356">
        <ele>2202</ele>
        <time>2022-01-04T09:53:57Z</time>
      </trkpt>
      <trkpt lat="44.78078" lon="6.99354">
        <ele>2202</ele>
        <time>2022-01-04T09:54:01Z</time>
      </trkpt>
      <trkpt lat="44.78083" lon="6.99353">
        <ele>2201</ele>
        <time>2022-01-04T09:54:07Z</time>
      </trkpt>
      <trkpt lat="44.78085" lon="6.99355">
        <ele>2202</ele>
        <time>2022-01-04T09:54:11Z</time>
      </trkpt>
      <trkpt lat="44.78086" lon="6.99357">
        <ele>2202</ele>
        <time>2022-01-04T09:54:15Z</time>
      </trkpt>
      <trkpt lat="44.7809" lon="6.99365">
        <ele>2205</ele>
        <time>2022-01-04T09:54:26Z</time>
      </trkpt>
      <trkpt lat="44.78091" lon="6.99372">
        <ele>2207</ele>
        <time>2022-01-04T09:54:33Z</time>
      </trkpt>
      <trkpt lat="44.78095" lon="6.99379">
        <ele>2209</ele>
        <time>2022-01-04T09:54:42Z</time>
      </trkpt>
      <trkpt lat="44.78096" lon="6.99384">
        <ele>2210</ele>
        <time>2022-01-04T09:54:49Z</time>
      </trkpt>
      <trkpt lat="44.78098" lon="6.99388">
        <ele>2212</ele>
        <time>2022-01-04T09:54:55Z</time>
      </trkpt>
      <trkpt lat="44.781" lon="6.99389">
        <ele>2212</ele>
        <time>2022-01-04T09:54:59Z</time>
      </trkpt>
      <trkpt lat="44.781" lon="6.99392">
        <ele>2214</ele>
        <time>2022-01-04T09:55:03Z</time>
      </trkpt>
      <trkpt lat="44.781" lon="6.99395">
        <ele>2214</ele>
        <time>2022-01-04T09:55:07Z</time>
      </trkpt>
      <trkpt lat="44.78099" lon="6.99398">
        <ele>2215</ele>
        <time>2022-01-04T09:55:10Z</time>
      </trkpt>
      <trkpt lat="44.78098" lon="6.99401">
        <ele>2215</ele>
        <time>2022-01-04T09:55:13Z</time>
      </trkpt>
      <trkpt lat="44.78101" lon="6.994">
        <ele>2216</ele>
        <time>2022-01-04T09:55:21Z</time>
      </trkpt>
      <trkpt lat="44.78106" lon="6.99394">
        <ele>2219</ele>
        <time>2022-01-04T09:55:27Z</time>
      </trkpt>
      <trkpt lat="44.78108" lon="6.99393">
        <ele>2219</ele>
        <time>2022-01-04T09:55:29Z</time>
      </trkpt>
      <trkpt lat="44.78114" lon="6.99384">
        <ele>2222</ele>
        <time>2022-01-04T09:55:40Z</time>
      </trkpt>
      <trkpt lat="44.78117" lon="6.9938">
        <ele>2224</ele>
        <time>2022-01-04T09:55:45Z</time>
      </trkpt>
      <trkpt lat="44.78119" lon="6.99377">
        <ele>2224</ele>
        <time>2022-01-04T09:55:48Z</time>
      </trkpt>
      <trkpt lat="44.78121" lon="6.99375">
        <ele>2225</ele>
        <time>2022-01-04T09:55:52Z</time>
      </trkpt>
      <trkpt lat="44.78122" lon="6.99373">
        <ele>2226</ele>
        <time>2022-01-04T09:55:56Z</time>
      </trkpt>
      <trkpt lat="44.78123" lon="6.9937">
        <ele>2228</ele>
        <time>2022-01-04T09:55:59Z</time>
      </trkpt>
      <trkpt lat="44.78124" lon="6.99368">
        <ele>2228</ele>
        <time>2022-01-04T09:56:01Z</time>
      </trkpt>
      <trkpt lat="44.78123" lon="6.99364">
        <ele>2229</ele>
        <time>2022-01-04T09:56:05Z</time>
      </trkpt>
      <trkpt lat="44.78124" lon="6.99361">
        <ele>2229</ele>
        <time>2022-01-04T09:56:10Z</time>
      </trkpt>
      <trkpt lat="44.78126" lon="6.99359">
        <ele>2229</ele>
        <time>2022-01-04T09:56:14Z</time>
      </trkpt>
      <trkpt lat="44.78127" lon="6.99358">
        <ele>2229</ele>
        <time>2022-01-04T09:56:17Z</time>
      </trkpt>
      <trkpt lat="44.7813" lon="6.99354">
        <ele>2228</ele>
        <time>2022-01-04T09:56:28Z</time>
      </trkpt>
      <trkpt lat="44.78132" lon="6.99352">
        <ele>2227</ele>
        <time>2022-01-04T09:56:32Z</time>
      </trkpt>
      <trkpt lat="44.78134" lon="6.99354">
        <ele>2227</ele>
        <time>2022-01-04T09:56:34Z</time>
      </trkpt>
      <trkpt lat="44.78134" lon="6.99356">
        <ele>2228</ele>
        <time>2022-01-04T09:56:36Z</time>
      </trkpt>
      <trkpt lat="44.78134" lon="6.99362">
        <ele>2231</ele>
        <time>2022-01-04T09:56:40Z</time>
      </trkpt>
      <trkpt lat="44.78134" lon="6.99365">
        <ele>2232</ele>
        <time>2022-01-04T09:56:43Z</time>
      </trkpt>
      <trkpt lat="44.78136" lon="6.99373">
        <ele>2235</ele>
        <time>2022-01-04T09:56:56Z</time>
      </trkpt>
      <trkpt lat="44.78137" lon="6.99376">
        <ele>2235</ele>
        <time>2022-01-04T09:57:00Z</time>
      </trkpt>
      <trkpt lat="44.78138" lon="6.99377">
        <ele>2236</ele>
        <time>2022-01-04T09:57:03Z</time>
      </trkpt>
      <trkpt lat="44.78139" lon="6.99383">
        <ele>2237</ele>
        <time>2022-01-04T09:57:08Z</time>
      </trkpt>
      <trkpt lat="44.78138" lon="6.99386">
        <ele>2237</ele>
        <time>2022-01-04T09:57:11Z</time>
      </trkpt>
      <trkpt lat="44.78138" lon="6.99389">
        <ele>2238</ele>
        <time>2022-01-04T09:57:13Z</time>
      </trkpt>
      <trkpt lat="44.78137" lon="6.99392">
        <ele>2239</ele>
        <time>2022-01-04T09:57:16Z</time>
      </trkpt>
      <trkpt lat="44.78136" lon="6.99394">
        <ele>2241</ele>
        <time>2022-01-04T09:57:21Z</time>
      </trkpt>
      <trkpt lat="44.78137" lon="6.99402">
        <ele>2244</ele>
        <time>2022-01-04T09:57:33Z</time>
      </trkpt>
      <trkpt lat="44.78136" lon="6.99408">
        <ele>2246</ele>
        <time>2022-01-04T09:57:39Z</time>
      </trkpt>
      <trkpt lat="44.78136" lon="6.9941">
        <ele>2246</ele>
        <time>2022-01-04T09:57:43Z</time>
      </trkpt>
      <trkpt lat="44.7814" lon="6.99408">
        <ele>2247</ele>
        <time>2022-01-04T09:57:52Z</time>
      </trkpt>
      <trkpt lat="44.78141" lon="6.99407">
        <ele>2248</ele>
        <time>2022-01-04T09:57:55Z</time>
      </trkpt>
      <trkpt lat="44.78143" lon="6.99405">
        <ele>2248</ele>
        <time>2022-01-04T09:57:58Z</time>
      </trkpt>
      <trkpt lat="44.78145" lon="6.99404">
        <ele>2249</ele>
        <time>2022-01-04T09:58:02Z</time>
      </trkpt>
      <trkpt lat="44.78146" lon="6.99401">
        <ele>2249</ele>
        <time>2022-01-04T09:58:06Z</time>
      </trkpt>
      <trkpt lat="44.78148" lon="6.99401">
        <ele>2249</ele>
        <time>2022-01-04T09:58:09Z</time>
      </trkpt>
      <trkpt lat="44.78148" lon="6.99404">
        <ele>2250</ele>
        <time>2022-01-04T09:58:16Z</time>
      </trkpt>
      <trkpt lat="44.78148" lon="6.99408">
        <ele>2250</ele>
        <time>2022-01-04T09:58:20Z</time>
      </trkpt>
      <trkpt lat="44.78148" lon="6.99412">
        <ele>2251</ele>
        <time>2022-01-04T09:58:23Z</time>
      </trkpt>
      <trkpt lat="44.78147" lon="6.99414">
        <ele>2251</ele>
        <time>2022-01-04T09:58:26Z</time>
      </trkpt>
      <trkpt lat="44.78146" lon="6.99416">
        <ele>2251</ele>
        <time>2022-01-04T09:58:28Z</time>
      </trkpt>
      <trkpt lat="44.78145" lon="6.99419">
        <ele>2252</ele>
        <time>2022-01-04T09:58:31Z</time>
      </trkpt>
      <trkpt lat="44.78144" lon="6.99424">
        <ele>2252</ele>
        <time>2022-01-04T09:58:36Z</time>
      </trkpt>
      <trkpt lat="44.78143" lon="6.99426">
        <ele>2253</ele>
        <time>2022-01-04T09:58:39Z</time>
      </trkpt>
      <trkpt lat="44.78143" lon="6.99433">
        <ele>2253</ele>
        <time>2022-01-04T09:58:46Z</time>
      </trkpt>
      <trkpt lat="44.78142" lon="6.99436">
        <ele>2253</ele>
        <time>2022-01-04T09:58:49Z</time>
      </trkpt>
      <trkpt lat="44.78142" lon="6.99438">
        <ele>2253</ele>
        <time>2022-01-04T09:58:51Z</time>
      </trkpt>
      <trkpt lat="44.78141" lon="6.99441">
        <ele>2254</ele>
        <time>2022-01-04T09:58:53Z</time>
      </trkpt>
      <trkpt lat="44.78142" lon="6.99444">
        <ele>2255</ele>
        <time>2022-01-04T09:58:56Z</time>
      </trkpt>
      <trkpt lat="44.78142" lon="6.99447">
        <ele>2255</ele>
        <time>2022-01-04T09:58:59Z</time>
      </trkpt>
      <trkpt lat="44.78142" lon="6.99453">
        <ele>2257</ele>
        <time>2022-01-04T09:59:07Z</time>
      </trkpt>
      <trkpt lat="44.78142" lon="6.99455">
        <ele>2258</ele>
        <time>2022-01-04T09:59:15Z</time>
      </trkpt>
      <trkpt lat="44.78144" lon="6.99455">
        <ele>2258</ele>
        <time>2022-01-04T09:59:40Z</time>
      </trkpt>
      <trkpt lat="44.78145" lon="6.99454">
        <ele>2259</ele>
        <time>2022-01-04T09:59:42Z</time>
      </trkpt>
      <trkpt lat="44.78147" lon="6.99451">
        <ele>2260</ele>
        <time>2022-01-04T09:59:44Z</time>
      </trkpt>
      <trkpt lat="44.7815" lon="6.99446">
        <ele>2261</ele>
        <time>2022-01-04T09:59:49Z</time>
      </trkpt>
      <trkpt lat="44.78152" lon="6.99442">
        <ele>2262</ele>
        <time>2022-01-04T09:59:54Z</time>
      </trkpt>
      <trkpt lat="44.78158" lon="6.99437">
        <ele>2264</ele>
        <time>2022-01-04T10:00:01Z</time>
      </trkpt>
      <trkpt lat="44.78163" lon="6.99431">
        <ele>2265</ele>
        <time>2022-01-04T10:00:08Z</time>
      </trkpt>
      <trkpt lat="44.78161" lon="6.99433">
        <ele>2266</ele>
        <time>2022-01-04T10:00:24Z</time>
      </trkpt>
      <trkpt lat="44.7816" lon="6.99429">
        <ele>2267</ele>
        <time>2022-01-04T10:00:25Z</time>
      </trkpt>
      <trkpt lat="44.78163" lon="6.99425">
        <ele>2267</ele>
        <time>2022-01-04T10:00:31Z</time>
      </trkpt>
      <trkpt lat="44.78165" lon="6.99425">
        <ele>2267</ele>
        <time>2022-01-04T10:00:34Z</time>
      </trkpt>
      <trkpt lat="44.78166" lon="6.99422">
        <ele>2266</ele>
        <time>2022-01-04T10:00:40Z</time>
      </trkpt>
      <trkpt lat="44.78168" lon="6.99421">
        <ele>2266</ele>
        <time>2022-01-04T10:00:43Z</time>
      </trkpt>
      <trkpt lat="44.7817" lon="6.99419">
        <ele>2266</ele>
        <time>2022-01-04T10:00:47Z</time>
      </trkpt>
      <trkpt lat="44.78173" lon="6.99416">
        <ele>2267</ele>
        <time>2022-01-04T10:00:54Z</time>
      </trkpt>
      <trkpt lat="44.78175" lon="6.99415">
        <ele>2266</ele>
        <time>2022-01-04T10:00:58Z</time>
      </trkpt>
      <trkpt lat="44.78177" lon="6.99413">
        <ele>2267</ele>
        <time>2022-01-04T10:01:02Z</time>
      </trkpt>
      <trkpt lat="44.7818" lon="6.99414">
        <ele>2267</ele>
        <time>2022-01-04T10:01:05Z</time>
      </trkpt>
      <trkpt lat="44.78182" lon="6.99413">
        <ele>2267</ele>
        <time>2022-01-04T10:01:07Z</time>
      </trkpt>
      <trkpt lat="44.78184" lon="6.99412">
        <ele>2268</ele>
        <time>2022-01-04T10:01:09Z</time>
      </trkpt>
      <trkpt lat="44.78185" lon="6.9941">
        <ele>2268</ele>
        <time>2022-01-04T10:01:11Z</time>
      </trkpt>
      <trkpt lat="44.7819" lon="6.99406">
        <ele>2273</ele>
        <time>2022-01-04T10:01:30Z</time>
      </trkpt>
      <trkpt lat="44.78196" lon="6.99398">
        <ele>2277</ele>
        <time>2022-01-04T10:01:43Z</time>
      </trkpt>
      <trkpt lat="44.78198" lon="6.994">
        <ele>2277</ele>
        <time>2022-01-04T10:01:55Z</time>
      </trkpt>
      <trkpt lat="44.78198" lon="6.99403">
        <ele>2278</ele>
        <time>2022-01-04T10:01:58Z</time>
      </trkpt>
      <trkpt lat="44.78199" lon="6.99406">
        <ele>2278</ele>
        <time>2022-01-04T10:02:02Z</time>
      </trkpt>
      <trkpt lat="44.78197" lon="6.99413">
        <ele>2278</ele>
        <time>2022-01-04T10:02:10Z</time>
      </trkpt>
      <trkpt lat="44.78197" lon="6.99417">
        <ele>2279</ele>
        <time>2022-01-04T10:02:16Z</time>
      </trkpt>
      <trkpt lat="44.78196" lon="6.99423">
        <ele>2278</ele>
        <time>2022-01-04T10:02:21Z</time>
      </trkpt>
      <trkpt lat="44.78194" lon="6.99431">
        <ele>2279</ele>
        <time>2022-01-04T10:02:29Z</time>
      </trkpt>
      <trkpt lat="44.78193" lon="6.99437">
        <ele>2279</ele>
        <time>2022-01-04T10:02:35Z</time>
      </trkpt>
      <trkpt lat="44.78194" lon="6.99439">
        <ele>2279</ele>
        <time>2022-01-04T10:02:39Z</time>
      </trkpt>
      <trkpt lat="44.78193" lon="6.99442">
        <ele>2280</ele>
        <time>2022-01-04T10:02:42Z</time>
      </trkpt>
      <trkpt lat="44.78192" lon="6.99441">
        <ele>2280</ele>
        <time>2022-01-04T10:02:54Z</time>
      </trkpt>
      <trkpt lat="44.78201" lon="6.99431">
        <ele>2283</ele>
        <time>2022-01-04T10:03:05Z</time>
      </trkpt>
      <trkpt lat="44.78212" lon="6.99423">
        <ele>2284</ele>
        <time>2022-01-04T10:03:22Z</time>
      </trkpt>
      <trkpt lat="44.78214" lon="6.99422">
        <ele>2284</ele>
        <time>2022-01-04T10:03:26Z</time>
      </trkpt>
      <trkpt lat="44.78215" lon="6.99423">
        <ele>2284</ele>
        <time>2022-01-04T10:03:31Z</time>
      </trkpt>
      <trkpt lat="44.78214" lon="6.99431">
        <ele>2286</ele>
        <time>2022-01-04T10:03:39Z</time>
      </trkpt>
      <trkpt lat="44.78214" lon="6.99437">
        <ele>2287</ele>
        <time>2022-01-04T10:03:46Z</time>
      </trkpt>
      <trkpt lat="44.78213" lon="6.99439">
        <ele>2287</ele>
        <time>2022-01-04T10:03:49Z</time>
      </trkpt>
      <trkpt lat="44.78214" lon="6.99441">
        <ele>2287</ele>
        <time>2022-01-04T10:03:51Z</time>
      </trkpt>
      <trkpt lat="44.78214" lon="6.99445">
        <ele>2288</ele>
        <time>2022-01-04T10:03:55Z</time>
      </trkpt>
      <trkpt lat="44.78222" lon="6.99438">
        <ele>2290</ele>
        <time>2022-01-04T10:04:17Z</time>
      </trkpt>
      <trkpt lat="44.78223" lon="6.99436">
        <ele>2290</ele>
        <time>2022-01-04T10:04:19Z</time>
      </trkpt>
      <trkpt lat="44.78224" lon="6.99434">
        <ele>2291</ele>
        <time>2022-01-04T10:04:21Z</time>
      </trkpt>
      <trkpt lat="44.78227" lon="6.9943">
        <ele>2292</ele>
        <time>2022-01-04T10:04:29Z</time>
      </trkpt>
      <trkpt lat="44.78228" lon="6.99429">
        <ele>2293</ele>
        <time>2022-01-04T10:04:32Z</time>
      </trkpt>
      <trkpt lat="44.7823" lon="6.99426">
        <ele>2293</ele>
        <time>2022-01-04T10:04:36Z</time>
      </trkpt>
      <trkpt lat="44.78231" lon="6.99419">
        <ele>2296</ele>
        <time>2022-01-04T10:04:47Z</time>
      </trkpt>
      <trkpt lat="44.78235" lon="6.99414">
        <ele>2296</ele>
        <time>2022-01-04T10:04:53Z</time>
      </trkpt>
      <trkpt lat="44.78236" lon="6.99409">
        <ele>2297</ele>
        <time>2022-01-04T10:05:00Z</time>
      </trkpt>
      <trkpt lat="44.78237" lon="6.99404">
        <ele>2297</ele>
        <time>2022-01-04T10:05:04Z</time>
      </trkpt>
      <trkpt lat="44.78238" lon="6.99399">
        <ele>2298</ele>
        <time>2022-01-04T10:05:11Z</time>
      </trkpt>
      <trkpt lat="44.78238" lon="6.99396">
        <ele>2298</ele>
        <time>2022-01-04T10:05:17Z</time>
      </trkpt>
      <trkpt lat="44.78242" lon="6.99393">
        <ele>2303</ele>
        <time>2022-01-04T10:05:25Z</time>
      </trkpt>
      <trkpt lat="44.78243" lon="6.99391">
        <ele>2303</ele>
        <time>2022-01-04T10:05:27Z</time>
      </trkpt>
      <trkpt lat="44.78245" lon="6.9939">
        <ele>2304</ele>
        <time>2022-01-04T10:05:29Z</time>
      </trkpt>
      <trkpt lat="44.78249" lon="6.99391">
        <ele>2305</ele>
        <time>2022-01-04T10:05:34Z</time>
      </trkpt>
      <trkpt lat="44.78251" lon="6.99392">
        <ele>2305</ele>
        <time>2022-01-04T10:05:36Z</time>
      </trkpt>
      <trkpt lat="44.78253" lon="6.99396">
        <ele>2306</ele>
        <time>2022-01-04T10:05:41Z</time>
      </trkpt>
      <trkpt lat="44.78254" lon="6.99397">
        <ele>2305</ele>
        <time>2022-01-04T10:05:45Z</time>
      </trkpt>
      <trkpt lat="44.78256" lon="6.99399">
        <ele>2305</ele>
        <time>2022-01-04T10:05:49Z</time>
      </trkpt>
      <trkpt lat="44.78257" lon="6.994">
        <ele>2305</ele>
        <time>2022-01-04T10:05:52Z</time>
      </trkpt>
      <trkpt lat="44.78258" lon="6.99402">
        <ele>2305</ele>
        <time>2022-01-04T10:05:54Z</time>
      </trkpt>
      <trkpt lat="44.78261" lon="6.99407">
        <ele>2305</ele>
        <time>2022-01-04T10:06:00Z</time>
      </trkpt>
      <trkpt lat="44.78263" lon="6.99412">
        <ele>2305</ele>
        <time>2022-01-04T10:06:06Z</time>
      </trkpt>
      <trkpt lat="44.78265" lon="6.99417">
        <ele>2306</ele>
        <time>2022-01-04T10:06:12Z</time>
      </trkpt>
      <trkpt lat="44.78268" lon="6.99422">
        <ele>2306</ele>
        <time>2022-01-04T10:06:18Z</time>
      </trkpt>
      <trkpt lat="44.7827" lon="6.99423">
        <ele>2306</ele>
        <time>2022-01-04T10:06:20Z</time>
      </trkpt>
      <trkpt lat="44.78273" lon="6.99427">
        <ele>2307</ele>
        <time>2022-01-04T10:06:26Z</time>
      </trkpt>
      <trkpt lat="44.78275" lon="6.99428">
        <ele>2308</ele>
        <time>2022-01-04T10:06:29Z</time>
      </trkpt>
      <trkpt lat="44.78277" lon="6.99429">
        <ele>2308</ele>
        <time>2022-01-04T10:06:31Z</time>
      </trkpt>
      <trkpt lat="44.7828" lon="6.99432">
        <ele>2310</ele>
        <time>2022-01-04T10:06:36Z</time>
      </trkpt>
      <trkpt lat="44.78281" lon="6.99433">
        <ele>2310</ele>
        <time>2022-01-04T10:06:39Z</time>
      </trkpt>
      <trkpt lat="44.78283" lon="6.99436">
        <ele>2311</ele>
        <time>2022-01-04T10:06:42Z</time>
      </trkpt>
      <trkpt lat="44.78288" lon="6.99438">
        <ele>2312</ele>
        <time>2022-01-04T10:06:48Z</time>
      </trkpt>
      <trkpt lat="44.78289" lon="6.99441">
        <ele>2313</ele>
        <time>2022-01-04T10:06:51Z</time>
      </trkpt>
      <trkpt lat="44.7829" lon="6.99444">
        <ele>2314</ele>
        <time>2022-01-04T10:06:54Z</time>
      </trkpt>
      <trkpt lat="44.7829" lon="6.99447">
        <ele>2315</ele>
        <time>2022-01-04T10:06:57Z</time>
      </trkpt>
      <trkpt lat="44.78291" lon="6.99448">
        <ele>2315</ele>
        <time>2022-01-04T10:07:00Z</time>
      </trkpt>
      <trkpt lat="44.78292" lon="6.99452">
        <ele>2315</ele>
        <time>2022-01-04T10:07:03Z</time>
      </trkpt>
      <trkpt lat="44.78292" lon="6.99457">
        <ele>2315</ele>
        <time>2022-01-04T10:07:09Z</time>
      </trkpt>
      <trkpt lat="44.78293" lon="6.9946">
        <ele>2315</ele>
        <time>2022-01-04T10:07:13Z</time>
      </trkpt>
      <trkpt lat="44.78295" lon="6.9946">
        <ele>2315</ele>
        <time>2022-01-04T10:07:17Z</time>
      </trkpt>
      <trkpt lat="44.78297" lon="6.99459">
        <ele>2315</ele>
        <time>2022-01-04T10:07:20Z</time>
      </trkpt>
      <trkpt lat="44.78301" lon="6.99458">
        <ele>2316</ele>
        <time>2022-01-04T10:07:27Z</time>
      </trkpt>
      <trkpt lat="44.78302" lon="6.99457">
        <ele>2316</ele>
        <time>2022-01-04T10:07:30Z</time>
      </trkpt>
      <trkpt lat="44.78304" lon="6.99455">
        <ele>2316</ele>
        <time>2022-01-04T10:07:36Z</time>
      </trkpt>
      <trkpt lat="44.78304" lon="6.99452">
        <ele>2316</ele>
        <time>2022-01-04T10:07:40Z</time>
      </trkpt>
      <trkpt lat="44.78305" lon="6.9945">
        <ele>2317</ele>
        <time>2022-01-04T10:07:47Z</time>
      </trkpt>
      <trkpt lat="44.78307" lon="6.99449">
        <ele>2317</ele>
        <time>2022-01-04T10:07:50Z</time>
      </trkpt>
      <trkpt lat="44.78307" lon="6.99446">
        <ele>2317</ele>
        <time>2022-01-04T10:07:53Z</time>
      </trkpt>
      <trkpt lat="44.78308" lon="6.99444">
        <ele>2318</ele>
        <time>2022-01-04T10:07:56Z</time>
      </trkpt>
      <trkpt lat="44.78309" lon="6.99442">
        <ele>2318</ele>
        <time>2022-01-04T10:07:59Z</time>
      </trkpt>
      <trkpt lat="44.78313" lon="6.99439">
        <ele>2319</ele>
        <time>2022-01-04T10:08:05Z</time>
      </trkpt>
      <trkpt lat="44.7832" lon="6.99438">
        <ele>2320</ele>
        <time>2022-01-04T10:08:13Z</time>
      </trkpt>
      <trkpt lat="44.78322" lon="6.99437">
        <ele>2320</ele>
        <time>2022-01-04T10:08:15Z</time>
      </trkpt>
      <trkpt lat="44.78324" lon="6.99436">
        <ele>2320</ele>
        <time>2022-01-04T10:08:19Z</time>
      </trkpt>
      <trkpt lat="44.78324" lon="6.99433">
        <ele>2321</ele>
        <time>2022-01-04T10:08:23Z</time>
      </trkpt>
      <trkpt lat="44.78326" lon="6.99432">
        <ele>2321</ele>
        <time>2022-01-04T10:08:28Z</time>
      </trkpt>
      <trkpt lat="44.78328" lon="6.9943">
        <ele>2322</ele>
        <time>2022-01-04T10:08:30Z</time>
      </trkpt>
      <trkpt lat="44.78331" lon="6.9943">
        <ele>2322</ele>
        <time>2022-01-04T10:08:32Z</time>
      </trkpt>
      <trkpt lat="44.78333" lon="6.99429">
        <ele>2322</ele>
        <time>2022-01-04T10:08:35Z</time>
      </trkpt>
      <trkpt lat="44.78335" lon="6.99431">
        <ele>2322</ele>
        <time>2022-01-04T10:08:37Z</time>
      </trkpt>
      <trkpt lat="44.78337" lon="6.99431">
        <ele>2322</ele>
        <time>2022-01-04T10:08:40Z</time>
      </trkpt>
      <trkpt lat="44.78338" lon="6.99434">
        <ele>2322</ele>
        <time>2022-01-04T10:08:42Z</time>
      </trkpt>
      <trkpt lat="44.78339" lon="6.99436">
        <ele>2323</ele>
        <time>2022-01-04T10:08:44Z</time>
      </trkpt>
      <trkpt lat="44.7834" lon="6.99439">
        <ele>2324</ele>
        <time>2022-01-04T10:08:47Z</time>
      </trkpt>
      <trkpt lat="44.78341" lon="6.99441">
        <ele>2325</ele>
        <time>2022-01-04T10:08:50Z</time>
      </trkpt>
      <trkpt lat="44.78342" lon="6.99444">
        <ele>2326</ele>
        <time>2022-01-04T10:08:53Z</time>
      </trkpt>
      <trkpt lat="44.78344" lon="6.99444">
        <ele>2327</ele>
        <time>2022-01-04T10:09:01Z</time>
      </trkpt>
      <trkpt lat="44.78346" lon="6.99443">
        <ele>2328</ele>
        <time>2022-01-04T10:09:04Z</time>
      </trkpt>
      <trkpt lat="44.78348" lon="6.99441">
        <ele>2328</ele>
        <time>2022-01-04T10:09:07Z</time>
      </trkpt>
      <trkpt lat="44.7835" lon="6.99439">
        <ele>2329</ele>
        <time>2022-01-04T10:09:10Z</time>
      </trkpt>
      <trkpt lat="44.78352" lon="6.99438">
        <ele>2329</ele>
        <time>2022-01-04T10:09:14Z</time>
      </trkpt>
      <trkpt lat="44.78354" lon="6.99443">
        <ele>2329</ele>
        <time>2022-01-04T10:09:21Z</time>
      </trkpt>
      <trkpt lat="44.78355" lon="6.99444">
        <ele>2330</ele>
        <time>2022-01-04T10:09:26Z</time>
      </trkpt>
      <trkpt lat="44.78357" lon="6.99444">
        <ele>2331</ele>
        <time>2022-01-04T10:09:32Z</time>
      </trkpt>
      <trkpt lat="44.78358" lon="6.99441">
        <ele>2331</ele>
        <time>2022-01-04T10:09:35Z</time>
      </trkpt>
      <trkpt lat="44.78361" lon="6.99431">
        <ele>2334</ele>
        <time>2022-01-04T10:09:48Z</time>
      </trkpt>
      <trkpt lat="44.78362" lon="6.99428">
        <ele>2334</ele>
        <time>2022-01-04T10:09:52Z</time>
      </trkpt>
      <trkpt lat="44.78365" lon="6.99425">
        <ele>2335</ele>
        <time>2022-01-04T10:09:56Z</time>
      </trkpt>
      <trkpt lat="44.78366" lon="6.99421">
        <ele>2335</ele>
        <time>2022-01-04T10:10:00Z</time>
      </trkpt>
      <trkpt lat="44.78367" lon="6.99419">
        <ele>2336</ele>
        <time>2022-01-04T10:10:03Z</time>
      </trkpt>
      <trkpt lat="44.78369" lon="6.99417">
        <ele>2337</ele>
        <time>2022-01-04T10:10:07Z</time>
      </trkpt>
      <trkpt lat="44.7837" lon="6.9942">
        <ele>2337</ele>
        <time>2022-01-04T10:10:12Z</time>
      </trkpt>
      <trkpt lat="44.78371" lon="6.99422">
        <ele>2338</ele>
        <time>2022-01-04T10:10:15Z</time>
      </trkpt>
      <trkpt lat="44.78372" lon="6.99424">
        <ele>2338</ele>
        <time>2022-01-04T10:10:17Z</time>
      </trkpt>
      <trkpt lat="44.78378" lon="6.9945">
        <ele>2341</ele>
        <time>2022-01-04T10:10:47Z</time>
      </trkpt>
      <trkpt lat="44.78378" lon="6.99456">
        <ele>2342</ele>
        <time>2022-01-04T10:10:53Z</time>
      </trkpt>
      <trkpt lat="44.78379" lon="6.99461">
        <ele>2344</ele>
        <time>2022-01-04T10:11:01Z</time>
      </trkpt>
      <trkpt lat="44.78379" lon="6.99464">
        <ele>2345</ele>
        <time>2022-01-04T10:11:04Z</time>
      </trkpt>
      <trkpt lat="44.78383" lon="6.99471">
        <ele>2347</ele>
        <time>2022-01-04T10:11:15Z</time>
      </trkpt>
      <trkpt lat="44.78385" lon="6.99475">
        <ele>2348</ele>
        <time>2022-01-04T10:11:20Z</time>
      </trkpt>
      <trkpt lat="44.78388" lon="6.99485">
        <ele>2351</ele>
        <time>2022-01-04T10:11:32Z</time>
      </trkpt>
      <trkpt lat="44.78388" lon="6.99499">
        <ele>2353</ele>
        <time>2022-01-04T10:11:45Z</time>
      </trkpt>
      <trkpt lat="44.78387" lon="6.99502">
        <ele>2354</ele>
        <time>2022-01-04T10:11:48Z</time>
      </trkpt>
      <trkpt lat="44.78388" lon="6.99505">
        <ele>2354</ele>
        <time>2022-01-04T10:11:51Z</time>
      </trkpt>
      <trkpt lat="44.7839" lon="6.99511">
        <ele>2356</ele>
        <time>2022-01-04T10:11:57Z</time>
      </trkpt>
      <trkpt lat="44.78392" lon="6.99519">
        <ele>2358</ele>
        <time>2022-01-04T10:12:06Z</time>
      </trkpt>
      <trkpt lat="44.78394" lon="6.99524">
        <ele>2359</ele>
        <time>2022-01-04T10:12:12Z</time>
      </trkpt>
      <trkpt lat="44.78394" lon="6.99527">
        <ele>2359</ele>
        <time>2022-01-04T10:12:15Z</time>
      </trkpt>
      <trkpt lat="44.78396" lon="6.99529">
        <ele>2359</ele>
        <time>2022-01-04T10:12:18Z</time>
      </trkpt>
      <trkpt lat="44.78398" lon="6.99531">
        <ele>2359</ele>
        <time>2022-01-04T10:12:21Z</time>
      </trkpt>
      <trkpt lat="44.784" lon="6.99536">
        <ele>2359</ele>
        <time>2022-01-04T10:12:27Z</time>
      </trkpt>
      <trkpt lat="44.78403" lon="6.99547">
        <ele>2359</ele>
        <time>2022-01-04T10:12:38Z</time>
      </trkpt>
      <trkpt lat="44.78403" lon="6.9955">
        <ele>2359</ele>
        <time>2022-01-04T10:12:41Z</time>
      </trkpt>
      <trkpt lat="44.78403" lon="6.99553">
        <ele>2359</ele>
        <time>2022-01-04T10:12:45Z</time>
      </trkpt>
      <trkpt lat="44.78405" lon="6.9956">
        <ele>2360</ele>
        <time>2022-01-04T10:12:51Z</time>
      </trkpt>
      <trkpt lat="44.78407" lon="6.99561">
        <ele>2361</ele>
        <time>2022-01-04T10:12:54Z</time>
      </trkpt>
      <trkpt lat="44.78413" lon="6.99574">
        <ele>2364</ele>
        <time>2022-01-04T10:13:09Z</time>
      </trkpt>
      <trkpt lat="44.78415" lon="6.99575">
        <ele>2364</ele>
        <time>2022-01-04T10:13:12Z</time>
      </trkpt>
      <trkpt lat="44.78417" lon="6.99576">
        <ele>2365</ele>
        <time>2022-01-04T10:13:16Z</time>
      </trkpt>
      <trkpt lat="44.7842" lon="6.99584">
        <ele>2366</ele>
        <time>2022-01-04T10:13:26Z</time>
      </trkpt>
      <trkpt lat="44.78421" lon="6.99585">
        <ele>2367</ele>
        <time>2022-01-04T10:13:29Z</time>
      </trkpt>
      <trkpt lat="44.78423" lon="6.99586">
        <ele>2367</ele>
        <time>2022-01-04T10:13:32Z</time>
      </trkpt>
      <trkpt lat="44.78425" lon="6.99585">
        <ele>2367</ele>
        <time>2022-01-04T10:13:35Z</time>
      </trkpt>
      <trkpt lat="44.78427" lon="6.99584">
        <ele>2367</ele>
        <time>2022-01-04T10:13:39Z</time>
      </trkpt>
      <trkpt lat="44.78432" lon="6.99585">
        <ele>2367</ele>
        <time>2022-01-04T10:13:48Z</time>
      </trkpt>
      <trkpt lat="44.78432" lon="6.99584">
        <ele>2366</ele>
        <time>2022-01-04T10:14:03Z</time>
      </trkpt>
      <trkpt lat="44.78431" lon="6.99582">
        <ele>2366</ele>
        <time>2022-01-04T10:14:05Z</time>
      </trkpt>
      <trkpt lat="44.7843" lon="6.9958">
        <ele>2366</ele>
        <time>2022-01-04T10:14:07Z</time>
      </trkpt>
      <trkpt lat="44.78429" lon="6.99577">
        <ele>2365</ele>
        <time>2022-01-04T10:14:10Z</time>
      </trkpt>
      <trkpt lat="44.78429" lon="6.99574">
        <ele>2365</ele>
        <time>2022-01-04T10:14:14Z</time>
      </trkpt>
      <trkpt lat="44.78428" lon="6.99568">
        <ele>2365</ele>
        <time>2022-01-04T10:14:20Z</time>
      </trkpt>
      <trkpt lat="44.78428" lon="6.99565">
        <ele>2365</ele>
        <time>2022-01-04T10:14:23Z</time>
      </trkpt>
      <trkpt lat="44.78429" lon="6.99562">
        <ele>2368</ele>
        <time>2022-01-04T10:14:32Z</time>
      </trkpt>
      <trkpt lat="44.7843" lon="6.9956">
        <ele>2370</ele>
        <time>2022-01-04T10:14:36Z</time>
      </trkpt>
      <trkpt lat="44.7843" lon="6.99557">
        <ele>2371</ele>
        <time>2022-01-04T10:14:41Z</time>
      </trkpt>
      <trkpt lat="44.78432" lon="6.99556">
        <ele>2374</ele>
        <time>2022-01-04T10:14:54Z</time>
      </trkpt>
      <trkpt lat="44.78433" lon="6.99553">
        <ele>2374</ele>
        <time>2022-01-04T10:15:29Z</time>
      </trkpt>
      <trkpt lat="44.78435" lon="6.99552">
        <ele>2375</ele>
        <time>2022-01-04T10:15:33Z</time>
      </trkpt>
      <trkpt lat="44.78437" lon="6.9955">
        <ele>2375</ele>
        <time>2022-01-04T10:15:36Z</time>
      </trkpt>
      <trkpt lat="44.78439" lon="6.99549">
        <ele>2375</ele>
        <time>2022-01-04T10:15:39Z</time>
      </trkpt>
      <trkpt lat="44.78441" lon="6.99547">
        <ele>2376</ele>
        <time>2022-01-04T10:15:42Z</time>
      </trkpt>
      <trkpt lat="44.78442" lon="6.99545">
        <ele>2376</ele>
        <time>2022-01-04T10:15:45Z</time>
      </trkpt>
      <trkpt lat="44.78443" lon="6.99542">
        <ele>2376</ele>
        <time>2022-01-04T10:15:48Z</time>
      </trkpt>
      <trkpt lat="44.78447" lon="6.99541">
        <ele>2378</ele>
        <time>2022-01-04T10:15:54Z</time>
      </trkpt>
      <trkpt lat="44.78449" lon="6.99543">
        <ele>2379</ele>
        <time>2022-01-04T10:15:58Z</time>
      </trkpt>
      <trkpt lat="44.78451" lon="6.99544">
        <ele>2380</ele>
        <time>2022-01-04T10:16:03Z</time>
      </trkpt>
      <trkpt lat="44.78452" lon="6.99547">
        <ele>2381</ele>
        <time>2022-01-04T10:16:08Z</time>
      </trkpt>
      <trkpt lat="44.78452" lon="6.99549">
        <ele>2383</ele>
        <time>2022-01-04T10:16:12Z</time>
      </trkpt>
      <trkpt lat="44.78453" lon="6.99552">
        <ele>2384</ele>
        <time>2022-01-04T10:16:16Z</time>
      </trkpt>
      <trkpt lat="44.78454" lon="6.99558">
        <ele>2386</ele>
        <time>2022-01-04T10:16:24Z</time>
      </trkpt>
      <trkpt lat="44.78463" lon="6.99567">
        <ele>2389</ele>
        <time>2022-01-04T10:16:45Z</time>
      </trkpt>
      <trkpt lat="44.78466" lon="6.99567">
        <ele>2390</ele>
        <time>2022-01-04T10:16:50Z</time>
      </trkpt>
      <trkpt lat="44.78468" lon="6.99568">
        <ele>2391</ele>
        <time>2022-01-04T10:16:53Z</time>
      </trkpt>
      <trkpt lat="44.78471" lon="6.99573">
        <ele>2393</ele>
        <time>2022-01-04T10:16:59Z</time>
      </trkpt>
      <trkpt lat="44.78476" lon="6.99577">
        <ele>2395</ele>
        <time>2022-01-04T10:17:11Z</time>
      </trkpt>
      <trkpt lat="44.78481" lon="6.99579">
        <ele>2396</ele>
        <time>2022-01-04T10:17:19Z</time>
      </trkpt>
      <trkpt lat="44.78483" lon="6.99578">
        <ele>2397</ele>
        <time>2022-01-04T10:17:23Z</time>
      </trkpt>
      <trkpt lat="44.78484" lon="6.99579">
        <ele>2397</ele>
        <time>2022-01-04T10:17:27Z</time>
      </trkpt>
      <trkpt lat="44.78486" lon="6.99578">
        <ele>2398</ele>
        <time>2022-01-04T10:17:31Z</time>
      </trkpt>
      <trkpt lat="44.78489" lon="6.99579">
        <ele>2398</ele>
        <time>2022-01-04T10:17:36Z</time>
      </trkpt>
      <trkpt lat="44.78491" lon="6.99579">
        <ele>2398</ele>
        <time>2022-01-04T10:17:41Z</time>
      </trkpt>
      <trkpt lat="44.78493" lon="6.99579">
        <ele>2398</ele>
        <time>2022-01-04T10:17:44Z</time>
      </trkpt>
      <trkpt lat="44.78495" lon="6.99582">
        <ele>2398</ele>
        <time>2022-01-04T10:17:53Z</time>
      </trkpt>
      <trkpt lat="44.78496" lon="6.99584">
        <ele>2398</ele>
        <time>2022-01-04T10:17:56Z</time>
      </trkpt>
      <trkpt lat="44.78498" lon="6.99584">
        <ele>2399</ele>
        <time>2022-01-04T10:17:59Z</time>
      </trkpt>
      <trkpt lat="44.78501" lon="6.99584">
        <ele>2398</ele>
        <time>2022-01-04T10:18:05Z</time>
      </trkpt>
      <trkpt lat="44.78503" lon="6.99585">
        <ele>2397</ele>
        <time>2022-01-04T10:18:09Z</time>
      </trkpt>
      <trkpt lat="44.78504" lon="6.99588">
        <ele>2396</ele>
        <time>2022-01-04T10:18:13Z</time>
      </trkpt>
      <trkpt lat="44.78505" lon="6.9959">
        <ele>2397</ele>
        <time>2022-01-04T10:18:18Z</time>
      </trkpt>
      <trkpt lat="44.78507" lon="6.99593">
        <ele>2398</ele>
        <time>2022-01-04T10:18:23Z</time>
      </trkpt>
      <trkpt lat="44.78507" lon="6.99595">
        <ele>2398</ele>
        <time>2022-01-04T10:18:26Z</time>
      </trkpt>
      <trkpt lat="44.7851" lon="6.99596">
        <ele>2400</ele>
        <time>2022-01-04T10:18:39Z</time>
      </trkpt>
      <trkpt lat="44.78511" lon="6.99595">
        <ele>2401</ele>
        <time>2022-01-04T10:18:47Z</time>
      </trkpt>
      <trkpt lat="44.78514" lon="6.99597">
        <ele>2403</ele>
        <time>2022-01-04T10:18:53Z</time>
      </trkpt>
      <trkpt lat="44.78515" lon="6.99605">
        <ele>2407</ele>
        <time>2022-01-04T10:18:59Z</time>
      </trkpt>
      <trkpt lat="44.78515" lon="6.99608">
        <ele>2408</ele>
        <time>2022-01-04T10:19:01Z</time>
      </trkpt>
      <trkpt lat="44.78516" lon="6.99612">
        <ele>2409</ele>
        <time>2022-01-04T10:19:03Z</time>
      </trkpt>
      <trkpt lat="44.78517" lon="6.99614">
        <ele>2411</ele>
        <time>2022-01-04T10:19:06Z</time>
      </trkpt>
      <trkpt lat="44.7852" lon="6.99619">
        <ele>2414</ele>
        <time>2022-01-04T10:19:12Z</time>
      </trkpt>
      <trkpt lat="44.78522" lon="6.99624">
        <ele>2416</ele>
        <time>2022-01-04T10:19:19Z</time>
      </trkpt>
      <trkpt lat="44.78523" lon="6.99627">
        <ele>2418</ele>
        <time>2022-01-04T10:19:23Z</time>
      </trkpt>
      <trkpt lat="44.78524" lon="6.99633">
        <ele>2421</ele>
        <time>2022-01-04T10:19:30Z</time>
      </trkpt>
      <trkpt lat="44.78525" lon="6.99635">
        <ele>2421</ele>
        <time>2022-01-04T10:19:33Z</time>
      </trkpt>
      <trkpt lat="44.78529" lon="6.99637">
        <ele>2423</ele>
        <time>2022-01-04T10:19:44Z</time>
      </trkpt>
      <trkpt lat="44.78533" lon="6.99638">
        <ele>2424</ele>
        <time>2022-01-04T10:19:51Z</time>
      </trkpt>
      <trkpt lat="44.78534" lon="6.99641">
        <ele>2424</ele>
        <time>2022-01-04T10:19:56Z</time>
      </trkpt>
      <trkpt lat="44.78536" lon="6.99642">
        <ele>2424</ele>
        <time>2022-01-04T10:20:01Z</time>
      </trkpt>
      <trkpt lat="44.78538" lon="6.99641">
        <ele>2423</ele>
        <time>2022-01-04T10:20:04Z</time>
      </trkpt>
      <trkpt lat="44.7854" lon="6.99642">
        <ele>2423</ele>
        <time>2022-01-04T10:20:09Z</time>
      </trkpt>
      <trkpt lat="44.78542" lon="6.99644">
        <ele>2423</ele>
        <time>2022-01-04T10:20:14Z</time>
      </trkpt>
      <trkpt lat="44.78544" lon="6.99645">
        <ele>2424</ele>
        <time>2022-01-04T10:20:18Z</time>
      </trkpt>
      <trkpt lat="44.78544" lon="6.99648">
        <ele>2424</ele>
        <time>2022-01-04T10:20:23Z</time>
      </trkpt>
      <trkpt lat="44.78547" lon="6.9965">
        <ele>2425</ele>
        <time>2022-01-04T10:20:31Z</time>
      </trkpt>
      <trkpt lat="44.78548" lon="6.9966">
        <ele>2425</ele>
        <time>2022-01-04T10:20:41Z</time>
      </trkpt>
      <trkpt lat="44.78552" lon="6.99662">
        <ele>2425</ele>
        <time>2022-01-04T10:20:50Z</time>
      </trkpt>
      <trkpt lat="44.78557" lon="6.99667">
        <ele>2426</ele>
        <time>2022-01-04T10:21:02Z</time>
      </trkpt>
      <trkpt lat="44.78561" lon="6.99675">
        <ele>2427</ele>
        <time>2022-01-04T10:21:15Z</time>
      </trkpt>
      <trkpt lat="44.78562" lon="6.99678">
        <ele>2427</ele>
        <time>2022-01-04T10:21:20Z</time>
      </trkpt>
      <trkpt lat="44.78562" lon="6.99684">
        <ele>2430</ele>
        <time>2022-01-04T10:21:27Z</time>
      </trkpt>
      <trkpt lat="44.78565" lon="6.99688">
        <ele>2431</ele>
        <time>2022-01-04T10:21:34Z</time>
      </trkpt>
      <trkpt lat="44.78565" lon="6.99691">
        <ele>2432</ele>
        <time>2022-01-04T10:21:38Z</time>
      </trkpt>
      <trkpt lat="44.78568" lon="6.99692">
        <ele>2434</ele>
        <time>2022-01-04T10:21:43Z</time>
      </trkpt>
      <trkpt lat="44.7857" lon="6.99691">
        <ele>2435</ele>
        <time>2022-01-04T10:21:46Z</time>
      </trkpt>
      <trkpt lat="44.78572" lon="6.99692">
        <ele>2435</ele>
        <time>2022-01-04T10:21:51Z</time>
      </trkpt>
      <trkpt lat="44.78574" lon="6.99695">
        <ele>2435</ele>
        <time>2022-01-04T10:21:59Z</time>
      </trkpt>
      <trkpt lat="44.78575" lon="6.99697">
        <ele>2435</ele>
        <time>2022-01-04T10:22:04Z</time>
      </trkpt>
      <trkpt lat="44.78576" lon="6.99703">
        <ele>2436</ele>
        <time>2022-01-04T10:22:11Z</time>
      </trkpt>
      <trkpt lat="44.78578" lon="6.99705">
        <ele>2437</ele>
        <time>2022-01-04T10:22:14Z</time>
      </trkpt>
      <trkpt lat="44.7858" lon="6.99707">
        <ele>2437</ele>
        <time>2022-01-04T10:22:18Z</time>
      </trkpt>
      <trkpt lat="44.78583" lon="6.99713">
        <ele>2438</ele>
        <time>2022-01-04T10:22:26Z</time>
      </trkpt>
      <trkpt lat="44.78585" lon="6.99716">
        <ele>2440</ele>
        <time>2022-01-04T10:22:30Z</time>
      </trkpt>
      <trkpt lat="44.78587" lon="6.99718">
        <ele>2441</ele>
        <time>2022-01-04T10:22:34Z</time>
      </trkpt>
      <trkpt lat="44.78588" lon="6.9972">
        <ele>2441</ele>
        <time>2022-01-04T10:22:39Z</time>
      </trkpt>
      <trkpt lat="44.78589" lon="6.99723">
        <ele>2441</ele>
        <time>2022-01-04T10:22:43Z</time>
      </trkpt>
      <trkpt lat="44.78589" lon="6.99726">
        <ele>2441</ele>
        <time>2022-01-04T10:22:47Z</time>
      </trkpt>
      <trkpt lat="44.78593" lon="6.99728">
        <ele>2442</ele>
        <time>2022-01-04T10:22:56Z</time>
      </trkpt>
      <trkpt lat="44.78595" lon="6.99734">
        <ele>2442</ele>
        <time>2022-01-04T10:23:04Z</time>
      </trkpt>
      <trkpt lat="44.78594" lon="6.99736">
        <ele>2445</ele>
        <time>2022-01-04T10:23:06Z</time>
      </trkpt>
      <trkpt lat="44.78594" lon="6.99739">
        <ele>2448</ele>
        <time>2022-01-04T10:23:08Z</time>
      </trkpt>
      <trkpt lat="44.78595" lon="6.99742">
        <ele>2453</ele>
        <time>2022-01-04T10:23:15Z</time>
      </trkpt>
      <trkpt lat="44.78595" lon="6.99745">
        <ele>2454</ele>
        <time>2022-01-04T10:23:19Z</time>
      </trkpt>
      <trkpt lat="44.78596" lon="6.99749">
        <ele>2454</ele>
        <time>2022-01-04T10:23:25Z</time>
      </trkpt>
      <trkpt lat="44.78597" lon="6.99753">
        <ele>2455</ele>
        <time>2022-01-04T10:23:28Z</time>
      </trkpt>
      <trkpt lat="44.78597" lon="6.99756">
        <ele>2457</ele>
        <time>2022-01-04T10:23:31Z</time>
      </trkpt>
      <trkpt lat="44.786" lon="6.99758">
        <ele>2458</ele>
        <time>2022-01-04T10:23:39Z</time>
      </trkpt>
      <trkpt lat="44.78601" lon="6.9976">
        <ele>2459</ele>
        <time>2022-01-04T10:23:43Z</time>
      </trkpt>
      <trkpt lat="44.78608" lon="6.99762">
        <ele>2460</ele>
        <time>2022-01-04T10:23:50Z</time>
      </trkpt>
      <trkpt lat="44.78609" lon="6.99761">
        <ele>2461</ele>
        <time>2022-01-04T10:23:52Z</time>
      </trkpt>
      <trkpt lat="44.78611" lon="6.99763">
        <ele>2461</ele>
        <time>2022-01-04T10:23:55Z</time>
      </trkpt>
      <trkpt lat="44.78612" lon="6.99767">
        <ele>2461</ele>
        <time>2022-01-04T10:23:59Z</time>
      </trkpt>
      <trkpt lat="44.78613" lon="6.99778">
        <ele>2460</ele>
        <time>2022-01-04T10:24:13Z</time>
      </trkpt>
      <trkpt lat="44.78615" lon="6.99783">
        <ele>2460</ele>
        <time>2022-01-04T10:24:24Z</time>
      </trkpt>
      <trkpt lat="44.78617" lon="6.99779">
        <ele>2461</ele>
        <time>2022-01-04T10:24:33Z</time>
      </trkpt>
      <trkpt lat="44.78619" lon="6.99776">
        <ele>2462</ele>
        <time>2022-01-04T10:24:38Z</time>
      </trkpt>
      <trkpt lat="44.78621" lon="6.99775">
        <ele>2463</ele>
        <time>2022-01-04T10:24:43Z</time>
      </trkpt>
      <trkpt lat="44.78624" lon="6.99767">
        <ele>2464</ele>
        <time>2022-01-04T10:24:52Z</time>
      </trkpt>
      <trkpt lat="44.78623" lon="6.99764">
        <ele>2463</ele>
        <time>2022-01-04T10:24:56Z</time>
      </trkpt>
      <trkpt lat="44.78624" lon="6.99761">
        <ele>2463</ele>
        <time>2022-01-04T10:25:02Z</time>
      </trkpt>
      <trkpt lat="44.78626" lon="6.99759">
        <ele>2463</ele>
        <time>2022-01-04T10:25:05Z</time>
      </trkpt>
      <trkpt lat="44.78628" lon="6.99756">
        <ele>2463</ele>
        <time>2022-01-04T10:25:08Z</time>
      </trkpt>
      <trkpt lat="44.7863" lon="6.99754">
        <ele>2465</ele>
        <time>2022-01-04T10:25:12Z</time>
      </trkpt>
      <trkpt lat="44.78631" lon="6.9975">
        <ele>2464</ele>
        <time>2022-01-04T10:25:25Z</time>
      </trkpt>
      <trkpt lat="44.78634" lon="6.9975">
        <ele>2463</ele>
        <time>2022-01-04T10:25:41Z</time>
      </trkpt>
      <trkpt lat="44.78637" lon="6.99752">
        <ele>2460</ele>
        <time>2022-01-04T10:25:46Z</time>
      </trkpt>
      <trkpt lat="44.78638" lon="6.99756">
        <ele>2463</ele>
        <time>2022-01-04T10:25:51Z</time>
      </trkpt>
      <trkpt lat="44.78639" lon="6.99768">
        <ele>2474</ele>
        <time>2022-01-04T10:26:13Z</time>
      </trkpt>
      <trkpt lat="44.78642" lon="6.99774">
        <ele>2476</ele>
        <time>2022-01-04T10:26:26Z</time>
      </trkpt>
      <trkpt lat="44.78644" lon="6.99778">
        <ele>2476</ele>
        <time>2022-01-04T10:26:31Z</time>
      </trkpt>
      <trkpt lat="44.78646" lon="6.99781">
        <ele>2476</ele>
        <time>2022-01-04T10:26:35Z</time>
      </trkpt>
      <trkpt lat="44.78647" lon="6.99784">
        <ele>2476</ele>
        <time>2022-01-04T10:26:46Z</time>
      </trkpt>
      <trkpt lat="44.78648" lon="6.99789">
        <ele>2476</ele>
        <time>2022-01-04T10:26:53Z</time>
      </trkpt>
      <trkpt lat="44.78649" lon="6.99792">
        <ele>2477</ele>
        <time>2022-01-04T10:27:01Z</time>
      </trkpt>
      <trkpt lat="44.78651" lon="6.99795">
        <ele>2477</ele>
        <time>2022-01-04T10:27:04Z</time>
      </trkpt>
      <trkpt lat="44.78653" lon="6.99798">
        <ele>2476</ele>
        <time>2022-01-04T10:27:10Z</time>
      </trkpt>
      <trkpt lat="44.78653" lon="6.99802">
        <ele>2476</ele>
        <time>2022-01-04T10:27:15Z</time>
      </trkpt>
      <trkpt lat="44.78654" lon="6.99807">
        <ele>2476</ele>
        <time>2022-01-04T10:27:21Z</time>
      </trkpt>
      <trkpt lat="44.78652" lon="6.99811">
        <ele>2479</ele>
        <time>2022-01-04T10:27:26Z</time>
      </trkpt>
      <trkpt lat="44.78651" lon="6.99815">
        <ele>2484</ele>
        <time>2022-01-04T10:27:29Z</time>
      </trkpt>
      <trkpt lat="44.78651" lon="6.99822">
        <ele>2492</ele>
        <time>2022-01-04T10:27:44Z</time>
      </trkpt>
      <trkpt lat="44.78652" lon="6.99825">
        <ele>2494</ele>
        <time>2022-01-04T10:27:47Z</time>
      </trkpt>
      <trkpt lat="44.78654" lon="6.99827">
        <ele>2496</ele>
        <time>2022-01-04T10:27:52Z</time>
      </trkpt>
      <trkpt lat="44.78655" lon="6.9983">
        <ele>2498</ele>
        <time>2022-01-04T10:27:56Z</time>
      </trkpt>
      <trkpt lat="44.78656" lon="6.99834">
        <ele>2499</ele>
        <time>2022-01-04T10:28:06Z</time>
      </trkpt>
      <trkpt lat="44.78656" lon="6.99834">
        <ele>2493</ele>
        <time>2022-01-04T10:28:32Z</time>
      </trkpt>
      <trkpt lat="44.78658" lon="6.9983">
        <ele>2492</ele>
        <time>2022-01-04T10:28:42Z</time>
      </trkpt>
      <trkpt lat="44.78659" lon="6.99826">
        <ele>2487</ele>
        <time>2022-01-04T10:28:47Z</time>
      </trkpt>
      <trkpt lat="44.78661" lon="6.99822">
        <ele>2487</ele>
        <time>2022-01-04T10:28:52Z</time>
      </trkpt>
      <trkpt lat="44.78665" lon="6.99822">
        <ele>2487</ele>
        <time>2022-01-04T10:29:00Z</time>
      </trkpt>
      <trkpt lat="44.78667" lon="6.99826">
        <ele>2488</ele>
        <time>2022-01-04T10:29:04Z</time>
      </trkpt>
      <trkpt lat="44.78669" lon="6.99829">
        <ele>2492</ele>
        <time>2022-01-04T10:29:11Z</time>
      </trkpt>
      <trkpt lat="44.78671" lon="6.99832">
        <ele>2492</ele>
        <time>2022-01-04T10:29:17Z</time>
      </trkpt>
      <trkpt lat="44.78673" lon="6.99835">
        <ele>2492</ele>
        <time>2022-01-04T10:29:22Z</time>
      </trkpt>
      <trkpt lat="44.78674" lon="6.99839">
        <ele>2492</ele>
        <time>2022-01-04T10:29:26Z</time>
      </trkpt>
      <trkpt lat="44.78674" lon="6.99844">
        <ele>2492</ele>
        <time>2022-01-04T10:29:31Z</time>
      </trkpt>
      <trkpt lat="44.78675" lon="6.99847">
        <ele>2492</ele>
        <time>2022-01-04T10:29:39Z</time>
      </trkpt>
      <trkpt lat="44.78676" lon="6.99851">
        <ele>2491</ele>
        <time>2022-01-04T10:29:46Z</time>
      </trkpt>
      <trkpt lat="44.78678" lon="6.9986">
        <ele>2488</ele>
        <time>2022-01-04T10:30:05Z</time>
      </trkpt>
      <trkpt lat="44.78679" lon="6.99864">
        <ele>2488</ele>
        <time>2022-01-04T10:30:09Z</time>
      </trkpt>
      <trkpt lat="44.78679" lon="6.99868">
        <ele>2487</ele>
        <time>2022-01-04T10:30:14Z</time>
      </trkpt>
      <trkpt lat="44.78682" lon="6.99869">
        <ele>2489</ele>
        <time>2022-01-04T10:30:30Z</time>
      </trkpt>
      <trkpt lat="44.78689" lon="6.99859">
        <ele>2493</ele>
        <time>2022-01-04T10:30:50Z</time>
      </trkpt>
      <trkpt lat="44.78693" lon="6.99853">
        <ele>2494</ele>
        <time>2022-01-04T10:31:02Z</time>
      </trkpt>
      <trkpt lat="44.78695" lon="6.99849">
        <ele>2494</ele>
        <time>2022-01-04T10:31:12Z</time>
      </trkpt>
      <trkpt lat="44.78696" lon="6.99844">
        <ele>2493</ele>
        <time>2022-01-04T10:31:18Z</time>
      </trkpt>
      <trkpt lat="44.78699" lon="6.99842">
        <ele>2493</ele>
        <time>2022-01-04T10:31:24Z</time>
      </trkpt>
      <trkpt lat="44.78698" lon="6.99854">
        <ele>2495</ele>
        <time>2022-01-04T10:31:50Z</time>
      </trkpt>
      <trkpt lat="44.78699" lon="6.99862">
        <ele>2497</ele>
        <time>2022-01-04T10:32:01Z</time>
      </trkpt>
      <trkpt lat="44.78699" lon="6.99866">
        <ele>2498</ele>
        <time>2022-01-04T10:32:06Z</time>
      </trkpt>
      <trkpt lat="44.78699" lon="6.9987">
        <ele>2499</ele>
        <time>2022-01-04T10:32:12Z</time>
      </trkpt>
      <trkpt lat="44.787" lon="6.99873">
        <ele>2501</ele>
        <time>2022-01-04T10:32:18Z</time>
      </trkpt>
      <trkpt lat="44.787" lon="6.99878">
        <ele>2502</ele>
        <time>2022-01-04T10:32:23Z</time>
      </trkpt>
      <trkpt lat="44.78701" lon="6.99881">
        <ele>2503</ele>
        <time>2022-01-04T10:32:31Z</time>
      </trkpt>
      <trkpt lat="44.78704" lon="6.99882">
        <ele>2504</ele>
        <time>2022-01-04T10:32:47Z</time>
      </trkpt>
      <trkpt lat="44.78706" lon="6.99879">
        <ele>2506</ele>
        <time>2022-01-04T10:33:00Z</time>
      </trkpt>
      <trkpt lat="44.78707" lon="6.99876">
        <ele>2506</ele>
        <time>2022-01-04T10:33:06Z</time>
      </trkpt>
      <trkpt lat="44.78708" lon="6.99872">
        <ele>2507</ele>
        <time>2022-01-04T10:33:12Z</time>
      </trkpt>
      <trkpt lat="44.78711" lon="6.99872">
        <ele>2509</ele>
        <time>2022-01-04T10:33:27Z</time>
      </trkpt>
      <trkpt lat="44.7871" lon="6.99875">
        <ele>2510</ele>
        <time>2022-01-04T10:33:30Z</time>
      </trkpt>
      <trkpt lat="44.7871" lon="6.99879">
        <ele>2509</ele>
        <time>2022-01-04T10:33:34Z</time>
      </trkpt>
      <trkpt lat="44.78712" lon="6.9989">
        <ele>2510</ele>
        <time>2022-01-04T10:33:51Z</time>
      </trkpt>
      <trkpt lat="44.78713" lon="6.99893">
        <ele>2510</ele>
        <time>2022-01-04T10:33:56Z</time>
      </trkpt>
      <trkpt lat="44.78716" lon="6.99891">
        <ele>2510</ele>
        <time>2022-01-04T10:34:15Z</time>
      </trkpt>
      <trkpt lat="44.78717" lon="6.99892">
        <ele>2511</ele>
        <time>2022-01-04T10:34:25Z</time>
      </trkpt>
      <trkpt lat="44.78719" lon="6.99896">
        <ele>2510</ele>
        <time>2022-01-04T10:34:28Z</time>
      </trkpt>
      <trkpt lat="44.7872" lon="6.99899">
        <ele>2509</ele>
        <time>2022-01-04T10:34:33Z</time>
      </trkpt>
      <trkpt lat="44.7872" lon="6.99904">
        <ele>2508</ele>
        <time>2022-01-04T10:34:39Z</time>
      </trkpt>
      <trkpt lat="44.78722" lon="6.9991">
        <ele>2506</ele>
        <time>2022-01-04T10:34:51Z</time>
      </trkpt>
      <trkpt lat="44.78723" lon="6.99918">
        <ele>2505</ele>
        <time>2022-01-04T10:34:59Z</time>
      </trkpt>
      <trkpt lat="44.78723" lon="6.99922">
        <ele>2505</ele>
        <time>2022-01-04T10:35:05Z</time>
      </trkpt>
      <trkpt lat="44.78723" lon="6.99926">
        <ele>2504</ele>
        <time>2022-01-04T10:35:15Z</time>
      </trkpt>
      <trkpt lat="44.7872" lon="6.99928">
        <ele>2504</ele>
        <time>2022-01-04T10:35:29Z</time>
      </trkpt>
      <trkpt lat="44.78717" lon="6.99926">
        <ele>2506</ele>
        <time>2022-01-04T10:35:41Z</time>
      </trkpt>
      <trkpt lat="44.78719" lon="6.99922">
        <ele>2507</ele>
        <time>2022-01-04T10:35:47Z</time>
      </trkpt>
      <trkpt lat="44.78713" lon="6.99925">
        <ele>2507</ele>
        <time>2022-01-04T10:35:55Z</time>
      </trkpt>
      <trkpt lat="44.78711" lon="6.99929">
        <ele>2508</ele>
        <time>2022-01-04T10:35:59Z</time>
      </trkpt>
      <trkpt lat="44.78711" lon="6.99933">
        <ele>2509</ele>
        <time>2022-01-04T10:36:05Z</time>
      </trkpt>
      <trkpt lat="44.78711" lon="6.99938">
        <ele>2509</ele>
        <time>2022-01-04T10:36:17Z</time>
      </trkpt>
      <trkpt lat="44.78712" lon="6.99941">
        <ele>2510</ele>
        <time>2022-01-04T10:36:22Z</time>
      </trkpt>
      <trkpt lat="44.78713" lon="6.99944">
        <ele>2510</ele>
        <time>2022-01-04T10:36:26Z</time>
      </trkpt>
      <trkpt lat="44.78714" lon="6.99948">
        <ele>2510</ele>
        <time>2022-01-04T10:36:30Z</time>
      </trkpt>
      <trkpt lat="44.78716" lon="6.99951">
        <ele>2511</ele>
        <time>2022-01-04T10:36:39Z</time>
      </trkpt>
      <trkpt lat="44.78717" lon="6.99954">
        <ele>2511</ele>
        <time>2022-01-04T10:36:44Z</time>
      </trkpt>
      <trkpt lat="44.78719" lon="6.99957">
        <ele>2511</ele>
        <time>2022-01-04T10:36:50Z</time>
      </trkpt>
      <trkpt lat="44.78719" lon="6.99961">
        <ele>2512</ele>
        <time>2022-01-04T10:36:56Z</time>
      </trkpt>
      <trkpt lat="44.78719" lon="6.99965">
        <ele>2512</ele>
        <time>2022-01-04T10:37:01Z</time>
      </trkpt>
      <trkpt lat="44.7872" lon="6.99968">
        <ele>2513</ele>
        <time>2022-01-04T10:37:11Z</time>
      </trkpt>
      <trkpt lat="44.78725" lon="6.99965">
        <ele>2514</ele>
        <time>2022-01-04T10:37:18Z</time>
      </trkpt>
      <trkpt lat="44.78728" lon="6.99963">
        <ele>2514</ele>
        <time>2022-01-04T10:37:19Z</time>
      </trkpt>
      <trkpt lat="44.78731" lon="6.99964">
        <ele>2515</ele>
        <time>2022-01-04T10:37:29Z</time>
      </trkpt>
      <trkpt lat="44.78733" lon="6.99969">
        <ele>2515</ele>
        <time>2022-01-04T10:37:54Z</time>
      </trkpt>
      <trkpt lat="44.78731" lon="6.99974">
        <ele>2520</ele>
        <time>2022-01-04T10:38:28Z</time>
      </trkpt>
      <trkpt lat="44.78734" lon="6.99978">
        <ele>2520</ele>
        <time>2022-01-04T10:38:37Z</time>
      </trkpt>
      <trkpt lat="44.78736" lon="6.99976">
        <ele>2521</ele>
        <time>2022-01-04T10:38:50Z</time>
      </trkpt>
      <trkpt lat="44.78736" lon="6.9997">
        <ele>2522</ele>
        <time>2022-01-04T10:39:05Z</time>
      </trkpt>
      <trkpt lat="44.78741" lon="6.99973">
        <ele>2522</ele>
        <time>2022-01-04T10:39:52Z</time>
      </trkpt>
      <trkpt lat="44.78741" lon="6.99974">
        <ele>2521</ele>
        <time>2022-01-04T10:39:58Z</time>
      </trkpt>
      <trkpt lat="44.78743" lon="6.99974">
        <ele>2519</ele>
        <time>2022-01-04T10:40:01Z</time>
      </trkpt>
      <trkpt lat="44.78745" lon="6.99977">
        <ele>2514</ele>
        <time>2022-01-04T10:40:05Z</time>
      </trkpt>
      <trkpt lat="44.78748" lon="6.99978">
        <ele>2508</ele>
        <time>2022-01-04T10:40:14Z</time>
      </trkpt>
      <trkpt lat="44.78749" lon="6.99974">
        <ele>2505</ele>
        <time>2022-01-04T10:40:21Z</time>
      </trkpt>
      <trkpt lat="44.78748" lon="6.99971">
        <ele>2500</ele>
        <time>2022-01-04T10:40:27Z</time>
      </trkpt>
      <trkpt lat="44.78751" lon="6.99968">
        <ele>2502</ele>
        <time>2022-01-04T10:41:01Z</time>
      </trkpt>
      <trkpt lat="44.78745" lon="6.99962">
        <ele>2501</ele>
        <time>2022-01-04T10:41:17Z</time>
      </trkpt>
      <trkpt lat="44.78754" lon="6.99957">
        <ele>2501</ele>
        <time>2022-01-04T10:41:26Z</time>
      </trkpt>
      <trkpt lat="44.78755" lon="6.99967">
        <ele>2502</ele>
        <time>2022-01-04T10:41:44Z</time>
      </trkpt>
      <trkpt lat="44.78758" lon="6.9997">
        <ele>2503</ele>
        <time>2022-01-04T10:42:06Z</time>
      </trkpt>
      <trkpt lat="44.78762" lon="6.99969">
        <ele>2504</ele>
        <time>2022-01-04T10:42:17Z</time>
      </trkpt>
      <trkpt lat="44.78764" lon="6.99974">
        <ele>2507</ele>
        <time>2022-01-04T10:42:24Z</time>
      </trkpt>
      <trkpt lat="44.7876" lon="6.99975">
        <ele>2509</ele>
        <time>2022-01-04T10:43:03Z</time>
      </trkpt>
      <trkpt lat="44.78756" lon="6.99972">
        <ele>2510</ele>
        <time>2022-01-04T10:43:08Z</time>
      </trkpt>
      <trkpt lat="44.78751" lon="6.99971">
        <ele>2517</ele>
        <time>2022-01-04T10:43:13Z</time>
      </trkpt>
      <trkpt lat="44.78749" lon="6.99971">
        <ele>2546</ele>
        <time>2022-01-04T10:44:05Z</time>
      </trkpt>
      <trkpt lat="44.78746" lon="6.99974">
        <ele>2547</ele>
        <time>2022-01-04T10:44:10Z</time>
      </trkpt>
      <trkpt lat="44.78748" lon="6.99976">
        <ele>2554</ele>
        <time>2022-01-04T10:44:20Z</time>
      </trkpt>
      <trkpt lat="44.78748" lon="6.99978">
        <ele>2551</ele>
        <time>2022-01-04T10:44:46Z</time>
      </trkpt>
      <trkpt lat="44.78744" lon="6.99976">
        <ele>2552</ele>
        <time>2022-01-04T10:44:54Z</time>
      </trkpt>
      <trkpt lat="44.7874" lon="6.99977">
        <ele>2561</ele>
        <time>2022-01-04T10:44:58Z</time>
      </trkpt>
      <trkpt lat="44.7874" lon="6.99983">
        <ele>2561</ele>
        <time>2022-01-04T10:45:09Z</time>
      </trkpt>
      <trkpt lat="44.78738" lon="6.9998">
        <ele>2567</ele>
        <time>2022-01-04T10:45:43Z</time>
      </trkpt>
      <trkpt lat="44.78739" lon="6.99976">
        <ele>2567</ele>
        <time>2022-01-04T10:45:45Z</time>
      </trkpt>
      <trkpt lat="44.7874" lon="6.99974">
        <ele>2567</ele>
        <time>2022-01-04T10:45:56Z</time>
      </trkpt>
      <trkpt lat="44.78737" lon="6.99978">
        <ele>2570</ele>
        <time>2022-01-04T10:46:03Z</time>
      </trkpt>
      <trkpt lat="44.78737" lon="6.99978">
        <ele>2572</ele>
        <time>2022-01-04T10:46:14Z</time>
      </trkpt>
      <trkpt lat="44.78731" lon="6.99973">
        <ele>2579</ele>
        <time>2022-01-04T10:46:20Z</time>
      </trkpt>
      <trkpt lat="44.78731" lon="6.99976">
        <ele>2592</ele>
        <time>2022-01-04T10:46:39Z</time>
      </trkpt>
      <trkpt lat="44.78727" lon="6.99979">
        <ele>2600</ele>
        <time>2022-01-04T10:46:44Z</time>
      </trkpt>
      <trkpt lat="44.78727" lon="6.99979">
        <ele>2605</ele>
        <time>2022-01-04T10:46:58Z</time>
      </trkpt>
      <trkpt lat="44.78724" lon="6.99982">
        <ele>2606</ele>
        <time>2022-01-04T10:47:01Z</time>
      </trkpt>
      <trkpt lat="44.78721" lon="6.99985">
        <ele>2609</ele>
        <time>2022-01-04T10:47:07Z</time>
      </trkpt>
      <trkpt lat="44.78722" lon="6.99989">
        <ele>2610</ele>
        <time>2022-01-04T10:47:10Z</time>
      </trkpt>
      <trkpt lat="44.78724" lon="6.9999">
        <ele>2610</ele>
        <time>2022-01-04T10:47:14Z</time>
      </trkpt>
      <trkpt lat="44.78725" lon="6.99985">
        <ele>2609</ele>
        <time>2022-01-04T10:47:17Z</time>
      </trkpt>
      <trkpt lat="44.78725" lon="6.99983">
        <ele>2609</ele>
        <time>2022-01-04T10:47:20Z</time>
      </trkpt>
      <trkpt lat="44.78723" lon="6.99984">
        <ele>2605</ele>
        <time>2022-01-04T10:47:41Z</time>
      </trkpt>
      <trkpt lat="44.78725" lon="6.99989">
        <ele>2604</ele>
        <time>2022-01-04T10:47:49Z</time>
      </trkpt>
      <trkpt lat="44.78727" lon="6.99991">
        <ele>2601</ele>
        <time>2022-01-04T10:47:55Z</time>
      </trkpt>
      <trkpt lat="44.78727" lon="6.99994">
        <ele>2600</ele>
        <time>2022-01-04T10:47:59Z</time>
      </trkpt>
      <trkpt lat="44.78726" lon="6.99996">
        <ele>2600</ele>
        <time>2022-01-04T10:48:03Z</time>
      </trkpt>
      <trkpt lat="44.78728" lon="6.99998">
        <ele>2601</ele>
        <time>2022-01-04T10:48:10Z</time>
      </trkpt>
      <trkpt lat="44.78731" lon="6.99999">
        <ele>2601</ele>
        <time>2022-01-04T10:48:15Z</time>
      </trkpt>
      <trkpt lat="44.78733" lon="7">
        <ele>2601</ele>
        <time>2022-01-04T10:48:21Z</time>
      </trkpt>
      <trkpt lat="44.78734" lon="7.00002">
        <ele>2601</ele>
        <time>2022-01-04T10:48:33Z</time>
      </trkpt>
      <trkpt lat="44.78734" lon="7.00005">
        <ele>2601</ele>
        <time>2022-01-04T10:48:50Z</time>
      </trkpt>
      <trkpt lat="44.78733" lon="7.00005">
        <ele>2602</ele>
        <time>2022-01-04T10:48:58Z</time>
      </trkpt>
      <trkpt lat="44.78736" lon="7.00003">
        <ele>2602</ele>
        <time>2022-01-04T10:49:02Z</time>
      </trkpt>
      <trkpt lat="44.78733" lon="7">
        <ele>2603</ele>
        <time>2022-01-04T10:49:04Z</time>
      </trkpt>
      <trkpt lat="44.78733" lon="6.99997">
        <ele>2604</ele>
        <time>2022-01-04T10:49:11Z</time>
      </trkpt>
      <trkpt lat="44.78736" lon="6.99995">
        <ele>2603</ele>
        <time>2022-01-04T10:49:15Z</time>
      </trkpt>
      <trkpt lat="44.78752" lon="7.00005">
        <ele>2598</ele>
        <time>2022-01-04T10:49:27Z</time>
      </trkpt>
      <trkpt lat="44.78749" lon="7.00008">
        <ele>2594</ele>
        <time>2022-01-04T10:49:42Z</time>
      </trkpt>
      <trkpt lat="44.78751" lon="7.00011">
        <ele>2596</ele>
        <time>2022-01-04T10:50:20Z</time>
      </trkpt>
      <trkpt lat="44.78754" lon="7.00013">
        <ele>2598</ele>
        <time>2022-01-04T10:50:27Z</time>
      </trkpt>
      <trkpt lat="44.78755" lon="7.00018">
        <ele>2600</ele>
        <time>2022-01-04T10:51:00Z</time>
      </trkpt>
      <trkpt lat="44.78752" lon="7.00016">
        <ele>2600</ele>
        <time>2022-01-04T10:51:07Z</time>
      </trkpt>
      <trkpt lat="44.78754" lon="7.00015">
        <ele>2601</ele>
        <time>2022-01-04T10:51:17Z</time>
      </trkpt>
      <trkpt lat="44.78757" lon="7.00019">
        <ele>2602</ele>
        <time>2022-01-04T10:51:26Z</time>
      </trkpt>
      <trkpt lat="44.78757" lon="7.0002">
        <ele>2605</ele>
        <time>2022-01-04T10:51:47Z</time>
      </trkpt>
      <trkpt lat="44.78754" lon="7.00022">
        <ele>2606</ele>
        <time>2022-01-04T10:51:48Z</time>
      </trkpt>
      <trkpt lat="44.78751" lon="7.00025">
        <ele>2611</ele>
        <time>2022-01-04T10:51:49Z</time>
      </trkpt>
      <trkpt lat="44.7875" lon="7.00031">
        <ele>2614</ele>
        <time>2022-01-04T10:51:51Z</time>
      </trkpt>
      <trkpt lat="44.78754" lon="7.00033">
        <ele>2615</ele>
        <time>2022-01-04T10:51:55Z</time>
      </trkpt>
      <trkpt lat="44.78756" lon="7.00028">
        <ele>2617</ele>
        <time>2022-01-04T10:52:06Z</time>
      </trkpt>
      <trkpt lat="44.78756" lon="7.00032">
        <ele>2623</ele>
        <time>2022-01-04T10:52:39Z</time>
      </trkpt>
      <trkpt lat="44.78755" lon="7.00028">
        <ele>2630</ele>
        <time>2022-01-04T10:52:59Z</time>
      </trkpt>
      <trkpt lat="44.78762" lon="7.00021">
        <ele>2642</ele>
        <time>2022-01-04T10:53:10Z</time>
      </trkpt>
      <trkpt lat="44.78772" lon="7.0002">
        <ele>2650</ele>
        <time>2022-01-04T10:53:20Z</time>
      </trkpt>
      <trkpt lat="44.7878" lon="7.00013">
        <ele>2650</ele>
        <time>2022-01-04T10:53:24Z</time>
      </trkpt>
      <trkpt lat="44.78788" lon="7.00008">
        <ele>2650</ele>
        <time>2022-01-04T10:53:36Z</time>
      </trkpt>
      <trkpt lat="44.78793" lon="7.00005">
        <ele>2649</ele>
        <time>2022-01-04T10:53:38Z</time>
      </trkpt>
      <trkpt lat="44.78801" lon="7.00009">
        <ele>2641</ele>
        <time>2022-01-04T10:53:52Z</time>
      </trkpt>
      <trkpt lat="44.78796" lon="7.00011">
        <ele>2639</ele>
        <time>2022-01-04T10:53:57Z</time>
      </trkpt>
      <trkpt lat="44.78785" lon="7.00019">
        <ele>2637</ele>
        <time>2022-01-04T10:54:01Z</time>
      </trkpt>
      <trkpt lat="44.78782" lon="7.00023">
        <ele>2637</ele>
        <time>2022-01-04T10:54:03Z</time>
      </trkpt>
      <trkpt lat="44.78776" lon="7.00033">
        <ele>2640</ele>
        <time>2022-01-04T10:54:13Z</time>
      </trkpt>
      <trkpt lat="44.78776" lon="7.00039">
        <ele>2640</ele>
        <time>2022-01-04T10:54:21Z</time>
      </trkpt>
      <trkpt lat="44.78774" lon="7.00044">
        <ele>2641</ele>
        <time>2022-01-04T10:54:25Z</time>
      </trkpt>
      <trkpt lat="44.78779" lon="7.00043">
        <ele>2641</ele>
        <time>2022-01-04T10:54:33Z</time>
      </trkpt>
      <trkpt lat="44.7878" lon="7.00043">
        <ele>2636</ele>
        <time>2022-01-04T10:54:40Z</time>
      </trkpt>
      <trkpt lat="44.78776" lon="7.00046">
        <ele>2639</ele>
        <time>2022-01-04T10:54:44Z</time>
      </trkpt>
      <trkpt lat="44.78773" lon="7.00049">
        <ele>2644</ele>
        <time>2022-01-04T10:54:53Z</time>
      </trkpt>
      <trkpt lat="44.78759" lon="7.00054">
        <ele>2662</ele>
        <time>2022-01-04T10:55:05Z</time>
      </trkpt>
      <trkpt lat="44.78759" lon="7.00049">
        <ele>2669</ele>
        <time>2022-01-04T10:55:11Z</time>
      </trkpt>
      <trkpt lat="44.78762" lon="7.00048">
        <ele>2674</ele>
        <time>2022-01-04T10:55:31Z</time>
      </trkpt>
      <trkpt lat="44.78768" lon="7.00051">
        <ele>2675</ele>
        <time>2022-01-04T10:55:50Z</time>
      </trkpt>
      <trkpt lat="44.78768" lon="7.00056">
        <ele>2674</ele>
        <time>2022-01-04T10:55:58Z</time>
      </trkpt>
      <trkpt lat="44.78765" lon="7.00059">
        <ele>2675</ele>
        <time>2022-01-04T10:56:00Z</time>
      </trkpt>
      <trkpt lat="44.78762" lon="7.00061">
        <ele>2677</ele>
        <time>2022-01-04T10:56:04Z</time>
      </trkpt>
      <trkpt lat="44.78758" lon="7.0006">
        <ele>2679</ele>
        <time>2022-01-04T10:56:07Z</time>
      </trkpt>
      <trkpt lat="44.78756" lon="7.00061">
        <ele>2682</ele>
        <time>2022-01-04T10:56:12Z</time>
      </trkpt>
      <trkpt lat="44.78756" lon="7.00064">
        <ele>2692</ele>
        <time>2022-01-04T10:56:25Z</time>
      </trkpt>
      <trkpt lat="44.78759" lon="7.00064">
        <ele>2694</ele>
        <time>2022-01-04T10:56:28Z</time>
      </trkpt>
      <trkpt lat="44.78762" lon="7.00065">
        <ele>2695</ele>
        <time>2022-01-04T10:56:39Z</time>
      </trkpt>
      <trkpt lat="44.78764" lon="7.00063">
        <ele>2695</ele>
        <time>2022-01-04T10:56:48Z</time>
      </trkpt>
      <trkpt lat="44.78767" lon="7.00068">
        <ele>2693</ele>
        <time>2022-01-04T10:56:59Z</time>
      </trkpt>
      <trkpt lat="44.78768" lon="7.00071">
        <ele>2693</ele>
        <time>2022-01-04T10:57:07Z</time>
      </trkpt>
      <trkpt lat="44.78767" lon="7.00074">
        <ele>2693</ele>
        <time>2022-01-04T10:57:11Z</time>
      </trkpt>
      <trkpt lat="44.78771" lon="7.00073">
        <ele>2693</ele>
        <time>2022-01-04T10:57:18Z</time>
      </trkpt>
      <trkpt lat="44.78774" lon="7.00071">
        <ele>2691</ele>
        <time>2022-01-04T10:57:19Z</time>
      </trkpt>
      <trkpt lat="44.78777" lon="7.00069">
        <ele>2690</ele>
        <time>2022-01-04T10:57:20Z</time>
      </trkpt>
      <trkpt lat="44.78776" lon="7.00069">
        <ele>2687</ele>
        <time>2022-01-04T10:57:30Z</time>
      </trkpt>
      <trkpt lat="44.78774" lon="7.00065">
        <ele>2686</ele>
        <time>2022-01-04T10:57:41Z</time>
      </trkpt>
      <trkpt lat="44.78783" lon="7.00065">
        <ele>2686</ele>
        <time>2022-01-04T10:57:45Z</time>
      </trkpt>
      <trkpt lat="44.7879" lon="7.00058">
        <ele>2679</ele>
        <time>2022-01-04T10:58:02Z</time>
      </trkpt>
      <trkpt lat="44.7879" lon="7.00053">
        <ele>2678</ele>
        <time>2022-01-04T10:58:06Z</time>
      </trkpt>
      <trkpt lat="44.78787" lon="7.0007">
        <ele>2679</ele>
        <time>2022-01-04T10:58:19Z</time>
      </trkpt>
      <trkpt lat="44.7879" lon="7.00067">
        <ele>2679</ele>
        <time>2022-01-04T10:58:27Z</time>
      </trkpt>
      <trkpt lat="44.78793" lon="7.00064">
        <ele>2678</ele>
        <time>2022-01-04T10:58:47Z</time>
      </trkpt>
      <trkpt lat="44.78797" lon="7.00096">
        <ele>2675</ele>
        <time>2022-01-04T10:59:00Z</time>
      </trkpt>
      <trkpt lat="44.78794" lon="7.00091">
        <ele>2675</ele>
        <time>2022-01-04T10:59:04Z</time>
      </trkpt>
      <trkpt lat="44.78791" lon="7.00088">
        <ele>2680</ele>
        <time>2022-01-04T10:59:07Z</time>
      </trkpt>
      <trkpt lat="44.78793" lon="7.00083">
        <ele>2683</ele>
        <time>2022-01-04T10:59:19Z</time>
      </trkpt>
      <trkpt lat="44.78792" lon="7.00079">
        <ele>2685</ele>
        <time>2022-01-04T10:59:33Z</time>
      </trkpt>
      <trkpt lat="44.78807" lon="7.00083">
        <ele>2683</ele>
        <time>2022-01-04T11:00:05Z</time>
      </trkpt>
      <trkpt lat="44.78811" lon="7.00088">
        <ele>2683</ele>
        <time>2022-01-04T11:00:20Z</time>
      </trkpt>
      <trkpt lat="44.78818" lon="7.00108">
        <ele>2683</ele>
        <time>2022-01-04T11:00:52Z</time>
      </trkpt>
      <trkpt lat="44.78822" lon="7.00112">
        <ele>2682</ele>
        <time>2022-01-04T11:01:00Z</time>
      </trkpt>
      <trkpt lat="44.78819" lon="7.00094">
        <ele>2683</ele>
        <time>2022-01-04T11:01:15Z</time>
      </trkpt>
      <trkpt lat="44.78823" lon="7.00097">
        <ele>2684</ele>
        <time>2022-01-04T11:01:25Z</time>
      </trkpt>
      <trkpt lat="44.78825" lon="7.00097">
        <ele>2687</ele>
        <time>2022-01-04T11:01:44Z</time>
      </trkpt>
      <trkpt lat="44.78823" lon="7.0009">
        <ele>2688</ele>
        <time>2022-01-04T11:01:58Z</time>
      </trkpt>
      <trkpt lat="44.78819" lon="7.00085">
        <ele>2688</ele>
        <time>2022-01-04T11:02:00Z</time>
      </trkpt>
      <trkpt lat="44.78819" lon="7.00079">
        <ele>2690</ele>
        <time>2022-01-04T11:02:07Z</time>
      </trkpt>
      <trkpt lat="44.78825" lon="7.00082">
        <ele>2692</ele>
        <time>2022-01-04T11:02:11Z</time>
      </trkpt>
      <trkpt lat="44.78827" lon="7.00083">
        <ele>2695</ele>
        <time>2022-01-04T11:02:24Z</time>
      </trkpt>
      <trkpt lat="44.78826" lon="7.00088">
        <ele>2694</ele>
        <time>2022-01-04T11:02:27Z</time>
      </trkpt>
      <trkpt lat="44.78829" lon="7.00091">
        <ele>2691</ele>
        <time>2022-01-04T11:02:31Z</time>
      </trkpt>
      <trkpt lat="44.78832" lon="7.00088">
        <ele>2689</ele>
        <time>2022-01-04T11:02:40Z</time>
      </trkpt>
      <trkpt lat="44.78832" lon="7.00094">
        <ele>2688</ele>
        <time>2022-01-04T11:02:45Z</time>
      </trkpt>
      <trkpt lat="44.78831" lon="7.00097">
        <ele>2689</ele>
        <time>2022-01-04T11:02:52Z</time>
      </trkpt>
      <trkpt lat="44.78827" lon="7.00097">
        <ele>2694</ele>
        <time>2022-01-04T11:02:58Z</time>
      </trkpt>
      <trkpt lat="44.78829" lon="7.00087">
        <ele>2700</ele>
        <time>2022-01-04T11:03:10Z</time>
      </trkpt>
      <trkpt lat="44.78834" lon="7.00091">
        <ele>2703</ele>
        <time>2022-01-04T11:03:27Z</time>
      </trkpt>
      <trkpt lat="44.78836" lon="7.00094">
        <ele>2703</ele>
        <time>2022-01-04T11:03:31Z</time>
      </trkpt>
      <trkpt lat="44.78838" lon="7.00098">
        <ele>2703</ele>
        <time>2022-01-04T11:03:37Z</time>
      </trkpt>
      <trkpt lat="44.78836" lon="7.00101">
        <ele>2704</ele>
        <time>2022-01-04T11:03:55Z</time>
      </trkpt>
      <trkpt lat="44.78838" lon="7.00104">
        <ele>2706</ele>
        <time>2022-01-04T11:04:24Z</time>
      </trkpt>
      <trkpt lat="44.78842" lon="7.00105">
        <ele>2706</ele>
        <time>2022-01-04T11:04:35Z</time>
      </trkpt>
      <trkpt lat="44.78842" lon="7.00105">
        <ele>2710</ele>
        <time>2022-01-04T11:05:07Z</time>
      </trkpt>
      <trkpt lat="44.78842" lon="7.00098">
        <ele>2710</ele>
        <time>2022-01-04T11:05:09Z</time>
      </trkpt>
      <trkpt lat="44.78846" lon="7.001">
        <ele>2711</ele>
        <time>2022-01-04T11:05:14Z</time>
      </trkpt>
      <trkpt lat="44.78849" lon="7.00103">
        <ele>2709</ele>
        <time>2022-01-04T11:05:33Z</time>
      </trkpt>
      <trkpt lat="44.78855" lon="7.00106">
        <ele>2711</ele>
        <time>2022-01-04T11:06:22Z</time>
      </trkpt>
      <trkpt lat="44.78854" lon="7.00101">
        <ele>2713</ele>
        <time>2022-01-04T11:06:29Z</time>
      </trkpt>
      <trkpt lat="44.78857" lon="7.00101">
        <ele>2714</ele>
        <time>2022-01-04T11:06:42Z</time>
      </trkpt>
      <trkpt lat="44.78858" lon="7.00097">
        <ele>2715</ele>
        <time>2022-01-04T11:06:52Z</time>
      </trkpt>
      <trkpt lat="44.78861" lon="7.00098">
        <ele>2715</ele>
        <time>2022-01-04T11:07:02Z</time>
      </trkpt>
      <trkpt lat="44.7886" lon="7.00091">
        <ele>2718</ele>
        <time>2022-01-04T11:07:23Z</time>
      </trkpt>
      <trkpt lat="44.78863" lon="7.00092">
        <ele>2718</ele>
        <time>2022-01-04T11:07:31Z</time>
      </trkpt>
      <trkpt lat="44.78865" lon="7.00095">
        <ele>2719</ele>
        <time>2022-01-04T11:07:44Z</time>
      </trkpt>
      <trkpt lat="44.78868" lon="7.00095">
        <ele>2728</ele>
        <time>2022-01-04T11:08:04Z</time>
      </trkpt>
      <trkpt lat="44.7887" lon="7.00095">
        <ele>2730</ele>
        <time>2022-01-04T11:08:06Z</time>
      </trkpt>
      <trkpt lat="44.78871" lon="7.00092">
        <ele>2732</ele>
        <time>2022-01-04T11:08:12Z</time>
      </trkpt>
      <trkpt lat="44.78873" lon="7.00091">
        <ele>2737</ele>
        <time>2022-01-04T11:09:43Z</time>
      </trkpt>
      <trkpt lat="44.78875" lon="7.00093">
        <ele>2747</ele>
        <time>2022-01-04T11:09:58Z</time>
      </trkpt>
      <trkpt lat="44.78876" lon="7.00096">
        <ele>2751</ele>
        <time>2022-01-04T11:10:04Z</time>
      </trkpt>
      <trkpt lat="44.78879" lon="7.00108">
        <ele>2752</ele>
        <time>2022-01-04T11:10:23Z</time>
      </trkpt>
      <trkpt lat="44.78883" lon="7.00112">
        <ele>2753</ele>
        <time>2022-01-04T11:10:29Z</time>
      </trkpt>
      <trkpt lat="44.78884" lon="7.00097">
        <ele>2755</ele>
        <time>2022-01-04T11:10:36Z</time>
      </trkpt>
      <trkpt lat="44.78881" lon="7.0009">
        <ele>2756</ele>
        <time>2022-01-04T11:10:39Z</time>
      </trkpt>
      <trkpt lat="44.7888" lon="7.00086">
        <ele>2759</ele>
        <time>2022-01-04T11:10:51Z</time>
      </trkpt>
      <trkpt lat="44.78876" lon="7.0009">
        <ele>2759</ele>
        <time>2022-01-04T11:10:55Z</time>
      </trkpt>
      <trkpt lat="44.78876" lon="7.00097">
        <ele>2757</ele>
        <time>2022-01-04T11:11:00Z</time>
      </trkpt>
      <trkpt lat="44.78878" lon="7.00097">
        <ele>2757</ele>
        <time>2022-01-04T11:11:22Z</time>
      </trkpt>
      <trkpt lat="44.78878" lon="7.00092">
        <ele>2761</ele>
        <time>2022-01-04T11:12:05Z</time>
      </trkpt>
      <trkpt lat="44.78881" lon="7.00094">
        <ele>2766</ele>
        <time>2022-01-04T11:12:32Z</time>
      </trkpt>
      <trkpt lat="44.78882" lon="7.00098">
        <ele>2767</ele>
        <time>2022-01-04T11:12:44Z</time>
      </trkpt>
      <trkpt lat="44.78889" lon="7.00093">
        <ele>2764</ele>
        <time>2022-01-04T11:13:22Z</time>
      </trkpt>
      <trkpt lat="44.78891" lon="7.00098">
        <ele>2763</ele>
        <time>2022-01-04T11:13:26Z</time>
      </trkpt>
      <trkpt lat="44.78889" lon="7.00096">
        <ele>2755</ele>
        <time>2022-01-04T11:13:49Z</time>
      </trkpt>
      <trkpt lat="44.7889" lon="7.00093">
        <ele>2754</ele>
        <time>2022-01-04T11:14:01Z</time>
      </trkpt>
      <trkpt lat="44.7889" lon="7.0009">
        <ele>2753</ele>
        <time>2022-01-04T11:14:12Z</time>
      </trkpt>
      <trkpt lat="44.78894" lon="7.00092">
        <ele>2755</ele>
        <time>2022-01-04T11:14:46Z</time>
      </trkpt>
      <trkpt lat="44.78895" lon="7.00085">
        <ele>2757</ele>
        <time>2022-01-04T11:14:53Z</time>
      </trkpt>
      <trkpt lat="44.78896" lon="7.00083">
        <ele>2757</ele>
        <time>2022-01-04T11:14:56Z</time>
      </trkpt>
      <trkpt lat="44.78898" lon="7.00083">
        <ele>2758</ele>
        <time>2022-01-04T11:15:13Z</time>
      </trkpt>
      <trkpt lat="44.78901" lon="7.00079">
        <ele>2758</ele>
        <time>2022-01-04T11:15:32Z</time>
      </trkpt>
      <trkpt lat="44.78903" lon="7.00079">
        <ele>2759</ele>
        <time>2022-01-04T11:15:36Z</time>
      </trkpt>
      <trkpt lat="44.78904" lon="7.00073">
        <ele>2761</ele>
        <time>2022-01-04T11:15:51Z</time>
      </trkpt>
      <trkpt lat="44.78904" lon="7.00071">
        <ele>2762</ele>
        <time>2022-01-04T11:16:03Z</time>
      </trkpt>
      <trkpt lat="44.78903" lon="7.0007">
        <ele>2765</ele>
        <time>2022-01-04T11:16:35Z</time>
      </trkpt>
      <trkpt lat="44.78903" lon="7.00069">
        <ele>2766</ele>
        <time>2022-01-04T11:17:26Z</time>
      </trkpt>
      <trkpt lat="44.78904" lon="7.00067">
        <ele>2766</ele>
        <time>2022-01-04T11:17:29Z</time>
      </trkpt>
      <trkpt lat="44.78906" lon="7.00067">
        <ele>2767</ele>
        <time>2022-01-04T11:17:36Z</time>
      </trkpt>
      <trkpt lat="44.78906" lon="7.00064">
        <ele>2767</ele>
        <time>2022-01-04T11:17:40Z</time>
      </trkpt>
      <trkpt lat="44.78905" lon="7.00062">
        <ele>2767</ele>
        <time>2022-01-04T11:17:49Z</time>
      </trkpt>
      <trkpt lat="44.78902" lon="7.00061">
        <ele>2769</ele>
        <time>2022-01-04T11:17:58Z</time>
      </trkpt>
      <trkpt lat="44.789" lon="7.00063">
        <ele>2770</ele>
        <time>2022-01-04T11:18:02Z</time>
      </trkpt>
      <trkpt lat="44.78904" lon="7.00067">
        <ele>2769</ele>
        <time>2022-01-04T11:18:15Z</time>
      </trkpt>
      <trkpt lat="44.78906" lon="7.00064">
        <ele>2769</ele>
        <time>2022-01-04T11:18:22Z</time>
      </trkpt>
      <trkpt lat="44.78905" lon="7.0006">
        <ele>2768</ele>
        <time>2022-01-04T11:18:29Z</time>
      </trkpt>
      <trkpt lat="44.78905" lon="7.00057">
        <ele>2768</ele>
        <time>2022-01-04T11:18:31Z</time>
      </trkpt>
      <trkpt lat="44.78907" lon="7.00056">
        <ele>2768</ele>
        <time>2022-01-04T11:18:38Z</time>
      </trkpt>
      <trkpt lat="44.78908" lon="7.00054">
        <ele>2769</ele>
        <time>2022-01-04T11:18:40Z</time>
      </trkpt>
      <trkpt lat="44.7891" lon="7.00052">
        <ele>2770</ele>
        <time>2022-01-04T11:18:50Z</time>
      </trkpt>
      <trkpt lat="44.78911" lon="7.00052">
        <ele>2773</ele>
        <time>2022-01-04T11:19:05Z</time>
      </trkpt>
      <trkpt lat="44.78913" lon="7.00051">
        <ele>2774</ele>
        <time>2022-01-04T11:19:09Z</time>
      </trkpt>
      <trkpt lat="44.78918" lon="7.00049">
        <ele>2777</ele>
        <time>2022-01-04T11:19:22Z</time>
      </trkpt>
      <trkpt lat="44.78917" lon="7.00046">
        <ele>2778</ele>
        <time>2022-01-04T11:19:26Z</time>
      </trkpt>
      <trkpt lat="44.78915" lon="7.00047">
        <ele>2778</ele>
        <time>2022-01-04T11:19:32Z</time>
      </trkpt>
      <trkpt lat="44.78916" lon="7.00044">
        <ele>2779</ele>
        <time>2022-01-04T11:19:46Z</time>
      </trkpt>
      <trkpt lat="44.78916" lon="7.00041">
        <ele>2781</ele>
        <time>2022-01-04T11:19:51Z</time>
      </trkpt>
      <trkpt lat="44.78917" lon="7.00038">
        <ele>2782</ele>
        <time>2022-01-04T11:19:54Z</time>
      </trkpt>
      <trkpt lat="44.78918" lon="7.00036">
        <ele>2782</ele>
        <time>2022-01-04T11:19:57Z</time>
      </trkpt>
      <trkpt lat="44.78919" lon="7.00034">
        <ele>2782</ele>
        <time>2022-01-04T11:20:05Z</time>
      </trkpt>
      <trkpt lat="44.7892" lon="7.0003">
        <ele>2782</ele>
        <time>2022-01-04T11:20:12Z</time>
      </trkpt>
      <trkpt lat="44.78917" lon="7.00028">
        <ele>2782</ele>
        <time>2022-01-04T11:20:18Z</time>
      </trkpt>
      <trkpt lat="44.78915" lon="7.00028">
        <ele>2782</ele>
        <time>2022-01-04T11:20:20Z</time>
      </trkpt>
      <trkpt lat="44.78915" lon="7.00025">
        <ele>2783</ele>
        <time>2022-01-04T11:20:28Z</time>
      </trkpt>
      <trkpt lat="44.78919" lon="7.00024">
        <ele>2785</ele>
        <time>2022-01-04T11:20:52Z</time>
      </trkpt>
      <trkpt lat="44.78918" lon="7.00019">
        <ele>2786</ele>
        <time>2022-01-04T11:21:08Z</time>
      </trkpt>
      <trkpt lat="44.78914" lon="7.0002">
        <ele>2790</ele>
        <time>2022-01-04T11:21:25Z</time>
      </trkpt>
      <trkpt lat="44.78912" lon="7.00021">
        <ele>2793</ele>
        <time>2022-01-04T11:21:30Z</time>
      </trkpt>
      <trkpt lat="44.7891" lon="7.00024">
        <ele>2793</ele>
        <time>2022-01-04T11:21:33Z</time>
      </trkpt>
      <trkpt lat="44.78913" lon="7.00024">
        <ele>2792</ele>
        <time>2022-01-04T11:21:57Z</time>
      </trkpt>
      <trkpt lat="44.78914" lon="7.00026">
        <ele>2796</ele>
        <time>2022-01-04T11:22:07Z</time>
      </trkpt>
      <trkpt lat="44.78914" lon="7.00033">
        <ele>2798</ele>
        <time>2022-01-04T11:22:14Z</time>
      </trkpt>
      <trkpt lat="44.78917" lon="7.00031">
        <ele>2799</ele>
        <time>2022-01-04T11:22:23Z</time>
      </trkpt>
      <trkpt lat="44.78918" lon="7.00028">
        <ele>2800</ele>
        <time>2022-01-04T11:22:30Z</time>
      </trkpt>
      <trkpt lat="44.7892" lon="7.0003">
        <ele>2801</ele>
        <time>2022-01-04T11:22:44Z</time>
      </trkpt>
      <trkpt lat="44.7892" lon="7.00033">
        <ele>2803</ele>
        <time>2022-01-04T11:22:53Z</time>
      </trkpt>
      <trkpt lat="44.78922" lon="7.00033">
        <ele>2804</ele>
        <time>2022-01-04T11:23:00Z</time>
      </trkpt>
      <trkpt lat="44.78922" lon="7.00031">
        <ele>2805</ele>
        <time>2022-01-04T11:23:18Z</time>
      </trkpt>
      <trkpt lat="44.7892" lon="7.00033">
        <ele>2804</ele>
        <time>2022-01-04T11:23:24Z</time>
      </trkpt>
      <trkpt lat="44.78919" lon="7.00036">
        <ele>2805</ele>
        <time>2022-01-04T11:23:28Z</time>
      </trkpt>
      <trkpt lat="44.78921" lon="7.00039">
        <ele>2805</ele>
        <time>2022-01-04T11:23:31Z</time>
      </trkpt>
      <trkpt lat="44.78923" lon="7.00039">
        <ele>2807</ele>
        <time>2022-01-04T11:23:37Z</time>
      </trkpt>
      <trkpt lat="44.78924" lon="7.00036">
        <ele>2812</ele>
        <time>2022-01-04T11:23:43Z</time>
      </trkpt>
      <trkpt lat="44.78926" lon="7.00035">
        <ele>2813</ele>
        <time>2022-01-04T11:24:03Z</time>
      </trkpt>
      <trkpt lat="44.78928" lon="7.00033">
        <ele>2813</ele>
        <time>2022-01-04T11:24:06Z</time>
      </trkpt>
      <trkpt lat="44.78928" lon="7.0003">
        <ele>2813</ele>
        <time>2022-01-04T11:24:10Z</time>
      </trkpt>
      <trkpt lat="44.78929" lon="7.00028">
        <ele>2812</ele>
        <time>2022-01-04T11:24:16Z</time>
      </trkpt>
      <trkpt lat="44.78933" lon="7.00025">
        <ele>2811</ele>
        <time>2022-01-04T11:24:40Z</time>
      </trkpt>
      <trkpt lat="44.78935" lon="7.00022">
        <ele>2811</ele>
        <time>2022-01-04T11:24:50Z</time>
      </trkpt>
      <trkpt lat="44.78934" lon="7.00022">
        <ele>2812</ele>
        <time>2022-01-04T11:25:26Z</time>
      </trkpt>
      <trkpt lat="44.78935" lon="7.00017">
        <ele>2813</ele>
        <time>2022-01-04T11:25:27Z</time>
      </trkpt>
      <trkpt lat="44.78935" lon="7.00014">
        <ele>2815</ele>
        <time>2022-01-04T11:25:40Z</time>
      </trkpt>
      <trkpt lat="44.78937" lon="7.00016">
        <ele>2816</ele>
        <time>2022-01-04T11:25:56Z</time>
      </trkpt>
      <trkpt lat="44.78939" lon="7.00011">
        <ele>2819</ele>
        <time>2022-01-04T11:26:05Z</time>
      </trkpt>
      <trkpt lat="44.78938" lon="7.00009">
        <ele>2819</ele>
        <time>2022-01-04T11:26:08Z</time>
      </trkpt>
      <trkpt lat="44.78938" lon="7.00007">
        <ele>2820</ele>
        <time>2022-01-04T11:26:33Z</time>
      </trkpt>
      <trkpt lat="44.78938" lon="6.99998">
        <ele>2821</ele>
        <time>2022-01-04T11:27:01Z</time>
      </trkpt>
      <trkpt lat="44.78938" lon="6.99995">
        <ele>2821</ele>
        <time>2022-01-04T11:27:10Z</time>
      </trkpt>
      <trkpt lat="44.78935" lon="7">
        <ele>2820</ele>
        <time>2022-01-04T11:27:28Z</time>
      </trkpt>
      <trkpt lat="44.78936" lon="7.00001">
        <ele>2820</ele>
        <time>2022-01-04T11:27:53Z</time>
      </trkpt>
      <trkpt lat="44.78937" lon="6.99998">
        <ele>2820</ele>
        <time>2022-01-04T11:27:57Z</time>
      </trkpt>
      <trkpt lat="44.78939" lon="6.99996">
        <ele>2815</ele>
        <time>2022-01-04T11:28:05Z</time>
      </trkpt>
      <trkpt lat="44.78937" lon="7">
        <ele>2815</ele>
        <time>2022-01-04T11:28:11Z</time>
      </trkpt>
      <trkpt lat="44.78934" lon="7.00009">
        <ele>2820</ele>
        <time>2022-01-04T11:28:15Z</time>
      </trkpt>
      <trkpt lat="44.78937" lon="7.00007">
        <ele>2824</ele>
        <time>2022-01-04T11:28:23Z</time>
      </trkpt>
      <trkpt lat="44.78939" lon="7.00008">
        <ele>2827</ele>
        <time>2022-01-04T11:28:36Z</time>
      </trkpt>
      <trkpt lat="44.78939" lon="7.00005">
        <ele>2827</ele>
        <time>2022-01-04T11:28:44Z</time>
      </trkpt>
      <trkpt lat="44.78941" lon="7.00003">
        <ele>2827</ele>
        <time>2022-01-04T11:29:00Z</time>
      </trkpt>
      <trkpt lat="44.78941" lon="7.00002">
        <ele>2827</ele>
        <time>2022-01-04T11:29:14Z</time>
      </trkpt>
      <trkpt lat="44.78942" lon="7.00004">
        <ele>2827</ele>
        <time>2022-01-04T11:29:19Z</time>
      </trkpt>
      <trkpt lat="44.78943" lon="7.00003">
        <ele>2828</ele>
        <time>2022-01-04T11:29:34Z</time>
      </trkpt>
      <trkpt lat="44.78944" lon="7.00006">
        <ele>2828</ele>
        <time>2022-01-04T11:30:00Z</time>
      </trkpt>
      <trkpt lat="44.78949" lon="7.00003">
        <ele>2827</ele>
        <time>2022-01-04T11:30:23Z</time>
      </trkpt>
      <trkpt lat="44.78951" lon="7.00004">
        <ele>2826</ele>
        <time>2022-01-04T11:30:28Z</time>
      </trkpt>
      <trkpt lat="44.78953" lon="7.00002">
        <ele>2827</ele>
        <time>2022-01-04T11:30:44Z</time>
      </trkpt>
      <trkpt lat="44.78954" lon="7">
        <ele>2827</ele>
        <time>2022-01-04T11:30:55Z</time>
      </trkpt>
      <trkpt lat="44.78956" lon="7">
        <ele>2828</ele>
        <time>2022-01-04T11:30:58Z</time>
      </trkpt>
      <trkpt lat="44.78958" lon="6.99998">
        <ele>2828</ele>
        <time>2022-01-04T11:31:03Z</time>
      </trkpt>
      <trkpt lat="44.78956" lon="6.99996">
        <ele>2828</ele>
        <time>2022-01-04T11:31:07Z</time>
      </trkpt>
      <trkpt lat="44.78955" lon="6.99994">
        <ele>2828</ele>
        <time>2022-01-04T11:31:15Z</time>
      </trkpt>
      <trkpt lat="44.78954" lon="6.99994">
        <ele>2834</ele>
        <time>2022-01-04T11:31:57Z</time>
      </trkpt>
      <trkpt lat="44.78955" lon="6.99995">
        <ele>2837</ele>
        <time>2022-01-04T11:32:11Z</time>
      </trkpt>
      <trkpt lat="44.78955" lon="6.99997">
        <ele>2839</ele>
        <time>2022-01-04T11:32:30Z</time>
      </trkpt>
      <trkpt lat="44.78959" lon="6.99996">
        <ele>2841</ele>
        <time>2022-01-04T11:32:38Z</time>
      </trkpt>
      <trkpt lat="44.78958" lon="6.99993">
        <ele>2841</ele>
        <time>2022-01-04T11:32:45Z</time>
      </trkpt>
      <trkpt lat="44.78959" lon="6.9999">
        <ele>2842</ele>
        <time>2022-01-04T11:32:49Z</time>
      </trkpt>
      <trkpt lat="44.78959" lon="6.99987">
        <ele>2842</ele>
        <time>2022-01-04T11:33:15Z</time>
      </trkpt>
      <trkpt lat="44.7896" lon="6.99988">
        <ele>2845</ele>
        <time>2022-01-04T11:34:45Z</time>
      </trkpt>
      <trkpt lat="44.7896" lon="6.99981">
        <ele>2846</ele>
        <time>2022-01-04T11:35:40Z</time>
      </trkpt>
      <trkpt lat="44.78961" lon="6.99978">
        <ele>2847</ele>
        <time>2022-01-04T11:35:52Z</time>
      </trkpt>
      <trkpt lat="44.7896" lon="6.99975">
        <ele>2845</ele>
        <time>2022-01-04T11:35:59Z</time>
      </trkpt>
      <trkpt lat="44.78964" lon="6.99971">
        <ele>2842</ele>
        <time>2022-01-04T11:36:11Z</time>
      </trkpt>
      <trkpt lat="44.78965" lon="6.9997">
        <ele>2842</ele>
        <time>2022-01-04T11:36:16Z</time>
      </trkpt>
      <trkpt lat="44.78969" lon="6.99971">
        <ele>2843</ele>
        <time>2022-01-04T11:36:40Z</time>
      </trkpt>
      <trkpt lat="44.78969" lon="6.99967">
        <ele>2845</ele>
        <time>2022-01-04T11:36:52Z</time>
      </trkpt>
      <trkpt lat="44.78971" lon="6.99968">
        <ele>2847</ele>
        <time>2022-01-04T11:37:00Z</time>
      </trkpt>
      <trkpt lat="44.78973" lon="6.99965">
        <ele>2850</ele>
        <time>2022-01-04T11:37:22Z</time>
      </trkpt>
      <trkpt lat="44.78971" lon="6.99964">
        <ele>2853</ele>
        <time>2022-01-04T11:37:29Z</time>
      </trkpt>
      <trkpt lat="44.78973" lon="6.99964">
        <ele>2859</ele>
        <time>2022-01-04T11:38:16Z</time>
      </trkpt>
      <trkpt lat="44.78974" lon="6.99966">
        <ele>2860</ele>
        <time>2022-01-04T11:38:21Z</time>
      </trkpt>
      <trkpt lat="44.78975" lon="6.99967">
        <ele>2864</ele>
        <time>2022-01-04T11:38:33Z</time>
      </trkpt>
      <trkpt lat="44.78979" lon="6.99962">
        <ele>2865</ele>
        <time>2022-01-04T11:38:43Z</time>
      </trkpt>
      <trkpt lat="44.78982" lon="6.99961">
        <ele>2863</ele>
        <time>2022-01-04T11:38:51Z</time>
      </trkpt>
      <trkpt lat="44.78981" lon="6.99957">
        <ele>2862</ele>
        <time>2022-01-04T11:39:06Z</time>
      </trkpt>
      <trkpt lat="44.78979" lon="6.99959">
        <ele>2863</ele>
        <time>2022-01-04T11:39:22Z</time>
      </trkpt>
      <trkpt lat="44.7898" lon="6.99965">
        <ele>2866</ele>
        <time>2022-01-04T11:39:36Z</time>
      </trkpt>
      <trkpt lat="44.78981" lon="6.99963">
        <ele>2867</ele>
        <time>2022-01-04T11:39:43Z</time>
      </trkpt>
      <trkpt lat="44.78983" lon="6.99963">
        <ele>2870</ele>
        <time>2022-01-04T11:40:01Z</time>
      </trkpt>
      <trkpt lat="44.78981" lon="6.99968">
        <ele>2871</ele>
        <time>2022-01-04T11:40:05Z</time>
      </trkpt>
      <trkpt lat="44.78979" lon="6.99966">
        <ele>2872</ele>
        <time>2022-01-04T11:40:12Z</time>
      </trkpt>
      <trkpt lat="44.7898" lon="6.99962">
        <ele>2873</ele>
        <time>2022-01-04T11:40:19Z</time>
      </trkpt>
      <trkpt lat="44.78977" lon="6.99964">
        <ele>2874</ele>
        <time>2022-01-04T11:40:29Z</time>
      </trkpt>
      <trkpt lat="44.78977" lon="6.99965">
        <ele>2877</ele>
        <time>2022-01-04T11:40:43Z</time>
      </trkpt>
      <trkpt lat="44.7898" lon="6.99958">
        <ele>2876</ele>
        <time>2022-01-04T11:40:51Z</time>
      </trkpt>
      <trkpt lat="44.78982" lon="6.99955">
        <ele>2874</ele>
        <time>2022-01-04T11:40:56Z</time>
      </trkpt>
      <trkpt lat="44.78983" lon="6.99952">
        <ele>2872</ele>
        <time>2022-01-04T11:40:58Z</time>
      </trkpt>
      <trkpt lat="44.78983" lon="6.99953">
        <ele>2868</ele>
        <time>2022-01-04T11:41:09Z</time>
      </trkpt>
      <trkpt lat="44.78977" lon="6.99964">
        <ele>2875</ele>
        <time>2022-01-04T11:41:17Z</time>
      </trkpt>
      <trkpt lat="44.78975" lon="6.99968">
        <ele>2877</ele>
        <time>2022-01-04T11:41:19Z</time>
      </trkpt>
      <trkpt lat="44.78973" lon="6.99971">
        <ele>2881</ele>
        <time>2022-01-04T11:41:23Z</time>
      </trkpt>
      <trkpt lat="44.78971" lon="6.9997">
        <ele>2883</ele>
        <time>2022-01-04T11:41:28Z</time>
      </trkpt>
      <trkpt lat="44.78971" lon="6.99973">
        <ele>2885</ele>
        <time>2022-01-04T11:41:38Z</time>
      </trkpt>
      <trkpt lat="44.78973" lon="6.9997">
        <ele>2885</ele>
        <time>2022-01-04T11:41:54Z</time>
      </trkpt>
      <trkpt lat="44.78976" lon="6.99969">
        <ele>2884</ele>
        <time>2022-01-04T11:42:00Z</time>
      </trkpt>
      <trkpt lat="44.78974" lon="6.99967">
        <ele>2884</ele>
        <time>2022-01-04T11:42:21Z</time>
      </trkpt>
      <trkpt lat="44.78974" lon="6.99963">
        <ele>2884</ele>
        <time>2022-01-04T11:42:38Z</time>
      </trkpt>
      <trkpt lat="44.78974" lon="6.99964">
        <ele>2882</ele>
        <time>2022-01-04T11:42:45Z</time>
      </trkpt>
      <trkpt lat="44.78974" lon="6.99967">
        <ele>2881</ele>
        <time>2022-01-04T11:42:56Z</time>
      </trkpt>
      <trkpt lat="44.78972" lon="6.99968">
        <ele>2881</ele>
        <time>2022-01-04T11:43:07Z</time>
      </trkpt>
      <trkpt lat="44.78974" lon="6.99964">
        <ele>2881</ele>
        <time>2022-01-04T11:43:37Z</time>
      </trkpt>
      <trkpt lat="44.78978" lon="6.99958">
        <ele>2881</ele>
        <time>2022-01-04T11:43:39Z</time>
      </trkpt>
      <trkpt lat="44.78975" lon="6.99959">
        <ele>2878</ele>
        <time>2022-01-04T11:43:52Z</time>
      </trkpt>
      <trkpt lat="44.78976" lon="6.99963">
        <ele>2878</ele>
        <time>2022-01-04T11:43:57Z</time>
      </trkpt>
      <trkpt lat="44.78975" lon="6.99965">
        <ele>2877</ele>
        <time>2022-01-04T11:44:10Z</time>
      </trkpt>
      <trkpt lat="44.78973" lon="6.99966">
        <ele>2877</ele>
        <time>2022-01-04T11:44:28Z</time>
      </trkpt>
      <trkpt lat="44.78975" lon="6.99969">
        <ele>2876</ele>
        <time>2022-01-04T11:44:58Z</time>
      </trkpt>
      <trkpt lat="44.78978" lon="6.99965">
        <ele>2876</ele>
        <time>2022-01-04T11:45:05Z</time>
      </trkpt>
      <trkpt lat="44.78978" lon="6.99962">
        <ele>2867</ele>
        <time>2022-01-04T11:45:51Z</time>
      </trkpt>
      <trkpt lat="44.78977" lon="6.99963">
        <ele>2869</ele>
        <time>2022-01-04T11:46:21Z</time>
      </trkpt>
      <trkpt lat="44.78977" lon="6.99965">
        <ele>2869</ele>
        <time>2022-01-04T11:47:03Z</time>
      </trkpt>
      <trkpt lat="44.78979" lon="6.99964">
        <ele>2869</ele>
        <time>2022-01-04T11:47:11Z</time>
      </trkpt>
      <trkpt lat="44.78978" lon="6.99963">
        <ele>2871</ele>
        <time>2022-01-04T11:47:52Z</time>
      </trkpt>
      <trkpt lat="44.78981" lon="6.99961">
        <ele>2871</ele>
        <time>2022-01-04T11:47:57Z</time>
      </trkpt>
      <trkpt lat="44.7898" lon="6.99964">
        <ele>2871</ele>
        <time>2022-01-04T11:48:09Z</time>
      </trkpt>
      <trkpt lat="44.7898" lon="6.99967">
        <ele>2871</ele>
        <time>2022-01-04T11:48:13Z</time>
      </trkpt>
      <trkpt lat="44.78976" lon="6.99973">
        <ele>2874</ele>
        <time>2022-01-04T11:48:22Z</time>
      </trkpt>
      <trkpt lat="44.78979" lon="6.9997">
        <ele>2877</ele>
        <time>2022-01-04T11:48:31Z</time>
      </trkpt>
      <trkpt lat="44.78982" lon="6.99962">
        <ele>2877</ele>
        <time>2022-01-04T11:48:35Z</time>
      </trkpt>
      <trkpt lat="44.78978" lon="6.99967">
        <ele>2876</ele>
        <time>2022-01-04T11:48:40Z</time>
      </trkpt>
      <trkpt lat="44.78975" lon="6.99966">
        <ele>2875</ele>
        <time>2022-01-04T11:48:49Z</time>
      </trkpt>
      <trkpt lat="44.78975" lon="6.99968">
        <ele>2871</ele>
        <time>2022-01-04T11:49:01Z</time>
      </trkpt>
      <trkpt lat="44.78971" lon="6.99981">
        <ele>2878</ele>
        <time>2022-01-04T11:49:07Z</time>
      </trkpt>
      <trkpt lat="44.78973" lon="6.99978">
        <ele>2880</ele>
        <time>2022-01-04T11:49:10Z</time>
      </trkpt>
      <trkpt lat="44.78977" lon="6.99973">
        <ele>2885</ele>
        <time>2022-01-04T11:49:29Z</time>
      </trkpt>
      <trkpt lat="44.78975" lon="6.99973">
        <ele>2887</ele>
        <time>2022-01-04T11:49:45Z</time>
      </trkpt>
      <trkpt lat="44.78974" lon="6.99977">
        <ele>2887</ele>
        <time>2022-01-04T11:49:57Z</time>
      </trkpt>
      <trkpt lat="44.78974" lon="6.99976">
        <ele>2886</ele>
        <time>2022-01-04T11:50:32Z</time>
      </trkpt>
      <trkpt lat="44.78971" lon="6.99975">
        <ele>2886</ele>
        <time>2022-01-04T11:50:39Z</time>
      </trkpt>
      <trkpt lat="44.78971" lon="6.99975">
        <ele>2886</ele>
        <time>2022-01-04T11:51:10Z</time>
      </trkpt>
      <trkpt lat="44.78971" lon="6.99972">
        <ele>2886</ele>
        <time>2022-01-04T11:51:22Z</time>
      </trkpt>
      <trkpt lat="44.78974" lon="6.9997">
        <ele>2884</ele>
        <time>2022-01-04T11:51:32Z</time>
      </trkpt>
      <trkpt lat="44.78973" lon="6.99969">
        <ele>2883</ele>
        <time>2022-01-04T11:52:09Z</time>
      </trkpt>
      <trkpt lat="44.78974" lon="6.99968">
        <ele>2882</ele>
        <time>2022-01-04T11:52:42Z</time>
      </trkpt>
      <trkpt lat="44.78975" lon="6.99971">
        <ele>2882</ele>
        <time>2022-01-04T11:52:58Z</time>
      </trkpt>
      <trkpt lat="44.78976" lon="6.99972">
        <ele>2882</ele>
        <time>2022-01-04T11:53:05Z</time>
      </trkpt>
      <trkpt lat="44.78977" lon="6.99972">
        <ele>2881</ele>
        <time>2022-01-04T11:53:41Z</time>
      </trkpt>
      <trkpt lat="44.78978" lon="6.99968">
        <ele>2881</ele>
        <time>2022-01-04T11:53:45Z</time>
      </trkpt>
      <trkpt lat="44.7898" lon="6.99967">
        <ele>2880</ele>
        <time>2022-01-04T11:53:56Z</time>
      </trkpt>
      <trkpt lat="44.78983" lon="6.99966">
        <ele>2880</ele>
        <time>2022-01-04T11:53:59Z</time>
      </trkpt>
      <trkpt lat="44.78985" lon="6.99966">
        <ele>2880</ele>
        <time>2022-01-04T11:54:03Z</time>
      </trkpt>
      <trkpt lat="44.78986" lon="6.99968">
        <ele>2881</ele>
        <time>2022-01-04T11:54:08Z</time>
      </trkpt>
      <trkpt lat="44.78989" lon="6.99974">
        <ele>2882</ele>
        <time>2022-01-04T11:54:15Z</time>
      </trkpt>
      <trkpt lat="44.78993" lon="6.99971">
        <ele>2884</ele>
        <time>2022-01-04T11:54:34Z</time>
      </trkpt>
      <trkpt lat="44.78996" lon="6.9997">
        <ele>2884</ele>
        <time>2022-01-04T11:54:48Z</time>
      </trkpt>
      <trkpt lat="44.78998" lon="6.99972">
        <ele>2883</ele>
        <time>2022-01-04T11:55:04Z</time>
      </trkpt>
      <trkpt lat="44.78999" lon="6.99971">
        <ele>2884</ele>
        <time>2022-01-04T11:55:14Z</time>
      </trkpt>
      <trkpt lat="44.79003" lon="6.9997">
        <ele>2884</ele>
        <time>2022-01-04T11:55:39Z</time>
      </trkpt>
      <trkpt lat="44.79005" lon="6.99971">
        <ele>2884</ele>
        <time>2022-01-04T11:55:57Z</time>
      </trkpt>
      <trkpt lat="44.79006" lon="6.9997">
        <ele>2885</ele>
        <time>2022-01-04T11:56:08Z</time>
      </trkpt>
      <trkpt lat="44.79006" lon="6.99972">
        <ele>2884</ele>
        <time>2022-01-04T11:56:49Z</time>
      </trkpt>
      <trkpt lat="44.79006" lon="6.99975">
        <ele>2885</ele>
        <time>2022-01-04T11:57:51Z</time>
      </trkpt>
      <trkpt lat="44.79007" lon="6.99973">
        <ele>2885</ele>
        <time>2022-01-04T11:58:04Z</time>
      </trkpt>
      <trkpt lat="44.79008" lon="6.9997">
        <ele>2885</ele>
        <time>2022-01-04T11:58:12Z</time>
      </trkpt>
      <trkpt lat="44.79005" lon="6.99963">
        <ele>2885</ele>
        <time>2022-01-04T11:58:18Z</time>
      </trkpt>
      <trkpt lat="44.78993" lon="6.99945">
        <ele>2883</ele>
        <time>2022-01-04T11:58:23Z</time>
      </trkpt>
      <trkpt lat="44.7899" lon="6.9993">
        <ele>2883</ele>
        <time>2022-01-04T11:58:27Z</time>
      </trkpt>
      <trkpt lat="44.7899" lon="6.99926">
        <ele>2882</ele>
        <time>2022-01-04T11:58:28Z</time>
      </trkpt>
      <trkpt lat="44.78988" lon="6.99919">
        <ele>2882</ele>
        <time>2022-01-04T11:58:30Z</time>
      </trkpt>
      <trkpt lat="44.78987" lon="6.99914">
        <ele>2883</ele>
        <time>2022-01-04T11:58:32Z</time>
      </trkpt>
      <trkpt lat="44.78988" lon="6.99909">
        <ele>2883</ele>
        <time>2022-01-04T11:58:36Z</time>
      </trkpt>
      <trkpt lat="44.78988" lon="6.99904">
        <ele>2882</ele>
        <time>2022-01-04T11:58:38Z</time>
      </trkpt>
      <trkpt lat="44.78988" lon="6.99901">
        <ele>2882</ele>
        <time>2022-01-04T11:58:39Z</time>
      </trkpt>
      <trkpt lat="44.78988" lon="6.99895">
        <ele>2881</ele>
        <time>2022-01-04T11:58:41Z</time>
      </trkpt>
      <trkpt lat="44.78988" lon="6.99892">
        <ele>2881</ele>
        <time>2022-01-04T11:58:42Z</time>
      </trkpt>
      <trkpt lat="44.78991" lon="6.99887">
        <ele>2880</ele>
        <time>2022-01-04T11:58:43Z</time>
      </trkpt>
      <trkpt lat="44.78995" lon="6.99887">
        <ele>2879</ele>
        <time>2022-01-04T11:58:44Z</time>
      </trkpt>
      <trkpt lat="44.79003" lon="6.99891">
        <ele>2875</ele>
        <time>2022-01-04T11:58:46Z</time>
      </trkpt>
      <trkpt lat="44.79007" lon="6.99897">
        <ele>2870</ele>
        <time>2022-01-04T11:58:48Z</time>
      </trkpt>
      <trkpt lat="44.7901" lon="6.99896">
        <ele>2866</ele>
        <time>2022-01-04T11:58:50Z</time>
      </trkpt>
      <trkpt lat="44.79012" lon="6.99894">
        <ele>2867</ele>
        <time>2022-01-04T11:58:52Z</time>
      </trkpt>
      <trkpt lat="44.79011" lon="6.99891">
        <ele>2867</ele>
        <time>2022-01-04T11:58:54Z</time>
      </trkpt>
      <trkpt lat="44.79011" lon="6.99888">
        <ele>2865</ele>
        <time>2022-01-04T11:58:56Z</time>
      </trkpt>
      <trkpt lat="44.79013" lon="6.99887">
        <ele>2864</ele>
        <time>2022-01-04T11:58:59Z</time>
      </trkpt>
      <trkpt lat="44.79016" lon="6.99889">
        <ele>2861</ele>
        <time>2022-01-04T11:59:01Z</time>
      </trkpt>
      <trkpt lat="44.79022" lon="6.99891">
        <ele>2857</ele>
        <time>2022-01-04T11:59:05Z</time>
      </trkpt>
      <trkpt lat="44.79022" lon="6.99888">
        <ele>2857</ele>
        <time>2022-01-04T11:59:06Z</time>
      </trkpt>
      <trkpt lat="44.79021" lon="6.99884">
        <ele>2856</ele>
        <time>2022-01-04T11:59:07Z</time>
      </trkpt>
      <trkpt lat="44.7902" lon="6.99881">
        <ele>2855</ele>
        <time>2022-01-04T11:59:08Z</time>
      </trkpt>
      <trkpt lat="44.79019" lon="6.99879">
        <ele>2853</ele>
        <time>2022-01-04T11:59:12Z</time>
      </trkpt>
      <trkpt lat="44.7902" lon="6.99876">
        <ele>2853</ele>
        <time>2022-01-04T11:59:15Z</time>
      </trkpt>
      <trkpt lat="44.79016" lon="6.99863">
        <ele>2851</ele>
        <time>2022-01-04T11:59:23Z</time>
      </trkpt>
      <trkpt lat="44.79015" lon="6.9986">
        <ele>2851</ele>
        <time>2022-01-04T11:59:24Z</time>
      </trkpt>
      <trkpt lat="44.79013" lon="6.99853">
        <ele>2848</ele>
        <time>2022-01-04T11:59:28Z</time>
      </trkpt>
      <trkpt lat="44.79013" lon="6.99848">
        <ele>2848</ele>
        <time>2022-01-04T11:59:30Z</time>
      </trkpt>
      <trkpt lat="44.79015" lon="6.99847">
        <ele>2847</ele>
        <time>2022-01-04T11:59:31Z</time>
      </trkpt>
      <trkpt lat="44.79018" lon="6.99848">
        <ele>2847</ele>
        <time>2022-01-04T11:59:32Z</time>
      </trkpt>
      <trkpt lat="44.79034" lon="6.99864">
        <ele>2847</ele>
        <time>2022-01-04T11:59:38Z</time>
      </trkpt>
      <trkpt lat="44.79036" lon="6.99861">
        <ele>2846</ele>
        <time>2022-01-04T11:59:39Z</time>
      </trkpt>
      <trkpt lat="44.79036" lon="6.99856">
        <ele>2845</ele>
        <time>2022-01-04T11:59:40Z</time>
      </trkpt>
      <trkpt lat="44.7903" lon="6.99838">
        <ele>2840</ele>
        <time>2022-01-04T11:59:44Z</time>
      </trkpt>
      <trkpt lat="44.79022" lon="6.99815">
        <ele>2834</ele>
        <time>2022-01-04T11:59:49Z</time>
      </trkpt>
      <trkpt lat="44.79022" lon="6.99811">
        <ele>2833</ele>
        <time>2022-01-04T11:59:50Z</time>
      </trkpt>
      <trkpt lat="44.79026" lon="6.9981">
        <ele>2832</ele>
        <time>2022-01-04T11:59:52Z</time>
      </trkpt>
      <trkpt lat="44.7903" lon="6.99812">
        <ele>2830</ele>
        <time>2022-01-04T11:59:53Z</time>
      </trkpt>
      <trkpt lat="44.79033" lon="6.99814">
        <ele>2829</ele>
        <time>2022-01-04T11:59:54Z</time>
      </trkpt>
      <trkpt lat="44.79034" lon="6.99808">
        <ele>2826</ele>
        <time>2022-01-04T11:59:55Z</time>
      </trkpt>
      <trkpt lat="44.79034" lon="6.99803">
        <ele>2825</ele>
        <time>2022-01-04T11:59:56Z</time>
      </trkpt>
      <trkpt lat="44.79033" lon="6.99799">
        <ele>2823</ele>
        <time>2022-01-04T11:59:57Z</time>
      </trkpt>
      <trkpt lat="44.79032" lon="6.99795">
        <ele>2821</ele>
        <time>2022-01-04T11:59:59Z</time>
      </trkpt>
      <trkpt lat="44.79032" lon="6.99792">
        <ele>2818</ele>
        <time>2022-01-04T12:00:00Z</time>
      </trkpt>
      <trkpt lat="44.79031" lon="6.99789">
        <ele>2816</ele>
        <time>2022-01-04T12:00:02Z</time>
      </trkpt>
      <trkpt lat="44.79032" lon="6.99786">
        <ele>2813</ele>
        <time>2022-01-04T12:00:05Z</time>
      </trkpt>
      <trkpt lat="44.79031" lon="6.99783">
        <ele>2812</ele>
        <time>2022-01-04T12:00:10Z</time>
      </trkpt>
      <trkpt lat="44.79031" lon="6.9978">
        <ele>2813</ele>
        <time>2022-01-04T12:00:13Z</time>
      </trkpt>
      <trkpt lat="44.79035" lon="6.99778">
        <ele>2813</ele>
        <time>2022-01-04T12:00:15Z</time>
      </trkpt>
      <trkpt lat="44.79043" lon="6.99783">
        <ele>2814</ele>
        <time>2022-01-04T12:00:21Z</time>
      </trkpt>
      <trkpt lat="44.79045" lon="6.99786">
        <ele>2814</ele>
        <time>2022-01-04T12:00:23Z</time>
      </trkpt>
      <trkpt lat="44.79059" lon="6.99807">
        <ele>2812</ele>
        <time>2022-01-04T12:00:30Z</time>
      </trkpt>
      <trkpt lat="44.7906" lon="6.99803">
        <ele>2811</ele>
        <time>2022-01-04T12:00:31Z</time>
      </trkpt>
      <trkpt lat="44.79061" lon="6.99778">
        <ele>2808</ele>
        <time>2022-01-04T12:00:37Z</time>
      </trkpt>
      <trkpt lat="44.79063" lon="6.99774">
        <ele>2808</ele>
        <time>2022-01-04T12:00:38Z</time>
      </trkpt>
      <trkpt lat="44.79064" lon="6.9977">
        <ele>2807</ele>
        <time>2022-01-04T12:00:39Z</time>
      </trkpt>
      <trkpt lat="44.79076" lon="6.99783">
        <ele>2805</ele>
        <time>2022-01-04T12:00:43Z</time>
      </trkpt>
      <trkpt lat="44.79078" lon="6.99781">
        <ele>2803</ele>
        <time>2022-01-04T12:00:44Z</time>
      </trkpt>
      <trkpt lat="44.79076" lon="6.99764">
        <ele>2795</ele>
        <time>2022-01-04T12:00:49Z</time>
      </trkpt>
      <trkpt lat="44.79078" lon="6.99764">
        <ele>2794</ele>
        <time>2022-01-04T12:00:50Z</time>
      </trkpt>
      <trkpt lat="44.79083" lon="6.99768">
        <ele>2790</ele>
        <time>2022-01-04T12:00:52Z</time>
      </trkpt>
      <trkpt lat="44.79087" lon="6.99771">
        <ele>2787</ele>
        <time>2022-01-04T12:00:54Z</time>
      </trkpt>
      <trkpt lat="44.7909" lon="6.9977">
        <ele>2786</ele>
        <time>2022-01-04T12:00:55Z</time>
      </trkpt>
      <trkpt lat="44.7909" lon="6.99767">
        <ele>2785</ele>
        <time>2022-01-04T12:00:57Z</time>
      </trkpt>
      <trkpt lat="44.79088" lon="6.99762">
        <ele>2782</ele>
        <time>2022-01-04T12:00:59Z</time>
      </trkpt>
      <trkpt lat="44.79086" lon="6.99756">
        <ele>2779</ele>
        <time>2022-01-04T12:01:03Z</time>
      </trkpt>
      <trkpt lat="44.79086" lon="6.9975">
        <ele>2777</ele>
        <time>2022-01-04T12:01:05Z</time>
      </trkpt>
      <trkpt lat="44.79088" lon="6.99748">
        <ele>2774</ele>
        <time>2022-01-04T12:01:07Z</time>
      </trkpt>
      <trkpt lat="44.7909" lon="6.99748">
        <ele>2773</ele>
        <time>2022-01-04T12:01:08Z</time>
      </trkpt>
      <trkpt lat="44.79093" lon="6.99749">
        <ele>2772</ele>
        <time>2022-01-04T12:01:10Z</time>
      </trkpt>
      <trkpt lat="44.79088" lon="6.9973">
        <ele>2764</ele>
        <time>2022-01-04T12:01:20Z</time>
      </trkpt>
      <trkpt lat="44.79085" lon="6.99728">
        <ele>2764</ele>
        <time>2022-01-04T12:01:22Z</time>
      </trkpt>
      <trkpt lat="44.79084" lon="6.9973">
        <ele>2763</ele>
        <time>2022-01-04T12:01:25Z</time>
      </trkpt>
      <trkpt lat="44.79085" lon="6.9973">
        <ele>2759</ele>
        <time>2022-01-04T12:01:34Z</time>
      </trkpt>
      <trkpt lat="44.79077" lon="6.99727">
        <ele>2752</ele>
        <time>2022-01-04T12:01:37Z</time>
      </trkpt>
      <trkpt lat="44.79053" lon="6.99713">
        <ele>2746</ele>
        <time>2022-01-04T12:01:44Z</time>
      </trkpt>
      <trkpt lat="44.79052" lon="6.99706">
        <ele>2746</ele>
        <time>2022-01-04T12:01:45Z</time>
      </trkpt>
      <trkpt lat="44.7905" lon="6.997">
        <ele>2746</ele>
        <time>2022-01-04T12:01:46Z</time>
      </trkpt>
      <trkpt lat="44.79046" lon="6.99696">
        <ele>2745</ele>
        <time>2022-01-04T12:01:47Z</time>
      </trkpt>
      <trkpt lat="44.79045" lon="6.99692">
        <ele>2744</ele>
        <time>2022-01-04T12:01:48Z</time>
      </trkpt>
      <trkpt lat="44.79044" lon="6.99687">
        <ele>2744</ele>
        <time>2022-01-04T12:01:49Z</time>
      </trkpt>
      <trkpt lat="44.79035" lon="6.99678">
        <ele>2742</ele>
        <time>2022-01-04T12:01:51Z</time>
      </trkpt>
      <trkpt lat="44.7903" lon="6.99667">
        <ele>2739</ele>
        <time>2022-01-04T12:01:53Z</time>
      </trkpt>
      <trkpt lat="44.79028" lon="6.99655">
        <ele>2737</ele>
        <time>2022-01-04T12:01:55Z</time>
      </trkpt>
      <trkpt lat="44.79022" lon="6.99644">
        <ele>2734</ele>
        <time>2022-01-04T12:01:58Z</time>
      </trkpt>
      <trkpt lat="44.79007" lon="6.99636">
        <ele>2729</ele>
        <time>2022-01-04T12:02:03Z</time>
      </trkpt>
      <trkpt lat="44.79006" lon="6.99633">
        <ele>2725</ele>
        <time>2022-01-04T12:02:10Z</time>
      </trkpt>
      <trkpt lat="44.79011" lon="6.99636">
        <ele>2724</ele>
        <time>2022-01-04T12:02:12Z</time>
      </trkpt>
      <trkpt lat="44.79013" lon="6.99633">
        <ele>2720</ele>
        <time>2022-01-04T12:02:14Z</time>
      </trkpt>
      <trkpt lat="44.79017" lon="6.99628">
        <ele>2717</ele>
        <time>2022-01-04T12:02:16Z</time>
      </trkpt>
      <trkpt lat="44.79019" lon="6.99625">
        <ele>2716</ele>
        <time>2022-01-04T12:02:17Z</time>
      </trkpt>
      <trkpt lat="44.79021" lon="6.99623">
        <ele>2714</ele>
        <time>2022-01-04T12:02:18Z</time>
      </trkpt>
      <trkpt lat="44.79022" lon="6.99621">
        <ele>2713</ele>
        <time>2022-01-04T12:02:19Z</time>
      </trkpt>
      <trkpt lat="44.79012" lon="6.99621">
        <ele>2708</ele>
        <time>2022-01-04T12:02:23Z</time>
      </trkpt>
      <trkpt lat="44.79009" lon="6.9962">
        <ele>2706</ele>
        <time>2022-01-04T12:02:24Z</time>
      </trkpt>
      <trkpt lat="44.79006" lon="6.99621">
        <ele>2705</ele>
        <time>2022-01-04T12:02:25Z</time>
      </trkpt>
      <trkpt lat="44.78995" lon="6.99622">
        <ele>2699</ele>
        <time>2022-01-04T12:02:30Z</time>
      </trkpt>
      <trkpt lat="44.78993" lon="6.99624">
        <ele>2698</ele>
        <time>2022-01-04T12:02:31Z</time>
      </trkpt>
      <trkpt lat="44.78992" lon="6.99619">
        <ele>2696</ele>
        <time>2022-01-04T12:02:33Z</time>
      </trkpt>
      <trkpt lat="44.79006" lon="6.99596">
        <ele>2685</ele>
        <time>2022-01-04T12:02:40Z</time>
      </trkpt>
      <trkpt lat="44.79006" lon="6.99593">
        <ele>2685</ele>
        <time>2022-01-04T12:02:41Z</time>
      </trkpt>
      <trkpt lat="44.79003" lon="6.99591">
        <ele>2684</ele>
        <time>2022-01-04T12:02:42Z</time>
      </trkpt>
      <trkpt lat="44.79" lon="6.9959">
        <ele>2684</ele>
        <time>2022-01-04T12:02:43Z</time>
      </trkpt>
      <trkpt lat="44.78994" lon="6.99592">
        <ele>2682</ele>
        <time>2022-01-04T12:02:46Z</time>
      </trkpt>
      <trkpt lat="44.78994" lon="6.99589">
        <ele>2682</ele>
        <time>2022-01-04T12:02:47Z</time>
      </trkpt>
      <trkpt lat="44.78995" lon="6.99584">
        <ele>2680</ele>
        <time>2022-01-04T12:02:49Z</time>
      </trkpt>
      <trkpt lat="44.78996" lon="6.99581">
        <ele>2678</ele>
        <time>2022-01-04T12:02:51Z</time>
      </trkpt>
      <trkpt lat="44.78993" lon="6.99582">
        <ele>2676</ele>
        <time>2022-01-04T12:02:53Z</time>
      </trkpt>
      <trkpt lat="44.78991" lon="6.99582">
        <ele>2674</ele>
        <time>2022-01-04T12:02:54Z</time>
      </trkpt>
      <trkpt lat="44.78989" lon="6.99577">
        <ele>2674</ele>
        <time>2022-01-04T12:02:55Z</time>
      </trkpt>
      <trkpt lat="44.78988" lon="6.99572">
        <ele>2672</ele>
        <time>2022-01-04T12:02:57Z</time>
      </trkpt>
      <trkpt lat="44.78986" lon="6.9957">
        <ele>2671</ele>
        <time>2022-01-04T12:02:58Z</time>
      </trkpt>
      <trkpt lat="44.78984" lon="6.9957">
        <ele>2671</ele>
        <time>2022-01-04T12:02:59Z</time>
      </trkpt>
      <trkpt lat="44.78966" lon="6.99582">
        <ele>2669</ele>
        <time>2022-01-04T12:03:03Z</time>
      </trkpt>
      <trkpt lat="44.78946" lon="6.99582">
        <ele>2668</ele>
        <time>2022-01-04T12:03:07Z</time>
      </trkpt>
      <trkpt lat="44.78938" lon="6.99581">
        <ele>2667</ele>
        <time>2022-01-04T12:03:09Z</time>
      </trkpt>
      <trkpt lat="44.78928" lon="6.99578">
        <ele>2667</ele>
        <time>2022-01-04T12:03:11Z</time>
      </trkpt>
      <trkpt lat="44.78925" lon="6.99575">
        <ele>2667</ele>
        <time>2022-01-04T12:03:12Z</time>
      </trkpt>
      <trkpt lat="44.7892" lon="6.99573">
        <ele>2665</ele>
        <time>2022-01-04T12:03:14Z</time>
      </trkpt>
      <trkpt lat="44.78917" lon="6.99572">
        <ele>2664</ele>
        <time>2022-01-04T12:03:15Z</time>
      </trkpt>
      <trkpt lat="44.78916" lon="6.9957">
        <ele>2661</ele>
        <time>2022-01-04T12:03:22Z</time>
      </trkpt>
      <trkpt lat="44.78916" lon="6.99565">
        <ele>2658</ele>
        <time>2022-01-04T12:03:26Z</time>
      </trkpt>
      <trkpt lat="44.78918" lon="6.99564">
        <ele>2657</ele>
        <time>2022-01-04T12:03:36Z</time>
      </trkpt>
      <trkpt lat="44.78922" lon="6.99563">
        <ele>2658</ele>
        <time>2022-01-04T12:03:38Z</time>
      </trkpt>
      <trkpt lat="44.78925" lon="6.99563">
        <ele>2658</ele>
        <time>2022-01-04T12:03:40Z</time>
      </trkpt>
      <trkpt lat="44.78929" lon="6.99562">
        <ele>2657</ele>
        <time>2022-01-04T12:03:41Z</time>
      </trkpt>
      <trkpt lat="44.7893" lon="6.99559">
        <ele>2657</ele>
        <time>2022-01-04T12:03:43Z</time>
      </trkpt>
      <trkpt lat="44.78931" lon="6.99553">
        <ele>2655</ele>
        <time>2022-01-04T12:03:45Z</time>
      </trkpt>
      <trkpt lat="44.78948" lon="6.99539">
        <ele>2650</ele>
        <time>2022-01-04T12:03:52Z</time>
      </trkpt>
      <trkpt lat="44.78948" lon="6.99536">
        <ele>2649</ele>
        <time>2022-01-04T12:03:53Z</time>
      </trkpt>
      <trkpt lat="44.78944" lon="6.99534">
        <ele>2649</ele>
        <time>2022-01-04T12:03:54Z</time>
      </trkpt>
      <trkpt lat="44.78942" lon="6.99534">
        <ele>2646</ele>
        <time>2022-01-04T12:03:55Z</time>
      </trkpt>
      <trkpt lat="44.7894" lon="6.99534">
        <ele>2645</ele>
        <time>2022-01-04T12:03:56Z</time>
      </trkpt>
      <trkpt lat="44.78938" lon="6.99533">
        <ele>2643</ele>
        <time>2022-01-04T12:04:02Z</time>
      </trkpt>
      <trkpt lat="44.78932" lon="6.99533">
        <ele>2642</ele>
        <time>2022-01-04T12:04:04Z</time>
      </trkpt>
      <trkpt lat="44.78929" lon="6.99532">
        <ele>2641</ele>
        <time>2022-01-04T12:04:05Z</time>
      </trkpt>
      <trkpt lat="44.78926" lon="6.99531">
        <ele>2640</ele>
        <time>2022-01-04T12:04:07Z</time>
      </trkpt>
      <trkpt lat="44.78927" lon="6.99528">
        <ele>2637</ele>
        <time>2022-01-04T12:04:15Z</time>
      </trkpt>
      <trkpt lat="44.78932" lon="6.99526">
        <ele>2636</ele>
        <time>2022-01-04T12:04:18Z</time>
      </trkpt>
      <trkpt lat="44.78939" lon="6.99524">
        <ele>2631</ele>
        <time>2022-01-04T12:04:21Z</time>
      </trkpt>
      <trkpt lat="44.78941" lon="6.99521">
        <ele>2630</ele>
        <time>2022-01-04T12:04:22Z</time>
      </trkpt>
      <trkpt lat="44.7894" lon="6.99517">
        <ele>2627</ele>
        <time>2022-01-04T12:04:23Z</time>
      </trkpt>
      <trkpt lat="44.78937" lon="6.99515">
        <ele>2626</ele>
        <time>2022-01-04T12:04:24Z</time>
      </trkpt>
      <trkpt lat="44.78931" lon="6.99515">
        <ele>2623</ele>
        <time>2022-01-04T12:04:26Z</time>
      </trkpt>
      <trkpt lat="44.78923" lon="6.9951">
        <ele>2619</ele>
        <time>2022-01-04T12:04:29Z</time>
      </trkpt>
      <trkpt lat="44.78915" lon="6.99501">
        <ele>2616</ele>
        <time>2022-01-04T12:04:32Z</time>
      </trkpt>
      <trkpt lat="44.78914" lon="6.99496">
        <ele>2615</ele>
        <time>2022-01-04T12:04:33Z</time>
      </trkpt>
      <trkpt lat="44.78917" lon="6.99489">
        <ele>2613</ele>
        <time>2022-01-04T12:04:35Z</time>
      </trkpt>
      <trkpt lat="44.78914" lon="6.99482">
        <ele>2611</ele>
        <time>2022-01-04T12:04:36Z</time>
      </trkpt>
      <trkpt lat="44.78912" lon="6.99479">
        <ele>2611</ele>
        <time>2022-01-04T12:04:37Z</time>
      </trkpt>
      <trkpt lat="44.78911" lon="6.99476">
        <ele>2609</ele>
        <time>2022-01-04T12:04:38Z</time>
      </trkpt>
      <trkpt lat="44.78915" lon="6.99474">
        <ele>2607</ele>
        <time>2022-01-04T12:04:40Z</time>
      </trkpt>
      <trkpt lat="44.78924" lon="6.99475">
        <ele>2604</ele>
        <time>2022-01-04T12:04:43Z</time>
      </trkpt>
      <trkpt lat="44.78924" lon="6.99468">
        <ele>2602</ele>
        <time>2022-01-04T12:04:44Z</time>
      </trkpt>
      <trkpt lat="44.78907" lon="6.99437">
        <ele>2597</ele>
        <time>2022-01-04T12:04:49Z</time>
      </trkpt>
      <trkpt lat="44.78906" lon="6.99431">
        <ele>2596</ele>
        <time>2022-01-04T12:04:50Z</time>
      </trkpt>
      <trkpt lat="44.78905" lon="6.99423">
        <ele>2595</ele>
        <time>2022-01-04T12:04:51Z</time>
      </trkpt>
      <trkpt lat="44.78913" lon="6.99363">
        <ele>2587</ele>
        <time>2022-01-04T12:04:58Z</time>
      </trkpt>
      <trkpt lat="44.78913" lon="6.99353">
        <ele>2585</ele>
        <time>2022-01-04T12:05:00Z</time>
      </trkpt>
      <trkpt lat="44.78925" lon="6.99378">
        <ele>2571</ele>
        <time>2022-01-04T12:05:10Z</time>
      </trkpt>
      <trkpt lat="44.78928" lon="6.9938">
        <ele>2570</ele>
        <time>2022-01-04T12:05:11Z</time>
      </trkpt>
      <trkpt lat="44.78932" lon="6.99382">
        <ele>2569</ele>
        <time>2022-01-04T12:05:12Z</time>
      </trkpt>
      <trkpt lat="44.78936" lon="6.99383">
        <ele>2568</ele>
        <time>2022-01-04T12:05:13Z</time>
      </trkpt>
      <trkpt lat="44.78938" lon="6.9938">
        <ele>2567</ele>
        <time>2022-01-04T12:05:14Z</time>
      </trkpt>
      <trkpt lat="44.78964" lon="6.99339">
        <ele>2559</ele>
        <time>2022-01-04T12:05:22Z</time>
      </trkpt>
      <trkpt lat="44.78974" lon="6.99333">
        <ele>2556</ele>
        <time>2022-01-04T12:05:24Z</time>
      </trkpt>
      <trkpt lat="44.78977" lon="6.99328">
        <ele>2555</ele>
        <time>2022-01-04T12:05:25Z</time>
      </trkpt>
      <trkpt lat="44.78976" lon="6.99338">
        <ele>2550</ele>
        <time>2022-01-04T12:05:54Z</time>
      </trkpt>
      <trkpt lat="44.78973" lon="6.99324">
        <ele>2545</ele>
        <time>2022-01-04T12:06:15Z</time>
      </trkpt>
      <trkpt lat="44.78974" lon="6.99308">
        <ele>2545</ele>
        <time>2022-01-04T12:06:49Z</time>
      </trkpt>
      <trkpt lat="44.78976" lon="6.99304">
        <ele>2545</ele>
        <time>2022-01-04T12:06:50Z</time>
      </trkpt>
      <trkpt lat="44.78983" lon="6.99302">
        <ele>2543</ele>
        <time>2022-01-04T12:06:52Z</time>
      </trkpt>
      <trkpt lat="44.78986" lon="6.99297">
        <ele>2542</ele>
        <time>2022-01-04T12:06:53Z</time>
      </trkpt>
      <trkpt lat="44.78989" lon="6.99281">
        <ele>2540</ele>
        <time>2022-01-04T12:06:55Z</time>
      </trkpt>
      <trkpt lat="44.78993" lon="6.99274">
        <ele>2539</ele>
        <time>2022-01-04T12:06:56Z</time>
      </trkpt>
      <trkpt lat="44.7901" lon="6.99275">
        <ele>2536</ele>
        <time>2022-01-04T12:06:59Z</time>
      </trkpt>
      <trkpt lat="44.7902" lon="6.99269">
        <ele>2532</ele>
        <time>2022-01-04T12:07:01Z</time>
      </trkpt>
      <trkpt lat="44.79038" lon="6.99268">
        <ele>2528</ele>
        <time>2022-01-04T12:07:04Z</time>
      </trkpt>
      <trkpt lat="44.79043" lon="6.99266">
        <ele>2527</ele>
        <time>2022-01-04T12:07:05Z</time>
      </trkpt>
      <trkpt lat="44.79058" lon="6.99265">
        <ele>2521</ele>
        <time>2022-01-04T12:07:09Z</time>
      </trkpt>
      <trkpt lat="44.79054" lon="6.99269">
        <ele>2515</ele>
        <time>2022-01-04T12:07:26Z</time>
      </trkpt>
      <trkpt lat="44.79051" lon="6.99269">
        <ele>2513</ele>
        <time>2022-01-04T12:07:28Z</time>
      </trkpt>
      <trkpt lat="44.7905" lon="6.99271">
        <ele>2512</ele>
        <time>2022-01-04T12:07:30Z</time>
      </trkpt>
      <trkpt lat="44.79058" lon="6.99278">
        <ele>2509</ele>
        <time>2022-01-04T12:07:50Z</time>
      </trkpt>
      <trkpt lat="44.79064" lon="6.99282">
        <ele>2508</ele>
        <time>2022-01-04T12:07:52Z</time>
      </trkpt>
      <trkpt lat="44.79067" lon="6.99284">
        <ele>2508</ele>
        <time>2022-01-04T12:07:53Z</time>
      </trkpt>
      <trkpt lat="44.79071" lon="6.99284">
        <ele>2507</ele>
        <time>2022-01-04T12:07:54Z</time>
      </trkpt>
      <trkpt lat="44.79074" lon="6.99281">
        <ele>2506</ele>
        <time>2022-01-04T12:07:55Z</time>
      </trkpt>
      <trkpt lat="44.79076" lon="6.99276">
        <ele>2505</ele>
        <time>2022-01-04T12:07:56Z</time>
      </trkpt>
      <trkpt lat="44.79083" lon="6.99266">
        <ele>2503</ele>
        <time>2022-01-04T12:07:58Z</time>
      </trkpt>
      <trkpt lat="44.79101" lon="6.99258">
        <ele>2500</ele>
        <time>2022-01-04T12:08:01Z</time>
      </trkpt>
      <trkpt lat="44.79118" lon="6.99242">
        <ele>2495</ele>
        <time>2022-01-04T12:08:04Z</time>
      </trkpt>
      <trkpt lat="44.79132" lon="6.9923">
        <ele>2491</ele>
        <time>2022-01-04T12:08:06Z</time>
      </trkpt>
      <trkpt lat="44.79138" lon="6.99227">
        <ele>2489</ele>
        <time>2022-01-04T12:08:07Z</time>
      </trkpt>
      <trkpt lat="44.79144" lon="6.99227">
        <ele>2487</ele>
        <time>2022-01-04T12:08:08Z</time>
      </trkpt>
      <trkpt lat="44.7915" lon="6.99227">
        <ele>2484</ele>
        <time>2022-01-04T12:08:09Z</time>
      </trkpt>
      <trkpt lat="44.79157" lon="6.99226">
        <ele>2480</ele>
        <time>2022-01-04T12:08:11Z</time>
      </trkpt>
      <trkpt lat="44.79159" lon="6.99229">
        <ele>2477</ele>
        <time>2022-01-04T12:08:13Z</time>
      </trkpt>
      <trkpt lat="44.79161" lon="6.99233">
        <ele>2472</ele>
        <time>2022-01-04T12:08:15Z</time>
      </trkpt>
      <trkpt lat="44.79165" lon="6.99238">
        <ele>2469</ele>
        <time>2022-01-04T12:08:17Z</time>
      </trkpt>
      <trkpt lat="44.79168" lon="6.99239">
        <ele>2467</ele>
        <time>2022-01-04T12:08:18Z</time>
      </trkpt>
      <trkpt lat="44.79175" lon="6.9924">
        <ele>2466</ele>
        <time>2022-01-04T12:08:20Z</time>
      </trkpt>
      <trkpt lat="44.79193" lon="6.9924">
        <ele>2468</ele>
        <time>2022-01-04T12:08:48Z</time>
      </trkpt>
      <trkpt lat="44.79199" lon="6.99246">
        <ele>2469</ele>
        <time>2022-01-04T12:08:58Z</time>
      </trkpt>
      <trkpt lat="44.79198" lon="6.99243">
        <ele>2470</ele>
        <time>2022-01-04T12:09:10Z</time>
      </trkpt>
      <trkpt lat="44.79199" lon="6.9924">
        <ele>2471</ele>
        <time>2022-01-04T12:09:12Z</time>
      </trkpt>
      <trkpt lat="44.79199" lon="6.99237">
        <ele>2471</ele>
        <time>2022-01-04T12:09:13Z</time>
      </trkpt>
      <trkpt lat="44.79194" lon="6.99221">
        <ele>2470</ele>
        <time>2022-01-04T12:09:16Z</time>
      </trkpt>
      <trkpt lat="44.79196" lon="6.9922">
        <ele>2470</ele>
        <time>2022-01-04T12:09:17Z</time>
      </trkpt>
      <trkpt lat="44.79199" lon="6.9922">
        <ele>2469</ele>
        <time>2022-01-04T12:09:18Z</time>
      </trkpt>
      <trkpt lat="44.79204" lon="6.99222">
        <ele>2469</ele>
        <time>2022-01-04T12:09:19Z</time>
      </trkpt>
      <trkpt lat="44.79208" lon="6.99224">
        <ele>2468</ele>
        <time>2022-01-04T12:09:20Z</time>
      </trkpt>
      <trkpt lat="44.7921" lon="6.9922">
        <ele>2468</ele>
        <time>2022-01-04T12:09:21Z</time>
      </trkpt>
      <trkpt lat="44.79212" lon="6.99209">
        <ele>2466</ele>
        <time>2022-01-04T12:09:23Z</time>
      </trkpt>
      <trkpt lat="44.79212" lon="6.99206">
        <ele>2465</ele>
        <time>2022-01-04T12:09:24Z</time>
      </trkpt>
      <trkpt lat="44.79215" lon="6.99206">
        <ele>2465</ele>
        <time>2022-01-04T12:09:25Z</time>
      </trkpt>
      <trkpt lat="44.79218" lon="6.99209">
        <ele>2461</ele>
        <time>2022-01-04T12:09:28Z</time>
      </trkpt>
      <trkpt lat="44.79222" lon="6.9921">
        <ele>2457</ele>
        <time>2022-01-04T12:09:30Z</time>
      </trkpt>
      <trkpt lat="44.79225" lon="6.99209">
        <ele>2454</ele>
        <time>2022-01-04T12:09:31Z</time>
      </trkpt>
      <trkpt lat="44.79228" lon="6.99211">
        <ele>2452</ele>
        <time>2022-01-04T12:09:32Z</time>
      </trkpt>
      <trkpt lat="44.7923" lon="6.99213">
        <ele>2450</ele>
        <time>2022-01-04T12:09:33Z</time>
      </trkpt>
      <trkpt lat="44.79231" lon="6.99216">
        <ele>2449</ele>
        <time>2022-01-04T12:09:34Z</time>
      </trkpt>
      <trkpt lat="44.79241" lon="6.9921">
        <ele>2444</ele>
        <time>2022-01-04T12:09:38Z</time>
      </trkpt>
      <trkpt lat="44.79243" lon="6.99208">
        <ele>2442</ele>
        <time>2022-01-04T12:09:39Z</time>
      </trkpt>
      <trkpt lat="44.79246" lon="6.9921">
        <ele>2441</ele>
        <time>2022-01-04T12:09:40Z</time>
      </trkpt>
      <trkpt lat="44.79249" lon="6.99211">
        <ele>2439</ele>
        <time>2022-01-04T12:09:41Z</time>
      </trkpt>
      <trkpt lat="44.79252" lon="6.99211">
        <ele>2437</ele>
        <time>2022-01-04T12:09:42Z</time>
      </trkpt>
      <trkpt lat="44.79255" lon="6.99211">
        <ele>2435</ele>
        <time>2022-01-04T12:09:43Z</time>
      </trkpt>
      <trkpt lat="44.79258" lon="6.99214">
        <ele>2434</ele>
        <time>2022-01-04T12:09:44Z</time>
      </trkpt>
      <trkpt lat="44.79266" lon="6.99216">
        <ele>2430</ele>
        <time>2022-01-04T12:09:46Z</time>
      </trkpt>
      <trkpt lat="44.7927" lon="6.9922">
        <ele>2428</ele>
        <time>2022-01-04T12:09:47Z</time>
      </trkpt>
      <trkpt lat="44.79278" lon="6.99236">
        <ele>2425</ele>
        <time>2022-01-04T12:09:50Z</time>
      </trkpt>
      <trkpt lat="44.79285" lon="6.99244">
        <ele>2421</ele>
        <time>2022-01-04T12:09:52Z</time>
      </trkpt>
      <trkpt lat="44.79299" lon="6.99272">
        <ele>2413</ele>
        <time>2022-01-04T12:09:58Z</time>
      </trkpt>
      <trkpt lat="44.79298" lon="6.99271">
        <ele>2411</ele>
        <time>2022-01-04T12:10:06Z</time>
      </trkpt>
      <trkpt lat="44.79303" lon="6.99253">
        <ele>2412</ele>
        <time>2022-01-04T12:10:10Z</time>
      </trkpt>
      <trkpt lat="44.79299" lon="6.99227">
        <ele>2409</ele>
        <time>2022-01-04T12:10:18Z</time>
      </trkpt>
      <trkpt lat="44.79291" lon="6.99207">
        <ele>2405</ele>
        <time>2022-01-04T12:10:30Z</time>
      </trkpt>
      <trkpt lat="44.7929" lon="6.99204">
        <ele>2405</ele>
        <time>2022-01-04T12:10:31Z</time>
      </trkpt>
      <trkpt lat="44.79291" lon="6.99199">
        <ele>2404</ele>
        <time>2022-01-04T12:10:32Z</time>
      </trkpt>
      <trkpt lat="44.79297" lon="6.99192">
        <ele>2401</ele>
        <time>2022-01-04T12:10:35Z</time>
      </trkpt>
      <trkpt lat="44.793" lon="6.9919">
        <ele>2400</ele>
        <time>2022-01-04T12:10:36Z</time>
      </trkpt>
      <trkpt lat="44.79317" lon="6.99194">
        <ele>2395</ele>
        <time>2022-01-04T12:10:41Z</time>
      </trkpt>
      <trkpt lat="44.79321" lon="6.99194">
        <ele>2393</ele>
        <time>2022-01-04T12:10:42Z</time>
      </trkpt>
      <trkpt lat="44.79339" lon="6.99198">
        <ele>2386</ele>
        <time>2022-01-04T12:10:46Z</time>
      </trkpt>
      <trkpt lat="44.7935" lon="6.99228">
        <ele>2374</ele>
        <time>2022-01-04T12:10:51Z</time>
      </trkpt>
      <trkpt lat="44.79352" lon="6.99233">
        <ele>2372</ele>
        <time>2022-01-04T12:10:52Z</time>
      </trkpt>
      <trkpt lat="44.79358" lon="6.99241">
        <ele>2367</ele>
        <time>2022-01-04T12:10:55Z</time>
      </trkpt>
      <trkpt lat="44.79373" lon="6.99265">
        <ele>2360</ele>
        <time>2022-01-04T12:11:01Z</time>
      </trkpt>
      <trkpt lat="44.79377" lon="6.9928">
        <ele>2359</ele>
        <time>2022-01-04T12:11:04Z</time>
      </trkpt>
      <trkpt lat="44.7938" lon="6.99302">
        <ele>2356</ele>
        <time>2022-01-04T12:11:09Z</time>
      </trkpt>
      <trkpt lat="44.7938" lon="6.9931">
        <ele>2355</ele>
        <time>2022-01-04T12:11:11Z</time>
      </trkpt>
      <trkpt lat="44.79386" lon="6.99351">
        <ele>2353</ele>
        <time>2022-01-04T12:11:37Z</time>
      </trkpt>
      <trkpt lat="44.79387" lon="6.99356">
        <ele>2352</ele>
        <time>2022-01-04T12:11:38Z</time>
      </trkpt>
      <trkpt lat="44.79391" lon="6.99358">
        <ele>2352</ele>
        <time>2022-01-04T12:11:39Z</time>
      </trkpt>
      <trkpt lat="44.79395" lon="6.99356">
        <ele>2351</ele>
        <time>2022-01-04T12:11:40Z</time>
      </trkpt>
      <trkpt lat="44.79399" lon="6.99351">
        <ele>2350</ele>
        <time>2022-01-04T12:11:41Z</time>
      </trkpt>
      <trkpt lat="44.79401" lon="6.99346">
        <ele>2349</ele>
        <time>2022-01-04T12:11:42Z</time>
      </trkpt>
      <trkpt lat="44.79402" lon="6.99343">
        <ele>2349</ele>
        <time>2022-01-04T12:11:43Z</time>
      </trkpt>
      <trkpt lat="44.79399" lon="6.99343">
        <ele>2347</ele>
        <time>2022-01-04T12:11:46Z</time>
      </trkpt>
      <trkpt lat="44.79408" lon="6.99345">
        <ele>2345</ele>
        <time>2022-01-04T12:12:02Z</time>
      </trkpt>
      <trkpt lat="44.79412" lon="6.99345">
        <ele>2343</ele>
        <time>2022-01-04T12:12:03Z</time>
      </trkpt>
      <trkpt lat="44.79413" lon="6.9934">
        <ele>2342</ele>
        <time>2022-01-04T12:12:04Z</time>
      </trkpt>
      <trkpt lat="44.79411" lon="6.9932">
        <ele>2338</ele>
        <time>2022-01-04T12:12:08Z</time>
      </trkpt>
      <trkpt lat="44.79411" lon="6.99317">
        <ele>2337</ele>
        <time>2022-01-04T12:12:09Z</time>
      </trkpt>
      <trkpt lat="44.79413" lon="6.99315">
        <ele>2336</ele>
        <time>2022-01-04T12:12:10Z</time>
      </trkpt>
      <trkpt lat="44.79415" lon="6.99311">
        <ele>2335</ele>
        <time>2022-01-04T12:12:11Z</time>
      </trkpt>
      <trkpt lat="44.79414" lon="6.99306">
        <ele>2333</ele>
        <time>2022-01-04T12:12:12Z</time>
      </trkpt>
      <trkpt lat="44.79411" lon="6.99283">
        <ele>2328</ele>
        <time>2022-01-04T12:12:17Z</time>
      </trkpt>
      <trkpt lat="44.79412" lon="6.99279">
        <ele>2325</ele>
        <time>2022-01-04T12:12:19Z</time>
      </trkpt>
      <trkpt lat="44.79414" lon="6.99277">
        <ele>2324</ele>
        <time>2022-01-04T12:12:20Z</time>
      </trkpt>
      <trkpt lat="44.79417" lon="6.99272">
        <ele>2323</ele>
        <time>2022-01-04T12:12:21Z</time>
      </trkpt>
      <trkpt lat="44.79423" lon="6.99266">
        <ele>2321</ele>
        <time>2022-01-04T12:12:23Z</time>
      </trkpt>
      <trkpt lat="44.79424" lon="6.99261">
        <ele>2320</ele>
        <time>2022-01-04T12:12:24Z</time>
      </trkpt>
      <trkpt lat="44.79426" lon="6.99258">
        <ele>2318</ele>
        <time>2022-01-04T12:12:25Z</time>
      </trkpt>
      <trkpt lat="44.79429" lon="6.99256">
        <ele>2317</ele>
        <time>2022-01-04T12:12:26Z</time>
      </trkpt>
      <trkpt lat="44.7943" lon="6.99252">
        <ele>2315</ele>
        <time>2022-01-04T12:12:27Z</time>
      </trkpt>
      <trkpt lat="44.79431" lon="6.99247">
        <ele>2314</ele>
        <time>2022-01-04T12:12:28Z</time>
      </trkpt>
      <trkpt lat="44.79432" lon="6.99234">
        <ele>2309</ele>
        <time>2022-01-04T12:12:30Z</time>
      </trkpt>
      <trkpt lat="44.79435" lon="6.99229">
        <ele>2307</ele>
        <time>2022-01-04T12:12:31Z</time>
      </trkpt>
      <trkpt lat="44.79439" lon="6.99224">
        <ele>2306</ele>
        <time>2022-01-04T12:12:32Z</time>
      </trkpt>
      <trkpt lat="44.79443" lon="6.99221">
        <ele>2305</ele>
        <time>2022-01-04T12:12:33Z</time>
      </trkpt>
      <trkpt lat="44.79459" lon="6.99225">
        <ele>2300</ele>
        <time>2022-01-04T12:12:36Z</time>
      </trkpt>
      <trkpt lat="44.79487" lon="6.99241">
        <ele>2293</ele>
        <time>2022-01-04T12:12:40Z</time>
      </trkpt>
      <trkpt lat="44.79491" lon="6.99242">
        <ele>2291</ele>
        <time>2022-01-04T12:12:41Z</time>
      </trkpt>
      <trkpt lat="44.79505" lon="6.99239">
        <ele>2286</ele>
        <time>2022-01-04T12:12:45Z</time>
      </trkpt>
      <trkpt lat="44.7951" lon="6.9924">
        <ele>2284</ele>
        <time>2022-01-04T12:12:47Z</time>
      </trkpt>
      <trkpt lat="44.79513" lon="6.9924">
        <ele>2283</ele>
        <time>2022-01-04T12:12:48Z</time>
      </trkpt>
      <trkpt lat="44.79516" lon="6.99241">
        <ele>2282</ele>
        <time>2022-01-04T12:12:49Z</time>
      </trkpt>
      <trkpt lat="44.79519" lon="6.99244">
        <ele>2282</ele>
        <time>2022-01-04T12:13:02Z</time>
      </trkpt>
      <trkpt lat="44.79553" lon="6.9928">
        <ele>2285</ele>
        <time>2022-01-04T12:13:32Z</time>
      </trkpt>
      <trkpt lat="44.7956" lon="6.99285">
        <ele>2284</ele>
        <time>2022-01-04T12:13:37Z</time>
      </trkpt>
      <trkpt lat="44.79563" lon="6.99285">
        <ele>2284</ele>
        <time>2022-01-04T12:13:39Z</time>
      </trkpt>
      <trkpt lat="44.79566" lon="6.99284">
        <ele>2284</ele>
        <time>2022-01-04T12:13:42Z</time>
      </trkpt>
      <trkpt lat="44.79566" lon="6.99297">
        <ele>2278</ele>
        <time>2022-01-04T12:23:43Z</time>
      </trkpt>
      <trkpt lat="44.79567" lon="6.99335">
        <ele>2277</ele>
        <time>2022-01-04T12:24:24Z</time>
      </trkpt>
      <trkpt lat="44.79565" lon="6.99368">
        <ele>2286</ele>
        <time>2022-01-04T12:24:58Z</time>
      </trkpt>
      <trkpt lat="44.79562" lon="6.99387">
        <ele>2292</ele>
        <time>2022-01-04T12:25:27Z</time>
      </trkpt>
      <trkpt lat="44.79565" lon="6.99399">
        <ele>2295</ele>
        <time>2022-01-04T12:25:36Z</time>
      </trkpt>
      <trkpt lat="44.79564" lon="6.99414">
        <ele>2299</ele>
        <time>2022-01-04T12:25:54Z</time>
      </trkpt>
      <trkpt lat="44.79566" lon="6.99429">
        <ele>2303</ele>
        <time>2022-01-04T12:26:13Z</time>
      </trkpt>
      <trkpt lat="44.79567" lon="6.99441">
        <ele>2305</ele>
        <time>2022-01-04T12:26:24Z</time>
      </trkpt>
      <trkpt lat="44.79568" lon="6.99454">
        <ele>2307</ele>
        <time>2022-01-04T12:26:39Z</time>
      </trkpt>
      <trkpt lat="44.79565" lon="6.9947">
        <ele>2311</ele>
        <time>2022-01-04T12:26:55Z</time>
      </trkpt>
      <trkpt lat="44.79569" lon="6.99501">
        <ele>2321</ele>
        <time>2022-01-04T12:27:39Z</time>
      </trkpt>
      <trkpt lat="44.7957" lon="6.99538">
        <ele>2336</ele>
        <time>2022-01-04T12:28:21Z</time>
      </trkpt>
      <trkpt lat="44.79572" lon="6.99568">
        <ele>2341</ele>
        <time>2022-01-04T12:29:02Z</time>
      </trkpt>
      <trkpt lat="44.79573" lon="6.99587">
        <ele>2340</ele>
        <time>2022-01-04T12:29:24Z</time>
      </trkpt>
      <trkpt lat="44.7958" lon="6.99596">
        <ele>2340</ele>
        <time>2022-01-04T12:29:41Z</time>
      </trkpt>
      <trkpt lat="44.79566" lon="6.99621">
        <ele>2348</ele>
        <time>2022-01-04T12:30:15Z</time>
      </trkpt>
      <trkpt lat="44.79564" lon="6.99635">
        <ele>2357</ele>
        <time>2022-01-04T12:30:38Z</time>
      </trkpt>
      <trkpt lat="44.79568" lon="6.99651">
        <ele>2361</ele>
        <time>2022-01-04T12:30:55Z</time>
      </trkpt>
      <trkpt lat="44.79573" lon="6.99665">
        <ele>2366</ele>
        <time>2022-01-04T12:31:13Z</time>
      </trkpt>
      <trkpt lat="44.79582" lon="6.99673">
        <ele>2371</ele>
        <time>2022-01-04T12:31:31Z</time>
      </trkpt>
      <trkpt lat="44.79579" lon="6.99688">
        <ele>2375</ele>
        <time>2022-01-04T12:32:07Z</time>
      </trkpt>
      <trkpt lat="44.79561" lon="6.99705">
        <ele>2377</ele>
        <time>2022-01-04T12:32:45Z</time>
      </trkpt>
      <trkpt lat="44.79566" lon="6.99717">
        <ele>2380</ele>
        <time>2022-01-04T12:33:11Z</time>
      </trkpt>
      <trkpt lat="44.79576" lon="6.99724">
        <ele>2383</ele>
        <time>2022-01-04T12:33:27Z</time>
      </trkpt>
      <trkpt lat="44.7959" lon="6.99747">
        <ele>2387</ele>
        <time>2022-01-04T12:34:04Z</time>
      </trkpt>
      <trkpt lat="44.79593" lon="6.99749">
        <ele>2387</ele>
        <time>2022-01-04T12:34:07Z</time>
      </trkpt>
      <trkpt lat="44.79596" lon="6.99762">
        <ele>2389</ele>
        <time>2022-01-04T12:34:22Z</time>
      </trkpt>
      <trkpt lat="44.79598" lon="6.99778">
        <ele>2392</ele>
        <time>2022-01-04T12:34:41Z</time>
      </trkpt>
      <trkpt lat="44.79598" lon="6.99793">
        <ele>2395</ele>
        <time>2022-01-04T12:34:57Z</time>
      </trkpt>
      <trkpt lat="44.79595" lon="6.99808">
        <ele>2398</ele>
        <time>2022-01-04T12:35:14Z</time>
      </trkpt>
      <trkpt lat="44.79593" lon="6.99823">
        <ele>2400</ele>
        <time>2022-01-04T12:35:30Z</time>
      </trkpt>
      <trkpt lat="44.79586" lon="6.99835">
        <ele>2403</ele>
        <time>2022-01-04T12:35:50Z</time>
      </trkpt>
      <trkpt lat="44.79594" lon="6.99875">
        <ele>2411</ele>
        <time>2022-01-04T12:36:21Z</time>
      </trkpt>
      <trkpt lat="44.796" lon="6.9991">
        <ele>2415</ele>
        <time>2022-01-04T12:36:48Z</time>
      </trkpt>
      <trkpt lat="44.79602" lon="6.99947">
        <ele>2420</ele>
        <time>2022-01-04T12:37:20Z</time>
      </trkpt>
      <trkpt lat="44.79603" lon="6.99953">
        <ele>2420</ele>
        <time>2022-01-04T12:37:24Z</time>
      </trkpt>
      <trkpt lat="44.79604" lon="6.99989">
        <ele>2422</ele>
        <time>2022-01-04T12:37:54Z</time>
      </trkpt>
      <trkpt lat="44.79597" lon="7.00019">
        <ele>2425</ele>
        <time>2022-01-04T12:38:22Z</time>
      </trkpt>
      <trkpt lat="44.79583" lon="7.00047">
        <ele>2423</ele>
        <time>2022-01-04T12:39:06Z</time>
      </trkpt>
      <trkpt lat="44.79578" lon="7.00048">
        <ele>2419</ele>
        <time>2022-01-04T12:39:09Z</time>
      </trkpt>
      <trkpt lat="44.79568" lon="7.00053">
        <ele>2421</ele>
        <time>2022-01-04T12:39:17Z</time>
      </trkpt>
      <trkpt lat="44.79566" lon="7.00057">
        <ele>2423</ele>
        <time>2022-01-04T12:39:20Z</time>
      </trkpt>
      <trkpt lat="44.79563" lon="7.00067">
        <ele>2429</ele>
        <time>2022-01-04T12:39:32Z</time>
      </trkpt>
      <trkpt lat="44.79561" lon="7.0007">
        <ele>2430</ele>
        <time>2022-01-04T12:39:34Z</time>
      </trkpt>
      <trkpt lat="44.7956" lon="7.00086">
        <ele>2435</ele>
        <time>2022-01-04T12:39:47Z</time>
      </trkpt>
      <trkpt lat="44.79548" lon="7.00112">
        <ele>2447</ele>
        <time>2022-01-04T12:40:17Z</time>
      </trkpt>
      <trkpt lat="44.79545" lon="7.00127">
        <ele>2448</ele>
        <time>2022-01-04T12:40:33Z</time>
      </trkpt>
      <trkpt lat="44.79544" lon="7.00129">
        <ele>2449</ele>
        <time>2022-01-04T12:40:36Z</time>
      </trkpt>
      <trkpt lat="44.79525" lon="7.00148">
        <ele>2453</ele>
        <time>2022-01-04T12:41:06Z</time>
      </trkpt>
      <trkpt lat="44.79516" lon="7.00177">
        <ele>2456</ele>
        <time>2022-01-04T12:41:40Z</time>
      </trkpt>
      <trkpt lat="44.79514" lon="7.00192">
        <ele>2458</ele>
        <time>2022-01-04T12:41:56Z</time>
      </trkpt>
      <trkpt lat="44.79514" lon="7.00208">
        <ele>2460</ele>
        <time>2022-01-04T12:42:13Z</time>
      </trkpt>
      <trkpt lat="44.79512" lon="7.00223">
        <ele>2464</ele>
        <time>2022-01-04T12:42:32Z</time>
      </trkpt>
      <trkpt lat="44.79507" lon="7.00236">
        <ele>2467</ele>
        <time>2022-01-04T12:42:50Z</time>
      </trkpt>
      <trkpt lat="44.79488" lon="7.00249">
        <ele>2465</ele>
        <time>2022-01-04T12:43:24Z</time>
      </trkpt>
      <trkpt lat="44.79485" lon="7.00252">
        <ele>2465</ele>
        <time>2022-01-04T12:43:27Z</time>
      </trkpt>
      <trkpt lat="44.79479" lon="7.00263">
        <ele>2470</ele>
        <time>2022-01-04T12:43:40Z</time>
      </trkpt>
      <trkpt lat="44.79479" lon="7.00266">
        <ele>2471</ele>
        <time>2022-01-04T12:43:42Z</time>
      </trkpt>
      <trkpt lat="44.79459" lon="7.0031">
        <ele>2486</ele>
        <time>2022-01-04T12:44:27Z</time>
      </trkpt>
      <trkpt lat="44.79442" lon="7.00336">
        <ele>2485</ele>
        <time>2022-01-04T12:44:52Z</time>
      </trkpt>
      <trkpt lat="44.79443" lon="7.00347">
        <ele>2486</ele>
        <time>2022-01-04T12:44:58Z</time>
      </trkpt>
      <trkpt lat="44.79426" lon="7.00377">
        <ele>2483</ele>
        <time>2022-01-04T12:45:29Z</time>
      </trkpt>
      <trkpt lat="44.7942" lon="7.00393">
        <ele>2484</ele>
        <time>2022-01-04T12:45:40Z</time>
      </trkpt>
      <trkpt lat="44.79398" lon="7.00424">
        <ele>2484</ele>
        <time>2022-01-04T12:46:19Z</time>
      </trkpt>
      <trkpt lat="44.79397" lon="7.00428">
        <ele>2484</ele>
        <time>2022-01-04T12:46:22Z</time>
      </trkpt>
      <trkpt lat="44.79406" lon="7.00479">
        <ele>2485</ele>
        <time>2022-01-04T12:46:59Z</time>
      </trkpt>
      <trkpt lat="44.79416" lon="7.00498">
        <ele>2484</ele>
        <time>2022-01-04T12:47:40Z</time>
      </trkpt>
      <trkpt lat="44.79423" lon="7.0051">
        <ele>2485</ele>
        <time>2022-01-04T12:48:10Z</time>
      </trkpt>
      <trkpt lat="44.79426" lon="7.00524">
        <ele>2488</ele>
        <time>2022-01-04T12:48:40Z</time>
      </trkpt>
      <trkpt lat="44.79426" lon="7.00527">
        <ele>2489</ele>
        <time>2022-01-04T12:48:43Z</time>
      </trkpt>
      <trkpt lat="44.79428" lon="7.0054">
        <ele>2491</ele>
        <time>2022-01-04T12:48:59Z</time>
      </trkpt>
      <trkpt lat="44.7943" lon="7.00556">
        <ele>2496</ele>
        <time>2022-01-04T12:49:18Z</time>
      </trkpt>
      <trkpt lat="44.79434" lon="7.00569">
        <ele>2500</ele>
        <time>2022-01-04T12:49:39Z</time>
      </trkpt>
      <trkpt lat="44.79443" lon="7.00566">
        <ele>2506</ele>
        <time>2022-01-04T12:50:08Z</time>
      </trkpt>
      <trkpt lat="44.79449" lon="7.00553">
        <ele>2510</ele>
        <time>2022-01-04T12:50:29Z</time>
      </trkpt>
      <trkpt lat="44.79454" lon="7.00541">
        <ele>2513</ele>
        <time>2022-01-04T12:51:07Z</time>
      </trkpt>
      <trkpt lat="44.79448" lon="7.00528">
        <ele>2513</ele>
        <time>2022-01-04T12:52:18Z</time>
      </trkpt>
      <trkpt lat="44.79449" lon="7.00522">
        <ele>2513</ele>
        <time>2022-01-04T12:52:21Z</time>
      </trkpt>
      <trkpt lat="44.7945" lon="7.00535">
        <ele>2512</ele>
        <time>2022-01-04T12:52:48Z</time>
      </trkpt>
      <trkpt lat="44.79453" lon="7.00524">
        <ele>2511</ele>
        <time>2022-01-04T12:53:01Z</time>
      </trkpt>
      <trkpt lat="44.79453" lon="7.00535">
        <ele>2511</ele>
        <time>2022-01-04T12:53:31Z</time>
      </trkpt>
      <trkpt lat="44.79452" lon="7.00542">
        <ele>2513</ele>
        <time>2022-01-04T12:53:34Z</time>
      </trkpt>
      <trkpt lat="44.79453" lon="7.00541">
        <ele>2515</ele>
        <time>2022-01-04T12:53:49Z</time>
      </trkpt>
      <trkpt lat="44.79451" lon="7.00539">
        <ele>2515</ele>
        <time>2022-01-04T12:53:53Z</time>
      </trkpt>
      <trkpt lat="44.79457" lon="7.00541">
        <ele>2514</ele>
        <time>2022-01-04T12:57:22Z</time>
      </trkpt>
      <trkpt lat="44.79456" lon="7.00543">
        <ele>2516</ele>
        <time>2022-01-04T12:57:25Z</time>
      </trkpt>
      <trkpt lat="44.79448" lon="7.00548">
        <ele>2520</ele>
        <time>2022-01-04T12:58:56Z</time>
      </trkpt>
      <trkpt lat="44.79449" lon="7.00552">
        <ele>2521</ele>
        <time>2022-01-04T12:59:04Z</time>
      </trkpt>
      <trkpt lat="44.79446" lon="7.00553">
        <ele>2521</ele>
        <time>2022-01-04T12:59:05Z</time>
      </trkpt>
      <trkpt lat="44.79444" lon="7.00554">
        <ele>2525</ele>
        <time>2022-01-04T12:59:06Z</time>
      </trkpt>
      <trkpt lat="44.79449" lon="7.00552">
        <ele>2528</ele>
        <time>2022-01-04T12:59:11Z</time>
      </trkpt>
      <trkpt lat="44.7945" lon="7.00548">
        <ele>2529</ele>
        <time>2022-01-04T12:59:12Z</time>
      </trkpt>
      <trkpt lat="44.7945" lon="7.00546">
        <ele>2530</ele>
        <time>2022-01-04T12:59:17Z</time>
      </trkpt>
      <trkpt lat="44.7945" lon="7.0055">
        <ele>2532</ele>
        <time>2022-01-04T12:59:22Z</time>
      </trkpt>
      <trkpt lat="44.79449" lon="7.00555">
        <ele>2533</ele>
        <time>2022-01-04T12:59:23Z</time>
      </trkpt>
      <trkpt lat="44.79445" lon="7.00564">
        <ele>2532</ele>
        <time>2022-01-04T12:59:40Z</time>
      </trkpt>
      <trkpt lat="44.79448" lon="7.00562">
        <ele>2532</ele>
        <time>2022-01-04T12:59:48Z</time>
      </trkpt>
      <trkpt lat="44.79447" lon="7.00569">
        <ele>2535</ele>
        <time>2022-01-04T13:00:18Z</time>
      </trkpt>
      <trkpt lat="44.79442" lon="7.00579">
        <ele>2532</ele>
        <time>2022-01-04T13:00:20Z</time>
      </trkpt>
      <trkpt lat="44.79439" lon="7.00583">
        <ele>2531</ele>
        <time>2022-01-04T13:00:21Z</time>
      </trkpt>
      <trkpt lat="44.79435" lon="7.00574">
        <ele>2529</ele>
        <time>2022-01-04T13:00:22Z</time>
      </trkpt>
      <trkpt lat="44.79433" lon="7.00565">
        <ele>2526</ele>
        <time>2022-01-04T13:00:23Z</time>
      </trkpt>
      <trkpt lat="44.79432" lon="7.00557">
        <ele>2523</ele>
        <time>2022-01-04T13:00:24Z</time>
      </trkpt>
      <trkpt lat="44.79428" lon="7.00547">
        <ele>2520</ele>
        <time>2022-01-04T13:00:26Z</time>
      </trkpt>
      <trkpt lat="44.79421" lon="7.00544">
        <ele>2518</ele>
        <time>2022-01-04T13:00:28Z</time>
      </trkpt>
      <trkpt lat="44.79415" lon="7.00535">
        <ele>2514</ele>
        <time>2022-01-04T13:00:30Z</time>
      </trkpt>
      <trkpt lat="44.79407" lon="7.00533">
        <ele>2511</ele>
        <time>2022-01-04T13:00:32Z</time>
      </trkpt>
      <trkpt lat="44.79402" lon="7.00525">
        <ele>2505</ele>
        <time>2022-01-04T13:00:34Z</time>
      </trkpt>
      <trkpt lat="44.79396" lon="7.00513">
        <ele>2500</ele>
        <time>2022-01-04T13:00:36Z</time>
      </trkpt>
      <trkpt lat="44.79392" lon="7.00514">
        <ele>2497</ele>
        <time>2022-01-04T13:00:37Z</time>
      </trkpt>
      <trkpt lat="44.79388" lon="7.00519">
        <ele>2494</ele>
        <time>2022-01-04T13:00:38Z</time>
      </trkpt>
      <trkpt lat="44.79385" lon="7.00532">
        <ele>2489</ele>
        <time>2022-01-04T13:00:40Z</time>
      </trkpt>
      <trkpt lat="44.79382" lon="7.00534">
        <ele>2487</ele>
        <time>2022-01-04T13:00:41Z</time>
      </trkpt>
      <trkpt lat="44.79379" lon="7.00533">
        <ele>2483</ele>
        <time>2022-01-04T13:00:42Z</time>
      </trkpt>
      <trkpt lat="44.79376" lon="7.0053">
        <ele>2480</ele>
        <time>2022-01-04T13:00:43Z</time>
      </trkpt>
      <trkpt lat="44.7937" lon="7.00528">
        <ele>2477</ele>
        <time>2022-01-04T13:00:44Z</time>
      </trkpt>
      <trkpt lat="44.79366" lon="7.00531">
        <ele>2475</ele>
        <time>2022-01-04T13:00:45Z</time>
      </trkpt>
      <trkpt lat="44.79359" lon="7.00547">
        <ele>2470</ele>
        <time>2022-01-04T13:00:47Z</time>
      </trkpt>
      <trkpt lat="44.79329" lon="7.00566">
        <ele>2463</ele>
        <time>2022-01-04T13:00:51Z</time>
      </trkpt>
      <trkpt lat="44.79326" lon="7.00575">
        <ele>2461</ele>
        <time>2022-01-04T13:00:52Z</time>
      </trkpt>
      <trkpt lat="44.79322" lon="7.00584">
        <ele>2459</ele>
        <time>2022-01-04T13:00:53Z</time>
      </trkpt>
      <trkpt lat="44.79321" lon="7.00597">
        <ele>2457</ele>
        <time>2022-01-04T13:00:54Z</time>
      </trkpt>
      <trkpt lat="44.7932" lon="7.00624">
        <ele>2452</ele>
        <time>2022-01-04T13:00:56Z</time>
      </trkpt>
      <trkpt lat="44.79315" lon="7.00633">
        <ele>2450</ele>
        <time>2022-01-04T13:00:57Z</time>
      </trkpt>
      <trkpt lat="44.79309" lon="7.00642">
        <ele>2447</ele>
        <time>2022-01-04T13:00:58Z</time>
      </trkpt>
      <trkpt lat="44.79303" lon="7.0065">
        <ele>2444</ele>
        <time>2022-01-04T13:00:59Z</time>
      </trkpt>
      <trkpt lat="44.79296" lon="7.00657">
        <ele>2441</ele>
        <time>2022-01-04T13:01:00Z</time>
      </trkpt>
      <trkpt lat="44.79289" lon="7.00664">
        <ele>2439</ele>
        <time>2022-01-04T13:01:01Z</time>
      </trkpt>
      <trkpt lat="44.79282" lon="7.0067">
        <ele>2436</ele>
        <time>2022-01-04T13:01:02Z</time>
      </trkpt>
      <trkpt lat="44.79255" lon="7.0069">
        <ele>2429</ele>
        <time>2022-01-04T13:01:06Z</time>
      </trkpt>
      <trkpt lat="44.79239" lon="7.00693">
        <ele>2427</ele>
        <time>2022-01-04T13:01:23Z</time>
      </trkpt>
      <trkpt lat="44.79143" lon="7.00754">
        <ele>2413</ele>
        <time>2022-01-04T13:01:44Z</time>
      </trkpt>
      <trkpt lat="44.7913" lon="7.00768">
        <ele>2409</ele>
        <time>2022-01-04T13:01:52Z</time>
      </trkpt>
      <trkpt lat="44.7913" lon="7.00793">
        <ele>2407</ele>
        <time>2022-01-04T13:01:58Z</time>
      </trkpt>
      <trkpt lat="44.79125" lon="7.00816">
        <ele>2403</ele>
        <time>2022-01-04T13:02:06Z</time>
      </trkpt>
      <trkpt lat="44.79119" lon="7.0084">
        <ele>2402</ele>
        <time>2022-01-04T13:02:20Z</time>
      </trkpt>
      <trkpt lat="44.79118" lon="7.00845">
        <ele>2402</ele>
        <time>2022-01-04T13:02:21Z</time>
      </trkpt>
      <trkpt lat="44.79116" lon="7.00848">
        <ele>2401</ele>
        <time>2022-01-04T13:02:22Z</time>
      </trkpt>
      <trkpt lat="44.79112" lon="7.00853">
        <ele>2400</ele>
        <time>2022-01-04T13:02:24Z</time>
      </trkpt>
      <trkpt lat="44.79116" lon="7.00852">
        <ele>2400</ele>
        <time>2022-01-04T13:02:31Z</time>
      </trkpt>
      <trkpt lat="44.79118" lon="7.00854">
        <ele>2400</ele>
        <time>2022-01-04T13:03:17Z</time>
      </trkpt>
      <trkpt lat="44.79109" lon="7.00854">
        <ele>2400</ele>
        <time>2022-01-04T13:13:01Z</time>
      </trkpt>
      <trkpt lat="44.79107" lon="7.00852">
        <ele>2400</ele>
        <time>2022-01-04T13:13:04Z</time>
      </trkpt>
      <trkpt lat="44.79088" lon="7.00846">
        <ele>2403</ele>
        <time>2022-01-04T13:13:39Z</time>
      </trkpt>
      <trkpt lat="44.79086" lon="7.00845">
        <ele>2403</ele>
        <time>2022-01-04T13:13:42Z</time>
      </trkpt>
      <trkpt lat="44.79077" lon="7.00842">
        <ele>2404</ele>
        <time>2022-01-04T13:14:01Z</time>
      </trkpt>
      <trkpt lat="44.79063" lon="7.0084">
        <ele>2406</ele>
        <time>2022-01-04T13:14:17Z</time>
      </trkpt>
      <trkpt lat="44.79041" lon="7.00848">
        <ele>2410</ele>
        <time>2022-01-04T13:14:48Z</time>
      </trkpt>
      <trkpt lat="44.79039" lon="7.00849">
        <ele>2411</ele>
        <time>2022-01-04T13:14:51Z</time>
      </trkpt>
      <trkpt lat="44.79031" lon="7.00857">
        <ele>2413</ele>
        <time>2022-01-04T13:15:10Z</time>
      </trkpt>
      <trkpt lat="44.7902" lon="7.00867">
        <ele>2418</ele>
        <time>2022-01-04T13:15:30Z</time>
      </trkpt>
      <trkpt lat="44.79012" lon="7.00871">
        <ele>2421</ele>
        <time>2022-01-04T13:15:48Z</time>
      </trkpt>
      <trkpt lat="44.79003" lon="7.00862">
        <ele>2427</ele>
        <time>2022-01-04T13:16:15Z</time>
      </trkpt>
      <trkpt lat="44.78994" lon="7.00861">
        <ele>2431</ele>
        <time>2022-01-04T13:16:45Z</time>
      </trkpt>
      <trkpt lat="44.78973" lon="7.00868">
        <ele>2435</ele>
        <time>2022-01-04T13:17:22Z</time>
      </trkpt>
      <trkpt lat="44.78951" lon="7.00867">
        <ele>2440</ele>
        <time>2022-01-04T13:17:58Z</time>
      </trkpt>
      <trkpt lat="44.78923" lon="7.00874">
        <ele>2447</ele>
        <time>2022-01-04T13:18:30Z</time>
      </trkpt>
      <trkpt lat="44.78893" lon="7.00872">
        <ele>2444</ele>
        <time>2022-01-04T13:18:58Z</time>
      </trkpt>
      <trkpt lat="44.78879" lon="7.00858">
        <ele>2444</ele>
        <time>2022-01-04T13:19:21Z</time>
      </trkpt>
      <trkpt lat="44.78866" lon="7.00858">
        <ele>2445</ele>
        <time>2022-01-04T13:19:44Z</time>
      </trkpt>
      <trkpt lat="44.78858" lon="7.00852">
        <ele>2447</ele>
        <time>2022-01-04T13:20:00Z</time>
      </trkpt>
      <trkpt lat="44.78848" lon="7.00848">
        <ele>2449</ele>
        <time>2022-01-04T13:20:20Z</time>
      </trkpt>
      <trkpt lat="44.7883" lon="7.00867">
        <ele>2452</ele>
        <time>2022-01-04T13:20:56Z</time>
      </trkpt>
      <trkpt lat="44.78819" lon="7.00864">
        <ele>2454</ele>
        <time>2022-01-04T13:21:28Z</time>
      </trkpt>
      <trkpt lat="44.78804" lon="7.0084">
        <ele>2460</ele>
        <time>2022-01-04T13:22:06Z</time>
      </trkpt>
      <trkpt lat="44.78807" lon="7.00843">
        <ele>2462</ele>
        <time>2022-01-04T13:22:38Z</time>
      </trkpt>
      <trkpt lat="44.788" lon="7.00837">
        <ele>2463</ele>
        <time>2022-01-04T13:23:00Z</time>
      </trkpt>
      <trkpt lat="44.78798" lon="7.00835">
        <ele>2463</ele>
        <time>2022-01-04T13:23:02Z</time>
      </trkpt>
      <trkpt lat="44.78796" lon="7.00832">
        <ele>2463</ele>
        <time>2022-01-04T13:23:05Z</time>
      </trkpt>
      <trkpt lat="44.78795" lon="7.00833">
        <ele>2463</ele>
        <time>2022-01-04T13:23:08Z</time>
      </trkpt>
      <trkpt lat="44.78786" lon="7.00826">
        <ele>2468</ele>
        <time>2022-01-04T13:23:21Z</time>
      </trkpt>
      <trkpt lat="44.78785" lon="7.00824">
        <ele>2469</ele>
        <time>2022-01-04T13:23:23Z</time>
      </trkpt>
      <trkpt lat="44.78764" lon="7.00808">
        <ele>2484</ele>
        <time>2022-01-04T13:23:54Z</time>
      </trkpt>
      <trkpt lat="44.78743" lon="7.00799">
        <ele>2484</ele>
        <time>2022-01-04T13:24:24Z</time>
      </trkpt>
      <trkpt lat="44.78719" lon="7.00798">
        <ele>2488</ele>
        <time>2022-01-04T13:25:01Z</time>
      </trkpt>
      <trkpt lat="44.78693" lon="7.00795">
        <ele>2488</ele>
        <time>2022-01-04T13:25:39Z</time>
      </trkpt>
      <trkpt lat="44.78671" lon="7.00793">
        <ele>2491</ele>
        <time>2022-01-04T13:26:24Z</time>
      </trkpt>
      <trkpt lat="44.78668" lon="7.00792">
        <ele>2492</ele>
        <time>2022-01-04T13:26:27Z</time>
      </trkpt>
      <trkpt lat="44.78657" lon="7.00786">
        <ele>2495</ele>
        <time>2022-01-04T13:26:46Z</time>
      </trkpt>
      <trkpt lat="44.78647" lon="7.0078">
        <ele>2499</ele>
        <time>2022-01-04T13:27:08Z</time>
      </trkpt>
      <trkpt lat="44.78638" lon="7.00773">
        <ele>2501</ele>
        <time>2022-01-04T13:27:23Z</time>
      </trkpt>
      <trkpt lat="44.78618" lon="7.00761">
        <ele>2508</ele>
        <time>2022-01-04T13:27:57Z</time>
      </trkpt>
      <trkpt lat="44.78596" lon="7.00751">
        <ele>2513</ele>
        <time>2022-01-04T13:28:30Z</time>
      </trkpt>
      <trkpt lat="44.78582" lon="7.00729">
        <ele>2516</ele>
        <time>2022-01-04T13:29:00Z</time>
      </trkpt>
      <trkpt lat="44.78581" lon="7.00726">
        <ele>2517</ele>
        <time>2022-01-04T13:29:03Z</time>
      </trkpt>
      <trkpt lat="44.78578" lon="7.00713">
        <ele>2519</ele>
        <time>2022-01-04T13:29:18Z</time>
      </trkpt>
      <trkpt lat="44.78573" lon="7.007">
        <ele>2521</ele>
        <time>2022-01-04T13:29:40Z</time>
      </trkpt>
      <trkpt lat="44.78572" lon="7.00685">
        <ele>2524</ele>
        <time>2022-01-04T13:30:02Z</time>
      </trkpt>
      <trkpt lat="44.78563" lon="7.00677">
        <ele>2529</ele>
        <time>2022-01-04T13:30:51Z</time>
      </trkpt>
      <trkpt lat="44.78553" lon="7.00682">
        <ele>2535</ele>
        <time>2022-01-04T13:31:20Z</time>
      </trkpt>
      <trkpt lat="44.78552" lon="7.00669">
        <ele>2539</ele>
        <time>2022-01-04T13:31:52Z</time>
      </trkpt>
      <trkpt lat="44.78552" lon="7.00667">
        <ele>2541</ele>
        <time>2022-01-04T13:32:24Z</time>
      </trkpt>
      <trkpt lat="44.78554" lon="7.00654">
        <ele>2548</ele>
        <time>2022-01-04T13:33:03Z</time>
      </trkpt>
      <trkpt lat="44.78555" lon="7.00651">
        <ele>2551</ele>
        <time>2022-01-04T13:33:05Z</time>
      </trkpt>
      <trkpt lat="44.78553" lon="7.00643">
        <ele>2555</ele>
        <time>2022-01-04T13:33:13Z</time>
      </trkpt>
      <trkpt lat="44.78554" lon="7.00638">
        <ele>2555</ele>
        <time>2022-01-04T13:33:17Z</time>
      </trkpt>
      <trkpt lat="44.78553" lon="7.00635">
        <ele>2556</ele>
        <time>2022-01-04T13:33:19Z</time>
      </trkpt>
      <trkpt lat="44.78553" lon="7.00627">
        <ele>2563</ele>
        <time>2022-01-04T13:33:29Z</time>
      </trkpt>
      <trkpt lat="44.78548" lon="7.00614">
        <ele>2568</ele>
        <time>2022-01-04T13:33:49Z</time>
      </trkpt>
      <trkpt lat="44.78541" lon="7.00606">
        <ele>2564</ele>
        <time>2022-01-04T13:34:26Z</time>
      </trkpt>
      <trkpt lat="44.78544" lon="7.00607">
        <ele>2562</ele>
        <time>2022-01-04T13:34:37Z</time>
      </trkpt>
      <trkpt lat="44.78544" lon="7.00612">
        <ele>2575</ele>
        <time>2022-01-04T13:34:50Z</time>
      </trkpt>
      <trkpt lat="44.78542" lon="7.00617">
        <ele>2582</ele>
        <time>2022-01-04T13:34:54Z</time>
      </trkpt>
      <trkpt lat="44.78538" lon="7.00603">
        <ele>2587</ele>
        <time>2022-01-04T13:34:59Z</time>
      </trkpt>
      <trkpt lat="44.78538" lon="7.00597">
        <ele>2588</ele>
        <time>2022-01-04T13:35:00Z</time>
      </trkpt>
      <trkpt lat="44.78538" lon="7.00579">
        <ele>2591</ele>
        <time>2022-01-04T13:35:03Z</time>
      </trkpt>
      <trkpt lat="44.78535" lon="7.0057">
        <ele>2593</ele>
        <time>2022-01-04T13:35:05Z</time>
      </trkpt>
      <trkpt lat="44.78523" lon="7.00583">
        <ele>2595</ele>
        <time>2022-01-04T13:35:07Z</time>
      </trkpt>
      <trkpt lat="44.78522" lon="7.00589">
        <ele>2596</ele>
        <time>2022-01-04T13:35:08Z</time>
      </trkpt>
      <trkpt lat="44.78538" lon="7.0059">
        <ele>2596</ele>
        <time>2022-01-04T13:35:09Z</time>
      </trkpt>
      <trkpt lat="44.78532" lon="7.00602">
        <ele>2598</ele>
        <time>2022-01-04T13:35:14Z</time>
      </trkpt>
      <trkpt lat="44.78528" lon="7.00602">
        <ele>2598</ele>
        <time>2022-01-04T13:35:16Z</time>
      </trkpt>
      <trkpt lat="44.78527" lon="7.00596">
        <ele>2598</ele>
        <time>2022-01-04T13:35:17Z</time>
      </trkpt>
      <trkpt lat="44.7852" lon="7.00594">
        <ele>2599</ele>
        <time>2022-01-04T13:35:19Z</time>
      </trkpt>
      <trkpt lat="44.78516" lon="7.00598">
        <ele>2599</ele>
        <time>2022-01-04T13:35:20Z</time>
      </trkpt>
      <trkpt lat="44.78499" lon="7.00612">
        <ele>2598</ele>
        <time>2022-01-04T13:35:23Z</time>
      </trkpt>
      <trkpt lat="44.78514" lon="7.00642">
        <ele>2597</ele>
        <time>2022-01-04T13:35:25Z</time>
      </trkpt>
      <trkpt lat="44.78522" lon="7.00661">
        <ele>2597</ele>
        <time>2022-01-04T13:35:27Z</time>
      </trkpt>
      <trkpt lat="44.78532" lon="7.00669">
        <ele>2597</ele>
        <time>2022-01-04T13:35:28Z</time>
      </trkpt>
      <trkpt lat="44.78626" lon="7.00679">
        <ele>2596</ele>
        <time>2022-01-04T13:35:32Z</time>
      </trkpt>
      <trkpt lat="44.78606" lon="7.00674">
        <ele>2596</ele>
        <time>2022-01-04T13:35:34Z</time>
      </trkpt>
      <trkpt lat="44.786" lon="7.00658">
        <ele>2596</ele>
        <time>2022-01-04T13:35:35Z</time>
      </trkpt>
      <trkpt lat="44.78592" lon="7.0066">
        <ele>2595</ele>
        <time>2022-01-04T13:35:36Z</time>
      </trkpt>
      <trkpt lat="44.78549" lon="7.0062">
        <ele>2594</ele>
        <time>2022-01-04T13:35:39Z</time>
      </trkpt>
      <trkpt lat="44.78553" lon="7.00615">
        <ele>2594</ele>
        <time>2022-01-04T13:35:41Z</time>
      </trkpt>
      <trkpt lat="44.78551" lon="7.00608">
        <ele>2594</ele>
        <time>2022-01-04T13:35:42Z</time>
      </trkpt>
      <trkpt lat="44.78554" lon="7.00605">
        <ele>2593</ele>
        <time>2022-01-04T13:35:45Z</time>
      </trkpt>
      <trkpt lat="44.78557" lon="7.006">
        <ele>2591</ele>
        <time>2022-01-04T13:35:50Z</time>
      </trkpt>
      <trkpt lat="44.78571" lon="7.00596">
        <ele>2592</ele>
        <time>2022-01-04T13:35:53Z</time>
      </trkpt>
      <trkpt lat="44.78549" lon="7.00594">
        <ele>2590</ele>
        <time>2022-01-04T13:36:01Z</time>
      </trkpt>
      <trkpt lat="44.78541" lon="7.00595">
        <ele>2586</ele>
        <time>2022-01-04T13:36:02Z</time>
      </trkpt>
      <trkpt lat="44.78513" lon="7.00598">
        <ele>2573</ele>
        <time>2022-01-04T13:36:09Z</time>
      </trkpt>
      <trkpt lat="44.78539" lon="7.00601">
        <ele>2573</ele>
        <time>2022-01-04T13:36:18Z</time>
      </trkpt>
      <trkpt lat="44.78542" lon="7.00603">
        <ele>2572</ele>
        <time>2022-01-04T13:37:20Z</time>
      </trkpt>
      <trkpt lat="44.78534" lon="7.00595">
        <ele>2572</ele>
        <time>2022-01-04T13:37:48Z</time>
      </trkpt>
      <trkpt lat="44.78594" lon="7.00621">
        <ele>2564</ele>
        <time>2022-01-04T13:42:30Z</time>
      </trkpt>
      <trkpt lat="44.78536" lon="7.00563">
        <ele>2561</ele>
        <time>2022-01-04T13:43:53Z</time>
      </trkpt>
      <trkpt lat="44.78546" lon="7.00576">
        <ele>2558</ele>
        <time>2022-01-04T13:43:56Z</time>
      </trkpt>
      <trkpt lat="44.78549" lon="7.00585">
        <ele>2556</ele>
        <time>2022-01-04T13:44:31Z</time>
      </trkpt>
      <trkpt lat="44.78542" lon="7.00606">
        <ele>2567</ele>
        <time>2022-01-04T13:44:34Z</time>
      </trkpt>
      <trkpt lat="44.78542" lon="7.006">
        <ele>2565</ele>
        <time>2022-01-04T13:44:37Z</time>
      </trkpt>
      <trkpt lat="44.7854" lon="7.006">
        <ele>2557</ele>
        <time>2022-01-04T13:46:44Z</time>
      </trkpt>
      <trkpt lat="44.78537" lon="7.006">
        <ele>2563</ele>
        <time>2022-01-04T13:46:48Z</time>
      </trkpt>
      <trkpt lat="44.78534" lon="7.00596">
        <ele>2565</ele>
        <time>2022-01-04T13:46:53Z</time>
      </trkpt>
      <trkpt lat="44.78532" lon="7.00597">
        <ele>2566</ele>
        <time>2022-01-04T13:47:03Z</time>
      </trkpt>
      <trkpt lat="44.78526" lon="7.00595">
        <ele>2569</ele>
        <time>2022-01-04T13:47:05Z</time>
      </trkpt>
      <trkpt lat="44.78517" lon="7.00594">
        <ele>2570</ele>
        <time>2022-01-04T13:47:07Z</time>
      </trkpt>
      <trkpt lat="44.78509" lon="7.00597">
        <ele>2568</ele>
        <time>2022-01-04T13:47:09Z</time>
      </trkpt>
      <trkpt lat="44.78496" lon="7.00622">
        <ele>2565</ele>
        <time>2022-01-04T13:47:30Z</time>
      </trkpt>
      <trkpt lat="44.78437" lon="7.00686">
        <ele>2553</ele>
        <time>2022-01-04T13:47:43Z</time>
      </trkpt>
      <trkpt lat="44.78434" lon="7.00691">
        <ele>2551</ele>
        <time>2022-01-04T13:47:44Z</time>
      </trkpt>
      <trkpt lat="44.78421" lon="7.00709">
        <ele>2544</ele>
        <time>2022-01-04T13:47:47Z</time>
      </trkpt>
      <trkpt lat="44.78408" lon="7.00724">
        <ele>2541</ele>
        <time>2022-01-04T13:47:49Z</time>
      </trkpt>
      <trkpt lat="44.78379" lon="7.0074">
        <ele>2540</ele>
        <time>2022-01-04T13:47:54Z</time>
      </trkpt>
      <trkpt lat="44.78325" lon="7.00813">
        <ele>2531</ele>
        <time>2022-01-04T13:48:07Z</time>
      </trkpt>
      <trkpt lat="44.78319" lon="7.00825">
        <ele>2532</ele>
        <time>2022-01-04T13:48:09Z</time>
      </trkpt>
      <trkpt lat="44.78316" lon="7.00828">
        <ele>2532</ele>
        <time>2022-01-04T13:48:10Z</time>
      </trkpt>
      <trkpt lat="44.78314" lon="7.00828">
        <ele>2532</ele>
        <time>2022-01-04T13:48:12Z</time>
      </trkpt>
      <trkpt lat="44.78313" lon="7.00825">
        <ele>2532</ele>
        <time>2022-01-04T13:48:13Z</time>
      </trkpt>
      <trkpt lat="44.7831" lon="7.00827">
        <ele>2531</ele>
        <time>2022-01-04T13:48:14Z</time>
      </trkpt>
      <trkpt lat="44.78307" lon="7.00831">
        <ele>2529</ele>
        <time>2022-01-04T13:48:15Z</time>
      </trkpt>
      <trkpt lat="44.78294" lon="7.00876">
        <ele>2522</ele>
        <time>2022-01-04T13:48:20Z</time>
      </trkpt>
      <trkpt lat="44.78289" lon="7.00882">
        <ele>2520</ele>
        <time>2022-01-04T13:48:21Z</time>
      </trkpt>
      <trkpt lat="44.78283" lon="7.00881">
        <ele>2519</ele>
        <time>2022-01-04T13:48:22Z</time>
      </trkpt>
      <trkpt lat="44.78279" lon="7.00874">
        <ele>2517</ele>
        <time>2022-01-04T13:48:23Z</time>
      </trkpt>
      <trkpt lat="44.78277" lon="7.00858">
        <ele>2515</ele>
        <time>2022-01-04T13:48:25Z</time>
      </trkpt>
      <trkpt lat="44.78278" lon="7.00849">
        <ele>2514</ele>
        <time>2022-01-04T13:48:26Z</time>
      </trkpt>
      <trkpt lat="44.78275" lon="7.00841">
        <ele>2512</ele>
        <time>2022-01-04T13:48:27Z</time>
      </trkpt>
      <trkpt lat="44.7827" lon="7.00835">
        <ele>2510</ele>
        <time>2022-01-04T13:48:28Z</time>
      </trkpt>
      <trkpt lat="44.78262" lon="7.00832">
        <ele>2508</ele>
        <time>2022-01-04T13:48:29Z</time>
      </trkpt>
      <trkpt lat="44.78254" lon="7.00832">
        <ele>2506</ele>
        <time>2022-01-04T13:48:30Z</time>
      </trkpt>
      <trkpt lat="44.78245" lon="7.00834">
        <ele>2503</ele>
        <time>2022-01-04T13:48:31Z</time>
      </trkpt>
      <trkpt lat="44.78231" lon="7.00843">
        <ele>2500</ele>
        <time>2022-01-04T13:48:33Z</time>
      </trkpt>
      <trkpt lat="44.78226" lon="7.00849">
        <ele>2499</ele>
        <time>2022-01-04T13:48:34Z</time>
      </trkpt>
      <trkpt lat="44.78215" lon="7.00866">
        <ele>2496</ele>
        <time>2022-01-04T13:48:37Z</time>
      </trkpt>
      <trkpt lat="44.78211" lon="7.00868">
        <ele>2495</ele>
        <time>2022-01-04T13:48:38Z</time>
      </trkpt>
      <trkpt lat="44.78207" lon="7.00869">
        <ele>2493</ele>
        <time>2022-01-04T13:48:39Z</time>
      </trkpt>
      <trkpt lat="44.78196" lon="7.00865">
        <ele>2490</ele>
        <time>2022-01-04T13:48:41Z</time>
      </trkpt>
      <trkpt lat="44.78192" lon="7.00859">
        <ele>2488</ele>
        <time>2022-01-04T13:48:42Z</time>
      </trkpt>
      <trkpt lat="44.7819" lon="7.00851">
        <ele>2485</ele>
        <time>2022-01-04T13:48:43Z</time>
      </trkpt>
      <trkpt lat="44.78198" lon="7.00829">
        <ele>2483</ele>
        <time>2022-01-04T13:48:45Z</time>
      </trkpt>
      <trkpt lat="44.78198" lon="7.00819">
        <ele>2481</ele>
        <time>2022-01-04T13:48:46Z</time>
      </trkpt>
      <trkpt lat="44.7819" lon="7.00818">
        <ele>2480</ele>
        <time>2022-01-04T13:48:47Z</time>
      </trkpt>
      <trkpt lat="44.78179" lon="7.00812">
        <ele>2477</ele>
        <time>2022-01-04T13:48:49Z</time>
      </trkpt>
      <trkpt lat="44.78176" lon="7.00807">
        <ele>2475</ele>
        <time>2022-01-04T13:48:50Z</time>
      </trkpt>
      <trkpt lat="44.78178" lon="7.00788">
        <ele>2472</ele>
        <time>2022-01-04T13:48:52Z</time>
      </trkpt>
      <trkpt lat="44.78176" lon="7.0078">
        <ele>2470</ele>
        <time>2022-01-04T13:48:53Z</time>
      </trkpt>
      <trkpt lat="44.7817" lon="7.00779">
        <ele>2467</ele>
        <time>2022-01-04T13:48:54Z</time>
      </trkpt>
      <trkpt lat="44.78152" lon="7.00779">
        <ele>2461</ele>
        <time>2022-01-04T13:48:57Z</time>
      </trkpt>
      <trkpt lat="44.78146" lon="7.00781">
        <ele>2459</ele>
        <time>2022-01-04T13:48:59Z</time>
      </trkpt>
      <trkpt lat="44.78142" lon="7.00783">
        <ele>2458</ele>
        <time>2022-01-04T13:49:00Z</time>
      </trkpt>
      <trkpt lat="44.78139" lon="7.00787">
        <ele>2457</ele>
        <time>2022-01-04T13:49:01Z</time>
      </trkpt>
      <trkpt lat="44.78134" lon="7.00801">
        <ele>2455</ele>
        <time>2022-01-04T13:49:04Z</time>
      </trkpt>
      <trkpt lat="44.78132" lon="7.00803">
        <ele>2454</ele>
        <time>2022-01-04T13:49:05Z</time>
      </trkpt>
      <trkpt lat="44.7813" lon="7.00803">
        <ele>2453</ele>
        <time>2022-01-04T13:49:06Z</time>
      </trkpt>
      <trkpt lat="44.78127" lon="7.008">
        <ele>2452</ele>
        <time>2022-01-04T13:49:07Z</time>
      </trkpt>
      <trkpt lat="44.78124" lon="7.00796">
        <ele>2451</ele>
        <time>2022-01-04T13:49:08Z</time>
      </trkpt>
      <trkpt lat="44.78124" lon="7.00789">
        <ele>2449</ele>
        <time>2022-01-04T13:49:09Z</time>
      </trkpt>
      <trkpt lat="44.78128" lon="7.00772">
        <ele>2445</ele>
        <time>2022-01-04T13:49:12Z</time>
      </trkpt>
      <trkpt lat="44.7813" lon="7.00767">
        <ele>2444</ele>
        <time>2022-01-04T13:49:13Z</time>
      </trkpt>
      <trkpt lat="44.78131" lon="7.00764">
        <ele>2443</ele>
        <time>2022-01-04T13:49:14Z</time>
      </trkpt>
      <trkpt lat="44.7813" lon="7.0076">
        <ele>2442</ele>
        <time>2022-01-04T13:49:15Z</time>
      </trkpt>
      <trkpt lat="44.78129" lon="7.00757">
        <ele>2442</ele>
        <time>2022-01-04T13:49:16Z</time>
      </trkpt>
      <trkpt lat="44.78125" lon="7.00756">
        <ele>2442</ele>
        <time>2022-01-04T13:49:17Z</time>
      </trkpt>
      <trkpt lat="44.78098" lon="7.00775">
        <ele>2438</ele>
        <time>2022-01-04T13:49:22Z</time>
      </trkpt>
      <trkpt lat="44.78092" lon="7.00753">
        <ele>2435</ele>
        <time>2022-01-04T13:49:24Z</time>
      </trkpt>
      <trkpt lat="44.78088" lon="7.00743">
        <ele>2434</ele>
        <time>2022-01-04T13:49:25Z</time>
      </trkpt>
      <trkpt lat="44.78083" lon="7.00737">
        <ele>2432</ele>
        <time>2022-01-04T13:49:26Z</time>
      </trkpt>
      <trkpt lat="44.78077" lon="7.00739">
        <ele>2431</ele>
        <time>2022-01-04T13:49:27Z</time>
      </trkpt>
      <trkpt lat="44.78071" lon="7.00744">
        <ele>2430</ele>
        <time>2022-01-04T13:49:28Z</time>
      </trkpt>
      <trkpt lat="44.78065" lon="7.00746">
        <ele>2428</ele>
        <time>2022-01-04T13:49:29Z</time>
      </trkpt>
      <trkpt lat="44.7806" lon="7.00743">
        <ele>2426</ele>
        <time>2022-01-04T13:49:30Z</time>
      </trkpt>
      <trkpt lat="44.78055" lon="7.0074">
        <ele>2424</ele>
        <time>2022-01-04T13:49:31Z</time>
      </trkpt>
      <trkpt lat="44.78049" lon="7.00744">
        <ele>2422</ele>
        <time>2022-01-04T13:49:32Z</time>
      </trkpt>
      <trkpt lat="44.78043" lon="7.00755">
        <ele>2418</ele>
        <time>2022-01-04T13:49:34Z</time>
      </trkpt>
      <trkpt lat="44.78039" lon="7.00754">
        <ele>2416</ele>
        <time>2022-01-04T13:49:35Z</time>
      </trkpt>
      <trkpt lat="44.78036" lon="7.0075">
        <ele>2414</ele>
        <time>2022-01-04T13:49:36Z</time>
      </trkpt>
      <trkpt lat="44.78033" lon="7.00744">
        <ele>2412</ele>
        <time>2022-01-04T13:49:37Z</time>
      </trkpt>
      <trkpt lat="44.78027" lon="7.00723">
        <ele>2407</ele>
        <time>2022-01-04T13:49:40Z</time>
      </trkpt>
      <trkpt lat="44.78022" lon="7.00725">
        <ele>2406</ele>
        <time>2022-01-04T13:49:41Z</time>
      </trkpt>
      <trkpt lat="44.78017" lon="7.00741">
        <ele>2403</ele>
        <time>2022-01-04T13:49:43Z</time>
      </trkpt>
      <trkpt lat="44.78017" lon="7.00753">
        <ele>2401</ele>
        <time>2022-01-04T13:49:45Z</time>
      </trkpt>
      <trkpt lat="44.78016" lon="7.00757">
        <ele>2400</ele>
        <time>2022-01-04T13:49:46Z</time>
      </trkpt>
      <trkpt lat="44.7801" lon="7.00763">
        <ele>2399</ele>
        <time>2022-01-04T13:49:48Z</time>
      </trkpt>
      <trkpt lat="44.78003" lon="7.00769">
        <ele>2399</ele>
        <time>2022-01-04T13:49:50Z</time>
      </trkpt>
      <trkpt lat="44.78" lon="7.00773">
        <ele>2398</ele>
        <time>2022-01-04T13:49:51Z</time>
      </trkpt>
      <trkpt lat="44.78" lon="7.00776">
        <ele>2398</ele>
        <time>2022-01-04T13:49:52Z</time>
      </trkpt>
      <trkpt lat="44.77999" lon="7.00774">
        <ele>2397</ele>
        <time>2022-01-04T13:50:01Z</time>
      </trkpt>
      <trkpt lat="44.77996" lon="7.00771">
        <ele>2396</ele>
        <time>2022-01-04T13:50:02Z</time>
      </trkpt>
      <trkpt lat="44.77993" lon="7.00767">
        <ele>2396</ele>
        <time>2022-01-04T13:50:03Z</time>
      </trkpt>
      <trkpt lat="44.77992" lon="7.00761">
        <ele>2395</ele>
        <time>2022-01-04T13:50:04Z</time>
      </trkpt>
      <trkpt lat="44.77993" lon="7.00741">
        <ele>2394</ele>
        <time>2022-01-04T13:50:07Z</time>
      </trkpt>
      <trkpt lat="44.77994" lon="7.00734">
        <ele>2394</ele>
        <time>2022-01-04T13:50:08Z</time>
      </trkpt>
      <trkpt lat="44.77991" lon="7.00732">
        <ele>2393</ele>
        <time>2022-01-04T13:50:09Z</time>
      </trkpt>
      <trkpt lat="44.77984" lon="7.00738">
        <ele>2391</ele>
        <time>2022-01-04T13:50:11Z</time>
      </trkpt>
      <trkpt lat="44.77977" lon="7.00738">
        <ele>2390</ele>
        <time>2022-01-04T13:50:12Z</time>
      </trkpt>
      <trkpt lat="44.77966" lon="7.00733">
        <ele>2387</ele>
        <time>2022-01-04T13:50:14Z</time>
      </trkpt>
      <trkpt lat="44.77959" lon="7.00729">
        <ele>2385</ele>
        <time>2022-01-04T13:50:15Z</time>
      </trkpt>
      <trkpt lat="44.77951" lon="7.00725">
        <ele>2383</ele>
        <time>2022-01-04T13:50:16Z</time>
      </trkpt>
      <trkpt lat="44.77943" lon="7.00718">
        <ele>2380</ele>
        <time>2022-01-04T13:50:17Z</time>
      </trkpt>
      <trkpt lat="44.77935" lon="7.00708">
        <ele>2377</ele>
        <time>2022-01-04T13:50:18Z</time>
      </trkpt>
      <trkpt lat="44.77928" lon="7.00697">
        <ele>2374</ele>
        <time>2022-01-04T13:50:19Z</time>
      </trkpt>
      <trkpt lat="44.77921" lon="7.00686">
        <ele>2371</ele>
        <time>2022-01-04T13:50:20Z</time>
      </trkpt>
      <trkpt lat="44.77914" lon="7.00677">
        <ele>2369</ele>
        <time>2022-01-04T13:50:21Z</time>
      </trkpt>
      <trkpt lat="44.77877" lon="7.00631">
        <ele>2353</ele>
        <time>2022-01-04T13:50:30Z</time>
      </trkpt>
      <trkpt lat="44.77885" lon="7.00617">
        <ele>2356</ele>
        <time>2022-01-04T13:51:00Z</time>
      </trkpt>
      <trkpt lat="44.77888" lon="7.0061">
        <ele>2356</ele>
        <time>2022-01-04T13:51:01Z</time>
      </trkpt>
      <trkpt lat="44.77874" lon="7.00591">
        <ele>2354</ele>
        <time>2022-01-04T13:51:05Z</time>
      </trkpt>
      <trkpt lat="44.77873" lon="7.00588">
        <ele>2354</ele>
        <time>2022-01-04T13:51:06Z</time>
      </trkpt>
      <trkpt lat="44.77874" lon="7.00583">
        <ele>2353</ele>
        <time>2022-01-04T13:51:07Z</time>
      </trkpt>
      <trkpt lat="44.77873" lon="7.00578">
        <ele>2352</ele>
        <time>2022-01-04T13:51:08Z</time>
      </trkpt>
      <trkpt lat="44.7787" lon="7.00575">
        <ele>2350</ele>
        <time>2022-01-04T13:51:09Z</time>
      </trkpt>
      <trkpt lat="44.77868" lon="7.0057">
        <ele>2349</ele>
        <time>2022-01-04T13:51:10Z</time>
      </trkpt>
      <trkpt lat="44.77864" lon="7.00567">
        <ele>2347</ele>
        <time>2022-01-04T13:51:11Z</time>
      </trkpt>
      <trkpt lat="44.77861" lon="7.00565">
        <ele>2345</ele>
        <time>2022-01-04T13:51:12Z</time>
      </trkpt>
      <trkpt lat="44.77857" lon="7.00564">
        <ele>2343</ele>
        <time>2022-01-04T13:51:13Z</time>
      </trkpt>
      <trkpt lat="44.77849" lon="7.00569">
        <ele>2339</ele>
        <time>2022-01-04T13:51:15Z</time>
      </trkpt>
      <trkpt lat="44.77844" lon="7.00568">
        <ele>2336</ele>
        <time>2022-01-04T13:51:16Z</time>
      </trkpt>
      <trkpt lat="44.77838" lon="7.00569">
        <ele>2334</ele>
        <time>2022-01-04T13:51:17Z</time>
      </trkpt>
      <trkpt lat="44.77828" lon="7.00574">
        <ele>2331</ele>
        <time>2022-01-04T13:51:19Z</time>
      </trkpt>
      <trkpt lat="44.77822" lon="7.00574">
        <ele>2330</ele>
        <time>2022-01-04T13:51:20Z</time>
      </trkpt>
      <trkpt lat="44.77817" lon="7.00572">
        <ele>2328</ele>
        <time>2022-01-04T13:51:21Z</time>
      </trkpt>
      <trkpt lat="44.77812" lon="7.00567">
        <ele>2326</ele>
        <time>2022-01-04T13:51:22Z</time>
      </trkpt>
      <trkpt lat="44.77806" lon="7.00562">
        <ele>2323</ele>
        <time>2022-01-04T13:51:23Z</time>
      </trkpt>
      <trkpt lat="44.77793" lon="7.00555">
        <ele>2319</ele>
        <time>2022-01-04T13:51:25Z</time>
      </trkpt>
      <trkpt lat="44.77801" lon="7.00522">
        <ele>2306</ele>
        <time>2022-01-04T13:51:29Z</time>
      </trkpt>
      <trkpt lat="44.77801" lon="7.00517">
        <ele>2305</ele>
        <time>2022-01-04T13:51:30Z</time>
      </trkpt>
      <trkpt lat="44.778" lon="7.00512">
        <ele>2303</ele>
        <time>2022-01-04T13:51:31Z</time>
      </trkpt>
      <trkpt lat="44.77797" lon="7.00509">
        <ele>2302</ele>
        <time>2022-01-04T13:51:32Z</time>
      </trkpt>
      <trkpt lat="44.77793" lon="7.00509">
        <ele>2301</ele>
        <time>2022-01-04T13:51:33Z</time>
      </trkpt>
      <trkpt lat="44.7778" lon="7.00519">
        <ele>2297</ele>
        <time>2022-01-04T13:51:36Z</time>
      </trkpt>
      <trkpt lat="44.77776" lon="7.00521">
        <ele>2296</ele>
        <time>2022-01-04T13:51:37Z</time>
      </trkpt>
      <trkpt lat="44.77772" lon="7.0052">
        <ele>2295</ele>
        <time>2022-01-04T13:51:38Z</time>
      </trkpt>
      <trkpt lat="44.77755" lon="7.00495">
        <ele>2291</ele>
        <time>2022-01-04T13:51:44Z</time>
      </trkpt>
      <trkpt lat="44.77747" lon="7.00491">
        <ele>2290</ele>
        <time>2022-01-04T13:51:47Z</time>
      </trkpt>
      <trkpt lat="44.77745" lon="7.00489">
        <ele>2290</ele>
        <time>2022-01-04T13:51:48Z</time>
      </trkpt>
      <trkpt lat="44.77744" lon="7.00486">
        <ele>2289</ele>
        <time>2022-01-04T13:51:49Z</time>
      </trkpt>
      <trkpt lat="44.77741" lon="7.00482">
        <ele>2288</ele>
        <time>2022-01-04T13:51:50Z</time>
      </trkpt>
      <trkpt lat="44.7774" lon="7.00478">
        <ele>2288</ele>
        <time>2022-01-04T13:51:51Z</time>
      </trkpt>
      <trkpt lat="44.77741" lon="7.00476">
        <ele>2287</ele>
        <time>2022-01-04T13:51:52Z</time>
      </trkpt>
      <trkpt lat="44.77757" lon="7.0047">
        <ele>2283</ele>
        <time>2022-01-04T13:51:56Z</time>
      </trkpt>
      <trkpt lat="44.77759" lon="7.00468">
        <ele>2283</ele>
        <time>2022-01-04T13:51:57Z</time>
      </trkpt>
      <trkpt lat="44.77761" lon="7.00465">
        <ele>2282</ele>
        <time>2022-01-04T13:51:58Z</time>
      </trkpt>
      <trkpt lat="44.7776" lon="7.00463">
        <ele>2282</ele>
        <time>2022-01-04T13:51:59Z</time>
      </trkpt>
      <trkpt lat="44.77755" lon="7.00452">
        <ele>2280</ele>
        <time>2022-01-04T13:52:02Z</time>
      </trkpt>
      <trkpt lat="44.77752" lon="7.00447">
        <ele>2279</ele>
        <time>2022-01-04T13:52:03Z</time>
      </trkpt>
      <trkpt lat="44.77749" lon="7.0043">
        <ele>2277</ele>
        <time>2022-01-04T13:52:06Z</time>
      </trkpt>
      <trkpt lat="44.77749" lon="7.00391">
        <ele>2272</ele>
        <time>2022-01-04T13:52:12Z</time>
      </trkpt>
      <trkpt lat="44.77746" lon="7.00384">
        <ele>2270</ele>
        <time>2022-01-04T13:52:13Z</time>
      </trkpt>
      <trkpt lat="44.77739" lon="7.00358">
        <ele>2265</ele>
        <time>2022-01-04T13:52:16Z</time>
      </trkpt>
      <trkpt lat="44.77731" lon="7.00341">
        <ele>2262</ele>
        <time>2022-01-04T13:52:18Z</time>
      </trkpt>
      <trkpt lat="44.7773" lon="7.00332">
        <ele>2259</ele>
        <time>2022-01-04T13:52:19Z</time>
      </trkpt>
      <trkpt lat="44.77727" lon="7.00322">
        <ele>2257</ele>
        <time>2022-01-04T13:52:20Z</time>
      </trkpt>
      <trkpt lat="44.77723" lon="7.00312">
        <ele>2254</ele>
        <time>2022-01-04T13:52:21Z</time>
      </trkpt>
      <trkpt lat="44.77718" lon="7.00303">
        <ele>2252</ele>
        <time>2022-01-04T13:52:22Z</time>
      </trkpt>
      <trkpt lat="44.77713" lon="7.00295">
        <ele>2249</ele>
        <time>2022-01-04T13:52:23Z</time>
      </trkpt>
      <trkpt lat="44.77705" lon="7.00278">
        <ele>2246</ele>
        <time>2022-01-04T13:52:25Z</time>
      </trkpt>
      <trkpt lat="44.77699" lon="7.00277">
        <ele>2245</ele>
        <time>2022-01-04T13:52:26Z</time>
      </trkpt>
      <trkpt lat="44.77694" lon="7.00276">
        <ele>2243</ele>
        <time>2022-01-04T13:52:27Z</time>
      </trkpt>
      <trkpt lat="44.77688" lon="7.00276">
        <ele>2241</ele>
        <time>2022-01-04T13:52:28Z</time>
      </trkpt>
      <trkpt lat="44.77683" lon="7.00281">
        <ele>2238</ele>
        <time>2022-01-04T13:52:30Z</time>
      </trkpt>
      <trkpt lat="44.77681" lon="7.00251">
        <ele>2230</ele>
        <time>2022-01-04T13:52:49Z</time>
      </trkpt>
      <trkpt lat="44.77678" lon="7.00245">
        <ele>2230</ele>
        <time>2022-01-04T13:52:50Z</time>
      </trkpt>
      <trkpt lat="44.77665" lon="7.00227">
        <ele>2226</ele>
        <time>2022-01-04T13:52:53Z</time>
      </trkpt>
      <trkpt lat="44.77652" lon="7.0023">
        <ele>2224</ele>
        <time>2022-01-04T13:52:55Z</time>
      </trkpt>
      <trkpt lat="44.77645" lon="7.0023">
        <ele>2222</ele>
        <time>2022-01-04T13:52:56Z</time>
      </trkpt>
      <trkpt lat="44.7764" lon="7.00226">
        <ele>2219</ele>
        <time>2022-01-04T13:52:57Z</time>
      </trkpt>
      <trkpt lat="44.77635" lon="7.00224">
        <ele>2217</ele>
        <time>2022-01-04T13:52:58Z</time>
      </trkpt>
      <trkpt lat="44.77628" lon="7.00224">
        <ele>2214</ele>
        <time>2022-01-04T13:52:59Z</time>
      </trkpt>
      <trkpt lat="44.77622" lon="7.00221">
        <ele>2211</ele>
        <time>2022-01-04T13:53:00Z</time>
      </trkpt>
      <trkpt lat="44.77616" lon="7.00219">
        <ele>2208</ele>
        <time>2022-01-04T13:53:01Z</time>
      </trkpt>
      <trkpt lat="44.77603" lon="7.00219">
        <ele>2204</ele>
        <time>2022-01-04T13:53:03Z</time>
      </trkpt>
      <trkpt lat="44.77597" lon="7.00216">
        <ele>2202</ele>
        <time>2022-01-04T13:53:04Z</time>
      </trkpt>
      <trkpt lat="44.77591" lon="7.00213">
        <ele>2199</ele>
        <time>2022-01-04T13:53:05Z</time>
      </trkpt>
      <trkpt lat="44.77584" lon="7.0021">
        <ele>2197</ele>
        <time>2022-01-04T13:53:06Z</time>
      </trkpt>
      <trkpt lat="44.77579" lon="7.00205">
        <ele>2194</ele>
        <time>2022-01-04T13:53:07Z</time>
      </trkpt>
      <trkpt lat="44.77572" lon="7.00201">
        <ele>2191</ele>
        <time>2022-01-04T13:53:08Z</time>
      </trkpt>
      <trkpt lat="44.77567" lon="7.00197">
        <ele>2188</ele>
        <time>2022-01-04T13:53:09Z</time>
      </trkpt>
      <trkpt lat="44.77562" lon="7.0019">
        <ele>2185</ele>
        <time>2022-01-04T13:53:10Z</time>
      </trkpt>
      <trkpt lat="44.77558" lon="7.00185">
        <ele>2183</ele>
        <time>2022-01-04T13:53:11Z</time>
      </trkpt>
      <trkpt lat="44.77554" lon="7.0018">
        <ele>2181</ele>
        <time>2022-01-04T13:53:12Z</time>
      </trkpt>
      <trkpt lat="44.77553" lon="7.00175">
        <ele>2179</ele>
        <time>2022-01-04T13:53:13Z</time>
      </trkpt>
      <trkpt lat="44.77554" lon="7.00171">
        <ele>2177</ele>
        <time>2022-01-04T13:53:14Z</time>
      </trkpt>
      <trkpt lat="44.77554" lon="7.00167">
        <ele>2176</ele>
        <time>2022-01-04T13:53:15Z</time>
      </trkpt>
      <trkpt lat="44.77553" lon="7.00181">
        <ele>2177</ele>
        <time>2022-01-04T13:53:44Z</time>
      </trkpt>
      <trkpt lat="44.77553" lon="7.00186">
        <ele>2176</ele>
        <time>2022-01-04T13:53:48Z</time>
      </trkpt>
      <trkpt lat="44.77551" lon="7.00194">
        <ele>2175</ele>
        <time>2022-01-04T13:53:53Z</time>
      </trkpt>
      <trkpt lat="44.77559" lon="7.00224">
        <ele>2168</ele>
        <time>2022-01-04T13:54:07Z</time>
      </trkpt>
      <trkpt lat="44.77559" lon="7.00228">
        <ele>2167</ele>
        <time>2022-01-04T13:54:09Z</time>
      </trkpt>
      <trkpt lat="44.77559" lon="7.0023">
        <ele>2167</ele>
        <time>2022-01-04T13:54:10Z</time>
      </trkpt>
      <trkpt lat="44.77556" lon="7.00233">
        <ele>2167</ele>
        <time>2022-01-04T13:54:11Z</time>
      </trkpt>
      <trkpt lat="44.77553" lon="7.00233">
        <ele>2166</ele>
        <time>2022-01-04T13:54:12Z</time>
      </trkpt>
      <trkpt lat="44.7755" lon="7.00233">
        <ele>2166</ele>
        <time>2022-01-04T13:54:13Z</time>
      </trkpt>
      <trkpt lat="44.77542" lon="7.0023">
        <ele>2166</ele>
        <time>2022-01-04T13:54:18Z</time>
      </trkpt>
      <trkpt lat="44.77527" lon="7.00222">
        <ele>2165</ele>
        <time>2022-01-04T13:54:24Z</time>
      </trkpt>
      <trkpt lat="44.77514" lon="7.00212">
        <ele>2166</ele>
        <time>2022-01-04T13:54:29Z</time>
      </trkpt>
      <trkpt lat="44.7751" lon="7.00208">
        <ele>2167</ele>
        <time>2022-01-04T13:54:49Z</time>
      </trkpt>
      <trkpt lat="44.77508" lon="7.00208">
        <ele>2167</ele>
        <time>2022-01-04T13:54:50Z</time>
      </trkpt>
      <trkpt lat="44.77487" lon="7.00214">
        <ele>2167</ele>
        <time>2022-01-04T13:54:58Z</time>
      </trkpt>
      <trkpt lat="44.7749" lon="7.00205">
        <ele>2166</ele>
        <time>2022-01-04T13:55:03Z</time>
      </trkpt>
      <trkpt lat="44.77491" lon="7.00202">
        <ele>2166</ele>
        <time>2022-01-04T13:55:04Z</time>
      </trkpt>
      <trkpt lat="44.77493" lon="7.00199">
        <ele>2165</ele>
        <time>2022-01-04T13:55:05Z</time>
      </trkpt>
      <trkpt lat="44.77493" lon="7.00196">
        <ele>2164</ele>
        <time>2022-01-04T13:55:07Z</time>
      </trkpt>
      <trkpt lat="44.77486" lon="7.00201">
        <ele>2162</ele>
        <time>2022-01-04T13:55:39Z</time>
      </trkpt>
      <trkpt lat="44.77468" lon="7.00209">
        <ele>2162</ele>
        <time>2022-01-04T13:55:45Z</time>
      </trkpt>
      <trkpt lat="44.77457" lon="7.0021">
        <ele>2160</ele>
        <time>2022-01-04T13:55:54Z</time>
      </trkpt>
      <trkpt lat="44.77453" lon="7.0021">
        <ele>2160</ele>
        <time>2022-01-04T13:55:56Z</time>
      </trkpt>
      <trkpt lat="44.77441" lon="7.00211">
        <ele>2159</ele>
        <time>2022-01-04T13:56:02Z</time>
      </trkpt>
      <trkpt lat="44.77439" lon="7.00212">
        <ele>2159</ele>
        <time>2022-01-04T13:56:03Z</time>
      </trkpt>
      <trkpt lat="44.77438" lon="7.00213">
        <ele>2159</ele>
        <time>2022-01-04T13:56:04Z</time>
      </trkpt>
      <trkpt lat="44.77425" lon="7.0022">
        <ele>2157</ele>
        <time>2022-01-04T13:56:10Z</time>
      </trkpt>
      <trkpt lat="44.7741" lon="7.00221">
        <ele>2155</ele>
        <time>2022-01-04T13:56:14Z</time>
      </trkpt>
      <trkpt lat="44.77403" lon="7.00229">
        <ele>2153</ele>
        <time>2022-01-04T13:57:19Z</time>
      </trkpt>
      <trkpt lat="44.77389" lon="7.00236">
        <ele>2152</ele>
        <time>2022-01-04T13:57:22Z</time>
      </trkpt>
      <trkpt lat="44.77383" lon="7.00236">
        <ele>2151</ele>
        <time>2022-01-04T13:57:24Z</time>
      </trkpt>
      <trkpt lat="44.7737" lon="7.00233">
        <ele>2149</ele>
        <time>2022-01-04T13:57:30Z</time>
      </trkpt>
      <trkpt lat="44.77361" lon="7.00235">
        <ele>2147</ele>
        <time>2022-01-04T13:57:33Z</time>
      </trkpt>
      <trkpt lat="44.77358" lon="7.00234">
        <ele>2146</ele>
        <time>2022-01-04T13:57:34Z</time>
      </trkpt>
      <trkpt lat="44.77354" lon="7.0023">
        <ele>2146</ele>
        <time>2022-01-04T13:57:35Z</time>
      </trkpt>
      <trkpt lat="44.77351" lon="7.00219">
        <ele>2144</ele>
        <time>2022-01-04T13:57:37Z</time>
      </trkpt>
      <trkpt lat="44.7735" lon="7.00216">
        <ele>2143</ele>
        <time>2022-01-04T13:57:38Z</time>
      </trkpt>
      <trkpt lat="44.77348" lon="7.00218">
        <ele>2141</ele>
        <time>2022-01-04T13:57:40Z</time>
      </trkpt>
      <trkpt lat="44.77347" lon="7.00222">
        <ele>2140</ele>
        <time>2022-01-04T13:57:41Z</time>
      </trkpt>
      <trkpt lat="44.77345" lon="7.00225">
        <ele>2139</ele>
        <time>2022-01-04T13:57:42Z</time>
      </trkpt>
      <trkpt lat="44.77342" lon="7.00226">
        <ele>2138</ele>
        <time>2022-01-04T13:57:43Z</time>
      </trkpt>
      <trkpt lat="44.7734" lon="7.00223">
        <ele>2136</ele>
        <time>2022-01-04T13:57:44Z</time>
      </trkpt>
      <trkpt lat="44.77323" lon="7.00177">
        <ele>2129</ele>
        <time>2022-01-04T13:57:54Z</time>
      </trkpt>
      <trkpt lat="44.77315" lon="7.00165">
        <ele>2128</ele>
        <time>2022-01-04T13:57:58Z</time>
      </trkpt>
      <trkpt lat="44.7731" lon="7.00161">
        <ele>2128</ele>
        <time>2022-01-04T13:58:02Z</time>
      </trkpt>
      <trkpt lat="44.77308" lon="7.00161">
        <ele>2128</ele>
        <time>2022-01-04T13:58:37Z</time>
      </trkpt>
      <trkpt lat="44.77302" lon="7.00156">
        <ele>2128</ele>
        <time>2022-01-04T13:58:40Z</time>
      </trkpt>
      <trkpt lat="44.77288" lon="7.00152">
        <ele>2126</ele>
        <time>2022-01-04T13:58:44Z</time>
      </trkpt>
      <trkpt lat="44.77279" lon="7.00147">
        <ele>2124</ele>
        <time>2022-01-04T13:58:47Z</time>
      </trkpt>
      <trkpt lat="44.77264" lon="7.00147">
        <ele>2122</ele>
        <time>2022-01-04T13:59:17Z</time>
      </trkpt>
      <trkpt lat="44.77227" lon="7.00147">
        <ele>2118</ele>
        <time>2022-01-04T13:59:25Z</time>
      </trkpt>
      <trkpt lat="44.7719" lon="7.00175">
        <ele>2110</ele>
        <time>2022-01-04T13:59:34Z</time>
      </trkpt>
      <trkpt lat="44.77188" lon="7.00167">
        <ele>2110</ele>
        <time>2022-01-04T13:59:40Z</time>
      </trkpt>
      <trkpt lat="44.77186" lon="7.00164">
        <ele>2109</ele>
        <time>2022-01-04T13:59:41Z</time>
      </trkpt>
      <trkpt lat="44.77182" lon="7.00161">
        <ele>2109</ele>
        <time>2022-01-04T13:59:42Z</time>
      </trkpt>
      <trkpt lat="44.77171" lon="7.00161">
        <ele>2108</ele>
        <time>2022-01-04T13:59:44Z</time>
      </trkpt>
      <trkpt lat="44.77165" lon="7.00157">
        <ele>2107</ele>
        <time>2022-01-04T13:59:45Z</time>
      </trkpt>
      <trkpt lat="44.77161" lon="7.0015">
        <ele>2106</ele>
        <time>2022-01-04T13:59:46Z</time>
      </trkpt>
      <trkpt lat="44.77159" lon="7.00142">
        <ele>2105</ele>
        <time>2022-01-04T13:59:47Z</time>
      </trkpt>
      <trkpt lat="44.77161" lon="7.00133">
        <ele>2103</ele>
        <time>2022-01-04T13:59:48Z</time>
      </trkpt>
      <trkpt lat="44.7716" lon="7.00124">
        <ele>2101</ele>
        <time>2022-01-04T13:59:49Z</time>
      </trkpt>
      <trkpt lat="44.77158" lon="7.00117">
        <ele>2099</ele>
        <time>2022-01-04T13:59:50Z</time>
      </trkpt>
      <trkpt lat="44.77153" lon="7.0011">
        <ele>2097</ele>
        <time>2022-01-04T13:59:51Z</time>
      </trkpt>
      <trkpt lat="44.77145" lon="7.00104">
        <ele>2095</ele>
        <time>2022-01-04T13:59:52Z</time>
      </trkpt>
      <trkpt lat="44.77137" lon="7.001">
        <ele>2093</ele>
        <time>2022-01-04T13:59:53Z</time>
      </trkpt>
      <trkpt lat="44.77129" lon="7.00094">
        <ele>2090</ele>
        <time>2022-01-04T13:59:54Z</time>
      </trkpt>
      <trkpt lat="44.77122" lon="7.00087">
        <ele>2088</ele>
        <time>2022-01-04T13:59:55Z</time>
      </trkpt>
      <trkpt lat="44.77116" lon="7.00078">
        <ele>2086</ele>
        <time>2022-01-04T13:59:56Z</time>
      </trkpt>
      <trkpt lat="44.77107" lon="7.00048">
        <ele>2081</ele>
        <time>2022-01-04T13:59:59Z</time>
      </trkpt>
      <trkpt lat="44.77102" lon="7.00042">
        <ele>2079</ele>
        <time>2022-01-04T14:00:00Z</time>
      </trkpt>
      <trkpt lat="44.77098" lon="7.00041">
        <ele>2078</ele>
        <time>2022-01-04T14:00:01Z</time>
      </trkpt>
      <trkpt lat="44.77089" lon="7.00043">
        <ele>2075</ele>
        <time>2022-01-04T14:00:03Z</time>
      </trkpt>
      <trkpt lat="44.77076" lon="7.00052">
        <ele>2072</ele>
        <time>2022-01-04T14:00:07Z</time>
      </trkpt>
      <trkpt lat="44.77074" lon="7.0005">
        <ele>2072</ele>
        <time>2022-01-04T14:00:37Z</time>
      </trkpt>
      <trkpt lat="44.77072" lon="7.00048">
        <ele>2072</ele>
        <time>2022-01-04T14:00:38Z</time>
      </trkpt>
      <trkpt lat="44.77069" lon="7.00042">
        <ele>2072</ele>
        <time>2022-01-04T14:00:39Z</time>
      </trkpt>
      <trkpt lat="44.77066" lon="7.00023">
        <ele>2070</ele>
        <time>2022-01-04T14:00:41Z</time>
      </trkpt>
      <trkpt lat="44.77062" lon="7.00014">
        <ele>2068</ele>
        <time>2022-01-04T14:00:42Z</time>
      </trkpt>
      <trkpt lat="44.77042" lon="7.00006">
        <ele>2065</ele>
        <time>2022-01-04T14:00:45Z</time>
      </trkpt>
      <trkpt lat="44.7701" lon="6.9999">
        <ele>2061</ele>
        <time>2022-01-04T14:00:50Z</time>
      </trkpt>
      <trkpt lat="44.77008" lon="6.99992">
        <ele>2059</ele>
        <time>2022-01-04T14:00:52Z</time>
      </trkpt>
      <trkpt lat="44.77007" lon="6.99994">
        <ele>2057</ele>
        <time>2022-01-04T14:00:53Z</time>
      </trkpt>
      <trkpt lat="44.77006" lon="6.99999">
        <ele>2055</ele>
        <time>2022-01-04T14:00:54Z</time>
      </trkpt>
      <trkpt lat="44.77006" lon="7.00016">
        <ele>2050</ele>
        <time>2022-01-04T14:01:00Z</time>
      </trkpt>
      <trkpt lat="44.77004" lon="7.00018">
        <ele>2049</ele>
        <time>2022-01-04T14:01:01Z</time>
      </trkpt>
      <trkpt lat="44.76997" lon="7.00016">
        <ele>2048</ele>
        <time>2022-01-04T14:01:03Z</time>
      </trkpt>
      <trkpt lat="44.76982" lon="7.00006">
        <ele>2048</ele>
        <time>2022-01-04T14:01:07Z</time>
      </trkpt>
      <trkpt lat="44.76938" lon="6.99995">
        <ele>2041</ele>
        <time>2022-01-04T14:01:15Z</time>
      </trkpt>
      <trkpt lat="44.76923" lon="6.99982">
        <ele>2037</ele>
        <time>2022-01-04T14:01:17Z</time>
      </trkpt>
      <trkpt lat="44.76907" lon="6.99971">
        <ele>2033</ele>
        <time>2022-01-04T14:01:19Z</time>
      </trkpt>
      <trkpt lat="44.76859" lon="6.9997">
        <ele>2028</ele>
        <time>2022-01-04T14:01:26Z</time>
      </trkpt>
      <trkpt lat="44.7684" lon="6.99961">
        <ele>2026</ele>
        <time>2022-01-04T14:01:29Z</time>
      </trkpt>
      <trkpt lat="44.76821" lon="6.99961">
        <ele>2021</ele>
        <time>2022-01-04T14:01:32Z</time>
      </trkpt>
      <trkpt lat="44.76811" lon="6.99963">
        <ele>2019</ele>
        <time>2022-01-04T14:01:34Z</time>
      </trkpt>
      <trkpt lat="44.76805" lon="6.99962">
        <ele>2017</ele>
        <time>2022-01-04T14:01:36Z</time>
      </trkpt>
      <trkpt lat="44.76807" lon="6.99953">
        <ele>2016</ele>
        <time>2022-01-04T14:01:41Z</time>
      </trkpt>
      <trkpt lat="44.76812" lon="6.99939">
        <ele>2015</ele>
        <time>2022-01-04T14:01:46Z</time>
      </trkpt>
      <trkpt lat="44.76814" lon="6.99933">
        <ele>2014</ele>
        <time>2022-01-04T14:01:49Z</time>
      </trkpt>
      <trkpt lat="44.76815" lon="6.9993">
        <ele>2013</ele>
        <time>2022-01-04T14:01:50Z</time>
      </trkpt>
      <trkpt lat="44.7682" lon="6.99923">
        <ele>2012</ele>
        <time>2022-01-04T14:01:52Z</time>
      </trkpt>
      <trkpt lat="44.76829" lon="6.99918">
        <ele>2011</ele>
        <time>2022-01-04T14:01:54Z</time>
      </trkpt>
      <trkpt lat="44.76837" lon="6.99913">
        <ele>2009</ele>
        <time>2022-01-04T14:01:56Z</time>
      </trkpt>
      <trkpt lat="44.76833" lon="6.99903">
        <ele>2007</ele>
        <time>2022-01-04T14:01:58Z</time>
      </trkpt>
      <trkpt lat="44.76835" lon="6.99893">
        <ele>2005</ele>
        <time>2022-01-04T14:02:00Z</time>
      </trkpt>
      <trkpt lat="44.76835" lon="6.99885">
        <ele>2003</ele>
        <time>2022-01-04T14:02:01Z</time>
      </trkpt>
      <trkpt lat="44.76833" lon="6.99856">
        <ele>1995</ele>
        <time>2022-01-04T14:02:05Z</time>
      </trkpt>
      <trkpt lat="44.76841" lon="6.99816">
        <ele>1985</ele>
        <time>2022-01-04T14:02:10Z</time>
      </trkpt>
      <trkpt lat="44.76844" lon="6.99808">
        <ele>1983</ele>
        <time>2022-01-04T14:02:11Z</time>
      </trkpt>
      <trkpt lat="44.76851" lon="6.99803">
        <ele>1979</ele>
        <time>2022-01-04T14:02:13Z</time>
      </trkpt>
      <trkpt lat="44.76851" lon="6.99801">
        <ele>1977</ele>
        <time>2022-01-04T14:02:16Z</time>
      </trkpt>
      <trkpt lat="44.76852" lon="6.99794">
        <ele>1975</ele>
        <time>2022-01-04T14:02:18Z</time>
      </trkpt>
      <trkpt lat="44.76856" lon="6.99777">
        <ele>1971</ele>
        <time>2022-01-04T14:02:21Z</time>
      </trkpt>
      <trkpt lat="44.7686" lon="6.99767">
        <ele>1970</ele>
        <time>2022-01-04T14:02:23Z</time>
      </trkpt>
      <trkpt lat="44.76862" lon="6.99756">
        <ele>1969</ele>
        <time>2022-01-04T14:02:26Z</time>
      </trkpt>
      <trkpt lat="44.76885" lon="6.99732">
        <ele>1962</ele>
        <time>2022-01-04T14:02:39Z</time>
      </trkpt>
      <trkpt lat="44.76899" lon="6.99713">
        <ele>1960</ele>
        <time>2022-01-04T14:02:43Z</time>
      </trkpt>
      <trkpt lat="44.769" lon="6.99706">
        <ele>1959</ele>
        <time>2022-01-04T14:02:44Z</time>
      </trkpt>
      <trkpt lat="44.769" lon="6.99686">
        <ele>1954</ele>
        <time>2022-01-04T14:02:47Z</time>
      </trkpt>
      <trkpt lat="44.76899" lon="6.99685">
        <ele>1953</ele>
        <time>2022-01-04T14:02:48Z</time>
      </trkpt>
      <trkpt lat="44.76897" lon="6.99685">
        <ele>1950</ele>
        <time>2022-01-04T14:02:49Z</time>
      </trkpt>
      <trkpt lat="44.76894" lon="6.99685">
        <ele>1949</ele>
        <time>2022-01-04T14:02:50Z</time>
      </trkpt>
      <trkpt lat="44.76892" lon="6.99684">
        <ele>1947</ele>
        <time>2022-01-04T14:02:51Z</time>
      </trkpt>
      <trkpt lat="44.76891" lon="6.99676">
        <ele>1943</ele>
        <time>2022-01-04T14:02:53Z</time>
      </trkpt>
      <trkpt lat="44.76889" lon="6.99673">
        <ele>1942</ele>
        <time>2022-01-04T14:02:54Z</time>
      </trkpt>
      <trkpt lat="44.76888" lon="6.99671">
        <ele>1940</ele>
        <time>2022-01-04T14:02:55Z</time>
      </trkpt>
      <trkpt lat="44.76887" lon="6.99668">
        <ele>1938</ele>
        <time>2022-01-04T14:02:56Z</time>
      </trkpt>
      <trkpt lat="44.76887" lon="6.99664">
        <ele>1938</ele>
        <time>2022-01-04T14:02:57Z</time>
      </trkpt>
      <trkpt lat="44.76885" lon="6.99662">
        <ele>1937</ele>
        <time>2022-01-04T14:02:58Z</time>
      </trkpt>
      <trkpt lat="44.76883" lon="6.99661">
        <ele>1936</ele>
        <time>2022-01-04T14:02:59Z</time>
      </trkpt>
      <trkpt lat="44.76876" lon="6.99655">
        <ele>1934</ele>
        <time>2022-01-04T14:03:01Z</time>
      </trkpt>
      <trkpt lat="44.76874" lon="6.99652">
        <ele>1933</ele>
        <time>2022-01-04T14:03:02Z</time>
      </trkpt>
      <trkpt lat="44.76874" lon="6.99649">
        <ele>1931</ele>
        <time>2022-01-04T14:03:03Z</time>
      </trkpt>
      <trkpt lat="44.76875" lon="6.99646">
        <ele>1930</ele>
        <time>2022-01-04T14:03:04Z</time>
      </trkpt>
      <trkpt lat="44.76876" lon="6.99642">
        <ele>1929</ele>
        <time>2022-01-04T14:03:05Z</time>
      </trkpt>
      <trkpt lat="44.76875" lon="6.99638">
        <ele>1928</ele>
        <time>2022-01-04T14:03:06Z</time>
      </trkpt>
      <trkpt lat="44.76873" lon="6.99635">
        <ele>1927</ele>
        <time>2022-01-04T14:03:07Z</time>
      </trkpt>
      <trkpt lat="44.76871" lon="6.99633">
        <ele>1926</ele>
        <time>2022-01-04T14:03:08Z</time>
      </trkpt>
      <trkpt lat="44.76871" lon="6.99631">
        <ele>1923</ele>
        <time>2022-01-04T14:03:09Z</time>
      </trkpt>
      <trkpt lat="44.76873" lon="6.99624">
        <ele>1920</ele>
        <time>2022-01-04T14:03:11Z</time>
      </trkpt>
      <trkpt lat="44.76876" lon="6.99617">
        <ele>1917</ele>
        <time>2022-01-04T14:03:13Z</time>
      </trkpt>
      <trkpt lat="44.76877" lon="6.99614">
        <ele>1916</ele>
        <time>2022-01-04T14:03:14Z</time>
      </trkpt>
      <trkpt lat="44.76877" lon="6.99612">
        <ele>1913</ele>
        <time>2022-01-04T14:03:15Z</time>
      </trkpt>
      <trkpt lat="44.76875" lon="6.99611">
        <ele>1912</ele>
        <time>2022-01-04T14:03:16Z</time>
      </trkpt>
      <trkpt lat="44.76873" lon="6.9961">
        <ele>1910</ele>
        <time>2022-01-04T14:03:17Z</time>
      </trkpt>
      <trkpt lat="44.76871" lon="6.99607">
        <ele>1909</ele>
        <time>2022-01-04T14:03:18Z</time>
      </trkpt>
      <trkpt lat="44.76869" lon="6.99604">
        <ele>1907</ele>
        <time>2022-01-04T14:03:19Z</time>
      </trkpt>
      <trkpt lat="44.76867" lon="6.99602">
        <ele>1906</ele>
        <time>2022-01-04T14:03:20Z</time>
      </trkpt>
      <trkpt lat="44.76865" lon="6.99601">
        <ele>1903</ele>
        <time>2022-01-04T14:03:21Z</time>
      </trkpt>
      <trkpt lat="44.76864" lon="6.99597">
        <ele>1903</ele>
        <time>2022-01-04T14:03:22Z</time>
      </trkpt>
      <trkpt lat="44.76866" lon="6.9959">
        <ele>1900</ele>
        <time>2022-01-04T14:03:24Z</time>
      </trkpt>
      <trkpt lat="44.76864" lon="6.9959">
        <ele>1899</ele>
        <time>2022-01-04T14:03:26Z</time>
      </trkpt>
      <trkpt lat="44.76856" lon="6.9958">
        <ele>1897</ele>
        <time>2022-01-04T14:03:37Z</time>
      </trkpt>
      <trkpt lat="44.76853" lon="6.99574">
        <ele>1896</ele>
        <time>2022-01-04T14:03:38Z</time>
      </trkpt>
      <trkpt lat="44.7685" lon="6.99571">
        <ele>1896</ele>
        <time>2022-01-04T14:03:39Z</time>
      </trkpt>
      <trkpt lat="44.76846" lon="6.99566">
        <ele>1895</ele>
        <time>2022-01-04T14:03:40Z</time>
      </trkpt>
      <trkpt lat="44.76845" lon="6.9956">
        <ele>1894</ele>
        <time>2022-01-04T14:03:41Z</time>
      </trkpt>
      <trkpt lat="44.76846" lon="6.99552">
        <ele>1893</ele>
        <time>2022-01-04T14:03:42Z</time>
      </trkpt>
      <trkpt lat="44.76844" lon="6.99542">
        <ele>1890</ele>
        <time>2022-01-04T14:03:44Z</time>
      </trkpt>
      <trkpt lat="44.76844" lon="6.99536">
        <ele>1888</ele>
        <time>2022-01-04T14:03:45Z</time>
      </trkpt>
      <trkpt lat="44.76845" lon="6.99531">
        <ele>1885</ele>
        <time>2022-01-04T14:03:46Z</time>
      </trkpt>
      <trkpt lat="44.76845" lon="6.99526">
        <ele>1882</ele>
        <time>2022-01-04T14:03:47Z</time>
      </trkpt>
      <trkpt lat="44.76844" lon="6.99523">
        <ele>1881</ele>
        <time>2022-01-04T14:03:48Z</time>
      </trkpt>
      <trkpt lat="44.76842" lon="6.99518">
        <ele>1877</ele>
        <time>2022-01-04T14:03:49Z</time>
      </trkpt>
      <trkpt lat="44.76841" lon="6.99513">
        <ele>1874</ele>
        <time>2022-01-04T14:03:50Z</time>
      </trkpt>
      <trkpt lat="44.76848" lon="6.99489">
        <ele>1868</ele>
        <time>2022-01-04T14:03:53Z</time>
      </trkpt>
      <trkpt lat="44.76848" lon="6.99481">
        <ele>1865</ele>
        <time>2022-01-04T14:03:54Z</time>
      </trkpt>
      <trkpt lat="44.76845" lon="6.99475">
        <ele>1862</ele>
        <time>2022-01-04T14:03:55Z</time>
      </trkpt>
      <trkpt lat="44.76838" lon="6.99472">
        <ele>1859</ele>
        <time>2022-01-04T14:03:56Z</time>
      </trkpt>
      <trkpt lat="44.76831" lon="6.99469">
        <ele>1856</ele>
        <time>2022-01-04T14:03:57Z</time>
      </trkpt>
      <trkpt lat="44.76827" lon="6.99466">
        <ele>1853</ele>
        <time>2022-01-04T14:03:58Z</time>
      </trkpt>
      <trkpt lat="44.76824" lon="6.99459">
        <ele>1850</ele>
        <time>2022-01-04T14:03:59Z</time>
      </trkpt>
      <trkpt lat="44.7682" lon="6.99455">
        <ele>1847</ele>
        <time>2022-01-04T14:04:00Z</time>
      </trkpt>
      <trkpt lat="44.76818" lon="6.99455">
        <ele>1846</ele>
        <time>2022-01-04T14:04:01Z</time>
      </trkpt>
      <trkpt lat="44.76816" lon="6.99448">
        <ele>1843</ele>
        <time>2022-01-04T14:04:14Z</time>
      </trkpt>
      <trkpt lat="44.76824" lon="6.99425">
        <ele>1841</ele>
        <time>2022-01-04T14:04:17Z</time>
      </trkpt>
      <trkpt lat="44.76843" lon="6.99392">
        <ele>1834</ele>
        <time>2022-01-04T14:04:23Z</time>
      </trkpt>
      <trkpt lat="44.76853" lon="6.99358">
        <ele>1821</ele>
        <time>2022-01-04T14:04:29Z</time>
      </trkpt>
      <trkpt lat="44.76854" lon="6.9935">
        <ele>1819</ele>
        <time>2022-01-04T14:04:30Z</time>
      </trkpt>
      <trkpt lat="44.76847" lon="6.99335">
        <ele>1812</ele>
        <time>2022-01-04T14:04:33Z</time>
      </trkpt>
      <trkpt lat="44.76838" lon="6.99328">
        <ele>1809</ele>
        <time>2022-01-04T14:04:35Z</time>
      </trkpt>
      <trkpt lat="44.76835" lon="6.99324">
        <ele>1807</ele>
        <time>2022-01-04T14:04:36Z</time>
      </trkpt>
      <trkpt lat="44.76826" lon="6.99313">
        <ele>1803</ele>
        <time>2022-01-04T14:04:39Z</time>
      </trkpt>
      <trkpt lat="44.76825" lon="6.99308">
        <ele>1801</ele>
        <time>2022-01-04T14:04:40Z</time>
      </trkpt>
      <trkpt lat="44.76823" lon="6.99304">
        <ele>1800</ele>
        <time>2022-01-04T14:04:41Z</time>
      </trkpt>
      <trkpt lat="44.76813" lon="6.99302">
        <ele>1797</ele>
        <time>2022-01-04T14:04:43Z</time>
      </trkpt>
      <trkpt lat="44.76808" lon="6.99301">
        <ele>1795</ele>
        <time>2022-01-04T14:04:44Z</time>
      </trkpt>
      <trkpt lat="44.76807" lon="6.99297">
        <ele>1793</ele>
        <time>2022-01-04T14:04:45Z</time>
      </trkpt>
      <trkpt lat="44.76808" lon="6.99292">
        <ele>1791</ele>
        <time>2022-01-04T14:04:46Z</time>
      </trkpt>
      <trkpt lat="44.76809" lon="6.99287">
        <ele>1790</ele>
        <time>2022-01-04T14:04:47Z</time>
      </trkpt>
      <trkpt lat="44.76807" lon="6.99284">
        <ele>1788</ele>
        <time>2022-01-04T14:04:48Z</time>
      </trkpt>
      <trkpt lat="44.76805" lon="6.99282">
        <ele>1787</ele>
        <time>2022-01-04T14:04:49Z</time>
      </trkpt>
      <trkpt lat="44.76801" lon="6.99282">
        <ele>1786</ele>
        <time>2022-01-04T14:04:50Z</time>
      </trkpt>
      <trkpt lat="44.76797" lon="6.99283">
        <ele>1785</ele>
        <time>2022-01-04T14:04:51Z</time>
      </trkpt>
      <trkpt lat="44.76794" lon="6.9928">
        <ele>1784</ele>
        <time>2022-01-04T14:04:52Z</time>
      </trkpt>
      <trkpt lat="44.76796" lon="6.99276">
        <ele>1783</ele>
        <time>2022-01-04T14:04:53Z</time>
      </trkpt>
      <trkpt lat="44.76797" lon="6.99272">
        <ele>1783</ele>
        <time>2022-01-04T14:04:54Z</time>
      </trkpt>
      <trkpt lat="44.76797" lon="6.99268">
        <ele>1782</ele>
        <time>2022-01-04T14:04:55Z</time>
      </trkpt>
      <trkpt lat="44.76797" lon="6.99266">
        <ele>1781</ele>
        <time>2022-01-04T14:04:56Z</time>
      </trkpt>
      <trkpt lat="44.76798" lon="6.99262">
        <ele>1780</ele>
        <time>2022-01-04T14:05:01Z</time>
      </trkpt>
      <trkpt lat="44.768" lon="6.99259">
        <ele>1780</ele>
        <time>2022-01-04T14:05:02Z</time>
      </trkpt>
      <trkpt lat="44.76802" lon="6.99257">
        <ele>1779</ele>
        <time>2022-01-04T14:05:03Z</time>
      </trkpt>
      <trkpt lat="44.76802" lon="6.99253">
        <ele>1778</ele>
        <time>2022-01-04T14:05:04Z</time>
      </trkpt>
      <trkpt lat="44.768" lon="6.99252">
        <ele>1777</ele>
        <time>2022-01-04T14:05:05Z</time>
      </trkpt>
      <trkpt lat="44.76798" lon="6.99251">
        <ele>1777</ele>
        <time>2022-01-04T14:05:06Z</time>
      </trkpt>
      <trkpt lat="44.76796" lon="6.9925">
        <ele>1776</ele>
        <time>2022-01-04T14:05:08Z</time>
      </trkpt>
      <trkpt lat="44.76789" lon="6.99251">
        <ele>1775</ele>
        <time>2022-01-04T14:05:10Z</time>
      </trkpt>
      <trkpt lat="44.76781" lon="6.99249">
        <ele>1773</ele>
        <time>2022-01-04T14:05:12Z</time>
      </trkpt>
      <trkpt lat="44.76776" lon="6.9925">
        <ele>1772</ele>
        <time>2022-01-04T14:05:13Z</time>
      </trkpt>
      <trkpt lat="44.76752" lon="6.99253">
        <ele>1767</ele>
        <time>2022-01-04T14:05:17Z</time>
      </trkpt>
      <trkpt lat="44.76748" lon="6.99252">
        <ele>1766</ele>
        <time>2022-01-04T14:05:18Z</time>
      </trkpt>
      <trkpt lat="44.76746" lon="6.99248">
        <ele>1764</ele>
        <time>2022-01-04T14:05:19Z</time>
      </trkpt>
      <trkpt lat="44.76746" lon="6.99244">
        <ele>1763</ele>
        <time>2022-01-04T14:05:20Z</time>
      </trkpt>
      <trkpt lat="44.76748" lon="6.9924">
        <ele>1761</ele>
        <time>2022-01-04T14:05:21Z</time>
      </trkpt>
      <trkpt lat="44.76749" lon="6.99235">
        <ele>1759</ele>
        <time>2022-01-04T14:05:22Z</time>
      </trkpt>
      <trkpt lat="44.76748" lon="6.99232">
        <ele>1758</ele>
        <time>2022-01-04T14:05:23Z</time>
      </trkpt>
      <trkpt lat="44.76746" lon="6.99228">
        <ele>1757</ele>
        <time>2022-01-04T14:05:24Z</time>
      </trkpt>
      <trkpt lat="44.76743" lon="6.99222">
        <ele>1755</ele>
        <time>2022-01-04T14:05:26Z</time>
      </trkpt>
      <trkpt lat="44.76744" lon="6.99219">
        <ele>1754</ele>
        <time>2022-01-04T14:05:28Z</time>
      </trkpt>
      <trkpt lat="44.76738" lon="6.99218">
        <ele>1752</ele>
        <time>2022-01-04T14:05:31Z</time>
      </trkpt>
      <trkpt lat="44.76734" lon="6.99216">
        <ele>1751</ele>
        <time>2022-01-04T14:05:32Z</time>
      </trkpt>
      <trkpt lat="44.76734" lon="6.99214">
        <ele>1751</ele>
        <time>2022-01-04T14:05:33Z</time>
      </trkpt>
      <trkpt lat="44.76737" lon="6.99208">
        <ele>1748</ele>
        <time>2022-01-04T14:05:36Z</time>
      </trkpt>
      <trkpt lat="44.7674" lon="6.99205">
        <ele>1748</ele>
        <time>2022-01-04T14:05:37Z</time>
      </trkpt>
      <trkpt lat="44.76742" lon="6.99201">
        <ele>1747</ele>
        <time>2022-01-04T14:05:38Z</time>
      </trkpt>
      <trkpt lat="44.76743" lon="6.99196">
        <ele>1746</ele>
        <time>2022-01-04T14:05:39Z</time>
      </trkpt>
      <trkpt lat="44.76742" lon="6.99193">
        <ele>1745</ele>
        <time>2022-01-04T14:05:40Z</time>
      </trkpt>
      <trkpt lat="44.7674" lon="6.99193">
        <ele>1745</ele>
        <time>2022-01-04T14:05:41Z</time>
      </trkpt>
      <trkpt lat="44.76734" lon="6.99194">
        <ele>1743</ele>
        <time>2022-01-04T14:05:44Z</time>
      </trkpt>
      <trkpt lat="44.76733" lon="6.99194">
        <ele>1742</ele>
        <time>2022-01-04T14:05:45Z</time>
      </trkpt>
      <trkpt lat="44.76737" lon="6.99188">
        <ele>1741</ele>
        <time>2022-01-04T14:05:48Z</time>
      </trkpt>
      <trkpt lat="44.76739" lon="6.99184">
        <ele>1740</ele>
        <time>2022-01-04T14:05:49Z</time>
      </trkpt>
      <trkpt lat="44.7674" lon="6.9918">
        <ele>1739</ele>
        <time>2022-01-04T14:05:50Z</time>
      </trkpt>
      <trkpt lat="44.76737" lon="6.99178">
        <ele>1738</ele>
        <time>2022-01-04T14:05:51Z</time>
      </trkpt>
      <trkpt lat="44.76731" lon="6.99179">
        <ele>1737</ele>
        <time>2022-01-04T14:05:53Z</time>
      </trkpt>
      <trkpt lat="44.76725" lon="6.99179">
        <ele>1736</ele>
        <time>2022-01-04T14:05:55Z</time>
      </trkpt>
      <trkpt lat="44.76721" lon="6.99178">
        <ele>1735</ele>
        <time>2022-01-04T14:05:56Z</time>
      </trkpt>
      <trkpt lat="44.76718" lon="6.99174">
        <ele>1735</ele>
        <time>2022-01-04T14:05:57Z</time>
      </trkpt>
      <trkpt lat="44.76722" lon="6.99162">
        <ele>1733</ele>
        <time>2022-01-04T14:06:00Z</time>
      </trkpt>
      <trkpt lat="44.76722" lon="6.99157">
        <ele>1731</ele>
        <time>2022-01-04T14:06:01Z</time>
      </trkpt>
      <trkpt lat="44.76721" lon="6.99152">
        <ele>1730</ele>
        <time>2022-01-04T14:06:02Z</time>
      </trkpt>
      <trkpt lat="44.76718" lon="6.9915">
        <ele>1729</ele>
        <time>2022-01-04T14:06:03Z</time>
      </trkpt>
      <trkpt lat="44.76715" lon="6.9915">
        <ele>1728</ele>
        <time>2022-01-04T14:06:04Z</time>
      </trkpt>
      <trkpt lat="44.76712" lon="6.99149">
        <ele>1728</ele>
        <time>2022-01-04T14:06:05Z</time>
      </trkpt>
      <trkpt lat="44.76703" lon="6.99144">
        <ele>1727</ele>
        <time>2022-01-04T14:06:08Z</time>
      </trkpt>
      <trkpt lat="44.76701" lon="6.99142">
        <ele>1726</ele>
        <time>2022-01-04T14:06:09Z</time>
      </trkpt>
      <trkpt lat="44.76701" lon="6.9914">
        <ele>1726</ele>
        <time>2022-01-04T14:06:10Z</time>
      </trkpt>
      <trkpt lat="44.76703" lon="6.99138">
        <ele>1725</ele>
        <time>2022-01-04T14:06:11Z</time>
      </trkpt>
      <trkpt lat="44.76704" lon="6.99134">
        <ele>1724</ele>
        <time>2022-01-04T14:06:12Z</time>
      </trkpt>
      <trkpt lat="44.76703" lon="6.99131">
        <ele>1723</ele>
        <time>2022-01-04T14:06:13Z</time>
      </trkpt>
      <trkpt lat="44.76703" lon="6.99122">
        <ele>1721</ele>
        <time>2022-01-04T14:06:15Z</time>
      </trkpt>
      <trkpt lat="44.76702" lon="6.99117">
        <ele>1720</ele>
        <time>2022-01-04T14:06:16Z</time>
      </trkpt>
      <trkpt lat="44.76699" lon="6.99115">
        <ele>1719</ele>
        <time>2022-01-04T14:06:17Z</time>
      </trkpt>
      <trkpt lat="44.76686" lon="6.99113">
        <ele>1716</ele>
        <time>2022-01-04T14:06:26Z</time>
      </trkpt>
      <trkpt lat="44.76685" lon="6.99111">
        <ele>1715</ele>
        <time>2022-01-04T14:06:28Z</time>
      </trkpt>
      <trkpt lat="44.76681" lon="6.99106">
        <ele>1714</ele>
        <time>2022-01-04T14:06:30Z</time>
      </trkpt>
      <trkpt lat="44.76679" lon="6.99102">
        <ele>1714</ele>
        <time>2022-01-04T14:06:31Z</time>
      </trkpt>
      <trkpt lat="44.76676" lon="6.99099">
        <ele>1712</ele>
        <time>2022-01-04T14:06:32Z</time>
      </trkpt>
      <trkpt lat="44.76672" lon="6.99098">
        <ele>1711</ele>
        <time>2022-01-04T14:06:33Z</time>
      </trkpt>
      <trkpt lat="44.7667" lon="6.99097">
        <ele>1711</ele>
        <time>2022-01-04T14:06:34Z</time>
      </trkpt>
      <trkpt lat="44.76669" lon="6.99096">
        <ele>1709</ele>
        <time>2022-01-04T14:06:35Z</time>
      </trkpt>
      <trkpt lat="44.7667" lon="6.99094">
        <ele>1709</ele>
        <time>2022-01-04T14:06:36Z</time>
      </trkpt>
      <trkpt lat="44.76668" lon="6.99093">
        <ele>1707</ele>
        <time>2022-01-04T14:06:39Z</time>
      </trkpt>
      <trkpt lat="44.76666" lon="6.99094">
        <ele>1705</ele>
        <time>2022-01-04T14:06:40Z</time>
      </trkpt>
      <trkpt lat="44.76665" lon="6.99093">
        <ele>1704</ele>
        <time>2022-01-04T14:06:42Z</time>
      </trkpt>
      <trkpt lat="44.76663" lon="6.99089">
        <ele>1701</ele>
        <time>2022-01-04T14:06:44Z</time>
      </trkpt>
      <trkpt lat="44.76663" lon="6.99086">
        <ele>1700</ele>
        <time>2022-01-04T14:06:46Z</time>
      </trkpt>
      <trkpt lat="44.76664" lon="6.99084">
        <ele>1699</ele>
        <time>2022-01-04T14:06:47Z</time>
      </trkpt>
      <trkpt lat="44.76664" lon="6.99081">
        <ele>1698</ele>
        <time>2022-01-04T14:06:48Z</time>
      </trkpt>
      <trkpt lat="44.76664" lon="6.99075">
        <ele>1697</ele>
        <time>2022-01-04T14:06:50Z</time>
      </trkpt>
      <trkpt lat="44.76666" lon="6.99056">
        <ele>1695</ele>
        <time>2022-01-04T14:07:06Z</time>
      </trkpt>
      <trkpt lat="44.76674" lon="6.99036">
        <ele>1694</ele>
        <time>2022-01-04T14:07:10Z</time>
      </trkpt>
      <trkpt lat="44.76675" lon="6.99032">
        <ele>1693</ele>
        <time>2022-01-04T14:07:11Z</time>
      </trkpt>
      <trkpt lat="44.76674" lon="6.99025">
        <ele>1691</ele>
        <time>2022-01-04T14:07:12Z</time>
      </trkpt>
      <trkpt lat="44.76673" lon="6.99017">
        <ele>1689</ele>
        <time>2022-01-04T14:07:13Z</time>
      </trkpt>
      <trkpt lat="44.76669" lon="6.99008">
        <ele>1686</ele>
        <time>2022-01-04T14:07:14Z</time>
      </trkpt>
      <trkpt lat="44.76663" lon="6.98991">
        <ele>1683</ele>
        <time>2022-01-04T14:07:16Z</time>
      </trkpt>
      <trkpt lat="44.7666" lon="6.98984">
        <ele>1680</ele>
        <time>2022-01-04T14:07:17Z</time>
      </trkpt>
      <trkpt lat="44.76655" lon="6.98979">
        <ele>1679</ele>
        <time>2022-01-04T14:07:18Z</time>
      </trkpt>
      <trkpt lat="44.7665" lon="6.98974">
        <ele>1677</ele>
        <time>2022-01-04T14:07:19Z</time>
      </trkpt>
      <trkpt lat="44.76646" lon="6.98968">
        <ele>1675</ele>
        <time>2022-01-04T14:07:20Z</time>
      </trkpt>
      <trkpt lat="44.76638" lon="6.98956">
        <ele>1672</ele>
        <time>2022-01-04T14:07:22Z</time>
      </trkpt>
      <trkpt lat="44.76633" lon="6.9895">
        <ele>1671</ele>
        <time>2022-01-04T14:07:23Z</time>
      </trkpt>
      <trkpt lat="44.7663" lon="6.98941">
        <ele>1670</ele>
        <time>2022-01-04T14:07:24Z</time>
      </trkpt>
      <trkpt lat="44.76627" lon="6.98933">
        <ele>1669</ele>
        <time>2022-01-04T14:07:25Z</time>
      </trkpt>
      <trkpt lat="44.76623" lon="6.98928">
        <ele>1668</ele>
        <time>2022-01-04T14:07:26Z</time>
      </trkpt>
      <trkpt lat="44.76614" lon="6.98915">
        <ele>1667</ele>
        <time>2022-01-04T14:07:28Z</time>
      </trkpt>
      <trkpt lat="44.76609" lon="6.98909">
        <ele>1666</ele>
        <time>2022-01-04T14:07:29Z</time>
      </trkpt>
      <trkpt lat="44.76601" lon="6.98906">
        <ele>1664</ele>
        <time>2022-01-04T14:07:31Z</time>
      </trkpt>
      <trkpt lat="44.76581" lon="6.98865">
        <ele>1660</ele>
        <time>2022-01-04T14:07:38Z</time>
      </trkpt>
      <trkpt lat="44.76576" lon="6.98857">
        <ele>1659</ele>
        <time>2022-01-04T14:07:39Z</time>
      </trkpt>
      <trkpt lat="44.76563" lon="6.98847">
        <ele>1657</ele>
        <time>2022-01-04T14:07:41Z</time>
      </trkpt>
      <trkpt lat="44.76552" lon="6.98835">
        <ele>1655</ele>
        <time>2022-01-04T14:07:43Z</time>
      </trkpt>
      <trkpt lat="44.76546" lon="6.98831">
        <ele>1654</ele>
        <time>2022-01-04T14:07:44Z</time>
      </trkpt>
      <trkpt lat="44.7653" lon="6.98814">
        <ele>1650</ele>
        <time>2022-01-04T14:07:47Z</time>
      </trkpt>
      <trkpt lat="44.76512" lon="6.98811">
        <ele>1648</ele>
        <time>2022-01-04T14:07:50Z</time>
      </trkpt>
      <trkpt lat="44.76501" lon="6.98804">
        <ele>1647</ele>
        <time>2022-01-04T14:07:52Z</time>
      </trkpt>
      <trkpt lat="44.76495" lon="6.98801">
        <ele>1646</ele>
        <time>2022-01-04T14:07:53Z</time>
      </trkpt>
      <trkpt lat="44.7649" lon="6.98798">
        <ele>1646</ele>
        <time>2022-01-04T14:07:54Z</time>
      </trkpt>
      <trkpt lat="44.76482" lon="6.98785">
        <ele>1644</ele>
        <time>2022-01-04T14:07:56Z</time>
      </trkpt>
      <trkpt lat="44.76458" lon="6.98767">
        <ele>1641</ele>
        <time>2022-01-04T14:08:00Z</time>
      </trkpt>
      <trkpt lat="44.76454" lon="6.98759">
        <ele>1640</ele>
        <time>2022-01-04T14:08:01Z</time>
      </trkpt>
      <trkpt lat="44.76437" lon="6.98739">
        <ele>1637</ele>
        <time>2022-01-04T14:08:04Z</time>
      </trkpt>
      <trkpt lat="44.76422" lon="6.98706">
        <ele>1634</ele>
        <time>2022-01-04T14:08:08Z</time>
      </trkpt>
      <trkpt lat="44.7642" lon="6.987">
        <ele>1633</ele>
        <time>2022-01-04T14:08:09Z</time>
      </trkpt>
      <trkpt lat="44.76423" lon="6.98678">
        <ele>1630</ele>
        <time>2022-01-04T14:08:13Z</time>
      </trkpt>
      <trkpt lat="44.76426" lon="6.98669">
        <ele>1629</ele>
        <time>2022-01-04T14:08:15Z</time>
      </trkpt>
      <trkpt lat="44.76434" lon="6.98656">
        <ele>1628</ele>
        <time>2022-01-04T14:08:20Z</time>
      </trkpt>
      <trkpt lat="44.76438" lon="6.98648">
        <ele>1628</ele>
        <time>2022-01-04T14:08:24Z</time>
      </trkpt>
      <trkpt lat="44.7644" lon="6.98644">
        <ele>1628</ele>
        <time>2022-01-04T14:08:26Z</time>
      </trkpt>
      <trkpt lat="44.76448" lon="6.98626">
        <ele>1628</ele>
        <time>2022-01-04T14:08:34Z</time>
      </trkpt>
      <trkpt lat="44.76475" lon="6.98576">
        <ele>1631</ele>
        <time>2022-01-04T14:09:00Z</time>
      </trkpt>
      <trkpt lat="44.76476" lon="6.98574">
        <ele>1630</ele>
        <time>2022-01-04T14:09:01Z</time>
      </trkpt>
      <trkpt lat="44.76482" lon="6.98557">
        <ele>1629</ele>
        <time>2022-01-04T14:09:09Z</time>
      </trkpt>
      <trkpt lat="44.7649" lon="6.98544">
        <ele>1629</ele>
        <time>2022-01-04T14:09:16Z</time>
      </trkpt>
      <trkpt lat="44.76506" lon="6.98512">
        <ele>1627</ele>
        <time>2022-01-04T14:09:33Z</time>
      </trkpt>
      <trkpt lat="44.76521" lon="6.98483">
        <ele>1628</ele>
        <time>2022-01-04T14:09:53Z</time>
      </trkpt>
      <trkpt lat="44.76531" lon="6.98475">
        <ele>1627</ele>
        <time>2022-01-04T14:10:00Z</time>
      </trkpt>
      <trkpt lat="44.76551" lon="6.98447">
        <ele>1624</ele>
        <time>2022-01-04T14:10:09Z</time>
      </trkpt>
      <trkpt lat="44.76553" lon="6.98442">
        <ele>1624</ele>
        <time>2022-01-04T14:10:11Z</time>
      </trkpt>
      <trkpt lat="44.76558" lon="6.98438">
        <ele>1623</ele>
        <time>2022-01-04T14:10:14Z</time>
      </trkpt>
      <trkpt lat="44.7656" lon="6.98437">
        <ele>1622</ele>
        <time>2022-01-04T14:10:15Z</time>
      </trkpt>
    </trkseg>
  </trk>
</gpx>